# Wetter Temperatur Luftdruck Luftfeuchtigkeit Sichtweite Windgeschwindigkeit Windrichtung Zeit
1 Clear -2 1020 74 10000 3 240 01:57 05.04.2020
2 Clear -2 1020 74 10000 3 250 01:39 05.04.2020
3 Clear 0 1020 83 10000 3 280 00:52 05.04.2020
4 Clear 0 1020 83 10000 3 280 00:52 05.04.2020
5 Clear 1 1020 59 10000 4 280 00:23 05.04.2020
6 Clear 1 1020 59 10000 4 280 23:58 04.04.2020
7 Clear 1 1020 59 10000 4 280 23:39 04.04.2020
8 Clear 1 1020 59 10000 4 280 23:21 04.04.2020
9 Clear 1 1019 59 10000 4 280 22:56 04.04.2020
10 Clear 0 1019 63 10000 3 250 22:38 04.04.2020
11 Clear 0 1019 63 10000 3 250 22:19 04.04.2020
12 Clear 1 1019 55 10000 3 280 21:57 04.04.2020
13 Clear 1 1019 79 10000 3 260 21:38 04.04.2020
14 Clouds 1 1019 70 10000 3 260 21:19 04.04.2020
15 Clouds 2 1018 55 10000 3 270 20:54 04.04.2020
16 Clouds 3 1018 51 10000 3 260 20:36 04.04.2020
17 Clouds 3 1018 51 10000 3 260 20:18 04.04.2020
18 Clouds 4 1017 41 10000 3 290 19:41 04.04.2020
19 Clouds 5 1017 35 10000 4 300 19:21 04.04.2020
20 Clouds 5 1017 35 10000 4 300 18:59 04.04.2020
21 Clouds 5 1016 35 10000 5 310 18:40 04.04.2020
22 Clouds 6 1016 35 10000 5 310 18:21 04.04.2020
23 Clouds 6 1016 35 10000 5 310 18:21 04.04.2020
24 Clouds 6 1016 28 10000 6 310 17:59 04.04.2020
25 Clouds 7 1015 24 10000 8 300 17:39 04.04.2020
26 Clouds 7 1015 24 10000 8 300 17:39 04.04.2020
27 Clouds 7 1015 24 10000 8 300 17:19 04.04.2020
28 Clouds 7 1015 22 10000 6 280 16:46 04.04.2020
29 Clouds 7 1014 24 10000 6 290 16:27 04.04.2020
30 Clouds 7 1014 20 10000 6 310 15:59 04.04.2020
31 Clouds 7 1014 19 10000 8 270 15:39 04.04.2020
32 Clouds 7 1014 19 10000 8 270 15:20 04.04.2020
33 Rain 7 1013 48 10000 6 280 14:56 04.04.2020
34 Rain 7 1013 36 10000 6 230 14:37 04.04.2020
35 Clouds 6 1013 36 10000 6 230 14:18 04.04.2020
36 Clouds 6 1013 41 10000 7 250 13:54 04.04.2020
37 Snow 6 1013 52 10000 6 260 13:36 04.04.2020
38 Snow 6 1013 52 10000 6 260 13:18 04.04.2020
39 Clouds 5 1012 45 10000 6 230 12:42 04.04.2020
40 Clouds 5 1012 45 10000 6 230 12:23 04.04.2020
41 Clouds 5 1012 39 10000 7 250 11:54 04.04.2020
42 Clouds 5 1012 39 10000 6 260 11:36 04.04.2020
43 Clouds 5 1012 39 10000 6 260 11:18 04.04.2020
44 Clouds 5 1011 39 10000 5 290 10:55 04.04.2020
45 Clouds 6 1011 39 10000 6 280 10:37 04.04.2020
46 Clouds 7 1011 38 10000 5 290 10:18 04.04.2020
47 Clouds 7 1011 38 10000 5 290 09:42 04.04.2020
48 Clear 6 1011 38 10000 6 300 09:24 04.04.2020
49 Clear 6 1010 35 10000 6 300 08:56 04.04.2020
50 Clear 5 1010 41 10000 6 280 08:37 04.04.2020
51 Clear 5 1010 41 10000 6 280 08:19 04.04.2020
52 Clear 4 1009 64 10000 5 260 07:40 04.04.2020
53 Clear 4 1009 64 10000 5 260 07:22 04.04.2020
54 Clear 3 1008 80 10000 5 250 06:40 04.04.2020
55 Clear 1 1008 80 10000 3 250 05:54 04.04.2020
56 Clear 2 1008 80 10000 4 260 05:33 04.04.2020
57 Clear 2 1007 80 10000 4 250 04:40 04.04.2020
58 Clear 3 1007 80 10000 4 250 04:20 04.04.2020
59 Clear 3 1006 80 10000 5 250 03:45 04.04.2020
60 Clouds 4 1006 74 10000 5 230 02:49 04.04.2020
61 Clouds 4 1005 69 10000 4 240 02:30 04.04.2020
62 Clouds 4 1005 69 10000 5 220 01:50 04.04.2020
63 Clouds 5 1005 69 10000 5 240 01:22 04.04.2020
64 Clouds 5 1005 69 10000 5 230 00:47 04.04.2020
65 Clouds 6 1004 65 10000 5 220 00:26 04.04.2020
66 Clouds 6 1004 52 10000 7 230 23:39 03.04.2020
67 Clouds 6 1004 52 10000 7 230 23:20 03.04.2020
68 Clouds 7 1004 52 10000 7 250 22:56 03.04.2020
69 Clouds 7 1004 56 10000 6 260 22:37 03.04.2020
70 Clouds 7 1004 56 10000 6 260 22:18 03.04.2020
71 Rain 8 1003 48 10000 10 260 21:43 03.04.2020
72 Clouds 8 1003 49 10000 7 270 21:22 03.04.2020
73 Clouds 8 1002 42 10000 8 270 20:56 03.04.2020
74 Clouds 8 1002 34 10000 4 220 20:37 03.04.2020
75 Clouds 8 1002 34 10000 4 220 20:19 03.04.2020
76 Clouds 8 1001 34 10000 5 200 19:56 03.04.2020
77 Clouds 9 1001 31 10000 6 200 19:38 03.04.2020
78 Clouds 9 1001 31 10000 6 200 19:19 03.04.2020
79 Clouds 9 1001 29 10000 4 200 18:58 03.04.2020
80 Clouds 9 1001 29 10000 6 210 18:40 03.04.2020
81 Clouds 9 1001 29 10000 6 210 18:22 03.04.2020
82 Clouds 10 1000 29 10000 7 210 17:43 03.04.2020
83 Clouds 10 1000 29 10000 7 210 17:21 03.04.2020
84 Clouds 10 1000 29 10000 8 210 16:58 03.04.2020
85 Clouds 11 1000 29 10000 7 200 16:40 03.04.2020
86 Clouds 11 1000 29 10000 7 200 16:21 03.04.2020
87 Clouds 11 1000 29 10000 8 200 15:58 03.04.2020
88 Clouds 10 1001 29 10000 8 210 15:38 03.04.2020
89 Clouds 10 1001 29 10000 8 210 15:19 03.04.2020
90 Clouds 10 983 35 0 4.92 157 14:41 03.04.2020
91 Clouds 10 1001 34 10000 8 210 14:22 03.04.2020
92 Clouds 9 1001 34 10000 8 210 13:59 03.04.2020
93 Clouds 9 1001 34 10000 8 210 13:40 03.04.2020
94 Clouds 9 1001 34 10000 8 210 13:22 03.04.2020
95 Clouds 9 1002 39 10000 10 220 12:43 03.04.2020
96 Clouds 9 1002 39 10000 10 220 12:20 03.04.2020
97 Clouds 9 1002 39 10000 9 220 11:57 03.04.2020
98 Clouds 9 1002 39 10000 10 220 11:39 03.04.2020
99 Clouds 8 1002 39 10000 10 220 11:20 03.04.2020
100 Clouds 8 1002 42 10000 9 210 10:59 03.04.2020
101 Clouds 8 1002 52 10000 9 200 10:39 03.04.2020
102 Clouds 6 1002 60 10000 7 200 10:20 03.04.2020
103 Clouds 7 1002 60 10000 7 200 09:59 03.04.2020
104 Clouds 6 1003 65 10000 6 200 09:40 03.04.2020
105 Clouds 5 1003 65 10000 6 200 09:21 03.04.2020
106 Clouds 5 1003 65 10000 6 200 09:21 03.04.2020
107 Clouds 5 1003 65 10000 6 190 08:56 03.04.2020
108 Clouds 4 1003 65 10000 5 190 08:37 03.04.2020
109 Clouds 4 1003 69 10000 6 200 08:19 03.04.2020
110 Clouds 4 1003 69 10000 6 200 07:46 03.04.2020
111 Clouds 4 1003 69 10000 5 200 07:28 03.04.2020
112 Clouds 4 1003 69 10000 6 200 06:40 03.04.2020
113 Clouds 3 1003 69 10000 6 200 06:22 03.04.2020
114 Clouds 3 1003 69 10000 5 200 05:39 03.04.2020
115 Clouds 3 1003 88 10000 5 200 03:42 03.04.2020
116 Clouds 4 1003 86 10000 5 220 02:55 03.04.2020
117 Clouds 4 1003 86 10000 5 220 02:18 03.04.2020
118 Clouds 4 1003 86 10000 5 210 01:20 03.04.2020
119 Clouds 4 1003 86 10000 5 220 00:34 03.04.2020
120 Clouds 4 1003 93 10000 5 220 23:58 02.04.2020
121 Clouds 4 1003 93 10000 5 220 23:39 02.04.2020
122 Clouds 4 1003 93 10000 6 230 23:21 02.04.2020
123 Clouds 3 1003 93 10000 5 220 22:57 02.04.2020
124 Clouds 3 1003 93 10000 6 230 22:37 02.04.2020
125 Clouds 3 1003 93 10000 6 230 22:18 02.04.2020
126 Drizzle 3 1003 93 7000 7 230 21:39 02.04.2020
127 Drizzle 3 1003 93 7000 7 230 21:19 02.04.2020
128 Rain 3 1003 93 10000 6 230 20:58 02.04.2020
129 Clouds 3 1002 86 10000 7 220 20:40 02.04.2020
130 Clouds 4 1002 86 10000 7 220 20:21 02.04.2020
131 Rain 4 1002 86 10000 6 220 19:44 02.04.2020
132 Rain 4 1002 86 10000 6 220 19:21 02.04.2020
133 Rain 3 1002 86 8000 6 220 18:58 02.04.2020
134 Rain 4 1002 80 9000 5 220 18:39 02.04.2020
135 Snow 4 1002 80 10000 4 210 18:20 02.04.2020
136 Snow 4 1002 80 10000 4 210 17:56 02.04.2020
137 Snow 4 1002 80 10000 6 230 17:38 02.04.2020
138 Snow 4 1002 80 10000 6 230 17:18 02.04.2020
139 Rain 4 1002 80 10000 7 230 16:55 02.04.2020
140 Rain 4 1002 86 10000 7 230 16:37 02.04.2020
141 Rain 4 1002 86 10000 7 230 16:18 02.04.2020
142 Clouds 4 1002 93 8000 8 240 15:44 02.04.2020
143 Rain 4 1002 80 9000 7 220 15:21 02.04.2020
144 Rain 5 1001 80 10000 7 220 14:58 02.04.2020
145 Rain 4 1002 80 10000 9 240 14:40 02.04.2020
146 Rain 4 1002 80 10000 9 240 14:19 02.04.2020
147 Rain 5 1001 76 10000 9 230 13:57 02.04.2020
148 Rain 5 1001 76 10000 7 230 13:38 02.04.2020
149 Rain 5 1001 76 10000 7 230 13:38 02.04.2020
150 Clouds 5 1001 65 10000 7 230 13:20 02.04.2020
151 Clouds 5 1001 65 10000 7 230 12:55 02.04.2020
152 Clouds 4 1001 65 10000 7 230 12:55 02.04.2020
153 Clouds 4 1001 65 10000 8 240 12:36 02.04.2020
154 Clouds 4 1001 65 10000 9 240 12:18 02.04.2020
155 Clouds 4 1001 65 10000 9 240 11:55 02.04.2020
156 Clouds 4 1001 65 10000 9 240 11:55 02.04.2020
157 Clouds 3 1001 64 10000 8 250 11:36 02.04.2020
158 Clouds 4 1001 64 10000 8 250 11:18 02.04.2020
159 Clouds 4 1001 64 10000 8 240 10:54 02.04.2020
160 Clouds 3 1001 74 10000 7 240 10:36 02.04.2020
161 Clouds 3 1001 74 10000 7 240 10:18 02.04.2020
162 Clouds 3 1001 74 10000 8 250 09:43 02.04.2020
163 Clouds 3 1001 74 10000 8 250 09:24 02.04.2020
164 Clouds 3 1001 74 10000 6 250 08:58 02.04.2020
165 Clouds 3 1001 74 10000 6 250 08:40 02.04.2020
166 Clouds 2 1001 80 10000 7 240 08:20 02.04.2020
167 Clouds 2 1001 80 10000 7 240 07:43 02.04.2020
168 Clouds 2 1001 80 10000 6 240 07:20 02.04.2020
169 Clouds 2 1001 86 10000 6 240 06:57 02.04.2020
170 Clouds 2 1001 86 10000 7 240 06:21 02.04.2020
171 Clouds 1 1001 86 10000 7 240 05:42 02.04.2020
172 Clouds 2 1000 86 10000 8 230 03:24 02.04.2020
173 Clouds 1 1001 86 10000 7 240 01:31 02.04.2020
174 Clouds 1 1001 86 10000 6 240 00:46 02.04.2020
175 Clouds 1 1001 86 10000 6 250 00:26 02.04.2020
176 Clouds 1 1001 86 10000 6 250 23:41 01.04.2020
177 Clouds 1 1001 92 10000 7 250 23:20 01.04.2020
178 Clouds 1 1001 92 10000 7 260 22:59 01.04.2020
179 Snow 1 1001 92 10000 7 240 22:39 01.04.2020
180 Snow 1 1001 92 10000 7 240 22:21 01.04.2020
181 Snow 1 1001 92 10000 7 240 21:42 01.04.2020
182 Snow 1 1001 92 10000 7 240 21:22 01.04.2020
183 Snow 1 1001 92 10000 7 240 21:22 01.04.2020
184 -273 0 0 0 0 0 21:21 01.04.2020
185 Snow 1 1001 95 10000 7 240 21:21 01.04.2020
186 Snow 1 1001 92 9000 7 250 20:57 01.04.2020
187 Snow 1 1001 92 9000 7 240 20:39 01.04.2020
188 Snow 1 1001 92 9000 7 240 20:21 01.04.2020
189 Snow 1 1001 92 10000 8 240 19:59 01.04.2020
190 Snow 1 1001 92 8000 7 240 19:41 01.04.2020
191 Snow 1 1002 92 3100 7 230 19:20 01.04.2020
192 Snow 1 1002 92 2500 6 230 18:44 01.04.2020
193 Snow 2 1002 84 2500 6 230 18:26 01.04.2020
194 Clouds 2 1003 64 10000 6 260 17:58 01.04.2020
195 Snow 2 1002 80 8000 7 250 17:38 01.04.2020
196 Snow 2 1002 80 8000 7 250 17:20 01.04.2020
197 Snow 2 1002 69 9000 12 250 16:59 01.04.2020
198 Snow 3 1002 59 10000 9 240 16:39 01.04.2020
199 Snow 3 1002 59 10000 9 240 16:21 01.04.2020
200 Snow 3 1002 59 9000 10 240 15:58 01.04.2020
201 Snow 3 1002 55 10000 9 240 15:38 01.04.2020
202 Snow 3 1002 55 10000 9 240 15:20 01.04.2020
203 Clouds 3 1002 51 10000 8 240 14:56 01.04.2020
204 Clouds 3 1002 51 10000 9 240 14:38 01.04.2020
205 Clouds 3 1002 51 10000 9 240 14:19 01.04.2020
206 Clouds 3 1002 47 10000 10 240 13:57 01.04.2020
207 Clouds 3 1003 47 10000 10 250 13:37 01.04.2020
208 Clouds 3 1003 47 10000 10 250 13:18 01.04.2020
209 Clouds 2 1003 43 10000 8 240 12:43 01.04.2020
210 Clouds 2 1003 43 10000 8 240 12:24 01.04.2020
211 Clouds 2 1003 37 10000 8 240 11:59 01.04.2020
212 Clouds 2 1003 37 10000 8 240 11:40 01.04.2020
213 Clouds 2 1004 37 10000 9 240 11:21 01.04.2020
214 Clouds 1 1004 40 10000 8 230 10:56 01.04.2020
215 Clouds 0 1005 82 10000 7 220 10:37 01.04.2020
216 Clouds 0 1005 82 10000 7 230 10:18 01.04.2020
217 Clouds 0 1005 82 10000 7 230 09:40 01.04.2020
218 Clouds -1 1006 33 10000 7 230 09:22 01.04.2020
219 Clouds -2 1006 36 10000 6 230 08:59 01.04.2020
220 Clouds -2 1006 36 10000 6 230 08:40 01.04.2020
221 Clouds -2 1006 36 10000 6 230 08:40 01.04.2020
222 Clouds -3 1007 38 10000 6 240 08:18 01.04.2020
223 Clouds -4 1007 41 10000 6 240 07:42 01.04.2020
224 Clouds -5 1008 49 10000 5 240 07:20 01.04.2020
225 Clouds -6 1008 57 10000 4 240 06:47 01.04.2020
226 Clouds -8 1008 57 10000 4 240 06:23 01.04.2020
227 Clouds -9 1008 57 10000 3 220 05:55 01.04.2020
228 Clouds -9 1009 61 10000 3 240 04:30 01.04.2020
229 Clouds -9 1010 61 10000 3 260 03:28 01.04.2020
230 Clouds -7 1010 53 10000 3 280 02:49 01.04.2020
231 Clouds -6 1010 53 10000 4 270 01:56 01.04.2020
232 Clouds -6 1011 57 10000 3 270 01:36 01.04.2020
233 Clouds -6 1011 53 10000 3 270 01:18 01.04.2020
234 Clouds -6 1011 49 10000 4 280 00:43 01.04.2020
235 Clouds -6 1011 49 10000 4 280 00:18 01.04.2020
236 Clouds -6 1011 49 10000 3 280 23:41 31.03.2020
237 Clouds -5 1011 45 10000 3 280 23:23 31.03.2020
238 Clouds -5 1011 45 10000 3 280 23:23 31.03.2020
239 Clouds -5 1012 45 10000 3 290 22:57 31.03.2020
240 Clouds -5 1012 45 10000 3 290 22:36 31.03.2020
241 Clouds -5 1012 45 10000 2 300 22:18 31.03.2020
242 Clouds -5 1012 38 10000 3 300 21:55 31.03.2020
243 Clouds -5 1012 38 10000 3 300 21:55 31.03.2020
244 Clouds -5 1012 38 10000 3 300 21:37 31.03.2020
245 Clouds -4 1012 35 10000 3 300 21:19 31.03.2020
246 Clouds -4 1012 35 10000 3 300 20:54 31.03.2020
247 Clouds -4 1012 35 10000 3 300 20:36 31.03.2020
248 Clouds -4 1012 35 10000 3 300 20:36 31.03.2020
249 Clouds -3 1012 42 10000 3 280 20:18 31.03.2020
250 Clouds -3 1012 42 10000 2 270 19:41 31.03.2020
251 Clouds -3 1012 39 10000 1 320 19:22 31.03.2020
252 Clouds -3 1012 39 10000 1 320 18:56 31.03.2020
253 Clouds -2 1012 39 10000 2 340 18:37 31.03.2020
254 Snow -2 1012 36 10000 4 350 18:18 31.03.2020
255 Snow -2 1012 36 10000 4 350 17:54 31.03.2020
256 Snow -2 1012 39 10000 6 350 17:36 31.03.2020
257 Snow -2 1012 33 10000 6 340 17:18 31.03.2020
258 Snow -3 1012 39 10000 6 340 16:39 31.03.2020
259 Snow -3 1012 39 10000 6 340 16:19 31.03.2020
260 Snow -3 1012 42 10000 7 350 15:57 31.03.2020
261 Clouds -3 1012 50 10000 7 350 15:39 31.03.2020
262 Snow -3 1012 68 10000 7 340 15:20 31.03.2020
263 Snow -3 1012 68 10000 7 340 14:57 31.03.2020
264 Snow -3 1012 79 9000 7 340 14:38 31.03.2020
265 Snow -3 1012 79 9000 7 340 14:20 31.03.2020
266 Snow -3 1012 86 3700 6 360 13:42 31.03.2020
267 Snow -3 1012 86 3700 6 360 13:19 31.03.2020
268 Snow -3 1012 85 4100 7 10 12:56 31.03.2020
269 Snow -3 1012 92 2200 6 10 12:38 31.03.2020
270 Snow -3 1012 92 2200 6 10 12:19 31.03.2020
271 Snow -4 1011 85 2300 6 10 11:39 31.03.2020
272 Snow -4 1011 85 2300 6 10 11:20 31.03.2020
273 Snow -4 1011 85 2900 6 10 10:58 31.03.2020
274 Snow -4 1011 79 2500 8 10 10:40 31.03.2020
275 Snow -4 1011 79 2500 8 10 10:21 31.03.2020
276 Snow -4 1011 79 3800 8 10 09:56 31.03.2020
277 Snow -4 1011 79 4300 6 20 09:37 31.03.2020
278 Snow -4 1011 79 4300 6 20 09:19 31.03.2020
279 Snow -4 1011 79 3800 5 10 08:56 31.03.2020
280 Snow -4 1011 79 3800 5 10 08:56 31.03.2020
281 Snow -4 1011 79 3000 8 10 08:38 31.03.2020
282 Snow -4 1011 79 3000 8 10 08:19 31.03.2020
283 Snow -4 1011 79 5000 7 20 07:55 31.03.2020
284 Snow -4 1011 79 5000 7 20 07:55 31.03.2020
285 Snow -4 1011 85 2400 5 20 07:37 31.03.2020
286 Snow -4 1011 85 2400 5 20 07:18 31.03.2020
287 Snow -4 1011 79 3200 6 10 06:42 31.03.2020
288 Snow -4 1011 79 4800 4 10 05:57 31.03.2020
289 Snow -4 1010 79 5000 6 20 05:38 31.03.2020
290 Snow -3 1011 85 6000 6 10 03:28 31.03.2020
291 Snow -3 1011 85 7000 6 10 01:52 31.03.2020
292 Snow -3 1011 85 8000 6 20 01:33 31.03.2020
293 Snow -3 1011 92 6000 6 10 00:46 31.03.2020
294 Snow -3 1011 92 6000 6 10 00:24 31.03.2020
295 Snow -3 1011 86 3500 7 10 23:41 30.03.2020
296 Snow -3 1011 86 3500 7 10 23:20 30.03.2020
297 Snow -3 1011 86 6000 5 20 22:58 30.03.2020
298 Snow -2 1011 92 5000 6 360 22:39 30.03.2020
299 Snow -2 1011 92 5000 6 360 22:20 30.03.2020
300 Snow -2 1011 92 7000 6 10 21:58 30.03.2020
301 Snow -2 1011 92 4600 6 20 21:39 30.03.2020
302 Snow -2 1011 92 4600 6 20 21:21 30.03.2020
303 Snow -2 1011 92 3200 6 10 20:59 30.03.2020
304 Snow -2 1011 92 5000 7 360 20:39 30.03.2020
305 Snow -2 1011 92 5000 7 360 20:20 30.03.2020
306 Snow -2 1011 92 7000 6 360 19:57 30.03.2020
307 Snow -2 1010 100 4300 6 10 19:39 30.03.2020
308 Snow -2 1010 100 2100 6 360 19:20 30.03.2020
309 Snow -1 1010 100 1300 5 360 18:44 30.03.2020
310 Snow -1 1010 100 1300 5 360 18:26 30.03.2020
311 Snow -1 1010 100 800 6 10 17:58 30.03.2020
312 Snow 0 1010 92 1300 6 360 17:40 30.03.2020
313 Snow 0 1010 92 1300 6 360 17:22 30.03.2020
314 Snow 0 1010 92 4400 6 10 16:59 30.03.2020
315 Snow 0 1009 92 9000 6 10 16:40 30.03.2020
316 Snow 0 1009 92 9000 6 10 16:21 30.03.2020
317 Snow 0 1009 92 6000 6 10 15:56 30.03.2020
318 Snow 0 1009 92 2800 6 20 15:38 30.03.2020
319 Snow 1 1009 86 5000 6 10 15:20 30.03.2020
320 Snow 1 1009 86 5000 6 10 14:58 30.03.2020
321 Snow 1 1009 80 8000 6 20 14:37 30.03.2020
322 Snow 1 1009 80 8000 6 20 14:19 30.03.2020
323 Snow 1 1009 74 9000 7 20 13:57 30.03.2020
324 Clouds 1 1008 74 10000 7 20 13:38 30.03.2020
325 Clouds 1 1008 74 10000 7 20 13:19 30.03.2020
326 Clouds 1 1008 74 10000 8 20 12:45 30.03.2020
327 Clouds 1 1008 80 10000 7 20 12:21 30.03.2020
328 Clouds 2 1008 89 10000 7 360 11:59 30.03.2020
329 Clouds 2 1008 89 10000 7 360 11:59 30.03.2020
330 Clouds 1 1008 80 10000 6 10 11:41 30.03.2020
331 Clouds 1 1008 80 10000 6 10 11:22 30.03.2020
332 Clouds 1 1007 89 10000 8 20 10:55 30.03.2020
333 Clouds 1 1007 89 10000 7 20 10:37 30.03.2020
334 Clouds 1 1007 89 10000 7 20 10:18 30.03.2020
335 Clouds 1 1006 74 10000 6 30 09:40 30.03.2020
336 Clouds 1 1006 74 10000 6 30 09:19 30.03.2020
337 Clouds 1 1006 74 10000 6 30 09:19 30.03.2020
338 Clouds 1 1007 80 10000 6 10 08:57 30.03.2020
339 Clouds 1 1007 80 10000 6 360 08:38 30.03.2020
340 Clouds 1 1006 80 10000 5 20 08:19 30.03.2020
341 Clouds 1 1007 86 10000 6 20 07:43 30.03.2020
342 Clouds 1 1007 86 10000 6 20 07:21 30.03.2020
343 Clouds 1 1006 86 10000 7 10 06:47 30.03.2020
344 Clouds 1 1006 86 10000 7 10 06:25 30.03.2020
345 Clouds 1 1006 86 10000 7 360 05:44 30.03.2020
346 Clouds 2 1006 81 10000 6 10 04:31 30.03.2020
347 Clouds 2 1005 81 10000 6 10 03:57 30.03.2020
348 Clouds 3 1005 86 10000 5 10 02:45 30.03.2020
349 Clouds 5 1006 86 10000 5 10 01:58 30.03.2020
350 Clouds 6 1005 60 10000 4 10 01:18 30.03.2020
351 Clouds 7 1006 69 10000 5 10 00:29 30.03.2020
352 Clouds 7 1006 69 10000 5 350 23:56 29.03.2020
353 Clouds 8 1006 60 10000 5 10 23:37 29.03.2020
354 Clouds 8 1006 60 10000 5 10 23:37 29.03.2020
355 Clouds 8 1006 60 10000 5 10 23:19 29.03.2020
356 Clouds 9 1006 56 10000 4 30 22:55 29.03.2020
357 Clouds 10 1004 37 10000 2 180 22:37 29.03.2020
358 Clouds 10 1004 37 10000 2 180 22:18 29.03.2020
359 Clouds 10 1005 52 10000 6 360 21:38 29.03.2020
360 Clouds 11 1005 37 10000 2 200 21:20 29.03.2020
361 Clouds 11 1005 37 10000 2 200 20:56 29.03.2020
362 Clouds 12 1005 37 10000 5 350 20:37 29.03.2020
363 Clouds 12 1005 37 10000 5 350 20:37 29.03.2020
364 Clouds 12 1005 37 10000 5 350 20:37 29.03.2020
365 Clouds 12 1005 37 10000 5 350 20:19 29.03.2020
366 Clouds 12 1005 37 10000 5 350 20:19 29.03.2020
367 Clouds 13 1005 30 10000 6 250 19:57 29.03.2020
368 Clouds 13 1005 30 10000 5 250 19:39 29.03.2020
369 Clouds 13 1005 24 10000 3 190 19:21 29.03.2020
370 Clouds 13 1005 24 10000 3 190 18:57 29.03.2020
371 Clouds 14 1005 22 10000 4 240 18:38 29.03.2020
372 Clouds 15 1005 22 10000 2 190 18:19 29.03.2020
373 Clouds 15 1005 22 10000 2 190 17:56 29.03.2020
374 Clouds 15 1005 28 10000 3 250 17:37 29.03.2020
375 Clouds 16 1005 22 10000 4 250 17:18 29.03.2020
376 Clouds 15 1005 22 10000 4 250 16:56 29.03.2020
377 Clouds 16 1005 22 10000 5 210 16:38 29.03.2020
378 Clouds 16 1005 22 10000 5 210 16:18 29.03.2020
379 Clouds 16 1006 21 10000 5 220 15:41 29.03.2020
380 Clouds 16 1006 21 10000 5 220 15:23 29.03.2020
381 Clouds 16 1006 19 10000 5 200 14:58 29.03.2020
382 Clouds 16 1006 19 10000 5 230 14:40 29.03.2020
383 Clouds 16 1007 23 10000 5 210 14:20 29.03.2020
384 Clouds 16 1007 23 10000 5 210 13:57 29.03.2020
385 Clouds 16 1007 23 10000 6 180 13:39 29.03.2020
386 Clouds 16 1007 23 10000 6 180 13:39 29.03.2020
387 Clouds 16 1008 23 10000 5 170 13:20 29.03.2020
388 Clouds 16 1008 26 10000 5 210 12:55 29.03.2020
389 Clouds 16 1008 26 10000 5 210 12:37 29.03.2020
390 Clouds 15 1008 28 10000 4 210 12:19 29.03.2020
391 Clouds 15 1008 28 10000 4 210 11:55 29.03.2020
392 Clouds 15 1009 30 10000 3 210 11:37 29.03.2020
393 Clouds 14 1009 35 10000 3 180 11:18 29.03.2020
394 Clouds 13 1009 34 10000 3 200 10:38 29.03.2020
395 Clouds 13 1009 34 10000 3 200 10:19 29.03.2020
396 Clouds 11 1010 43 10000 3 220 09:41 29.03.2020
397 Clouds 11 1010 43 10000 3 220 09:22 29.03.2020
398 Clouds 10 1010 45 10000 3 220 08:56 29.03.2020
399 Clouds 8 1010 49 10000 3 220 08:38 29.03.2020
400 Clouds 8 1010 49 9000 2 220 08:19 29.03.2020
401 Clouds 7 1010 52 9000 2 230 07:42 29.03.2020
402 Clouds 7 1010 52 9000 2 230 07:21 29.03.2020
403 Clouds 5 1011 60 10000 2 230 05:58 29.03.2020
404 Clouds 5 1011 64 10000 2 240 04:55 29.03.2020
405 Clouds 5 1012 60 9000 1 0 03:33 29.03.2020
406 Clouds 6 1012 60 9000 2.55 211 01:57 29.03.2020
407 Clouds 6 1013 60 9000 1 0 01:37 29.03.2020
408 Clouds 6 1013 60 9000 1 0 01:19 29.03.2020
409 Clouds 7 1013 56 9000 2 230 00:39 29.03.2020
410 Clouds 7 1013 60 8000 2.32 207 23:59 28.03.2020
411 Smoke 7 1014 56 8000 1 0 23:40 28.03.2020
412 Smoke 7 1014 56 8000 1 0 23:40 28.03.2020
413 Smoke 7 1014 56 8000 1 0 23:22 28.03.2020
414 Clouds 8 1014 60 9000 2.48 206 22:42 28.03.2020
415 Clouds 8 1014 56 6000 1 0 22:22 28.03.2020
416 Clouds 9 1014 49 7000 1 0 21:57 28.03.2020
417 Clouds 9 1014 49 6000 2.48 206 21:39 28.03.2020
418 Clouds 9 1014 49 6000 2.48 206 21:19 28.03.2020
419 Smoke 10 1015 43 5000 1 0 20:56 28.03.2020
420 Clouds 10 1015 40 7000 3 220 20:37 28.03.2020
421 Clouds 10 1015 40 7000 3 220 20:19 28.03.2020
422 Clouds 10 1015 40 7000 3 220 20:19 28.03.2020
423 Clouds 10 1015 45 7000 2 260 19:55 28.03.2020
424 Clouds 10 1015 34 9000 2 180 19:36 28.03.2020
425 Clouds 10 1015 34 9000 2 180 19:18 28.03.2020
426 Clouds 11 1015 32 10000 2 180 18:42 28.03.2020
427 Clouds 11 1015 32 10000 2 180 18:20 28.03.2020
428 Clouds 14 1016 28 10000 3 190 17:43 28.03.2020
429 Clouds 14 1016 28 10000 4 200 17:24 28.03.2020
430 Clouds 15 1016 28 10000 4 200 16:59 28.03.2020
431 Clouds 15 1016 26 10000 3 210 16:40 28.03.2020
432 Clouds 15 1016 26 10000 3 210 16:18 28.03.2020
433 Clouds 16 1017 26 10000 4 220 15:55 28.03.2020
434 Clouds 17 1017 25 10000 5 210 15:37 28.03.2020
435 Clouds 17 1018 25 10000 5 190 15:18 28.03.2020
436 Clouds 17 1018 23 10000 5 200 14:41 28.03.2020
437 Clouds 17 1018 23 10000 5 200 14:21 28.03.2020
438 Clouds 17 1018 23 10000 5 200 14:21 28.03.2020
439 Clouds 17 1019 25 10000 5 200 13:43 28.03.2020
440 Clouds 17 1019 23 10000 6 170 13:24 28.03.2020
441 Clouds 17 1020 25 10000 5 190 12:57 28.03.2020
442 Clouds 17 1020 25 10000 4 200 12:37 28.03.2020
443 Clouds 17 1020 25 10000 4 200 12:18 28.03.2020
444 Clouds 17 1021 26 10000 4 180 11:41 28.03.2020
445 Clouds 16 1022 29 10000 5 160 11:21 28.03.2020
446 Clouds 15 1022 30 10000 3 190 10:40 28.03.2020
447 Clouds 15 1022 30 10000 3 190 10:22 28.03.2020
448 Clouds 15 1023 33 10000 4 220 09:59 28.03.2020
449 Clouds 14 1023 33 10000 3 240 09:39 28.03.2020
450 Clouds 14 1023 33 10000 3 240 09:20 28.03.2020
451 Clouds 12 1024 37 9000 3 220 08:42 28.03.2020
452 Clouds 12 1024 37 9000 3 220 08:23 28.03.2020
453 Clouds 10 1024 43 7000 1 0 07:49 28.03.2020
454 Clouds 10 1024 45 6000 2 170 07:31 28.03.2020
455 Clouds 5 1025 56 9000 1 0 06:42 28.03.2020
456 Clouds 5 1025 56 9000 1 0 06:18 28.03.2020
457 Clouds 2 1025 64 10000 1.89 177 05:24 28.03.2020
458 Clouds 1 1026 69 9000 1 0 04:48 28.03.2020
459 Clouds 1 1026 69 10000 1 0 04:28 28.03.2020
460 Clouds 2 1027 59 10000 1 0 02:46 28.03.2020
461 Clouds 3 1027 59 10000 1 0 01:47 28.03.2020
462 Clouds 3 1027 59 10000 1.28 192 01:23 28.03.2020
463 Clouds 3 1028 55 10000 1.28 192 00:47 28.03.2020
464 Clouds 4 1028 55 10000 1 0 00:24 28.03.2020
465 Clouds 4 1028 51 9000 1 40 23:44 27.03.2020
466 Clouds 5 1028 51 9000 1 0 23:25 27.03.2020
467 Clouds 5 1028 51 9000 1 0 22:57 27.03.2020
468 Clouds 6 1029 48 9000 1 0 22:39 27.03.2020
469 Clouds 6 1029 48 9000 1 0 22:20 27.03.2020
470 Clouds 6 1029 52 7000 1 0 21:58 27.03.2020
471 Clouds 6 1029 45 8000 1 0 21:40 27.03.2020
472 Clouds 6 1029 45 8000 1 0 21:22 27.03.2020
473 Clouds 6 1029 45 8000 1 0 21:22 27.03.2020
474 Clouds 7 1029 45 9000 2 330 20:56 27.03.2020
475 Clouds 7 1029 39 9000 1 0 20:38 27.03.2020
476 Clouds 7 1029 39 9000 1 0 20:19 27.03.2020
477 Clouds 8 1029 36 7000 2 330 19:54 27.03.2020
478 Clouds 8 1029 48 6000 2 330 19:36 27.03.2020
479 Clouds 9 1030 45 9000 0.94 67 19:18 27.03.2020
480 Clouds 9 1030 42 10000 2 310 18:42 27.03.2020
481 Clouds 9 1030 42 10000 2 310 18:22 27.03.2020
482 Clouds 12 1030 30 10000 2 70 17:54 27.03.2020
483 Clouds 12 1030 30 10000 2 70 17:36 27.03.2020
484 Clouds 13 1030 26 10000 2 70 17:18 27.03.2020
485 Clouds 13 1030 28 10000 2 80 16:41 27.03.2020
486 Clouds 13 1030 28 10000 2 80 16:23 27.03.2020
487 Clouds 14 1031 24 10000 2 40 15:43 27.03.2020
488 Clouds 9 1031 54 0 0.56 4 15:25 27.03.2020
489 Clouds 9 1031 54 0 0.56 4 14:48 27.03.2020
490 Clouds 11 1033 47 0 1.62 346 14:27 27.03.2020
491 Clouds 11 1033 47 0 1.62 346 13:58 27.03.2020
492 Clouds 11 1033 47 0 1.62 346 13:40 27.03.2020
493 Clouds 11 1033 47 0 1.62 346 13:21 27.03.2020
494 Clouds 11 1033 46 0 1.69 352 12:58 27.03.2020
495 Clouds 11 1033 46 0 1.69 352 12:39 27.03.2020
496 Clouds 11 1033 46 0 1.69 352 12:19 27.03.2020
497 Clouds 11 1033 46 0 1.69 352 11:42 27.03.2020
498 Clouds 9 1034 53 0 1.71 328 11:24 27.03.2020
499 Clouds 9 1034 53 0 1.71 328 10:55 27.03.2020
500 Clouds 9 1034 53 0 1.71 328 10:37 27.03.2020
501 Clouds 9 1034 53 0 1.71 328 10:19 27.03.2020
502 Clouds 9 1034 53 0 1.71 328 09:57 27.03.2020
503 Clouds 9 1034 53 0 1.71 328 09:38 27.03.2020
504 Clouds 9 1034 53 0 1.71 328 09:19 27.03.2020
505 Clouds 9 1034 53 0 1.71 328 08:56 27.03.2020
506 Clouds 9 1034 53 0 1.71 328 08:38 27.03.2020
507 Clouds 5 1035 67 0 1.28 315 08:20 27.03.2020
508 Clouds 5 1035 69 0 1.27 321 07:52 27.03.2020
509 Clouds 5 1035 69 0 1.27 321 07:25 27.03.2020
510 Clouds 5 1035 69 0 1.27 321 06:55 27.03.2020
511 Clouds 5 1035 69 0 1.27 321 06:37 27.03.2020
512 Clouds 5 1035 69 0 1.27 321 05:28 27.03.2020
513 Clouds 2 1034 80 0 1.58 334 02:46 27.03.2020
514 Clear 3 1035 76 0 2.21 337 01:23 27.03.2020
515 Clear 3 1035 76 0 2.19 336 00:51 27.03.2020
516 Clear 3 1035 76 0 2.19 336 00:32 27.03.2020
517 Clear 3 1035 76 0 2.19 336 23:44 26.03.2020
518 Clear 4 1034 72 0 2.56 324 23:23 26.03.2020
519 Clear 4 1034 72 0 2.56 324 22:59 26.03.2020
520 Clear 4 1034 72 0 2.56 324 22:39 26.03.2020
521 Clear 4 1034 72 0 2.56 324 22:20 26.03.2020
522 Clear 4 1034 72 0 2.56 324 21:58 26.03.2020
523 Clear 4 1034 72 0 2.56 324 21:39 26.03.2020
524 Clear 4 1034 72 0 2.56 324 21:21 26.03.2020
525 Clear 4 1034 72 0 2.56 324 20:58 26.03.2020
526 Clear 4 1034 72 0 2.56 324 20:38 26.03.2020
527 Clear 5 1034 65 0 2.7 306 20:20 26.03.2020
528 Clear 5 1034 65 0 2.7 306 19:56 26.03.2020
529 Clear 5 1034 65 0 2.7 306 19:38 26.03.2020
530 Clear 5 1034 65 0 2.7 306 19:20 26.03.2020
531 Clear 5 1034 65 0 2.7 306 18:55 26.03.2020
532 Clear 5 1034 65 0 2.7 306 18:55 26.03.2020
533 Clear 5 1034 65 0 2.7 306 18:36 26.03.2020
534 Clear 5 1034 65 0 2.7 306 18:18 26.03.2020
535 Clear 5 1034 65 0 2.7 306 17:42 26.03.2020
536 Clear 9 1033 51 0 3.15 298 17:19 26.03.2020
537 Clear 9 1033 51 0 3.15 298 16:45 26.03.2020
538 Clear 9 1033 51 0 3.15 298 16:27 26.03.2020
539 Clear 9 1033 51 0 3.15 298 15:58 26.03.2020
540 Clear 9 1033 51 0 3.15 298 15:40 26.03.2020
541 Clear 9 1033 51 0 3.15 298 15:21 26.03.2020
542 Clear 9 1033 51 0 3.15 298 14:58 26.03.2020
543 Clear 9 1033 51 0 3.15 298 14:38 26.03.2020
544 Clear 9 1033 51 0 3.15 298 14:38 26.03.2020
545 Clear 11 1033 43 0 4.87 293 14:19 26.03.2020
546 Clear 11 1033 43 0 4.87 293 13:43 26.03.2020
547 Clear 11 1033 43 0 4.54 293 13:23 26.03.2020
548 Clear 11 1033 43 0 4.54 293 12:57 26.03.2020
549 Clear 11 1033 43 0 4.54 293 12:38 26.03.2020
550 Clear 11 1033 43 0 4.54 293 12:19 26.03.2020
551 Clear 11 1033 43 0 4.54 293 11:45 26.03.2020
552 Clear 11 1033 43 0 4.54 293 11:45 26.03.2020
553 Clear 8 1033 52 0 4.31 284 11:21 26.03.2020
554 Clear 8 1033 52 0 4.31 284 10:56 26.03.2020
555 Clear 8 1033 52 0 4.31 284 10:37 26.03.2020
556 Clear 8 1033 52 0 4.31 284 10:37 26.03.2020
557 Clear 8 1033 52 0 4.31 284 10:19 26.03.2020
558 Clear 9 1017 20 0 4.02 180 09:43 26.03.2020
559 Clear 9 1017 21 0 2.24 180 09:20 26.03.2020
560 Clear 8 1017 21 0 2.68 174 08:55 26.03.2020
561 Clear 8 1018 20 0 3.13 180 08:37 26.03.2020
562 Clear 3 1034 69 0 4.54 285 08:18 26.03.2020
563 Clear 3 1034 69 0 4.54 285 07:41 26.03.2020
564 Clear 3 1034 69 0 4.54 285 07:20 26.03.2020
565 Clear 3 1034 69 0 4.54 285 06:48 26.03.2020
566 Clear 3 1034 69 0 4.54 285 05:54 26.03.2020
567 Clear 0 1033 87 0 4.14 272 04:25 26.03.2020
568 Clear 0 1033 87 0 4.14 272 03:41 26.03.2020
569 Clear 0 1033 87 0 4.14 272 02:54 26.03.2020
570 Clouds 0 1033 86 0 4.1 267 01:50 26.03.2020
571 Clouds 0 1033 86 0 4.06 265 00:48 26.03.2020
572 Clouds 0 1033 86 0 4.06 265 23:59 25.03.2020
573 Clouds 0 1033 86 0 4.06 265 23:40 25.03.2020
574 Clouds 1 1032 82 0 4.08 269 23:20 25.03.2020
575 Clouds 1 1032 82 0 4.08 269 22:39 25.03.2020
576 Clouds 1 1032 82 0 4.08 269 22:20 25.03.2020
577 Clouds 1 1032 82 0 4.08 269 21:56 25.03.2020
578 Clouds 1 1032 82 0 4.08 269 21:37 25.03.2020
579 Clouds 1 1032 82 0 4.08 269 21:19 25.03.2020
580 Clouds 1 1032 82 0 4.08 269 20:55 25.03.2020
581 Clouds 1 1032 82 0 4.08 269 20:37 25.03.2020
582 Clouds 2 1033 75 0 4.81 271 20:18 25.03.2020
583 Clouds 2 1033 75 0 4.81 271 19:42 25.03.2020
584 Clouds 2 1033 75 0 4.66 270 19:22 25.03.2020
585 Clouds 2 1033 75 0 4.66 270 18:57 25.03.2020
586 Clouds 2 1033 75 0 4.81 271 18:38 25.03.2020
587 Clouds 2 1033 75 0 4.66 270 18:20 25.03.2020
588 Clouds 2 1033 75 0 4.66 270 17:55 25.03.2020
589 Clouds 2 1033 75 0 4.66 270 17:36 25.03.2020
590 Clouds 5 1032 63 0 4.84 257 17:18 25.03.2020
591 Clouds 5 1032 63 0 4.84 257 16:43 25.03.2020
592 Clouds 5 1032 63 0 4.84 257 16:43 25.03.2020
593 Clouds 5 1032 63 0 4.84 257 16:23 25.03.2020
594 Clouds 5 1032 63 0 4.84 257 15:57 25.03.2020
595 Clouds 5 1032 63 0 4.84 257 15:38 25.03.2020
596 Clouds 5 1032 63 0 4.84 257 15:19 25.03.2020
597 Clouds 5 1032 63 0 4.84 257 15:19 25.03.2020
598 Clouds 5 1032 63 0 4.84 257 14:42 25.03.2020
599 Clouds 7 1033 51 0 5.83 264 14:22 25.03.2020
600 Clouds 7 1033 51 0 5.83 264 13:56 25.03.2020
601 Clouds 7 1033 51 0 5.83 264 13:38 25.03.2020
602 Clouds 7 1033 51 0 5.83 264 13:38 25.03.2020
603 Clouds 7 1033 51 0 5.61 261 13:19 25.03.2020
604 Clouds 7 1033 51 0 5.61 261 12:37 25.03.2020
605 Clouds 10 1017 21 0 2.68 180 12:19 25.03.2020
606 Clouds 10 1017 23 0 5.36 180 11:55 25.03.2020
607 Clouds 9 1017 20 0 3.58 180 11:36 25.03.2020
608 Clouds 5 1033 59 0 5.41 257 11:18 25.03.2020
609 Clouds 5 1033 59 0 5.41 257 10:56 25.03.2020
610 Clouds 5 1033 59 0 5.41 257 10:37 25.03.2020
611 Clouds 7 1018 19 0 4.47 180 10:18 25.03.2020
612 Clouds 6 1018 21 0 3.13 180 09:42 25.03.2020
613 Clouds 6 1018 27 0 3.13 180 09:23 25.03.2020
614 Clouds 6 1018 29 0 4.02 180 08:56 25.03.2020
615 Clouds 4 1018 31 0 4.02 185 08:38 25.03.2020
616 Clouds 4 1018 33 0 5.36 180 08:19 25.03.2020
617 Clouds 3 1017 33 0 3.58 180 07:41 25.03.2020
618 Clouds 3 1017 33 0 1.79 180 07:20 25.03.2020
619 Clouds 3 1017 29 0 3.58 180 06:48 25.03.2020
620 Clouds 3 1017 29 0 2.68 180 06:28 25.03.2020
621 Clouds 1 1017 31 0 1.79 180 05:56 25.03.2020
622 Clouds 1 1017 31 0 1.79 180 05:30 25.03.2020
623 Clouds 1 1017 31 0 1.79 180 04:39 25.03.2020
624 Clouds 1 1017 30 0 2.24 183 03:36 25.03.2020
625 Clouds 1 1017 28 0 1.79 174 02:31 25.03.2020
626 Clouds 1 1017 24 0 1.79 185 01:21 25.03.2020
627 Clouds 2 1017 23 0 1.79 180 00:48 25.03.2020
628 Clouds 2 1017 22 0 1.79 180 00:23 25.03.2020
629 Clouds 2 1017 22 0 1.79 180 23:45 24.03.2020
630 Clouds 2 1017 22 0 1.79 177 23:26 24.03.2020
631 Clouds 2 1017 22 0 0.89 180 22:57 24.03.2020
632 Clouds 2 1017 22 0 1.79 180 22:38 24.03.2020
633 Clouds 2 1017 22 0 1.34 176 22:19 24.03.2020
634 Clouds 2 1017 22 0 1.34 187 21:56 24.03.2020
635 Clouds 2 1017 20 0 1.34 166 21:37 24.03.2020
636 Clouds 2 1017 20 0 1.79 183 21:18 24.03.2020
637 Clouds 2 1017 19 0 0.89 180 20:56 24.03.2020
638 Clouds 2 1017 19 0 0.89 180 20:38 24.03.2020
639 Clear 2 1017 19 0 1.34 175 20:19 24.03.2020
640 Clear -2 1034 82 0 2.53 298 19:41 24.03.2020
641 Clear -2 1034 82 0 2.53 298 19:19 24.03.2020
642 Clear -2 1034 82 0 2.53 298 18:55 24.03.2020
643 Clear -2 1034 82 0 2.53 298 18:37 24.03.2020
644 Clear -2 1034 82 0 2.53 298 18:18 24.03.2020
645 Clear -2 1034 82 0 2.53 298 18:18 24.03.2020
646 Clear -2 1034 82 0 2.53 298 17:42 24.03.2020
647 Clear 3 1016 22 0 2.68 0 17:23 24.03.2020
648 Clear 3 1031 23 10000 5 300 16:58 24.03.2020
649 Clear 3 1031 23 10000 5 300 16:40 24.03.2020
650 Clear 4 1031 23 10000 5 300 16:22 24.03.2020
651 Clear 3 1031 25 10000 6 290 15:59 24.03.2020
652 Clear 4 1031 21 10000 5 310 15:39 24.03.2020
653 Clear 4 1031 21 10000 5 310 15:21 24.03.2020
654 Clear 4 1031 21 10000 5 310 15:21 24.03.2020
655 Clear 4 1031 21 10000 5 310 15:21 24.03.2020
656 Clear 4 1031 19 10000 6 310 14:43 24.03.2020
657 Clear 2 1034 61 0 4.88 334 14:21 24.03.2020
658 Clear 2 1034 61 0 4.88 334 13:55 24.03.2020
659 Clear 2 1034 61 0 4.88 334 13:36 24.03.2020
660 Clear 2 1034 61 0 4.78 336 13:18 24.03.2020
661 Clear 4 1017 21 0 2.24 2 12:41 24.03.2020
662 Clear 3 1017 22 0 4.47 3 12:23 24.03.2020
663 Clear 3 1018 18 0 3.13 308 11:41 24.03.2020
664 Clear 2 1033 27 10000 6 330 11:20 24.03.2020
665 Clear 2 1033 27 10000 6 330 10:57 24.03.2020
666 Clear 2 1034 29 10000 6 350 10:38 24.03.2020
667 Clear 2 1034 29 10000 6 350 10:18 24.03.2020
668 Clear 1 1034 26 10000 5 360 09:43 24.03.2020
669 Clear 1 1034 26 10000 7 360 09:43 24.03.2020
670 Clear 1 1034 26 10000 7 360 09:25 24.03.2020
671 Clear 1 1035 33 10000 5 10 08:40 24.03.2020
672 Clear 0 1035 44 10000 5 10 08:21 24.03.2020
673 Clear 0 1035 36 10000 4 360 07:59 24.03.2020
674 Clear -1 1035 42 10000 4 360 07:41 24.03.2020
675 Clear -2 1035 42 10000 4 360 07:21 24.03.2020
676 Clear -3 1035 53 10000 4 350 06:35 24.03.2020
677 Clear -5 1035 57 10000 4 350 05:36 24.03.2020
678 Clear -6 1035 57 10000 4 350 04:50 24.03.2020
679 Clear -5 1035 57 10000 4 350 03:21 24.03.2020
680 Clear -5 1035 57 10000 4 350 02:37 24.03.2020
681 Clouds -4 1035 53 10000 4 360 00:54 24.03.2020
682 Clouds -4 1035 53 10000 4 350 00:27 24.03.2020
683 Clouds -3 1035 49 10000 4 350 23:55 23.03.2020
684 Clouds -3 1035 49 10000 4 350 23:37 23.03.2020
685 Clouds -3 1035 49 10000 4 350 23:19 23.03.2020
686 Clouds -3 1035 49 10000 4 350 22:43 23.03.2020
687 Clouds -3 1035 49 10000 4 350 22:22 23.03.2020
688 Clouds -3 1035 49 10000 4 360 21:55 23.03.2020
689 Clouds -3 1035 45 10000 4 350 21:37 23.03.2020
690 Clouds -3 1035 45 10000 4 350 21:18 23.03.2020
691 Clouds -2 1035 39 10000 3 350 20:44 23.03.2020
692 Clouds -2 1035 39 10000 3 350 20:26 23.03.2020
693 Clouds -2 1035 39 10000 2 360 19:59 23.03.2020
694 Clouds -2 1035 36 10000 3 20 19:41 23.03.2020
695 Clouds -2 1035 36 10000 3 10 19:22 23.03.2020
696 Clouds -2 1035 33 10000 3 30 18:54 23.03.2020
697 Clouds -2 1035 33 10000 3 30 18:36 23.03.2020
698 Clouds -1 1035 33 10000 3 40 18:18 23.03.2020
699 Clouds -1 1035 54 10000 4 40 17:41 23.03.2020
700 Clouds 0 1035 47 10000 5 30 17:20 23.03.2020
701 Clouds 0 1035 47 10000 6 20 16:44 23.03.2020
702 Clouds 0 1035 47 10000 6 20 16:26 23.03.2020
703 Clouds 1 1035 26 10000 6 20 15:59 23.03.2020
704 Clouds 1 1035 29 10000 5 30 15:39 23.03.2020
705 Clouds 1 1035 29 10000 5 30 15:19 23.03.2020
706 Clouds 1 1035 34 10000 7 40 14:37 23.03.2020
707 Clouds 1 1035 34 10000 7 40 14:19 23.03.2020
708 Clouds 1 1035 44 10000 7 30 13:57 23.03.2020
709 Clouds 1 1035 44 10000 7 360 13:38 23.03.2020
710 Clouds 1 1035 44 10000 7 360 13:38 23.03.2020
711 Clouds 1 1035 44 10000 7 360 13:38 23.03.2020
712 Clouds 1 1035 44 10000 7 360 13:20 23.03.2020
713 Clouds 1 1036 45 10000 7 50 12:43 23.03.2020
714 Clouds 1 1036 45 10000 7 50 12:43 23.03.2020
715 Clouds 0 1036 39 10000 6 40 12:25 23.03.2020
716 Clouds 0 1036 39 10000 6 40 11:56 23.03.2020
717 Clouds 0 1036 45 10000 6 30 11:38 23.03.2020
718 Clouds 0 1036 45 10000 6 30 11:38 23.03.2020
719 Clouds 0 1037 33 10000 8 80 11:19 23.03.2020
720 Clouds 0 1037 33 10000 8 80 10:56 23.03.2020
721 Clouds 0 1037 33 10000 7 70 10:37 23.03.2020
722 Clouds -1 1037 36 10000 7 30 10:19 23.03.2020
723 Clouds -1 1037 39 10000 7 50 09:43 23.03.2020
724 Clouds -1 1037 39 10000 7 50 09:21 23.03.2020
725 Clouds -2 1038 46 10000 6 50 08:40 23.03.2020
726 Clouds -2 1038 46 10000 6 50 08:20 23.03.2020
727 Clear -2 1038 46 10000 5 40 07:59 23.03.2020
728 Clear -3 1038 53 10000 5 40 07:40 23.03.2020
729 Clear -3 1037 62 10000 5 20 07:19 23.03.2020
730 Clear -4 1037 62 10000 5 20 06:48 23.03.2020
731 Clear -5 1037 73 10000 4 360 05:50 23.03.2020
732 Clear -6 1036 67 10000 3 30 04:41 23.03.2020
733 Clear -5 1036 62 10000 4 20 03:24 23.03.2020
734 Clouds -4 1036 57 10000 4 20 01:50 23.03.2020
735 Clouds -4 1036 57 10000 4 20 00:52 23.03.2020
736 Clouds -4 1035 57 10000 5 20 00:33 23.03.2020
737 Clouds -3 1035 53 10000 4 20 23:46 22.03.2020
738 Clouds -3 1035 53 10000 4 20 23:25 22.03.2020
739 Clouds -3 1035 49 10000 5 30 22:45 22.03.2020
740 Clouds -3 1035 49 10000 5 30 22:23 22.03.2020
741 Clouds -3 1035 45 10000 5 30 21:55 22.03.2020
742 Clouds -3 1034 42 10000 5 30 21:37 22.03.2020
743 Clouds -3 1034 42 10000 5 30 21:18 22.03.2020
744 Clouds -3 1034 42 10000 5 30 20:46 22.03.2020
745 Clouds -3 1034 42 10000 5 30 20:25 22.03.2020
746 Clouds -3 1034 42 10000 5 30 20:25 22.03.2020
747 Clouds -3 1034 42 10000 5 40 19:58 22.03.2020
748 Clouds -2 1034 38 10000 5 40 19:40 22.03.2020
749 Clouds -2 1034 38 10000 5 40 19:20 22.03.2020
750 Clouds -3 1034 38 10000 5 40 18:59 22.03.2020
751 Clouds -2 1033 42 10000 4 50 18:41 22.03.2020
752 Clouds -2 1033 39 10000 5 40 18:22 22.03.2020
753 Clouds -2 1033 39 10000 5 40 17:59 22.03.2020
754 Clouds -2 1033 42 10000 6 40 17:39 22.03.2020
755 Clouds -2 1033 42 10000 6 40 17:20 22.03.2020
756 Clouds -2 1033 42 10000 5 40 16:58 22.03.2020
757 Clouds -2 1033 42 10000 5 40 16:58 22.03.2020
758 Snow -1 1033 42 8000 6 30 16:39 22.03.2020
759 Snow -1 1033 42 8000 6 30 16:21 22.03.2020
760 Clouds -1 1031 33 10000 6 40 15:57 22.03.2020
761 Clouds -1 1032 36 10000 6 30 15:39 22.03.2020
762 Clouds -1 1032 36 10000 6 50 14:47 22.03.2020
763 Clouds -1 1032 30 10000 6 30 14:19 22.03.2020
764 Clouds -1 1032 33 10000 6 30 13:56 22.03.2020
765 Clouds 0 1032 30 10000 7 30 13:37 22.03.2020
766 Clouds 0 1032 30 10000 7 30 13:19 22.03.2020
767 Clouds 0 1032 30 10000 7 60 12:43 22.03.2020
768 Clouds 0 1032 30 10000 7 60 12:20 22.03.2020
769 Clouds 0 1031 32 10000 7 70 11:56 22.03.2020
770 Clouds -1 1032 28 10000 7 50 11:38 22.03.2020
771 Clear -1 1032 28 10000 7 50 11:19 22.03.2020
772 Clear -1 1032 30 10000 7 50 10:43 22.03.2020
773 Clear -1 1032 30 10000 7 50 10:24 22.03.2020
774 Clear -1 1032 30 10000 7 50 10:24 22.03.2020
775 Clear -1 1031 30 10000 8 70 09:49 22.03.2020
776 Clouds -1 1031 33 10000 7 30 09:30 22.03.2020
777 Clouds -2 1031 42 10000 6 50 08:55 22.03.2020
778 Clouds -3 1031 45 10000 5 50 08:36 22.03.2020
779 Clouds -3 1031 45 10000 5 50 08:36 22.03.2020
780 Clouds -3 1031 45 10000 5 50 08:18 22.03.2020
781 Clear -3 1031 49 10000 5 40 07:48 22.03.2020
782 Clear -4 1030 62 10000 4 50 07:18 22.03.2020
783 Clear -5 1029 67 10000 3 10 05:55 22.03.2020
784 Clear -6 1029 62 10000 3 20 04:58 22.03.2020
785 Clear -5 1027 57 10000 4 20 02:43 22.03.2020
786 Clear -5 1027 57 9000 2 30 01:21 22.03.2020
787 Clear -4 1026 53 10000 4 20 00:36 22.03.2020
788 Clear -4 1026 53 10000 4 20 23:58 21.03.2020
789 Clear -4 1026 53 10000 4 20 23:40 21.03.2020
790 Clear -4 1025 53 10000 5 30 23:18 21.03.2020
791 Clear -3 1025 53 10000 5 30 22:38 21.03.2020
792 Clear -3 1025 53 10000 5 30 22:38 21.03.2020
793 Clear -4 1025 53 10000 5 30 22:20 21.03.2020
794 Clear -3 1025 49 9000 4 20 21:59 21.03.2020
795 Clear -3 1025 49 10000 4 30 21:39 21.03.2020
796 Clear -3 1025 49 10000 4 30 21:21 21.03.2020
797 Clear -3 1024 45 10000 3 30 20:46 21.03.2020
798 Clouds -2 1024 45 10000 4 50 20:23 21.03.2020
799 Clouds -2 1023 42 10000 5 40 19:57 21.03.2020
800 Clouds -2 1023 42 10000 5 50 19:39 21.03.2020
801 Clouds -2 1023 42 10000 5 50 19:21 21.03.2020
802 Clouds -2 1023 46 10000 5 30 18:55 21.03.2020
803 Clouds -1 1022 46 10000 5 20 18:37 21.03.2020
804 Clouds -1 1022 46 10000 5 20 18:19 21.03.2020
805 Clouds -1 1021 36 10000 4 20 17:43 21.03.2020
806 Clouds -1 1021 36 10000 4 20 17:43 21.03.2020
807 Clouds -1 1021 36 10000 4 20 17:43 21.03.2020
808 Clouds -1 1021 39 10000 5 10 17:24 21.03.2020
809 Clouds -1 1021 39 10000 5 10 16:57 21.03.2020
810 Clouds 0 1021 46 10000 4 20 16:39 21.03.2020
811 Clouds 0 1021 46 10000 4 20 16:19 21.03.2020
812 Clouds 0 1020 46 10000 5 40 15:55 21.03.2020
813 Clouds 0 1020 54 10000 6 20 15:36 21.03.2020
814 Clouds 0 1020 54 10000 6 20 15:18 21.03.2020
815 Clouds 1 1019 47 10000 6 30 14:54 21.03.2020
816 Clouds 1 1019 40 10000 6 30 14:36 21.03.2020
817 Dust 1 1020 46 10000 5 30 14:18 21.03.2020
818 Clouds 1 1019 47 10000 5 20 13:54 21.03.2020
819 Clouds 1 1019 50 10000 5 30 13:36 21.03.2020
820 Clouds 1 1019 50 10000 5 30 13:18 21.03.2020
821 Clouds 1 1019 50 10000 5 30 12:39 21.03.2020
822 Clouds 1 1019 46 10000 5 360 12:19 21.03.2020
823 Clouds 1 1018 46 10000 5 10 11:57 21.03.2020
824 Clouds 1 1018 47 10000 5 20 11:38 21.03.2020
825 Clouds 1 1018 51 10000 6 20 11:19 21.03.2020
826 Clouds 1 1018 51 10000 6 20 10:57 21.03.2020
827 Clouds 0 1018 50 10000 4 40 10:38 21.03.2020
828 Clouds 0 1018 50 10000 5 40 10:19 21.03.2020
829 Clouds 0 1018 50 10000 5 40 09:56 21.03.2020
830 Clouds 0 1018 50 10000 5 40 09:37 21.03.2020
831 Clouds 0 1018 50 10000 5 40 09:19 21.03.2020
832 Clouds 0 1018 50 10000 5 40 09:19 21.03.2020
833 Clouds 0 1018 54 10000 6 40 08:44 21.03.2020
834 Clouds 0 1018 54 10000 6 40 08:44 21.03.2020
835 Clouds 0 1018 58 10000 5 50 08:25 21.03.2020
836 Clouds -1 1018 63 10000 5 30 07:47 21.03.2020
837 Clouds -1 1017 68 10000 5 50 07:28 21.03.2020
838 Clouds -1 1017 71 10000 4 30 06:48 21.03.2020
839 Clouds -1 1017 71 10000 4 30 06:28 21.03.2020
840 Clouds -1 1016 71 10000 4 50 05:48 21.03.2020
841 Clouds -1 1016 79 10000 4 360 05:18 21.03.2020
842 Clouds 0 1016 80 10000 4 360 03:26 21.03.2020
843 Snow 0 1015 80 10000 4 10 02:34 21.03.2020
844 Snow 0 1015 93 9000 2 10 01:40 21.03.2020
845 Snow 0 1015 86 9000 2 10 01:20 21.03.2020
846 Clouds 0 1015 86 10000 3 320 00:38 21.03.2020
847 Clouds 1 1015 86 10000 3 320 23:59 20.03.2020
848 Clouds 1 1015 86 10000 3 310 23:40 20.03.2020
849 Clouds 0 1014 83 10000 3 310 23:18 20.03.2020
850 Clouds 0 1014 86 10000 3 340 22:42 20.03.2020
851 Clouds 1 1014 86 10000 3 340 22:24 20.03.2020
852 Clouds 0 1014 83 10000 4 320 21:57 20.03.2020
853 Clouds 0 1014 86 10000 4 300 21:39 20.03.2020
854 Clouds 0 1014 86 10000 4 300 21:19 20.03.2020
855 Snow 1 1014 83 10000 4 300 20:57 20.03.2020
856 Snow 0 1014 83 10000 3 300 20:39 20.03.2020
857 Snow 1 1014 74 10000 3 300 20:18 20.03.2020
858 Snow 1 1014 76 10000 3 290 19:46 20.03.2020
859 Snow 2 1014 76 10000 2 280 19:19 20.03.2020
860 Snow 2 1014 76 10000 2 320 18:56 20.03.2020
861 Snow 3 1014 76 10000 3 330 18:37 20.03.2020
862 Snow 3 1014 69 9000 6 330 18:19 20.03.2020
863 Clouds 3 1013 51 10000 4 290 17:40 20.03.2020
864 Clouds 5 1013 44 10000 3 300 17:22 20.03.2020
865 Clouds 5 1013 44 10000 3 300 16:59 20.03.2020
866 Snow 5 1013 48 10000 4 300 16:41 20.03.2020
867 Snow 5 1013 48 10000 4 300 16:41 20.03.2020
868 Snow 5 1013 48 10000 4 300 16:20 20.03.2020
869 Snow 6 1013 48 10000 6 290 15:44 20.03.2020
870 Snow 6 1013 48 10000 6 290 15:22 20.03.2020
871 Snow 5 1013 48 10000 7 290 14:58 20.03.2020
872 Clouds 5 1013 48 10000 7 290 14:40 20.03.2020
873 Clouds 5 1013 52 10000 6 290 14:20 20.03.2020
874 Clouds 5 1013 52 10000 6 290 13:48 20.03.2020
875 Clouds 5 1013 48 10000 6 290 13:21 20.03.2020
876 Clouds 6 1013 56 10000 6 290 12:58 20.03.2020
877 Clouds 5 1013 56 10000 5 290 12:37 20.03.2020
878 Clouds 4 1013 60 10000 6 310 12:19 20.03.2020
879 Clouds 5 1013 60 10000 6 290 11:39 20.03.2020
880 Rain 4 1013 64 10000 4 300 11:20 20.03.2020
881 Rain 4 1013 69 10000 6 290 10:55 20.03.2020
882 Rain 4 1013 69 10000 6 290 10:36 20.03.2020
883 Clouds 4 1013 69 10000 6 290 10:18 20.03.2020
884 Clouds 5 1013 60 10000 7 290 09:44 20.03.2020
885 Clouds 5 1013 83 10000 5 280 09:20 20.03.2020
886 Clouds 5 1013 74 10000 7 300 08:57 20.03.2020
887 Clouds 4 1012 64 10000 5 310 08:38 20.03.2020
888 Clouds 4 1012 64 10000 5 310 08:18 20.03.2020
889 Clouds 4 1012 69 10000 5 300 07:41 20.03.2020
890 Clouds 4 1012 69 10000 5 300 07:23 20.03.2020
891 Clouds 2 1012 74 10000 5 290 06:42 20.03.2020
892 Clouds 1 1011 80 10000 5 280 06:21 20.03.2020
893 Clear 1 1011 74 10000 4 270 04:39 20.03.2020
894 Clear 2 1011 69 10000 4 270 02:51 20.03.2020
895 Clear 2 1010 64 10000 3 290 01:50 20.03.2020
896 Clear 2 1010 59 10000 3 300 00:45 20.03.2020
897 Clear 2 1010 59 10000 3 290 00:24 20.03.2020
898 Clear 2 1010 59 10000 2 300 23:42 19.03.2020
899 Clear 2 1010 59 10000 3 270 23:23 19.03.2020
900 Clear 2 1010 59 10000 3 270 22:54 19.03.2020
901 Clear 3 1010 55 10000 2 310 22:36 19.03.2020
902 Clear 3 1010 55 10000 2 310 22:18 19.03.2020
903 Clear 4 1010 48 10000 3 290 21:39 19.03.2020
904 Clear 4 1010 48 10000 3 290 21:20 19.03.2020
905 Clear 4 1010 48 10000 4 280 20:55 19.03.2020
906 Clear 4 1010 55 10000 3 260 20:37 19.03.2020
907 Clear 4 1010 55 10000 3 260 20:19 19.03.2020
908 Clear 5 1009 51 10000 2 280 19:54 19.03.2020
909 Clear 6 1009 48 10000 2 300 19:36 19.03.2020
910 Clear 6 1009 48 10000 2 300 19:18 19.03.2020
911 Clear 6 1009 41 10000 3 280 18:41 19.03.2020
912 Clear 7 1009 36 10000 3 280 18:22 19.03.2020
913 Clear 8 1009 31 10000 4 300 17:56 19.03.2020
914 Clear 8 1009 31 10000 4 300 17:37 19.03.2020
915 Clear 9 1009 31 10000 5 290 17:18 19.03.2020
916 Clear 9 1008 31 10000 8 280 16:43 19.03.2020
917 Clear 9 1008 31 10000 8 280 16:22 19.03.2020
918 Clear 11 1008 27 10000 7 280 15:44 19.03.2020
919 Clear 10 1008 27 10000 7 280 15:25 19.03.2020
920 Clear 11 1008 27 10000 9 280 14:54 19.03.2020
921 Clear 11 1008 29 10000 9 270 14:36 19.03.2020
922 Clouds 10 1008 29 10000 9 270 14:18 19.03.2020
923 Clouds 11 1008 27 10000 11 280 13:39 19.03.2020
924 Clouds 11 1008 27 10000 11 280 13:18 19.03.2020
925 Clouds 11 1008 31 10000 9 290 12:42 19.03.2020
926 Clouds 11 1008 37 10000 8 270 12:24 19.03.2020
927 Clouds 11 1008 37 10000 8 270 11:59 19.03.2020
928 Clouds 11 1008 42 10000 7 280 11:41 19.03.2020
929 Clouds 11 1008 42 10000 9 280 11:22 19.03.2020
930 Clouds 11 1008 52 10000 8 280 10:44 19.03.2020
931 Clouds 10 1008 52 10000 8 280 10:22 19.03.2020
932 Clouds 11 1008 50 10000 10 290 09:59 19.03.2020
933 Clouds 11 1008 53 10000 9 290 09:40 19.03.2020
934 Clouds 11 1008 53 10000 9 290 09:21 19.03.2020
935 Clouds 11 1008 62 10000 10 270 08:47 19.03.2020
936 Clouds 10 1007 57 10000 8 290 08:23 19.03.2020
937 Clouds 10 1007 61 10000 10 270 07:49 19.03.2020
938 Clouds 9 1007 66 10000 9 250 07:31 19.03.2020
939 Clouds 9 1007 66 10000 9 250 06:55 19.03.2020
940 Clouds 8 1007 70 10000 8 240 06:18 19.03.2020
941 Clouds 8 1007 65 10000 8 230 05:24 19.03.2020
942 Clouds 8 1007 65 10000 8 230 04:46 19.03.2020
943 Clouds 8 1008 65 10000 8 220 03:44 19.03.2020
944 Rain 8 1010 65 10000 8 230 01:45 19.03.2020
945 Clouds 7 1011 65 10000 6 220 00:42 19.03.2020
946 Clouds 7 1011 84 10000 6 220 00:19 19.03.2020
947 Clouds 7 1012 65 10000 5 210 23:42 18.03.2020
948 Rain 7 1012 65 10000 6 220 23:22 18.03.2020
949 Rain 7 1013 83 10000 6 210 22:43 18.03.2020
950 Rain 8 1013 83 10000 7 230 22:23 18.03.2020
951 Rain 8 1013 83 10000 7 230 21:55 18.03.2020
952 Rain 8 1014 83 10000 7 230 21:37 18.03.2020
953 Rain 8 1014 83 10000 7 230 21:19 18.03.2020
954 Clouds 8 1014 49 10000 8 230 20:55 18.03.2020
955 Clouds 8 1014 52 10000 8 230 20:37 18.03.2020
956 Clouds 7 1014 52 10000 8 230 20:18 18.03.2020
957 Clouds 7 1015 49 10000 6 220 19:40 18.03.2020
958 Clouds 7 1015 49 10000 6 220 19:21 18.03.2020
959 Clouds 8 1015 45 10000 7 220 18:57 18.03.2020
960 Clouds 8 1016 45 10000 7 220 18:38 18.03.2020
961 Clouds 8 1016 45 10000 7 220 18:19 18.03.2020
962 Clouds 8 1016 45 10000 6 220 17:55 18.03.2020
963 Clouds 8 1016 45 10000 6 220 17:37 18.03.2020
964 Clouds 8 1017 45 10000 7 220 17:18 18.03.2020
965 Clouds 9 1017 43 10000 8 230 16:42 18.03.2020
966 Clouds 9 1017 43 10000 8 230 16:20 18.03.2020
967 Clouds 9 1017 43 10000 8 230 16:20 18.03.2020
968 Clouds 10 1017 43 10000 8 230 15:57 18.03.2020
969 Clouds 10 1018 43 10000 9 230 15:38 18.03.2020
970 Clouds 10 1018 43 10000 9 230 15:19 18.03.2020
971 Clouds 10 1018 43 10000 9 240 14:42 18.03.2020
972 Clouds 10 1019 43 10000 10 240 14:21 18.03.2020
973 Clouds 10 1019 45 10000 8 230 13:41 18.03.2020
974 Clouds 9 1019 45 10000 9 230 13:19 18.03.2020
975 Clouds 9 1020 45 10000 9 230 12:55 18.03.2020
976 Clouds 9 1020 45 10000 9 230 12:37 18.03.2020
977 Clouds 9 1020 52 10000 9 230 12:18 18.03.2020
978 Clouds 8 1021 52 10000 8 220 11:38 18.03.2020
979 Clouds 8 1021 56 10000 8 230 11:19 18.03.2020
980 Clouds 8 1021 56 10000 8 230 10:57 18.03.2020
981 Clouds 7 1022 56 10000 7 230 10:37 18.03.2020
982 Clouds 7 1022 56 10000 7 230 10:19 18.03.2020
983 Clouds 6 1022 56 10000 8 230 09:42 18.03.2020
984 Clouds 6 1022 56 10000 9 240 09:23 18.03.2020
985 Clouds 5 1022 60 10000 7 230 08:55 18.03.2020
986 Clouds 4 1022 65 10000 8 240 08:37 18.03.2020
987 Clouds 4 1023 69 10000 7 240 08:19 18.03.2020
988 Clouds 3 1023 74 10000 7 240 07:43 18.03.2020
989 Clouds 3 1023 74 10000 7 240 07:25 18.03.2020
990 Clouds 2 1023 80 10000 6 230 06:44 18.03.2020
991 Clouds 2 1022 80 10000 6 220 05:56 18.03.2020
992 Clouds 2 1022 80 10000 6 220 05:33 18.03.2020
993 Clouds 2 1023 74 10000 5 240 04:24 18.03.2020
994 Clouds 1 1022 69 10000 5 230 02:42 18.03.2020
995 Clouds 1 1022 69 10000 4 230 01:47 18.03.2020
996 Clouds 2 1023 59 10000 3 220 01:26 18.03.2020
997 Clouds 2 1023 59 10000 5 230 00:23 18.03.2020
998 Clouds 2 1023 64 10000 5 260 23:47 17.03.2020
999 Clouds 3 1023 59 10000 4 240 23:27 17.03.2020
1000 Clouds 3 1023 59 10000 3 220 22:55 17.03.2020
1001 Clouds 3 1023 59 10000 3 220 22:37 17.03.2020
1002 Clouds 3 1023 59 10000 3 220 22:18 17.03.2020
1003 Clouds 3 1023 64 10000 3 240 21:39 17.03.2020
1004 Clouds 4 1023 55 10000 3 220 21:21 17.03.2020
1005 Clouds 4 1023 55 10000 3 220 20:40 17.03.2020
1006 Clear 4 1023 64 10000 3 260 20:21 17.03.2020
1007 Clear 4 1022 59 10000 4 260 19:58 17.03.2020
1008 Clear 4 1022 55 10000 3 260 19:39 17.03.2020
1009 Clear 4 1022 59 10000 1 0 19:18 17.03.2020
1010 Clear 4 1022 59 10000 1 0 18:56 17.03.2020
1011 Clear 5 1022 55 10000 2 260 18:37 17.03.2020
1012 Clear 6 1022 48 10000 2 300 18:19 17.03.2020
1013 Clear 7 1022 45 10000 3 260 17:40 17.03.2020
1014 Clear 7 1022 45 10000 3 260 17:21 17.03.2020
1015 Clear 7 1022 45 10000 3 270 16:55 17.03.2020
1016 Clear 8 1022 45 10000 4 260 16:36 17.03.2020
1017 Clear 8 1022 45 10000 4 260 16:18 17.03.2020
1018 Clear 9 1021 36 10000 4 270 15:41 17.03.2020
1019 Clear 9 1021 36 10000 4 270 15:19 17.03.2020
1020 Clear 9 1022 34 10000 5 270 14:42 17.03.2020
1021 Clouds 9 1022 34 10000 5 270 14:21 17.03.2020
1022 Clouds 9 1021 36 10000 4 250 13:44 17.03.2020
1023 Clouds 9 1022 34 10000 3 240 13:26 17.03.2020
1024 Clouds 9 1022 34 10000 3 240 12:58 17.03.2020
1025 Clouds 8 1021 39 10000 4 220 12:40 17.03.2020
1026 Clouds 8 1021 39 10000 4 240 12:21 17.03.2020
1027 Clouds 7 1021 39 10000 3 250 11:46 17.03.2020
1028 Clouds 7 1021 39 10000 3 230 11:27 17.03.2020
1029 Clouds 7 1021 39 10000 3 230 10:58 17.03.2020
1030 Clouds 7 1021 39 10000 3 230 10:58 17.03.2020
1031 Clouds 7 1021 41 10000 3 240 10:38 17.03.2020
1032 Clouds 6 1021 41 10000 3 240 10:20 17.03.2020
1033 Clouds 6 1021 41 10000 2 240 09:55 17.03.2020
1034 Clouds 6 1021 41 10000 2 240 09:55 17.03.2020
1035 Clouds 5 1021 41 10000 2 280 09:36 17.03.2020
1036 Clouds 5 1021 41 10000 2 280 09:18 17.03.2020
1037 Clouds 4 1020 44 10000 4 240 08:42 17.03.2020
1038 Clouds 4 1020 44 10000 4 240 08:21 17.03.2020
1039 Clouds 3 1020 47 10000 3 240 07:50 17.03.2020
1040 Clouds 2 1020 51 10000 4 250 07:25 17.03.2020
1041 Clouds 1 1019 50 10000 4 250 06:56 17.03.2020
1042 Clouds 1 1018 69 10000 5 240 06:33 17.03.2020
1043 Clouds 1 1018 69 10000 4 230 05:41 17.03.2020
1044 Clouds 1 1017 50 10000 3 210 03:36 17.03.2020
1045 Clouds 1 1017 47 10000 3 210 02:45 17.03.2020
1046 Clouds 1 1017 50 10000 2 230 01:42 17.03.2020
1047 Clouds 1 1017 50 10000 3 230 01:24 17.03.2020
1048 Clouds 2 1017 50 10000 3 230 00:25 17.03.2020
1049 Clouds 2 1017 47 10000 5 230 23:45 16.03.2020
1050 Clouds 3 1017 47 10000 6 240 23:23 16.03.2020
1051 Clouds 3 1017 44 10000 7 240 22:40 16.03.2020
1052 Clouds 3 1017 44 10000 7 240 22:22 16.03.2020
1053 Clouds 3 1017 44 10000 8 240 21:55 16.03.2020
1054 Clouds 3 1017 44 10000 8 240 21:36 16.03.2020
1055 Clouds 3 1017 44 10000 8 240 21:18 16.03.2020
1056 Clouds 3 1017 44 10000 8 240 20:55 16.03.2020
1057 Clouds 3 1017 44 10000 8 240 20:37 16.03.2020
1058 Clouds 3 1017 44 10000 8 240 20:18 16.03.2020
1059 Clouds 3 1017 44 10000 7 220 19:40 16.03.2020
1060 Clouds 3 1017 44 10000 7 220 19:20 16.03.2020
1061 Clouds 3 1018 44 10000 7 220 18:41 16.03.2020
1062 Clouds 3 1018 40 10000 7 220 18:20 16.03.2020
1063 Clouds 3 1018 38 10000 6 220 17:47 16.03.2020
1064 Clouds 4 1018 38 10000 6 220 17:26 16.03.2020
1065 Clouds 4 1018 35 10000 6 220 16:59 16.03.2020
1066 Clouds 4 1018 35 10000 7 220 16:41 16.03.2020
1067 Clouds 4 1018 35 10000 7 220 16:22 16.03.2020
1068 Clouds 5 1019 35 10000 8 220 15:44 16.03.2020
1069 Clouds 5 1019 35 10000 7 220 15:25 16.03.2020
1070 Clouds 5 1019 38 10000 8 220 14:49 16.03.2020
1071 Clouds 5 1020 35 10000 8 230 14:27 16.03.2020
1072 Clouds 5 1020 38 10000 8 230 13:57 16.03.2020
1073 Clouds 5 1021 38 10000 7 230 13:38 16.03.2020
1074 Clouds 5 1021 38 10000 7 230 13:20 16.03.2020
1075 Clouds 4 1021 41 10000 8 220 12:44 16.03.2020
1076 Clouds 4 1021 41 10000 8 220 12:23 16.03.2020
1077 Clouds 3 1022 47 10000 6 210 11:46 16.03.2020
1078 Clouds 3 1022 47 10000 6 210 11:27 16.03.2020
1079 Clear 2 1023 43 10000 6 220 10:56 16.03.2020
1080 Clear 2 1023 47 10000 7 230 10:37 16.03.2020
1081 Clear 1 1023 47 10000 7 230 10:18 16.03.2020
1082 Clear 1 1023 61 10000 7 230 09:42 16.03.2020
1083 Clear 0 1023 54 10000 8 250 09:21 16.03.2020
1084 Clear -1 1023 54 10000 6 240 08:50 16.03.2020
1085 Clear -2 1023 54 10000 5 230 08:25 16.03.2020
1086 Clear -4 1023 62 10000 4 230 07:45 16.03.2020
1087 Clear -5 1023 62 10000 4 230 07:25 16.03.2020
1088 Clear -6 1023 79 10000 3 230 06:51 16.03.2020
1089 Clear -7 1023 92 10000 3 250 06:23 16.03.2020
1090 Clear -7 1023 85 10000 3 250 04:54 16.03.2020
1091 Clear -7 1023 85 10000 3 300 02:41 16.03.2020
1092 Clouds -6 1022 79 10000 3 310 00:52 16.03.2020
1093 Clouds -6 1022 85 10000 3 300 00:32 16.03.2020
1094 Clouds -5 1021 79 10000 3 300 23:46 15.03.2020
1095 Clouds -5 1021 79 10000 3 300 23:20 15.03.2020
1096 Clouds -5 1020 73 10000 3 300 22:42 15.03.2020
1097 Clouds -5 1020 73 10000 3 300 22:22 15.03.2020
1098 Clouds -4 1020 73 10000 3 300 21:56 15.03.2020
1099 Clouds -4 1020 73 10000 3 300 21:37 15.03.2020
1100 Clouds -4 1020 73 10000 3 300 21:18 15.03.2020
1101 Clouds -4 1020 73 10000 3 300 20:42 15.03.2020
1102 Clouds -4 1020 73 10000 3 300 20:20 15.03.2020
1103 Clouds -4 1019 68 10000 2 300 19:58 15.03.2020
1104 Clouds -3 1019 68 10000 3 340 19:38 15.03.2020
1105 Clouds -3 1019 68 10000 3 340 19:19 15.03.2020
1106 Clouds -3 1019 63 10000 4 350 18:55 15.03.2020
1107 Clouds -3 1018 63 10000 6 360 18:37 15.03.2020
1108 Clouds -3 1018 68 10000 4 340 18:18 15.03.2020
1109 Snow -3 1017 73 9000 4 340 17:41 15.03.2020
1110 Snow -3 1017 63 9000 4 340 17:21 15.03.2020
1111 Snow -3 1017 63 9000 4 340 16:58 15.03.2020
1112 Snow -3 1017 63 9000 4 340 16:58 15.03.2020
1113 Clouds -3 1016 63 10000 5 350 16:38 15.03.2020
1114 Clouds -3 1016 63 10000 5 350 16:19 15.03.2020
1115 Clouds -3 1015 63 10000 5 330 15:45 15.03.2020
1116 Clouds -3 1015 63 10000 5 330 15:27 15.03.2020
1117 Snow -3 1015 68 7000 5 350 14:58 15.03.2020
1118 Clouds -3 1014 79 10000 6 340 14:38 15.03.2020
1119 Clouds -3 1014 79 10000 6 340 14:19 15.03.2020
1120 Snow -3 1014 92 6000 5 340 13:55 15.03.2020
1121 Snow -3 1014 86 10000 5 340 13:36 15.03.2020
1122 Snow -3 1014 86 10000 5 340 13:18 15.03.2020
1123 Snow -3 1013 68 9000 7 340 12:40 15.03.2020
1124 Clouds -3 1012 86 10000 6 330 12:21 15.03.2020
1125 Snow -3 1012 79 10000 6 350 11:43 15.03.2020
1126 Snow -3 1012 92 9000 6 350 11:24 15.03.2020
1127 Snow -3 1012 92 9000 6 350 10:58 15.03.2020
1128 Snow -4 1011 63 10000 6 330 10:39 15.03.2020
1129 Snow -4 1011 63 10000 6 330 10:21 15.03.2020
1130 Snow -4 1011 68 10000 6 340 09:45 15.03.2020
1131 Snow -4 1011 68 10000 6 340 09:25 15.03.2020
1132 Snow -4 1010 85 10000 6 330 08:59 15.03.2020
1133 Snow -5 1010 92 1600 7 330 08:40 15.03.2020
1134 Snow -5 1010 92 1600 7 330 08:19 15.03.2020
1135 Clouds -5 1010 79 10000 6 330 07:45 15.03.2020
1136 Clouds -6 1009 85 10000 4 310 07:21 15.03.2020
1137 Clouds -7 1008 85 10000 5 300 06:36 15.03.2020
1138 Clouds -7 1008 79 10000 5 300 05:46 15.03.2020
1139 Clouds -6 1008 79 10000 4 310 04:55 15.03.2020
1140 Clouds -6 1007 79 10000 5 310 04:37 15.03.2020
1141 Clouds -6 1007 79 10000 5 310 04:18 15.03.2020
1142 Clouds -6 1006 85 10000 6 300 02:54 15.03.2020
1143 Snow -6 1006 92 10000 5 300 02:22 15.03.2020
1144 Snow -5 1005 92 9000 3 300 00:58 15.03.2020
1145 Snow -5 1005 92 9000 4 330 00:40 15.03.2020
1146 Snow -5 1005 92 9000 5 350 00:19 15.03.2020
1147 Snow -5 1004 92 2100 7 350 23:39 14.03.2020
1148 Snow -5 1004 100 1000 6 340 23:20 14.03.2020
1149 Snow -5 1004 100 1000 6 340 22:56 14.03.2020
1150 Snow -4 1003 100 1100 6 340 22:37 14.03.2020
1151 Snow -4 1003 100 1100 6 340 22:19 14.03.2020
1152 Snow -5 1003 100 550 5 330 21:55 14.03.2020
1153 Snow -4 1003 100 550 5 330 21:55 14.03.2020
1154 Snow -4 1003 100 800 6 340 21:36 14.03.2020
1155 Snow -4 1002 92 750 6 350 21:18 14.03.2020
1156 Snow -4 1002 92 750 6 350 20:56 14.03.2020
1157 Snow -4 1002 92 750 6 350 20:56 14.03.2020
1158 Snow -3 1002 92 650 8 350 20:38 14.03.2020
1159 Snow -3 1002 92 650 8 350 20:18 14.03.2020
1160 Snow -1 1000 100 1900 7 10 19:41 14.03.2020
1161 Snow -1 1000 100 1900 7 10 19:20 14.03.2020
1162 Snow 2 998 100 1300 9 10 18:40 14.03.2020
1163 Snow 3 997 92 2300 8 360 18:20 14.03.2020
1164 Snow 6 996 52 10000 2 190 17:42 14.03.2020
1165 Snow 7 996 45 10000 2 220 17:23 14.03.2020
1166 Snow 6 996 45 10000 2 220 16:59 14.03.2020
1167 Clouds 7 996 52 10000 5 340 16:38 14.03.2020
1168 Clouds 7 996 52 10000 5 340 16:19 14.03.2020
1169 Clouds 8 996 48 10000 5 240 15:46 14.03.2020
1170 Clouds 8 996 48 10000 5 240 15:23 14.03.2020
1171 Clouds 8 996 45 10000 7 220 14:44 14.03.2020
1172 Clouds 8 996 45 10000 7 220 14:22 14.03.2020
1173 Clouds 8 996 45 10000 7 220 13:57 14.03.2020
1174 Clouds 8 996 42 10000 7 220 13:39 14.03.2020
1175 Clouds 8 997 45 10000 6 250 13:20 14.03.2020
1176 Clouds 8 997 52 10000 6 220 12:44 14.03.2020
1177 Clouds 8 997 52 10000 7 220 12:26 14.03.2020
1178 Clouds 8 997 52 10000 6 220 12:26 14.03.2020
1179 Clouds 7 998 60 10000 5 220 11:47 14.03.2020
1180 Clouds 7 998 73 10000 5 230 11:26 14.03.2020
1181 Clouds 7 998 73 10000 5 230 10:59 14.03.2020
1182 Clouds 7 998 73 10000 5 220 10:40 14.03.2020
1183 Clouds 6 998 73 10000 5 220 10:22 14.03.2020
1184 Clouds 5 998 73 10000 5 210 09:43 14.03.2020
1185 Clouds 5 998 73 10000 5 210 09:24 14.03.2020
1186 Clouds 5 999 73 10000 5 210 08:47 14.03.2020
1187 Clouds 4 999 73 10000 5 230 08:29 14.03.2020
1188 Clouds 3 999 86 10000 4 250 07:55 14.03.2020
1189 Clouds 2 999 86 10000 4 230 07:37 14.03.2020
1190 Clouds 2 999 86 10000 4 230 07:18 14.03.2020
1191 Clouds 1 999 86 10000 5 220 06:40 14.03.2020
1192 Clouds 1 999 86 10000 5 220 06:40 14.03.2020
1193 Clouds 1 999 93 10000 4 250 05:19 14.03.2020
1194 Clouds 2 999 93 10000 5 260 03:43 14.03.2020
1195 Clouds 2 999 93 10000 5 260 03:23 14.03.2020
1196 Rain 3 998 93 10000 6 240 02:22 14.03.2020
1197 Clouds 3 998 86 10000 5 230 00:46 14.03.2020
1198 Clouds 3 998 84 10000 6 240 23:46 13.03.2020
1199 Clouds 3 998 84 10000 6 240 23:27 13.03.2020
1200 Clouds 3 998 78 10000 7 240 22:49 13.03.2020
1201 Clouds 3 998 78 10000 7 240 22:26 13.03.2020
1202 Clouds 3 998 78 10000 7 240 21:44 13.03.2020
1203 Clouds 4 998 78 10000 8 250 21:22 13.03.2020
1204 Clouds 4 998 78 10000 8 250 20:59 13.03.2020
1205 Clouds 4 997 78 10000 9 250 20:40 13.03.2020
1206 Clouds 4 997 72 10000 9 250 20:20 13.03.2020
1207 Clouds 4 997 72 10000 8 250 19:48 13.03.2020
1208 Clouds 5 997 86 10000 5 240 19:30 13.03.2020
1209 Clouds 4 997 86 10000 6 240 18:49 13.03.2020
1210 Clouds 5 997 56 10000 8 260 18:31 13.03.2020
1211 Clouds 6 997 56 10000 8 260 17:57 13.03.2020
1212 Clouds 6 997 56 10000 8 260 17:39 13.03.2020
1213 Snow 6 996 56 10000 8 260 17:20 13.03.2020
1214 Snow 6 996 56 10000 7 260 16:42 13.03.2020
1215 Snow 6 996 56 10000 7 260 16:24 13.03.2020
1216 Clouds 6 994 93 10000 6 260 15:59 13.03.2020
1217 Clouds 5 994 93 10000 6 260 15:39 13.03.2020
1218 Rain 5 994 86 10000 8 260 15:20 13.03.2020
1219 Rain 5 993 86 10000 10 270 14:43 13.03.2020
1220 Rain 4 993 86 10000 10 270 14:22 13.03.2020
1221 Rain 5 992 93 10000 13 250 13:58 13.03.2020
1222 Rain 5 991 93 9000 13 250 13:39 13.03.2020
1223 Rain 5 990 86 9000 13 260 13:20 13.03.2020
1224 Rain 5 990 86 9000 13 260 12:55 13.03.2020
1225 Rain 5 989 80 10000 14 250 12:37 13.03.2020
1226 Clouds 5 989 65 10000 16 250 12:18 13.03.2020
1227 Rain 5 988 73 10000 14 250 11:43 13.03.2020
1228 Rain 5 988 79 10000 13 250 11:25 13.03.2020
1229 Snow 5 988 79 10000 13 250 10:58 13.03.2020
1230 Rain 5 987 79 10000 12 250 10:39 13.03.2020
1231 Rain 5 987 79 10000 12 250 10:21 13.03.2020
1232 Rain 6 986 79 10000 15 250 09:44 13.03.2020
1233 Rain 6 986 79 10000 15 250 09:25 13.03.2020
1234 Clouds 6 986 65 10000 14 240 08:48 13.03.2020
1235 Clouds 6 986 65 10000 13 240 08:24 13.03.2020
1236 Clouds 5 986 65 10000 13 240 07:59 13.03.2020
1237 Clouds 5 986 65 10000 13 240 07:38 13.03.2020
1238 Clouds 5 985 67 10000 13 230 07:20 13.03.2020
1239 Clouds 5 985 69 10000 13 230 06:45 13.03.2020
1240 Clouds 4 985 69 10000 11 230 06:19 13.03.2020
1241 Clouds 4 985 69 10000 11 230 05:43 13.03.2020
1242 Rain 5 985 69 10000 11 240 04:39 13.03.2020
1243 Rain 5 986 80 10000 9 250 03:50 13.03.2020
1244 Clouds 6 985 93 10000 10 220 01:49 13.03.2020
1245 Clouds 6 985 93 10000 8 210 01:19 13.03.2020
1246 Rain 6 986 87 10000 10 220 00:56 13.03.2020
1247 Rain 5 987 93 10000 8 210 00:38 13.03.2020
1248 Rain 5 987 93 10000 8 190 00:18 13.03.2020
1249 Rain 5 988 86 9000 9 190 23:37 12.03.2020
1250 Rain 6 989 86 9000 8 200 23:18 12.03.2020
1251 Rain 6 990 70 10000 11 230 22:44 12.03.2020
1252 Rain 7 990 70 10000 11 230 22:25 12.03.2020
1253 Rain 7 991 48 10000 7 210 21:55 12.03.2020
1254 Rain 7 992 48 10000 6 210 21:36 12.03.2020
1255 Rain 7 992 48 10000 6 210 21:18 12.03.2020
1256 Rain 7 993 48 10000 5 210 20:42 12.03.2020
1257 Clouds 8 993 48 10000 5 210 20:20 12.03.2020
1258 Clouds 7 995 45 10000 8 230 19:42 12.03.2020
1259 Clouds 7 995 45 10000 8 230 19:21 12.03.2020
1260 Clouds 8 995 45 10000 9 240 18:58 12.03.2020
1261 Clouds 7 995 45 10000 6 220 18:39 12.03.2020
1262 Clouds 8 995 45 10000 5 220 18:21 12.03.2020
1263 Clouds 8 995 45 10000 5 230 17:41 12.03.2020
1264 Clouds 9 995 45 10000 6 240 17:22 12.03.2020
1265 Clouds 9 996 39 10000 5 230 16:58 12.03.2020
1266 Clouds 9 995 45 10000 7 240 16:40 12.03.2020
1267 Clouds 9 995 45 10000 7 240 16:21 12.03.2020
1268 Clouds 9 995 45 10000 7 230 15:48 12.03.2020
1269 Clouds 10 996 43 10000 8 250 15:28 12.03.2020
1270 Clouds 10 996 43 10000 8 250 15:28 12.03.2020
1271 Clouds 9 995 60 10000 10 240 14:55 12.03.2020
1272 Clouds 9 996 65 10000 7 230 14:37 12.03.2020
1273 Clouds 9 996 65 10000 7 230 14:18 12.03.2020
1274 Clouds 8 996 75 10000 8 240 13:38 12.03.2020
1275 Clouds 8 996 75 10000 10 250 13:20 12.03.2020
1276 Clouds 8 996 75 10000 10 250 12:55 12.03.2020
1277 Clouds 7 996 81 10000 10 250 12:37 12.03.2020
1278 Clouds 7 996 81 10000 10 250 12:37 12.03.2020
1279 Clouds 7 996 81 10000 10 260 12:18 12.03.2020
1280 Clouds 7 996 81 10000 10 260 11:55 12.03.2020
1281 Clouds 7 996 87 10000 9 250 11:36 12.03.2020
1282 Rain 6 995 93 10000 8 240 11:18 12.03.2020
1283 Rain 6 995 86 9000 8 250 10:41 12.03.2020
1284 Rain 5 995 86 9000 8 250 10:23 12.03.2020
1285 Rain 5 995 86 9000 9 250 09:55 12.03.2020
1286 Rain 5 995 86 10000 9 250 09:37 12.03.2020
1287 Rain 5 995 86 10000 9 250 09:19 12.03.2020
1288 Clouds 5 994 86 10000 8 250 08:38 12.03.2020
1289 Rain 5 994 93 10000 8 260 08:18 12.03.2020
1290 Rain 5 994 93 10000 8 260 07:47 12.03.2020
1291 Clouds 4 993 93 10000 7 260 07:21 12.03.2020
1292 Rain 5 993 93 8000 9 250 06:20 12.03.2020
1293 Rain 5 993 93 9000 8 240 05:34 12.03.2020
1294 Drizzle 5 992 93 6000 5 230 03:34 12.03.2020
1295 Clouds 5 992 93 10000 6 230 01:58 12.03.2020
1296 Clouds 5 992 93 10000 6 240 01:23 12.03.2020
1297 Clouds 5 992 93 10000 6 240 00:42 12.03.2020
1298 Rain 5 992 93 10000 5 220 23:58 11.03.2020
1299 Rain 5 993 93 10000 5 230 23:29 11.03.2020
1300 Rain 5 993 93 10000 5 240 22:59 11.03.2020
1301 Rain 5 993 93 10000 6 240 22:39 11.03.2020
1302 Rain 6 993 93 10000 6 240 22:21 11.03.2020
1303 Clouds 5 993 93 10000 7 240 21:58 11.03.2020
1304 Clouds 5 993 100 10000 4 220 21:39 11.03.2020
1305 Clouds 6 993 100 10000 4 220 21:21 11.03.2020
1306 Clouds 5 993 93 10000 4 220 20:56 11.03.2020
1307 Clouds 5 994 100 10000 4 210 20:37 11.03.2020
1308 Clouds 5 994 100 10000 4 210 20:19 11.03.2020
1309 Clouds 6 994 93 10000 5 230 19:42 11.03.2020
1310 Clouds 6 994 93 10000 6 230 19:24 11.03.2020
1311 Clouds 6 994 93 10000 6 250 18:57 11.03.2020
1312 Clouds 7 994 93 9000 6 240 18:37 11.03.2020
1313 Rain 7 994 100 2300 5 240 18:18 11.03.2020
1314 Drizzle 7 994 100 2500 3 210 17:55 11.03.2020
1315 Drizzle 7 994 100 2500 3 210 17:37 11.03.2020
1316 Rain 7 994 100 2200 3 190 17:18 11.03.2020
1317 Rain 7 995 100 1900 3 200 16:43 11.03.2020
1318 Rain 7 995 100 1800 3 190 16:20 11.03.2020
1319 Rain 7 995 100 1500 3 200 15:43 11.03.2020
1320 Rain 7 995 100 1500 3 200 15:23 11.03.2020
1321 Drizzle 7 995 93 1600 3 180 14:56 11.03.2020
1322 Drizzle 7 995 87 2300 3 170 14:37 11.03.2020
1323 Drizzle 7 995 87 2300 3 170 14:18 11.03.2020
1324 Mist 7 996 100 4300 3 100 13:42 11.03.2020
1325 Mist 7 996 100 4300 3 100 13:24 11.03.2020
1326 Mist 7 997 100 4600 2 90 12:56 11.03.2020
1327 Mist 7 997 93 4700 2 60 12:38 11.03.2020
1328 Mist 7 997 93 4700 2 60 12:19 11.03.2020
1329 Mist 7 998 93 4700 1 0 11:41 11.03.2020
1330 Mist 7 998 93 4700 1 0 11:21 11.03.2020
1331 Mist 7 999 93 4600 3 70 10:47 11.03.2020
1332 Mist 7 1000 93 4600 3 80 10:21 11.03.2020
1333 Mist 7 999 93 4600 3 70 10:21 11.03.2020
1334 Mist 7 1000 93 4600 3 80 09:59 11.03.2020
1335 Mist 7 1000 100 4100 3 80 09:40 11.03.2020
1336 Mist 7 1000 100 4100 3 80 09:21 11.03.2020
1337 Mist 7 1001 93 3900 3 80 08:43 11.03.2020
1338 Mist 6 1001 100 3800 2 60 08:25 11.03.2020
1339 Mist 6 1002 100 3800 3 80 07:48 11.03.2020
1340 Rain 6 1002 100 3700 3 90 07:21 11.03.2020
1341 Rain 6 1003 100 3500 3 100 06:53 11.03.2020
1342 Rain 5 1003 100 3400 2 80 06:33 11.03.2020
1343 Mist 5 1004 100 4100 3 100 05:33 11.03.2020
1344 Clouds 5 1005 100 6000 3 130 03:26 11.03.2020
1345 Mist 5 1006 100 5000 3 90 01:54 11.03.2020
1346 Mist 5 1007 100 3800 4 90 01:25 11.03.2020
1347 Clouds 5 1007 100 6000 3 100 00:44 11.03.2020
1348 Clouds 4 1008 100 8000 3 100 23:50 10.03.2020
1349 Clouds 5 1008 93 7000 3 100 23:28 10.03.2020
1350 Clouds 5 1008 100 7000 3 100 22:58 10.03.2020
1351 Clouds 5 1009 93 8000 2 100 22:37 10.03.2020
1352 Clouds 5 1009 93 8000 2 100 22:19 10.03.2020
1353 Clouds 5 1009 93 7000 2 120 21:56 10.03.2020
1354 Clouds 5 1009 93 9000 2 110 21:38 10.03.2020
1355 Clouds 5 1009 93 9000 2 110 21:19 10.03.2020
1356 Clouds 5 1009 93 10000 2 120 20:54 10.03.2020
1357 Clouds 6 1009 93 10000 2 120 20:36 10.03.2020
1358 Clouds 6 1009 93 10000 2 120 20:18 10.03.2020
1359 Clouds 7 1009 93 10000 2 130 19:42 10.03.2020
1360 Clouds 7 1009 93 10000 2 130 19:42 10.03.2020
1361 Clouds 7 1009 93 10000 2 130 19:23 10.03.2020
1362 Clouds 6 1010 87 10000 2 160 18:58 10.03.2020
1363 Clouds 6 1010 87 10000 2 150 18:40 10.03.2020
1364 Clouds 6 1010 87 10000 2 150 18:21 10.03.2020
1365 Clouds 7 1010 87 10000 2 160 17:56 10.03.2020
1366 Clouds 7 1010 87 10000 2 140 17:37 10.03.2020
1367 Clouds 8 1010 87 10000 2 120 17:19 10.03.2020
1368 Clouds 8 1010 87 10000 2 170 16:38 10.03.2020
1369 Clouds 9 1010 87 10000 1 190 16:18 10.03.2020
1370 Clouds 9 1010 87 10000 1 190 15:55 10.03.2020
1371 Clouds 9 1010 87 10000 2 190 15:36 10.03.2020
1372 Clouds 9 1010 87 10000 2 190 15:18 10.03.2020
1373 Clouds 9 1010 87 10000 3 250 14:40 10.03.2020
1374 Clouds 9 1010 87 10000 3 260 14:19 10.03.2020
1375 Clouds 9 1010 87 10000 4 240 13:54 10.03.2020
1376 Clouds 9 1010 87 10000 4 240 13:36 10.03.2020
1377 Clouds 8 1010 93 10000 3 220 13:18 10.03.2020
1378 Clouds 8 1010 93 10000 3 260 12:39 10.03.2020
1379 Clouds 7 1010 93 10000 2 240 12:19 10.03.2020
1380 Clouds 7 1010 100 8000 3 230 11:43 10.03.2020
1381 Clouds 7 1010 100 8000 3 230 11:25 10.03.2020
1382 -273 0 0 0 0 0 10:59 10.03.2020
1383 Drizzle 6 1009 100 10000 1 0 10:41 10.03.2020
1384 Drizzle 5 1009 100 10000 1 0 10:22 10.03.2020
1385 Rain 5 1010 100 9000 1 0 09:57 10.03.2020
1386 Rain 5 1010 93 8000 1 140 09:38 10.03.2020
1387 Rain 5 1010 100 8000 3 110 09:18 10.03.2020
1388 Rain 5 1010 93 9000 3 110 08:45 10.03.2020
1389 Rain 5 1010 93 9000 3 110 08:26 10.03.2020
1390 Rain 4 1010 93 9000 4 100 07:49 10.03.2020
1391 Rain 4 1011 100 7000 4 110 07:30 10.03.2020
1392 Rain 4 1011 100 5000 4 120 06:44 10.03.2020
1393 Rain 4 1011 100 5000 4 120 06:25 10.03.2020
1394 Rain 4 1012 93 4100 4 100 05:41 10.03.2020
1395 Rain 5 1013 100 3800 5 100 04:40 10.03.2020
1396 Rain 5 1014 100 4400 4 100 03:37 10.03.2020
1397 Rain 5 1014 93 5000 3 110 02:26 10.03.2020
1398 Rain 5 1015 93 6000 2 110 01:22 10.03.2020
1399 Rain 5 1016 87 8000 2 130 00:42 10.03.2020
1400 Rain 6 1016 81 10000 2 140 00:22 10.03.2020
1401 Rain 6 1016 70 10000 2 140 23:40 09.03.2020
1402 Clouds 6 1016 87 10000 3 110 23:21 09.03.2020
1403 Clouds 6 1017 70 10000 3 160 22:41 09.03.2020
1404 Clouds 6 1017 70 10000 3 160 22:22 09.03.2020
1405 Clouds 7 1017 65 10000 2 170 21:57 09.03.2020
1406 Clouds 6 1017 65 10000 2 170 21:39 09.03.2020
1407 Clouds 6 1017 65 10000 2 170 21:20 09.03.2020
1408 Clouds 7 1017 65 10000 3 180 20:56 09.03.2020
1409 Clouds 7 1017 61 10000 3 180 20:37 09.03.2020
1410 Clear 7 1017 61 10000 3 180 20:19 09.03.2020
1411 Clouds 8 1017 66 10000 3 180 19:44 09.03.2020
1412 Clouds 8 1017 66 10000 3 180 19:25 09.03.2020
1413 Clear 8 1017 61 10000 3 170 18:58 09.03.2020
1414 Clear 8 1018 61 10000 3 180 18:38 09.03.2020
1415 Clear 8 1018 61 10000 3 150 18:19 09.03.2020
1416 Clear 8 1018 61 10000 3 150 17:57 09.03.2020
1417 Clear 8 1018 57 10000 3 140 17:38 09.03.2020
1418 Clear 9 1018 57 10000 2 140 17:20 09.03.2020
1419 Clear 9 1018 57 10000 2 140 16:58 09.03.2020
1420 Clear 10 1018 53 10000 2 170 16:39 09.03.2020
1421 Clear 10 1018 53 10000 2 170 16:21 09.03.2020
1422 Clear 10 1018 53 10000 2 170 16:21 09.03.2020
1423 Clear 10 1018 53 10000 2 170 15:58 09.03.2020
1424 Clear 10 1018 53 10000 2 180 15:38 09.03.2020
1425 Clear 10 1018 53 10000 2 180 15:20 09.03.2020
1426 Clear 11 1018 57 10000 3 180 14:55 09.03.2020
1427 Clear 11 1018 50 10000 3 170 14:36 09.03.2020
1428 Clouds 11 1018 50 10000 3 170 14:18 09.03.2020
1429 Clouds 11 1018 53 10000 3 170 13:55 09.03.2020
1430 Clouds 11 1019 57 10000 4 180 13:36 09.03.2020
1431 Clouds 11 1019 57 10000 4 180 13:18 09.03.2020
1432 Clouds 11 1019 57 10000 3 160 12:41 09.03.2020
1433 Clouds 10 1019 61 10000 3 170 12:22 09.03.2020
1434 Clouds 9 1019 65 10000 2 200 11:42 09.03.2020
1435 Clouds 9 1019 65 10000 2 200 11:22 09.03.2020
1436 Clouds 9 1019 65 10000 2 170 10:59 09.03.2020
1437 Clouds 9 1019 65 10000 3 210 10:40 09.03.2020
1438 Clouds 9 1019 65 10000 3 210 10:40 09.03.2020
1439 Clouds 9 1019 65 10000 3 210 10:20 09.03.2020
1440 Clouds 9 1019 65 10000 4 180 09:59 09.03.2020
1441 Clouds 8 1019 75 10000 3 170 09:37 09.03.2020
1442 Clouds 8 1019 75 10000 3 170 09:19 09.03.2020
1443 Clouds 7 1019 81 10000 2 180 08:43 09.03.2020
1444 Clouds 6 1019 81 10000 2 180 08:25 09.03.2020
1445 Clouds 4 1019 86 10000 2 160 07:41 09.03.2020
1446 Clouds 4 1019 86 10000 2 160 07:21 09.03.2020
1447 Clouds 2 1019 93 10000 2 230 06:44 09.03.2020
1448 Clouds 3 1019 93 10000 2 230 06:25 09.03.2020
1449 Clouds 3 1019 93 10000 2 230 06:25 09.03.2020
1450 Clouds 2 1019 93 10000 2.71 186 05:52 09.03.2020
1451 Clouds 1 1019 93 10000 2 190 05:34 09.03.2020
1452 Clouds 1 1019 93 10000 1 0 04:43 09.03.2020
1453 Clouds 1 1019 93 10000 1 0 04:22 09.03.2020
1454 Clouds 2 1018 86 10000 1 0 03:20 09.03.2020
1455 Clouds 2 1018 86 10000 1 0 01:41 09.03.2020
1456 Clouds 2 1018 86 10000 1 0 00:39 09.03.2020
1457 Clouds 2 1018 86 10000 1 0 00:20 09.03.2020
1458 Clouds 2 1018 86 10000 1 0 23:51 08.03.2020
1459 Clouds 2 1018 86 10000 2 170 23:23 08.03.2020
1460 Clouds 2 1018 93 10000 1 0 22:57 08.03.2020
1461 Clouds 2 1018 86 10000 1 330 22:38 08.03.2020
1462 Clouds 2 1018 86 10000 1 330 22:20 08.03.2020
1463 Clouds 2 1018 86 10000 1 0 21:54 08.03.2020
1464 Clouds 2 1018 86 10000 1 0 21:54 08.03.2020
1465 Clouds 2 1018 86 10000 1 0 21:54 08.03.2020
1466 Clouds 3 1018 86 10000 3 220 21:36 08.03.2020
1467 Clouds 3 1018 86 10000 3 220 21:36 08.03.2020
1468 Clouds 3 1018 86 10000 1 0 21:18 08.03.2020
1469 Clouds 3 1018 80 10000 2 170 20:39 08.03.2020
1470 Clouds 4 1018 80 10000 2 170 20:21 08.03.2020
1471 Clouds 4 1018 80 10000 2 170 20:21 08.03.2020
1472 Clouds 4 1018 80 10000 1 310 19:56 08.03.2020
1473 Clouds 4 1018 75 10000 2 300 19:37 08.03.2020
1474 Clouds 4 1018 75 10000 2 300 19:18 08.03.2020
1475 Clouds 4 1017 80 10000 3 260 18:42 08.03.2020
1476 Clouds 4 1017 80 10000 3 260 18:24 08.03.2020
1477 Clouds 6 1017 75 10000 5 280 17:56 08.03.2020
1478 Clouds 5 1017 75 10000 5 280 17:38 08.03.2020
1479 Clouds 5 1017 75 10000 5 280 17:19 08.03.2020
1480 Clouds 5 1017 75 10000 5 280 16:46 08.03.2020
1481 Clouds 6 1017 80 10000 5 260 16:27 08.03.2020
1482 Clouds 6 1016 75 10000 5 280 15:57 08.03.2020
1483 Clouds 6 1016 75 10000 5 280 15:39 08.03.2020
1484 Clouds 6 1016 75 10000 5 280 15:20 08.03.2020
1485 Clouds 6 1015 86 10000 5 260 14:41 08.03.2020
1486 Clouds 6 1015 86 10000 5 260 14:21 08.03.2020
1487 Clouds 6 1015 86 10000 5 250 13:58 08.03.2020
1488 Clouds 6 1015 86 10000 5 250 13:39 08.03.2020
1489 Clouds 6 1015 80 10000 6 250 13:19 08.03.2020
1490 Clouds 7 1014 86 10000 5 260 12:41 08.03.2020
1491 Clouds 7 1014 86 10000 5 290 12:23 08.03.2020
1492 Clouds 8 1013 93 10000 5 270 11:56 08.03.2020
1493 Clouds 7 1013 93 10000 5 270 11:37 08.03.2020
1494 Clouds 7 1013 93 10000 5 270 11:37 08.03.2020
1495 Clouds 7 1013 93 10000 5 270 11:19 08.03.2020
1496 Clouds 7 1013 93 10000 5 270 10:41 08.03.2020
1497 Clouds 7 1013 93 10000 6 290 10:23 08.03.2020
1498 Rain 7 1013 100 10000 5 270 09:43 08.03.2020
1499 Rain 7 1013 93 10000 5 290 09:25 08.03.2020
1500 Rain 8 1012 100 4900 3 230 08:57 08.03.2020
1501 Rain 8 1012 93 9000 5 260 08:39 08.03.2020
1502 Clouds 8 1012 93 9000 5 260 08:19 08.03.2020
1503 Rain 8 1011 93 6000 6 250 07:42 08.03.2020
1504 Rain 8 1011 100 3500 5 250 07:23 08.03.2020
1505 Rain 8 1011 100 3700 4 230 06:42 08.03.2020
1506 Rain 8 1010 93 3900 4 210 06:22 08.03.2020
1507 Drizzle 8 1010 93 6000 4 210 05:35 08.03.2020
1508 Clouds 8 1010 93 7000 4 200 03:52 08.03.2020
1509 Clouds 8 1010 93 8000 4 190 02:29 08.03.2020
1510 Clouds 8 1010 93 9000 3 180 01:23 08.03.2020
1511 Clouds 8 1010 93 8000 3 190 00:52 08.03.2020
1512 Clouds 8 1010 87 8000 4 180 00:27 08.03.2020
1513 Clouds 8 1010 87 8000 4 180 23:46 07.03.2020
1514 Clouds 8 1010 87 8000 4 180 23:23 07.03.2020
1515 Clouds 7 1010 87 10000 4 190 22:54 07.03.2020
1516 Clouds 7 1010 87 10000 4 190 22:36 07.03.2020
1517 Clouds 7 1010 87 10000 4 190 22:18 07.03.2020
1518 Clouds 7 1010 87 10000 4 190 21:42 07.03.2020
1519 Clouds 7 1010 93 10000 5 180 21:19 07.03.2020
1520 Clouds 7 1011 81 9000 5 170 20:39 07.03.2020
1521 Clouds 7 1011 81 9000 5 170 20:19 07.03.2020
1522 Clouds 7 1011 81 9000 5 170 20:19 07.03.2020
1523 Clouds 7 1011 87 8000 5 160 19:41 07.03.2020
1524 Clouds 7 1011 87 8000 5 160 19:22 07.03.2020
1525 Clouds 7 1011 87 8000 6 160 18:47 07.03.2020
1526 Clouds 7 1011 87 8000 6 150 18:28 07.03.2020
1527 Clouds 7 1011 81 8000 6 160 17:59 07.03.2020
1528 Clouds 7 1011 81 9000 6 160 17:40 07.03.2020
1529 Clouds 7 1011 81 9000 6 160 17:40 07.03.2020
1530 Clouds 7 1011 81 9000 6 160 17:19 07.03.2020
1531 Clouds 8 1011 76 10000 7 140 16:55 07.03.2020
1532 Clouds 8 1011 76 10000 7 140 16:36 07.03.2020
1533 Clouds 8 1011 76 10000 7 140 16:18 07.03.2020
1534 Clouds 8 1011 76 10000 7 140 15:41 07.03.2020
1535 Clouds 9 1011 71 10000 7 140 15:22 07.03.2020
1536 Clouds 9 1011 66 10000 7 140 14:59 07.03.2020
1537 Clouds 10 1011 71 10000 6 140 14:40 07.03.2020
1538 Clouds 10 1011 62 10000 5 140 14:22 07.03.2020
1539 Clouds 11 1012 66 10000 5 150 13:42 07.03.2020
1540 Clouds 11 1012 66 10000 5 150 13:21 07.03.2020
1541 Clouds 11 1012 66 10000 5 130 12:55 07.03.2020
1542 Clouds 11 1012 71 10000 5 130 12:37 07.03.2020
1543 Clouds 11 1012 71 10000 5 130 12:18 07.03.2020
1544 Clouds 10 1013 76 9000 4 100 11:42 07.03.2020
1545 Clouds 10 1013 76 9000 4 100 11:23 07.03.2020
1546 Clouds 10 1013 81 9000 4 120 10:57 07.03.2020
1547 Clouds 9 1013 87 9000 4 130 10:37 07.03.2020
1548 Clouds 8 1013 87 9000 4 120 10:18 07.03.2020
1549 Clouds 7 1013 87 9000 5 130 09:40 07.03.2020
1550 Clouds 7 1013 87 9000 5 130 09:20 07.03.2020
1551 Clouds 7 1013 87 9000 5 130 09:20 07.03.2020
1552 Clouds 7 1013 87 9000 4 120 08:57 07.03.2020
1553 Clouds 7 1013 87 8000 4 100 08:39 07.03.2020
1554 Clouds 6 1013 87 8000 4 100 08:20 07.03.2020
1555 Clouds 5 1013 87 8000 4 90 07:46 07.03.2020
1556 Clouds 5 999 77 0 0.89 177 07:21 07.03.2020
1557 Clouds 5 999 77 0 0.89 180 06:43 07.03.2020
1558 Clouds 5 999 77 0 0.45 168 06:25 07.03.2020
1559 Clouds 5 1013 93 9000 3 90 05:40 07.03.2020
1560 Rain 5 1013 87 10000 3 100 03:57 07.03.2020
1561 Clouds 5 1013 87 10000 2 170 02:45 07.03.2020
1562 Clouds 6 1013 87 10000 2 170 01:58 07.03.2020
1563 Clouds 6 1013 87 10000 2 180 01:18 07.03.2020
1564 Clouds 5 1012 87 10000 2 170 00:28 07.03.2020
1565 Clouds 6 1012 87 10000 2 160 23:59 06.03.2020
1566 Clouds 6 1012 81 10000 2 190 23:40 06.03.2020
1567 Clouds 6 1012 81 10000 2 190 23:22 06.03.2020
1568 Clouds 6 1012 81 10000 3 190 22:46 06.03.2020
1569 Clouds 6 1012 81 10000 3 190 22:20 06.03.2020
1570 Rain 6 1011 81 10000 3 200 21:49 06.03.2020
1571 Rain 6 1011 81 10000 3 200 21:21 06.03.2020
1572 Clouds 6 1011 81 10000 4 190 20:56 06.03.2020
1573 Rain 6 1011 81 10000 5 190 20:36 06.03.2020
1574 Clouds 6 1011 81 10000 4 190 20:18 06.03.2020
1575 Rain 6 1011 81 10000 4 180 19:42 06.03.2020
1576 Rain 6 1011 81 10000 4 180 19:23 06.03.2020
1577 Rain 7 1011 81 10000 3 190 18:42 06.03.2020
1578 Rain 7 1010 81 10000 4 180 18:21 06.03.2020
1579 Rain 7 1010 81 10000 5 190 18:21 06.03.2020
1580 Rain 7 1010 75 10000 5 190 17:57 06.03.2020
1581 Rain 7 1010 75 10000 5 190 17:39 06.03.2020
1582 Rain 7 1010 75 10000 5 190 17:39 06.03.2020
1583 Rain 7 1009 75 10000 5 180 17:20 06.03.2020
1584 Rain 7 1009 75 10000 5 180 16:56 06.03.2020
1585 Rain 7 1009 75 10000 5 180 16:37 06.03.2020
1586 Clouds 6 1009 75 10000 5 180 16:19 06.03.2020
1587 Clouds 6 1009 75 10000 6 190 15:42 06.03.2020
1588 Clouds 6 1009 75 10000 6 190 15:23 06.03.2020
1589 Clouds 6 1008 80 10000 6 170 14:42 06.03.2020
1590 Clouds 6 1009 80 10000 6 170 14:24 06.03.2020
1591 Clouds 6 1009 80 10000 6 170 13:59 06.03.2020
1592 Clouds 6 1009 80 10000 5 170 13:40 06.03.2020
1593 Clouds 6 1009 80 10000 5 170 13:20 06.03.2020
1594 Clouds 5 1009 80 10000 6 170 12:55 06.03.2020
1595 Clouds 5 1009 80 10000 6 170 12:36 06.03.2020
1596 Clouds 5 1009 86 10000 7 160 12:18 06.03.2020
1597 Clouds 5 1009 86 10000 7 160 12:18 06.03.2020
1598 Clouds 5 1009 86 10000 7 160 11:43 06.03.2020
1599 Clouds 5 1009 86 10000 7 160 11:21 06.03.2020
1600 Clouds 5 1009 86 10000 7 160 11:21 06.03.2020
1601 Clouds 5 1009 86 10000 7 160 10:58 06.03.2020
1602 Clouds 4 1009 86 10000 7 150 10:37 06.03.2020
1603 Clouds 4 1009 86 10000 7 150 10:18 06.03.2020
1604 Clouds 4 1010 86 10000 6 160 09:42 06.03.2020
1605 Clouds 4 1010 86 10000 6 160 09:24 06.03.2020
1606 Clouds 4 1010 86 10000 6 160 08:58 06.03.2020
1607 Clouds 4 1011 86 10000 7 160 08:40 06.03.2020
1608 Clouds 4 1011 86 10000 7 160 08:22 06.03.2020
1609 Clouds 4 1011 86 10000 7 160 07:47 06.03.2020
1610 Clouds 4 1011 86 10000 7 160 07:26 06.03.2020
1611 Clouds 4 1011 86 10000 8 150 06:51 06.03.2020
1612 Clouds 3 1011 86 10000 8 160 06:32 06.03.2020
1613 Clouds 4 1011 86 10000 8 150 05:41 06.03.2020
1614 Clouds 4 1011 86 10000 8 150 05:20 06.03.2020
1615 Clouds 4 1011 80 10000 6 140 04:44 06.03.2020
1616 Clouds 5 1012 86 10000 6 150 01:56 06.03.2020
1617 Clouds 5 1012 86 10000 6 150 01:38 06.03.2020
1618 Clouds 5 1012 86 10000 6 150 01:18 06.03.2020
1619 Clouds 5 1012 86 9000 6 150 00:31 06.03.2020
1620 Clouds 5 1013 86 9000 6 150 23:47 05.03.2020
1621 Clouds 5 1013 86 9000 7 160 23:29 05.03.2020
1622 Clouds 5 1013 86 9000 7 160 22:57 05.03.2020
1623 Clouds 5 1013 86 10000 7 150 22:38 05.03.2020
1624 Clouds 5 1013 86 10000 7 150 22:19 05.03.2020
1625 Clouds 5 1013 81 10000 5 150 21:56 05.03.2020
1626 Clouds 5 1013 81 10000 7 150 21:38 05.03.2020
1627 Clouds 5 1013 81 10000 7 150 21:19 05.03.2020
1628 Clouds 5 1013 81 10000 6 150 20:55 05.03.2020
1629 Clouds 5 1013 81 10000 6 150 20:37 05.03.2020
1630 Clouds 5 1013 81 10000 6 150 20:18 05.03.2020
1631 Clouds 5 1013 81 10000 6 150 19:55 05.03.2020
1632 Clouds 6 1013 81 10000 6 150 19:37 05.03.2020
1633 Clouds 6 1013 81 10000 6 150 19:18 05.03.2020
1634 Clouds 6 1013 81 10000 6 150 18:39 05.03.2020
1635 Clouds 6 1013 81 10000 6 150 18:20 05.03.2020
1636 Clouds 6 1013 81 10000 6 150 17:59 05.03.2020
1637 Clouds 6 1013 81 10000 6 140 17:40 05.03.2020
1638 Clouds 6 1013 81 10000 6 140 17:22 05.03.2020
1639 Clouds 6 1012 81 10000 7 140 16:55 05.03.2020
1640 Clouds 7 1012 75 10000 7 140 16:36 05.03.2020
1641 Clouds 7 1012 75 10000 7 140 16:18 05.03.2020
1642 Clouds 7 1013 75 10000 7 150 15:44 05.03.2020
1643 Clouds 7 1013 75 10000 7 150 15:22 05.03.2020
1644 Clouds 8 1013 70 10000 8 140 14:58 05.03.2020
1645 Clouds 8 1013 70 10000 9 140 14:39 05.03.2020
1646 Clouds 8 1013 70 10000 9 140 14:21 05.03.2020
1647 Clouds 7 1013 75 10000 7 140 13:55 05.03.2020
1648 Clouds 7 1013 75 10000 8 150 13:36 05.03.2020
1649 Clouds 7 1013 75 10000 8 150 13:36 05.03.2020
1650 Clouds 7 1013 75 10000 8 150 13:18 05.03.2020
1651 Clouds 6 1014 81 10000 8 140 12:41 05.03.2020
1652 Clouds 6 1014 81 10000 8 140 12:20 05.03.2020
1653 Clouds 6 1014 86 10000 8 140 11:57 05.03.2020
1654 Clouds 6 1015 80 10000 8 140 11:37 05.03.2020
1655 Clouds 6 1015 80 10000 8 140 11:19 05.03.2020
1656 Clouds 6 1015 80 10000 8 140 11:19 05.03.2020
1657 Clouds 5 1015 80 10000 8 150 10:57 05.03.2020
1658 Clouds 5 1015 86 10000 7 130 10:39 05.03.2020
1659 Clouds 4 1016 86 10000 7 130 10:21 05.03.2020
1660 Clouds 4 1016 86 10000 7 140 09:46 05.03.2020
1661 Clouds 4 1016 86 10000 7 140 09:28 05.03.2020
1662 Clouds 3 1016 93 10000 7 130 08:49 05.03.2020
1663 Clouds 3 1016 93 10000 7 140 08:31 05.03.2020
1664 Clouds 3 1016 93 10000 7 130 07:56 05.03.2020
1665 Clouds 3 1017 86 10000 7 130 07:36 05.03.2020
1666 Clouds 3 1017 86 10000 7 130 07:18 05.03.2020
1667 Clouds 3 1016 93 10000 8 130 06:43 05.03.2020
1668 Clouds 3 1016 93 10000 8 130 06:19 05.03.2020
1669 Clouds 2 1017 93 10000 9 120 05:33 05.03.2020
1670 Clouds 2 1017 100 10000 8 130 04:23 05.03.2020
1671 Clouds 3 1018 93 10000 7 130 03:58 05.03.2020
1672 Clouds 3 1018 93 9000 6 140 02:32 05.03.2020
1673 Clouds 3 1018 93 8000 7 130 01:26 05.03.2020
1674 Mist 3 1019 93 4800 6 120 00:44 05.03.2020
1675 Mist 3 1019 93 4800 6 120 23:57 04.03.2020
1676 Mist 3 1019 100 5000 5 120 23:39 04.03.2020
1677 Mist 3 1019 100 5000 5 120 23:20 04.03.2020
1678 Clouds 3 1019 100 6000 5 120 22:55 04.03.2020
1679 Clouds 3 1019 100 8000 6 120 22:36 04.03.2020
1680 Clouds 3 1019 100 8000 6 120 22:18 04.03.2020
1681 Clouds 3 1019 100 9000 5 120 21:42 04.03.2020
1682 Clouds 3 1019 100 9000 5 120 21:42 04.03.2020
1683 Clouds 3 1019 100 9000 5 120 21:22 04.03.2020
1684 Clouds 4 1019 93 9000 6 100 20:59 04.03.2020
1685 Clouds 4 1019 93 8000 6 100 20:39 04.03.2020
1686 Clouds 4 1019 93 8000 6 100 20:21 04.03.2020
1687 Clouds 4 1019 93 7000 6 120 19:43 04.03.2020
1688 Clouds 4 1019 93 7000 5 130 19:24 04.03.2020
1689 Clouds 4 1019 93 8000 5 110 18:59 04.03.2020
1690 Clouds 5 1019 93 8000 7 100 18:41 04.03.2020
1691 Clouds 5 1019 93 8000 7 100 18:23 04.03.2020
1692 Clouds 5 1018 93 7000 6 110 17:59 04.03.2020
1693 Clouds 5 1018 93 7000 6 110 17:39 04.03.2020
1694 Clouds 5 1018 93 7000 6 110 17:20 04.03.2020
1695 Mist 5 1018 93 5000 7 90 16:55 04.03.2020
1696 Mist 5 1018 93 5000 7 90 16:55 04.03.2020
1697 Mist 5 1018 93 4900 5 90 16:36 04.03.2020
1698 Mist 5 1018 93 3900 5 90 16:18 04.03.2020
1699 Clouds 6 1018 87 10000 3 130 15:42 04.03.2020
1700 Clouds 6 1018 87 10000 3 130 15:24 04.03.2020
1701 Mist 6 1018 93 4000 5 80 14:57 04.03.2020
1702 Mist 6 1018 93 5000 5 80 14:38 04.03.2020
1703 Mist 6 1018 93 5000 5 80 14:19 04.03.2020
1704 Mist 6 1018 93 4300 4 70 13:58 04.03.2020
1705 Mist 6 1017 93 4000 3 60 13:39 04.03.2020
1706 Mist 6 1017 93 4000 3 60 13:20 04.03.2020
1707 Mist 7 1017 87 4000 2 70 12:55 04.03.2020
1708 Mist 7 1017 93 3300 3 70 12:37 04.03.2020
1709 Mist 7 1017 93 3300 3 70 12:19 04.03.2020
1710 Mist 6 1017 93 2400 3 70 11:41 04.03.2020
1711 Mist 6 1017 93 2400 3 70 11:23 04.03.2020
1712 Mist 5 1017 93 3200 2 80 10:58 04.03.2020
1713 Mist 5 1017 93 9000 3 80 10:40 04.03.2020
1714 Mist 5 1017 93 9000 3 80 10:19 04.03.2020
1715 Mist 4 1016 100 3100 2 110 09:43 04.03.2020
1716 Mist 4 1016 100 3100 2 110 09:21 04.03.2020
1717 Fog 4 1016 100 2500 2 150 08:48 04.03.2020
1718 Fog 4 1016 100 2500 2 150 08:28 04.03.2020
1719 Fog 3 1016 100 1600 2 150 07:57 04.03.2020
1720 Fog 3 1016 100 550 2 210 07:38 04.03.2020
1721 Fog 3 1016 100 450 2 180 07:20 04.03.2020
1722 Fog 3 1016 100 450 2 180 06:43 04.03.2020
1723 Fog 3 1015 100 250 2 220 06:23 04.03.2020
1724 Fog 2 1015 100 200 3 200 05:50 04.03.2020
1725 Fog 2 1014 100 400 2 160 04:30 04.03.2020
1726 Fog 2 1014 100 150 2 170 03:44 04.03.2020
1727 Fog 2 1014 100 150 2 170 03:25 04.03.2020
1728 Fog 2 1013 100 150 1 0 02:55 04.03.2020
1729 Fog 2 1013 100 150 1 0 02:21 04.03.2020
1730 Fog 2 1013 100 200 2 210 01:54 04.03.2020
1731 Fog 2 1013 100 300 2 190 00:52 04.03.2020
1732 Fog 2 1013 100 300 2 190 00:27 04.03.2020
1733 Fog 3 1012 100 450 3 190 23:47 03.03.2020
1734 Fog 3 1012 100 600 3 200 23:28 03.03.2020
1735 Fog 2 1012 100 1100 3 160 22:59 03.03.2020
1736 Mist 2 1012 100 1800 2 160 22:40 03.03.2020
1737 Mist 2 1012 100 1800 2 160 22:20 03.03.2020
1738 Mist 2 1012 100 1800 2 160 22:20 03.03.2020
1739 Mist 3 1012 100 2100 2 170 21:57 03.03.2020
1740 Mist 3 1012 93 2400 3 180 21:38 03.03.2020
1741 Mist 3 1012 93 2400 3 180 21:19 03.03.2020
1742 Mist 3 1011 93 2700 3 180 20:55 03.03.2020
1743 Mist 3 1011 93 5000 3 170 20:36 03.03.2020
1744 Mist 3 1011 93 5000 3 170 20:18 03.03.2020
1745 Clouds 3 1011 86 6000 3 150 19:54 03.03.2020
1746 Clouds 3 1011 86 7000 3 160 19:36 03.03.2020
1747 Clouds 3 1011 86 7000 3 160 19:18 03.03.2020
1748 Clouds 3 1011 86 9000 3 170 18:42 03.03.2020
1749 Rain 3 1010 86 10000 4 150 18:22 03.03.2020
1750 Rain 3 1010 86 10000 4 150 17:59 03.03.2020
1751 Rain 3 1010 86 10000 4 150 17:59 03.03.2020
1752 Rain 3 1010 86 10000 4 170 17:40 03.03.2020
1753 Rain 3 1010 93 9000 3 170 17:21 03.03.2020
1754 Rain 3 1010 86 10000 4 170 17:21 03.03.2020
1755 Rain 3 1010 93 9000 3 170 16:58 03.03.2020
1756 Rain 4 1010 86 9000 3 150 16:38 03.03.2020
1757 Rain 4 1010 86 9000 3 150 16:19 03.03.2020
1758 Rain 4 1010 86 9000 4 150 15:57 03.03.2020
1759 Rain 4 1010 86 10000 4 160 15:39 03.03.2020
1760 Rain 4 1010 86 10000 4 160 15:19 03.03.2020
1761 Clouds 4 1010 80 10000 4 140 14:41 03.03.2020
1762 Rain 5 1010 80 10000 4 140 14:20 03.03.2020
1763 Rain 5 1010 80 10000 4 140 13:58 03.03.2020
1764 Clouds 5 1010 80 10000 3 150 13:40 03.03.2020
1765 Clouds 5 1010 80 10000 3 150 13:20 03.03.2020
1766 Clouds 5 1010 80 10000 5 150 12:47 03.03.2020
1767 Clouds 5 1010 80 10000 4 150 12:26 03.03.2020
1768 Clouds 5 1010 86 10000 5 160 11:58 03.03.2020
1769 Clouds 5 1010 86 10000 4 160 11:37 03.03.2020
1770 Clouds 4 1010 86 10000 4 140 11:18 03.03.2020
1771 Clouds 4 1010 86 10000 4 140 10:56 03.03.2020
1772 Clouds 4 1010 86 9000 5 140 10:37 03.03.2020
1773 Clouds 4 1010 86 9000 5 140 10:19 03.03.2020
1774 Rain 4 1011 93 7000 4 110 09:44 03.03.2020
1775 Rain 3 1011 93 7000 4 130 09:23 03.03.2020
1776 Rain 3 1011 93 7000 4 130 08:58 03.03.2020
1777 Rain 3 1011 93 4700 4 150 08:39 03.03.2020
1778 Rain 3 1011 93 4700 4 150 08:20 03.03.2020
1779 Rain 2 1011 93 6000 4 140 07:44 03.03.2020
1780 Rain 2 1011 93 6000 4 140 07:22 03.03.2020
1781 Rain 2 1011 93 5000 4 130 06:49 03.03.2020
1782 Rain 2 1011 93 5000 4 130 06:49 03.03.2020
1783 Rain 2 1011 93 5000 4 130 06:23 03.03.2020
1784 Rain 2 1011 100 5000 4 140 05:47 03.03.2020
1785 Rain 2 1011 100 5000 3 140 05:28 03.03.2020
1786 Clouds 2 1011 100 6000 3 130 04:30 03.03.2020
1787 Rain 3 1012 86 9000 4 190 01:40 03.03.2020
1788 Rain 3 1012 86 10000 5 190 00:49 03.03.2020
1789 Rain 3 1012 80 10000 5 190 00:27 03.03.2020
1790 Clouds 3 1012 80 10000 5 180 23:59 02.03.2020
1791 Clouds 3 1012 80 10000 4 180 23:41 02.03.2020
1792 Clouds 3 1012 80 10000 4 180 23:22 02.03.2020
1793 Clouds 3 1011 80 10000 5 180 22:55 02.03.2020
1794 Clouds 3 1011 80 10000 4 180 22:37 02.03.2020
1795 Clouds 3 1011 80 10000 4 180 22:19 02.03.2020
1796 Clouds 3 1011 86 10000 3 170 21:42 02.03.2020
1797 Clouds 3 1011 86 10000 3 170 21:24 02.03.2020
1798 Clouds 3 1011 86 10000 3 180 20:59 02.03.2020
1799 Clouds 3 1011 86 10000 3 190 20:41 02.03.2020
1800 Clouds 4 1011 86 10000 3 190 20:21 02.03.2020
1801 Clouds 3 1011 86 10000 3 190 19:57 02.03.2020
1802 Clouds 4 1011 86 10000 4 210 19:39 02.03.2020
1803 Clouds 4 1011 86 10000 4 210 19:20 02.03.2020
1804 Clouds 3 1011 86 10000 4 190 18:55 02.03.2020
1805 Clouds 3 1011 86 10000 5 200 18:37 02.03.2020
1806 Clouds 3 1011 86 10000 5 200 18:18 02.03.2020
1807 Clouds 4 1011 86 10000 5 190 17:55 02.03.2020
1808 Clouds 4 1011 86 9000 4 190 17:37 02.03.2020
1809 Clouds 4 1011 86 9000 4 190 17:19 02.03.2020
1810 Clouds 4 1010 93 9000 5 200 16:41 02.03.2020
1811 Clouds 4 1010 93 9000 5 200 16:23 02.03.2020
1812 Clouds 4 1010 93 8000 5 200 15:45 02.03.2020
1813 Clouds 4 1010 93 8000 5 200 15:45 02.03.2020
1814 Clouds 4 1010 93 8000 5 200 15:22 02.03.2020
1815 Clouds 4 1010 93 8000 5 200 14:58 02.03.2020
1816 Clouds 4 1009 93 7000 5 210 14:37 02.03.2020
1817 Clouds 4 1009 93 7000 5 210 14:37 02.03.2020
1818 Clouds 4 1009 93 7000 5 210 14:19 02.03.2020
1819 Clouds 4 1009 93 7000 5 200 13:44 02.03.2020
1820 Clouds 4 1009 93 7000 5 200 13:20 02.03.2020
1821 Clouds 4 1009 93 8000 6 210 12:59 02.03.2020
1822 Clouds 4 1009 100 9000 5 200 12:41 02.03.2020
1823 Drizzle 4 1009 93 8000 5 210 12:19 02.03.2020
1824 Rain 4 1009 93 10000 5 200 11:38 02.03.2020
1825 Rain 4 1009 93 10000 5 200 11:19 02.03.2020
1826 Rain 4 1009 100 9000 5 210 10:56 02.03.2020
1827 Rain 3 1008 93 9000 5 210 10:37 02.03.2020
1828 Rain 3 1008 93 9000 5 210 10:18 02.03.2020
1829 Rain 3 1008 93 7000 5 210 09:49 02.03.2020
1830 Rain 3 1008 93 7000 5 210 09:49 02.03.2020
1831 Rain 3 1008 93 9000 5 200 09:30 02.03.2020
1832 Rain 3 1008 93 9000 6 210 08:49 02.03.2020
1833 Rain 3 1008 100 9000 5 200 08:23 02.03.2020
1834 Rain 3 1008 93 9000 5 200 07:51 02.03.2020
1835 Rain 2 1008 93 9000 5 200 07:31 02.03.2020
1836 Rain 2 1007 93 8000 5 200 06:50 02.03.2020
1837 Rain 2 1007 93 9000 5 200 06:25 02.03.2020
1838 Drizzle 2 1007 93 10000 4 200 05:25 02.03.2020
1839 Rain 2 1008 93 7000 5 200 03:28 02.03.2020
1840 Rain 2 1007 93 7000 4 190 02:57 02.03.2020
1841 Rain 2 1008 100 7000 5 200 02:30 02.03.2020
1842 Rain 3 1008 93 7000 5 200 01:37 02.03.2020
1843 Rain 3 1008 93 7000 5 200 01:19 02.03.2020
1844 Rain 4 1008 86 9000 4 210 00:22 02.03.2020
1845 Rain 4 1008 86 9000 6 220 23:43 01.03.2020
1846 Rain 5 1008 86 9000 6 220 23:24 01.03.2020
1847 Rain 5 1008 80 9000 9 240 22:55 01.03.2020
1848 Rain 5 1008 60 10000 7 230 22:36 01.03.2020
1849 Rain 5 1008 60 10000 7 230 22:18 01.03.2020
1850 Clouds 6 1007 60 10000 5 220 21:41 01.03.2020
1851 Clouds 5 1007 60 10000 5 220 21:23 01.03.2020
1852 Clouds 5 1007 56 10000 6 220 20:58 01.03.2020
1853 Clouds 5 1007 56 10000 6 210 20:39 01.03.2020
1854 Clouds 5 1007 56 10000 6 210 20:21 01.03.2020
1855 Clouds 5 1006 56 10000 6 210 19:42 01.03.2020
1856 Clouds 5 1006 56 10000 6 210 19:23 01.03.2020
1857 Clouds 5 1006 56 10000 7 200 18:58 01.03.2020
1858 Clouds 5 1006 56 10000 7 200 18:39 01.03.2020
1859 Clouds 5 1006 56 10000 9 210 18:19 01.03.2020
1860 Clouds 5 1006 56 10000 9 210 17:57 01.03.2020
1861 Rain 5 1006 60 10000 8 200 17:38 01.03.2020
1862 Rain 5 1006 60 10000 8 200 17:20 01.03.2020
1863 Rain 4 1006 74 10000 8 200 16:55 01.03.2020
1864 Rain 5 1006 64 10000 7 190 16:37 01.03.2020
1865 Rain 5 1006 64 10000 7 190 16:18 01.03.2020
1866 Clouds 4 1006 69 10000 7 180 15:56 01.03.2020
1867 Clouds 4 1006 69 10000 7 190 15:37 01.03.2020
1868 Clouds 4 1006 69 10000 7 190 15:19 01.03.2020
1869 Clouds 4 1007 69 10000 7 190 14:55 01.03.2020
1870 Rain 4 1007 69 10000 8 200 14:37 01.03.2020
1871 Rain 4 1007 69 10000 8 200 14:18 01.03.2020
1872 Clouds 5 1007 48 10000 7 200 13:44 01.03.2020
1873 Clouds 5 1007 48 10000 7 200 13:22 01.03.2020
1874 Clouds 5 1008 51 10000 7 190 12:59 01.03.2020
1875 Clouds 5 1008 51 10000 8 180 12:41 01.03.2020
1876 Clouds 5 1008 51 10000 8 180 12:21 01.03.2020
1877 Clouds 4 1008 51 10000 7 180 11:42 01.03.2020
1878 Clouds 4 1009 51 10000 8 200 11:24 01.03.2020
1879 Clouds 4 1009 55 10000 8 200 10:57 01.03.2020
1880 Clouds 4 1009 55 10000 8 200 10:38 01.03.2020
1881 Clouds 4 1009 55 10000 8 200 10:20 01.03.2020
1882 Clouds 3 1010 64 10000 6 200 09:57 01.03.2020
1883 Clouds 2 1010 69 10000 6 190 09:39 01.03.2020
1884 Clouds 2 1010 69 10000 6 190 09:21 01.03.2020
1885 Clouds 1 1010 78 10000 6 210 08:41 01.03.2020
1886 Clouds 0 1010 88 10000 5 210 08:21 01.03.2020
1887 Clouds 0 1010 88 10000 5 190 07:43 01.03.2020
1888 Clouds 0 1010 88 10000 5 190 07:24 01.03.2020
1889 Clouds -1 1010 86 10000 5 190 06:58 01.03.2020
1890 Clouds -2 1010 92 10000 5 210 06:38 01.03.2020
1891 Clouds -3 1010 92 10000 2 170 04:27 01.03.2020
1892 Clouds -3 1009 100 10000 2 230 02:55 01.03.2020
1893 Clear -3 1009 92 10000 4 230 01:54 01.03.2020
1894 Clear -3 1009 92 10000 4 220 01:31 01.03.2020
1895 Clouds -3 1009 86 10000 4 240 00:46 01.03.2020
1896 Clouds -3 1009 86 10000 4 240 00:22 01.03.2020
1897 Clouds -3 1009 92 10000 4 240 23:54 29.02.2020
1898 Clouds -3 1008 92 10000 5 230 23:34 29.02.2020
1899 Clear -3 1008 85 10000 5 230 22:45 29.02.2020
1900 Clear -3 1008 85 10000 5 230 22:26 29.02.2020
1901 Clear -3 1008 86 10000 5 240 21:47 29.02.2020
1902 Clear -3 1007 86 10000 5 250 21:26 29.02.2020
1903 Clouds -2 1007 92 10000 4 240 20:58 29.02.2020
1904 Clouds -2 1007 86 10000 6 250 20:40 29.02.2020
1905 Clouds -2 1007 86 10000 6 250 20:19 29.02.2020
1906 Clouds -2 1006 86 10000 6 250 19:41 29.02.2020
1907 Clouds -2 1006 86 10000 6 250 19:22 29.02.2020
1908 Clouds -2 1006 92 10000 6 250 18:57 29.02.2020
1909 Clouds -1 1006 86 10000 5 240 18:39 29.02.2020
1910 Clouds -1 1006 86 10000 5 240 18:19 29.02.2020
1911 Clouds -2 1006 86 10000 5 240 17:55 29.02.2020
1912 Clouds -2 1005 86 10000 5 230 17:36 29.02.2020
1913 Clouds -2 1005 86 10000 5 230 17:36 29.02.2020
1914 Snow -1 1005 86 10000 5 240 17:18 29.02.2020
1915 Clouds -1 1004 80 10000 6 250 16:42 29.02.2020
1916 Clouds -1 1004 80 10000 6 250 16:19 29.02.2020
1917 Clouds -1 1004 86 10000 6 250 15:54 29.02.2020
1918 Snow 0 1004 86 6000 8 270 15:36 29.02.2020
1919 Snow 1 1004 86 6000 8 270 15:18 29.02.2020
1920 Clouds 1 1003 69 10000 8 250 14:39 29.02.2020
1921 Clouds 1 1003 69 10000 8 250 14:21 29.02.2020
1922 Clouds 1 1003 69 10000 8 250 13:44 29.02.2020
1923 Snow 2 1003 69 9000 8 240 13:26 29.02.2020
1924 Clouds 1 1004 59 10000 6 270 12:55 29.02.2020
1925 Clouds 1 1003 69 10000 8 250 12:36 29.02.2020
1926 Clouds 1 1003 69 10000 8 250 12:18 29.02.2020
1927 Clouds 0 1003 69 10000 10 250 11:44 29.02.2020
1928 Clouds 1 1003 69 10000 10 250 11:25 29.02.2020
1929 Clouds 0 1003 70 10000 6 280 10:50 29.02.2020
1930 Clouds 0 1003 63 10000 8 270 10:29 29.02.2020
1931 Clouds 0 1003 63 10000 9 270 09:52 29.02.2020
1932 Clouds 0 1003 63 10000 7 270 09:28 29.02.2020
1933 Clouds -1 1002 74 10000 7 270 08:58 29.02.2020
1934 Snow -1 1002 86 10000 6 270 08:39 29.02.2020
1935 Snow -1 1002 86 10000 6 270 08:20 29.02.2020
1936 Snow -1 1002 86 9000 6 270 07:47 29.02.2020
1937 Snow -1 1002 92 8000 6 270 07:22 29.02.2020
1938 Snow -1 1001 100 2000 6 270 06:54 29.02.2020
1939 Snow -1 1001 100 2000 6 270 06:28 29.02.2020
1940 Snow -1 1001 86 3300 6 250 05:49 29.02.2020
1941 Snow -1 1001 86 3300 6 250 05:30 29.02.2020
1942 Snow 0 1001 89 10000 7 240 03:53 29.02.2020
1943 Clouds 0 1001 89 10000 7 240 03:23 29.02.2020
1944 Clouds 0 1001 89 10000 6 240 02:52 29.02.2020
1945 Clouds 0 1000 85 10000 7 250 01:55 29.02.2020
1946 Snow 0 1000 85 10000 6 230 00:49 29.02.2020
1947 Snow 0 1000 85 5000 5 230 00:27 29.02.2020
1948 Clouds 0 999 85 10000 6 240 23:41 28.02.2020
1949 Clouds 0 999 91 10000 6 240 23:22 28.02.2020
1950 Clouds 0 999 91 10000 6 240 22:43 28.02.2020
1951 Clouds 0 999 91 10000 6 250 22:22 28.02.2020
1952 Clouds 0 999 74 10000 6 240 21:42 28.02.2020
1953 Clouds 0 999 74 10000 6 240 21:22 28.02.2020
1954 Clouds 0 999 74 10000 5 230 20:58 28.02.2020
1955 Clouds 0 999 69 10000 5 240 20:39 28.02.2020
1956 Clouds 0 999 69 10000 6 230 20:20 28.02.2020
1957 Clouds 0 999 69 10000 6 230 19:57 28.02.2020
1958 Clouds 0 999 69 10000 6 230 19:57 28.02.2020
1959 Clouds 0 999 69 10000 6 240 19:38 28.02.2020
1960 Clouds 0 999 69 10000 6 240 19:20 28.02.2020
1961 Clouds 0 998 64 10000 6 250 18:46 28.02.2020
1962 Clouds 0 998 64 10000 6 250 18:25 28.02.2020
1963 Clouds 1 998 69 10000 5 250 17:57 28.02.2020
1964 Clouds 1 998 69 10000 5 260 17:38 28.02.2020
1965 Clouds 1 998 69 10000 5 260 17:20 28.02.2020
1966 Clouds 1 998 64 10000 6 250 16:38 28.02.2020
1967 Clouds 1 998 64 10000 6 250 16:20 28.02.2020
1968 Clouds 2 998 59 10000 6 250 15:57 28.02.2020
1969 Clouds 2 997 59 10000 6 250 15:38 28.02.2020
1970 Clouds 2 997 59 10000 6 250 15:19 28.02.2020
1971 Clouds 2 997 64 10000 6 250 14:46 28.02.2020
1972 Clouds 3 997 64 10000 7 230 14:20 28.02.2020
1973 Clouds 3 997 69 10000 6 250 13:59 28.02.2020
1974 Clouds 3 997 74 10000 6 250 13:41 28.02.2020
1975 Clouds 3 997 74 10000 6 250 13:20 28.02.2020
1976 Clouds 3 997 74 10000 6 250 13:20 28.02.2020
1977 Clouds 3 996 74 10000 5 250 12:47 28.02.2020
1978 Clouds 3 996 74 10000 5 250 12:28 28.02.2020
1979 Clouds 2 996 80 10000 7 250 11:59 28.02.2020
1980 Clouds 2 996 86 10000 5 240 11:41 28.02.2020
1981 Clouds 2 996 86 10000 5 240 11:21 28.02.2020
1982 Clouds 2 996 80 10000 6 240 10:54 28.02.2020
1983 Clouds 2 996 80 10000 6 250 10:36 28.02.2020
1984 Clouds 2 996 80 10000 6 250 10:18 28.02.2020
1985 Clouds 1 996 83 10000 6 240 09:40 28.02.2020
1986 Clouds 1 996 83 10000 6 240 09:20 28.02.2020
1987 Clouds 0 996 83 10000 6 250 08:42 28.02.2020
1988 Clouds 0 996 87 10000 6 250 08:21 28.02.2020
1989 Clouds 0 996 87 10000 7 240 07:46 28.02.2020
1990 Clouds 0 995 92 10000 5 230 07:26 28.02.2020
1991 Clouds 0 995 92 10000 5 230 06:59 28.02.2020
1992 Clouds 0 995 92 10000 4 220 06:38 28.02.2020
1993 Clouds 0 995 92 10000 4 230 05:31 28.02.2020
1994 Clouds 0 994 100 10000 4 230 04:32 28.02.2020
1995 Clouds 0 994 100 10000 4 220 03:22 28.02.2020
1996 Clouds 0 993 91 10000 4 230 02:41 28.02.2020
1997 Clouds 1 994 90 10000 6 230 01:48 28.02.2020
1998 Clouds 1 994 90 10000 5 250 00:33 28.02.2020
1999 Clouds 1 993 90 10000 5 260 23:57 27.02.2020
2000 Clouds 2 993 90 10000 5 280 23:38 27.02.2020
2001 Clouds 2 992 93 10000 5 260 23:18 27.02.2020
2002 Rain 2 992 93 10000 5 280 22:40 27.02.2020
2003 Rain 3 992 93 10000 5 280 22:22 27.02.2020
2004 Clouds 2 992 100 8000 4 250 21:54 27.02.2020
2005 Clouds 2 992 93 9000 5 250 21:36 27.02.2020
2006 Clouds 2 992 93 9000 5 250 21:18 27.02.2020
2007 Clouds 3 992 93 9000 4 240 20:42 27.02.2020
2008 Rain 3 992 93 9000 4 240 20:23 27.02.2020
2009 Clouds 3 992 93 6000 5 250 19:59 27.02.2020
2010 Rain 3 992 100 5000 6 250 19:41 27.02.2020
2011 Rain 3 992 100 5000 6 250 19:23 27.02.2020
2012 Rain 3 992 100 1500 4 210 18:57 27.02.2020
2013 Rain 3 992 100 1600 3 210 18:39 27.02.2020
2014 Drizzle 3 992 100 1200 2 170 18:20 27.02.2020
2015 Drizzle 3 992 100 1200 2 170 17:56 27.02.2020
2016 Drizzle 3 992 100 1100 2 160 17:37 27.02.2020
2017 Drizzle 3 992 100 1100 2 160 17:18 27.02.2020
2018 Drizzle 2 992 100 1100 3 130 16:54 27.02.2020
2019 Drizzle 2 992 100 1300 3 130 16:36 27.02.2020
2020 Drizzle 2 992 100 1700 3 120 16:18 27.02.2020
2021 Drizzle 2 992 93 2300 4 130 15:40 27.02.2020
2022 Drizzle 2 992 93 2300 4 130 15:21 27.02.2020
2023 Drizzle 2 992 100 2100 4 120 14:59 27.02.2020
2024 Drizzle 2 993 100 2700 4 120 14:39 27.02.2020
2025 Drizzle 2 993 100 2700 4 120 14:21 27.02.2020
2026 Drizzle 2 993 100 2900 5 100 13:55 27.02.2020
2027 -273 0 0 0 0 0 13:37 27.02.2020
2028 Rain 2 993 100 3400 5 100 13:19 27.02.2020
2029 Rain 1 993 100 2800 5 110 12:43 27.02.2020
2030 Rain 1 993 100 2800 5 110 12:19 27.02.2020
2031 Rain 1 993 100 6000 6 90 11:46 27.02.2020
2032 Rain 1 993 93 7000 6 90 11:23 27.02.2020
2033 Rain 1 994 100 6000 5 90 10:56 27.02.2020
2034 Snow 1 995 100 4800 5 110 10:37 27.02.2020
2035 Snow 1 995 100 4000 5 90 10:18 27.02.2020
2036 Rain 1 995 100 3400 5 90 09:41 27.02.2020
2037 Rain 1 995 100 3400 5 90 09:22 27.02.2020
2038 Mist 2 995 100 3600 4 80 08:44 27.02.2020
2039 Mist 1 996 100 4300 4 100 08:26 27.02.2020
2040 Mist 1 996 100 3900 4 110 07:59 27.02.2020
2041 Clouds 1 996 93 6000 3 110 07:39 27.02.2020
2042 Clouds 1 996 93 6000 3 110 07:19 27.02.2020
2043 Mist 1 996 100 3600 3 110 06:20 27.02.2020
2044 Fog 1 996 100 650 2 120 04:24 27.02.2020
2045 Fog 1 996 95 300 3 230 02:58 27.02.2020
2046 Fog 1 997 93 5000 1 330 01:28 27.02.2020
2047 Fog 1 996 93 200 2 100 00:41 27.02.2020
2048 Fog 1 996 93 200 2 100 00:41 27.02.2020
2049 Mist 1 996 100 4400 2 200 23:41 26.02.2020
2050 Mist 1 996 100 4400 2 200 23:23 26.02.2020
2051 Mist 1 996 95 3900 2 180 22:59 26.02.2020
2052 Clouds 1 996 100 8000 1 0 22:41 26.02.2020
2053 Clouds 1 996 100 8000 1 0 22:22 26.02.2020
2054 Clouds 2 996 100 7000 1 0 21:59 26.02.2020
2055 Mist 2 996 100 5000 2 250 21:39 26.02.2020
2056 Rain 2 996 100 5000 2 250 21:19 26.02.2020
2057 Rain 2 996 93 6000 4 260 20:56 26.02.2020
2058 Rain 2 996 93 6000 4 260 20:38 26.02.2020
2059 Rain 2 996 93 6000 4 260 20:38 26.02.2020
2060 Rain 2 996 93 6000 4 260 20:19 26.02.2020
2061 Clouds 2 995 93 6000 4 250 19:55 26.02.2020
2062 Rain 2 995 93 6000 5 250 19:37 26.02.2020
2063 Rain 2 995 93 6000 5 250 19:18 26.02.2020
2064 Mist 2 995 93 5000 4 230 18:56 26.02.2020
2065 Clouds 2 994 93 6000 4 230 18:37 26.02.2020
2066 Clouds 2 994 93 6000 4 230 18:18 26.02.2020
2067 Drizzle 1 994 100 4000 5 240 17:40 26.02.2020
2068 Drizzle 1 994 100 4000 5 240 17:19 26.02.2020
2069 Mist 1 993 100 3900 4 230 16:56 26.02.2020
2070 Mist 1 993 100 5000 5 220 16:38 26.02.2020
2071 Mist 1 993 100 5000 5 220 16:20 26.02.2020
2072 Clouds 1 993 100 7000 5 200 15:44 26.02.2020
2073 Clouds 1 993 100 7000 5 200 15:44 26.02.2020
2074 Clouds 1 993 100 7000 5 200 15:26 26.02.2020
2075 Rain 1 993 98 2200 3 180 14:43 26.02.2020
2076 Rain 1 993 97 2200 3 180 14:24 26.02.2020
2077 Rain 1 993 97 1900 3 190 13:57 26.02.2020
2078 Rain 1 993 97 1900 3 190 13:57 26.02.2020
2079 Rain 2 993 97 2000 3 180 13:39 26.02.2020
2080 Rain 2 993 97 2000 3 180 13:18 26.02.2020
2081 Snow 2 992 98 900 3 180 12:39 26.02.2020
2082 Snow 2 992 98 900 3 180 12:19 26.02.2020
2083 Snow 2 992 86 3000 4 170 11:55 26.02.2020
2084 Snow 1 992 86 10000 5 160 11:37 26.02.2020
2085 Clouds 1 993 80 10000 6 170 11:18 26.02.2020
2086 Clouds 1 993 80 10000 4 160 10:41 26.02.2020
2087 Clouds 1 994 92 10000 5 160 10:22 26.02.2020
2088 Clouds 1 994 92 10000 5 160 09:55 26.02.2020
2089 Snow 0 994 92 9000 5 170 09:37 26.02.2020
2090 Snow 0 995 92 9000 5 160 09:18 26.02.2020
2091 Snow 0 995 92 10000 5 150 08:38 26.02.2020
2092 Snow 0 995 94 10000 5 150 08:19 26.02.2020
2093 Snow -1 995 94 10000 4 130 07:48 26.02.2020
2094 Clouds -1 995 68 10000 4 120 07:29 26.02.2020
2095 Snow -2 996 63 10000 4 120 06:53 26.02.2020
2096 Clouds -2 996 63 10000 3 140 06:35 26.02.2020
2097 Snow -2 997 68 10000 3 120 05:54 26.02.2020
2098 Clouds -3 997 73 10000 3 110 05:28 26.02.2020
2099 Clouds -3 998 73 10000 3 110 04:36 26.02.2020
2100 Clouds -4 999 68 10000 2 120 02:51 26.02.2020
2101 Clouds -4 999 68 10000 2 120 01:49 26.02.2020
2102 Clouds -3 1000 63 10000 2 150 00:51 26.02.2020
2103 Clouds -3 1000 63 10000 2 150 00:27 26.02.2020
2104 Mist -4 1000 62 10000 1 0 23:57 25.02.2020
2105 Clouds -3 1000 58 10000 2 170 23:38 25.02.2020
2106 Clear -3 1000 58 10000 2 170 23:20 25.02.2020
2107 Clear -2 1001 58 10000 2 190 22:42 25.02.2020
2108 Clear -2 1001 58 10000 2 190 22:20 25.02.2020
2109 Clear -2 1000 58 10000 3 220 21:58 25.02.2020
2110 Clear -2 1001 63 10000 4 250 21:37 25.02.2020
2111 Clear -2 1001 63 10000 4 250 21:18 25.02.2020
2112 Clear -2 1001 58 10000 3 250 20:55 25.02.2020
2113 Clear -2 1001 58 10000 3 260 20:36 25.02.2020
2114 Clear -2 1000 58 10000 3 260 20:18 25.02.2020
2115 Clear -1 1000 58 10000 3 250 19:42 25.02.2020
2116 Clear -1 1000 58 10000 3 250 19:22 25.02.2020
2117 Clear -1 1000 54 10000 3 260 18:58 25.02.2020
2118 Clear 0 1000 58 10000 4 260 18:38 25.02.2020
2119 Clear 0 1000 58 10000 4 260 18:19 25.02.2020
2120 Clear 0 1000 63 10000 3 250 17:54 25.02.2020
2121 Clear 0 1000 81 10000 4 270 17:36 25.02.2020
2122 Clear 0 1000 81 10000 4 270 17:36 25.02.2020
2123 Clear 0 1000 74 10000 4 270 17:18 25.02.2020
2124 Clear 1 1000 47 10000 5 280 16:42 25.02.2020
2125 Clear 1 1000 47 10000 5 280 16:22 25.02.2020
2126 Clear 2 999 47 10000 6 280 15:59 25.02.2020
2127 Clear 2 999 40 10000 6 280 15:41 25.02.2020
2128 Clear 2 999 40 10000 6 280 15:20 25.02.2020
2129 Clear 3 999 37 10000 8 290 14:58 25.02.2020
2130 Clear 3 999 40 10000 8 280 14:38 25.02.2020
2131 Clear 3 999 40 10000 8 280 14:18 25.02.2020
2132 Clear 3 999 37 10000 7 280 13:57 25.02.2020
2133 Clear 3 999 43 10000 7 270 13:38 25.02.2020
2134 Clouds 3 999 43 10000 7 270 13:20 25.02.2020
2135 Clouds 3 999 43 10000 7 280 12:55 25.02.2020
2136 Clouds 3 999 47 10000 6 280 12:37 25.02.2020
2137 Clouds 3 999 47 10000 6 280 12:18 25.02.2020
2138 Clouds 2 999 59 10000 6 280 11:42 25.02.2020
2139 Clouds 2 999 59 10000 6 280 11:20 25.02.2020
2140 Clouds 1 999 64 10000 6 280 10:59 25.02.2020
2141 Clouds 1 999 73 10000 8 290 10:41 25.02.2020
2142 Clouds 1 999 73 10000 8 290 10:23 25.02.2020
2143 Clouds 1 999 73 10000 6 290 09:42 25.02.2020
2144 Clouds 0 999 73 10000 6 290 09:23 25.02.2020
2145 Clouds 0 999 80 10000 5 300 08:56 25.02.2020
2146 Clouds 0 999 80 10000 6 290 08:38 25.02.2020
2147 Clouds 0 999 80 10000 6 290 08:20 25.02.2020
2148 Clear -1 999 80 10000 6 300 07:48 25.02.2020
2149 Clear -1 999 80 10000 6 290 07:20 25.02.2020
2150 Clear -2 998 86 10000 4 280 06:51 25.02.2020
2151 Clear -3 998 86 10000 5 280 05:41 25.02.2020
2152 Clear -2 997 92 10000 4 280 03:54 25.02.2020
2153 Clouds -2 997 92 10000 4 270 02:31 25.02.2020
2154 Clouds -1 997 92 10000 4 290 00:55 25.02.2020
2155 Clouds -1 997 92 10000 5 300 00:30 25.02.2020
2156 Clouds -1 997 92 10000 4 290 23:46 24.02.2020
2157 Clouds -1 997 92 10000 4 280 23:28 24.02.2020
2158 Clouds 0 997 91 10000 5 280 22:43 24.02.2020
2159 Clouds 0 997 91 10000 5 280 22:21 24.02.2020
2160 Clouds 1 996 91 10000 5 290 21:58 24.02.2020
2161 Clouds 1 996 86 10000 5 270 21:39 24.02.2020
2162 Clouds 1 996 86 10000 5 270 21:20 24.02.2020
2163 Clouds 1 996 86 10000 4 290 20:59 24.02.2020
2164 Clouds 1 996 86 10000 4 290 20:59 24.02.2020
2165 Snow 1 996 86 7000 4 300 20:41 24.02.2020
2166 Clouds 2 996 74 10000 6 250 20:20 24.02.2020
2167 Clouds 2 996 74 10000 6 250 19:58 24.02.2020
2168 Clouds 2 995 80 10000 5 250 19:40 24.02.2020
2169 Clouds 2 995 80 10000 5 250 19:22 24.02.2020
2170 Clouds 2 995 74 10000 5 260 18:56 24.02.2020
2171 Clouds 2 995 69 10000 5 250 18:38 24.02.2020
2172 Clouds 2 995 69 10000 5 250 18:19 24.02.2020
2173 Clouds 2 995 69 10000 5 250 18:19 24.02.2020
2174 Clouds 2 995 69 10000 4 220 17:42 24.02.2020
2175 Clouds 2 995 69 10000 4 220 17:21 24.02.2020
2176 Clouds 2 994 69 10000 4 220 16:59 24.02.2020
2177 Clouds 3 994 64 10000 4 230 16:40 24.02.2020
2178 Clouds 3 994 64 10000 4 220 16:21 24.02.2020
2179 Clouds 3 994 64 10000 4 220 16:21 24.02.2020
2180 Clouds 3 994 64 10000 4 220 15:59 24.02.2020
2181 Clouds 4 994 64 10000 4 230 15:40 24.02.2020
2182 Clouds 4 994 64 10000 4 230 15:21 24.02.2020
2183 Clouds 4 993 64 10000 5 240 14:58 24.02.2020
2184 Clouds 4 993 64 10000 6 240 14:40 24.02.2020
2185 Clouds 4 993 64 10000 6 240 14:19 24.02.2020
2186 Clouds 4 993 64 10000 5 230 13:57 24.02.2020
2187 Clouds 4 993 69 10000 6 240 13:37 24.02.2020
2188 Clouds 4 993 69 10000 6 240 13:19 24.02.2020
2189 Clouds 4 993 69 10000 6 240 12:56 24.02.2020
2190 Clouds 4 993 69 10000 6 230 12:38 24.02.2020
2191 Clouds 3 993 69 10000 7 240 12:19 24.02.2020
2192 Clouds 4 993 69 10000 7 240 11:44 24.02.2020
2193 Clouds 3 993 74 10000 7 240 11:26 24.02.2020
2194 Clouds 3 993 89 10000 5 240 10:45 24.02.2020
2195 Clouds 3 993 74 10000 7 240 10:26 24.02.2020
2196 Clouds 3 993 89 10000 6 250 09:54 24.02.2020
2197 Clouds 3 993 89 10000 6 240 09:36 24.02.2020
2198 Clouds 2 993 89 10000 6 240 09:18 24.02.2020
2199 Clouds 2 993 89 10000 6 230 08:45 24.02.2020
2200 Clouds 2 993 88 10000 6 230 08:27 24.02.2020
2201 Snow 2 992 92 10000 7 240 07:45 24.02.2020
2202 Snow 2 992 92 10000 5 230 07:27 24.02.2020
2203 Rain 1 992 86 10000 7 220 06:36 24.02.2020
2204 Snow 1 992 86 10000 7 220 06:18 24.02.2020
2205 Clouds 1 991 86 10000 6 220 05:29 24.02.2020
2206 Clouds 2 991 96 10000 6 220 03:54 24.02.2020
2207 Clouds 1 991 96 10000 5 220 02:54 24.02.2020
2208 Snow 2 991 100 9000 6 220 01:46 24.02.2020
2209 Snow 2 991 95 1300 6 230 00:59 24.02.2020
2210 Snow 2 991 95 10000 7 230 00:28 24.02.2020
2211 Clouds 2 991 95 10000 6 230 23:59 23.02.2020
2212 Clouds 2 992 95 10000 5 220 23:41 23.02.2020
2213 Clouds 1 992 90 10000 5 220 23:19 23.02.2020
2214 Clouds 2 992 90 10000 5 230 22:57 23.02.2020
2215 Clouds 2 992 90 10000 6 220 22:39 23.02.2020
2216 Clouds 1 992 90 10000 6 220 22:19 23.02.2020
2217 Clouds 2 992 90 10000 6 220 21:45 23.02.2020
2218 Clouds 1 992 90 10000 6 220 21:20 23.02.2020
2219 Clouds 1 992 90 10000 6 220 20:57 23.02.2020
2220 Clouds 1 993 90 10000 6 220 20:39 23.02.2020
2221 Clouds 1 993 89 10000 6 220 20:20 23.02.2020
2222 Clouds 1 993 89 10000 6 220 19:57 23.02.2020
2223 Clouds 2 993 89 10000 5 210 19:38 23.02.2020
2224 Clouds 2 993 89 10000 5 210 19:18 23.02.2020
2225 Clouds 1 993 89 10000 6 210 18:56 23.02.2020
2226 Clouds 1 993 89 10000 5 210 18:36 23.02.2020
2227 Clouds 1 993 89 10000 5 210 18:18 23.02.2020
2228 Clouds 1 993 100 10000 4 210 17:56 23.02.2020
2229 Clouds 1 993 100 9000 4 190 17:37 23.02.2020
2230 Clouds 1 993 100 10000 5 230 17:18 23.02.2020
2231 Clouds 2 993 93 10000 5 220 16:45 23.02.2020
2232 Clouds 2 993 93 10000 5 220 16:26 23.02.2020
2233 Clouds 2 993 93 10000 5 230 15:58 23.02.2020
2234 Clouds 3 993 93 10000 6 220 15:38 23.02.2020
2235 Clouds 3 993 93 10000 6 220 15:20 23.02.2020
2236 Clouds 3 993 93 10000 5 230 14:57 23.02.2020
2237 Clouds 3 993 93 10000 6 220 14:38 23.02.2020
2238 Clouds 3 993 93 10000 6 220 14:20 23.02.2020
2239 Clouds 3 993 93 10000 5 220 13:57 23.02.2020
2240 Clouds 3 993 93 10000 6 220 13:38 23.02.2020
2241 Clouds 3 993 93 10000 6 220 13:20 23.02.2020
2242 Rain 2 993 93 10000 6 230 12:42 23.02.2020
2243 Rain 2 993 93 10000 6 230 12:21 23.02.2020
2244 Rain 2 993 93 10000 6 230 11:55 23.02.2020
2245 Rain 2 994 90 6000 7 230 11:37 23.02.2020
2246 Rain 1 994 98 6000 7 230 11:18 23.02.2020
2247 Rain 1 994 100 4100 6 210 10:42 23.02.2020
2248 Rain 1 994 100 4100 6 210 10:23 23.02.2020
2249 Rain 1 994 100 1900 6 200 09:59 23.02.2020
2250 Rain 1 995 100 1800 6 200 09:39 23.02.2020
2251 Rain 1 995 100 1800 6 200 09:21 23.02.2020
2252 Rain 0 995 98 1200 5 200 08:51 23.02.2020
2253 Rain 0 995 98 1000 6 190 08:30 23.02.2020
2254 Rain 0 996 92 1200 7 200 07:58 23.02.2020
2255 Rain 0 996 92 1300 7 200 07:39 23.02.2020
2256 Rain 0 997 92 1700 7 200 06:39 23.02.2020
2257 Rain 0 997 92 1700 5 200 05:47 23.02.2020
2258 Snow 0 999 96 1600 8 200 04:35 23.02.2020
2259 Snow 0 1000 96 800 8 190 03:21 23.02.2020
2260 Snow 1 1002 85 1500 8 190 02:26 23.02.2020
2261 Snow 2 1004 86 1900 6 190 01:24 23.02.2020
2262 Snow 2 1005 59 10000 10 190 00:46 23.02.2020
2263 Snow 2 1005 59 10000 10 190 00:25 23.02.2020
2264 Clouds 2 1006 59 10000 9 190 23:45 22.02.2020
2265 Snow 2 1007 59 10000 10 190 23:27 22.02.2020
2266 Clouds 2 1008 59 10000 8 190 22:59 22.02.2020
2267 Clouds 2 1009 59 10000 10 190 22:39 22.02.2020
2268 Clouds 2 1009 59 10000 10 190 22:18 22.02.2020
2269 Clouds 3 1010 59 10000 8 190 21:41 22.02.2020
2270 Clouds 2 1010 59 10000 8 190 21:23 22.02.2020
2271 Clouds 3 1011 59 10000 8 190 20:46 22.02.2020
2272 Clouds 3 1012 64 10000 8 180 20:24 22.02.2020
2273 Clouds 3 1013 60 10000 9 190 19:58 22.02.2020
2274 Clouds 3 1014 60 10000 7 190 19:39 22.02.2020
2275 Clouds 3 1014 60 10000 7 190 19:20 22.02.2020
2276 Clouds 3 1015 51 10000 7 190 18:40 22.02.2020
2277 Clouds 3 1015 51 10000 7 190 18:22 22.02.2020
2278 Clouds 3 1016 44 10000 6 190 17:58 22.02.2020
2279 Clouds 4 1016 44 10000 6 190 17:39 22.02.2020
2280 Clouds 4 1016 44 10000 6 190 17:21 22.02.2020
2281 Clouds 4 1016 44 10000 6 190 16:57 22.02.2020
2282 Clouds 4 1017 44 10000 5 200 16:39 22.02.2020
2283 Clouds 4 1017 44 10000 5 200 16:20 22.02.2020
2284 Clouds 6 1018 41 10000 7 210 15:44 22.02.2020
2285 Clouds 6 1018 41 10000 7 210 15:25 22.02.2020
2286 Clouds 6 1018 45 10000 7 200 14:55 22.02.2020
2287 Clouds 7 1018 42 10000 7 210 14:37 22.02.2020
2288 Clouds 6 1018 45 10000 6 200 14:18 22.02.2020
2289 Clouds 6 1019 48 10000 8 190 13:41 22.02.2020
2290 Clouds 6 1019 48 10000 8 190 13:19 22.02.2020
2291 Clouds 6 1020 48 10000 9 220 12:46 22.02.2020
2292 Clouds 6 1020 48 10000 9 220 12:24 22.02.2020
2293 Clouds 6 1020 48 10000 8 210 11:56 22.02.2020
2294 Clouds 6 1021 56 10000 8 210 11:36 22.02.2020
2295 Clouds 6 1021 56 10000 8 210 11:18 22.02.2020
2296 Clouds 4 1021 69 10000 6 200 10:40 22.02.2020
2297 Clouds 4 1021 69 10000 5 210 10:20 22.02.2020
2298 Clouds 4 1021 69 10000 5 210 09:59 22.02.2020
2299 Clouds 3 1022 74 10000 4 210 09:39 22.02.2020
2300 -273 0 0 0 0 0 09:21 22.02.2020
2301 Clouds 3 1022 74 10000 4 210 09:21 22.02.2020
2302 Clouds 2 1022 74 10000 4 210 08:50 22.02.2020
2303 Clouds 2 1022 74 10000 4 210 08:28 22.02.2020
2304 Clouds 1 1022 80 10000 5 210 07:50 22.02.2020
2305 Clouds 0 1022 80 10000 4 200 07:20 22.02.2020
2306 Clouds 0 1022 80 10000 4 200 06:48 22.02.2020
2307 Clouds -1 1022 93 10000 4 220 06:29 22.02.2020
2308 Clouds -1 1022 96 10000 4 210 04:38 22.02.2020
2309 Clouds -1 1022 96 8000 2 200 03:33 22.02.2020
2310 Clouds -1 1022 96 10000 2 200 02:33 22.02.2020
2311 Clear -1 1022 97 9000 2 200 01:46 22.02.2020
2312 Clear -1 1022 97 10000 2 220 01:27 22.02.2020
2313 Clouds 0 1022 80 10000 3 220 00:45 22.02.2020
2314 Clouds 0 1022 80 10000 3 220 00:27 22.02.2020
2315 Clouds 1 1022 74 10000 3 230 23:47 21.02.2020
2316 Clear 1 1022 74 10000 3 230 23:24 21.02.2020
2317 Clear 1 1022 74 10000 4 210 22:56 21.02.2020
2318 Clear 1 1022 69 10000 4 210 22:38 21.02.2020
2319 Clear 1 1022 69 10000 4 210 22:18 21.02.2020
2320 Clear 1 1022 64 10000 4 210 21:42 21.02.2020
2321 Clear 1 1022 64 10000 4 210 21:42 21.02.2020
2322 Clear 1 1022 64 10000 4 210 21:24 21.02.2020
2323 Clear 1 1022 64 10000 4 210 21:24 21.02.2020
2324 Clear 1 1022 69 10000 3 200 20:50 21.02.2020
2325 Clouds 2 1021 64 10000 3 200 20:31 21.02.2020
2326 Clouds 1 1021 64 10000 2 200 19:59 21.02.2020
2327 Clouds 1 1021 64 10000 2 190 19:38 21.02.2020
2328 Clouds 2 1021 60 10000 3 190 19:18 21.02.2020
2329 Clouds 2 1021 60 10000 3 190 18:40 21.02.2020
2330 Clouds 2 1021 60 10000 3 190 18:22 21.02.2020
2331 Clouds 2 1021 60 10000 3 180 17:42 21.02.2020
2332 Clouds 3 1020 56 10000 3 190 17:24 21.02.2020
2333 Clouds 4 1020 56 10000 3 180 16:59 21.02.2020
2334 Clouds 5 1020 52 10000 3 190 16:41 21.02.2020
2335 Clouds 6 1020 52 10000 3 190 16:21 21.02.2020
2336 Clouds 6 1020 52 10000 3 190 15:57 21.02.2020
2337 Clouds 7 1020 48 10000 4 220 15:38 21.02.2020
2338 Clouds 7 1020 48 10000 4 220 15:18 21.02.2020
2339 Clouds 8 1020 48 10000 5 230 14:42 21.02.2020
2340 Clouds 8 1020 48 10000 5 230 14:20 21.02.2020
2341 Clouds 8 1020 45 10000 6 230 13:45 21.02.2020
2342 Clouds 8 1020 49 10000 5 240 13:24 21.02.2020
2343 Clouds 8 1020 49 10000 6 230 12:59 21.02.2020
2344 Clouds 8 1020 52 10000 5 230 12:40 21.02.2020
2345 Clouds 7 1020 56 10000 5 210 12:22 21.02.2020
2346 Clouds 7 1021 56 10000 4 230 11:43 21.02.2020
2347 Clouds 7 1021 56 10000 4 230 11:23 21.02.2020
2348 Clouds 6 1021 60 10000 3 230 10:59 21.02.2020
2349 Clouds 5 1021 91 10000 3 230 10:41 21.02.2020
2350 Clouds 5 1021 91 10000 3 230 10:19 21.02.2020
2351 Clouds 5 1021 91 10000 3 230 09:58 21.02.2020
2352 Clouds 3 1020 91 10000 3 230 09:38 21.02.2020
2353 Clouds 3 1020 91 10000 3 230 09:38 21.02.2020
2354 Clouds 2 1021 91 10000 4 240 09:20 21.02.2020
2355 Clouds 2 1021 91 10000 4 240 08:45 21.02.2020
2356 Clouds 1 1020 80 10000 3 210 08:22 21.02.2020
2357 Clouds 0 1020 86 10000 3 220 07:59 21.02.2020
2358 Clouds -1 1020 95 9000 3 220 07:41 21.02.2020
2359 Clouds 0 1020 95 9000 3 220 07:19 21.02.2020
2360 Clouds -1 1020 95 8000 3 220 06:53 21.02.2020
2361 Clouds -2 1020 95 9000 4 230 06:31 21.02.2020
2362 Clouds -2 1020 92 10000 3 220 05:52 21.02.2020
2363 Clouds -2 1020 94 10000 3 210 04:39 21.02.2020
2364 Clouds -2 1020 94 10000 3 210 04:20 21.02.2020
2365 Clouds -1 1019 94 10000 3 240 03:42 21.02.2020
2366 Clouds -1 1019 94 10000 3 220 02:58 21.02.2020
2367 Clouds -1 1020 93 10000 3 210 01:28 21.02.2020
2368 Clouds 0 1020 86 10000 3 240 00:46 21.02.2020
2369 Clouds 0 1019 92 10000 3 250 00:24 21.02.2020
2370 Clouds 0 1019 92 10000 3 250 00:24 21.02.2020
2371 Clouds 0 1019 92 10000 3 250 23:46 20.02.2020
2372 Clouds 1 1019 80 10000 3 250 23:26 20.02.2020
2373 Clouds 1 1019 80 10000 3 230 23:00 20.02.2020
2374 Clouds 1 1019 80 10000 4 230 22:39 20.02.2020
2375 Clouds 1 1019 80 10000 4 230 22:21 20.02.2020
2376 Clouds 1 1019 80 10000 4 230 22:21 20.02.2020
2377 Clouds 1 1019 80 10000 3 210 21:57 20.02.2020
2378 Clouds 1 1019 74 10000 3 230 21:37 20.02.2020
2379 Clouds 1 1019 74 10000 3 230 21:19 20.02.2020
2380 Clouds 1 1019 74 10000 2 220 20:56 20.02.2020
2381 Clouds 1 1019 69 10000 3 220 20:37 20.02.2020
2382 Clouds 1 1019 69 10000 3 220 20:19 20.02.2020
2383 Clouds 1 1019 69 10000 4 220 19:58 20.02.2020
2384 Clouds 1 1019 69 10000 4 230 19:40 20.02.2020
2385 Clouds 2 1019 69 10000 4 230 19:22 20.02.2020
2386 Clouds 2 1018 64 10000 4 220 18:40 20.02.2020
2387 Clouds 4 1018 65 10000 5 240 18:21 20.02.2020
2388 Clouds 4 1018 65 10000 5 240 17:56 20.02.2020
2389 Clouds 4 1018 65 10000 5 240 17:38 20.02.2020
2390 Clouds 4 1018 65 10000 4 220 17:18 20.02.2020
2391 Clouds 4 1018 65 10000 4 220 16:56 20.02.2020
2392 Clouds 5 1017 65 10000 5 250 16:37 20.02.2020
2393 Clouds 5 1017 65 10000 5 250 16:18 20.02.2020
2394 Clouds 6 1017 60 10000 6 240 15:42 20.02.2020
2395 Clouds 6 1017 60 10000 6 240 15:22 20.02.2020
2396 Clouds 6 1016 60 10000 5 240 14:57 20.02.2020
2397 Clouds 7 1016 60 10000 6 240 14:39 20.02.2020
2398 Clouds 7 1016 60 10000 6 240 14:39 20.02.2020
2399 Clouds 7 1016 60 10000 6 240 14:20 20.02.2020
2400 Clouds 7 1016 56 10000 7 240 13:54 20.02.2020
2401 Clouds 7 1016 56 10000 6 230 13:36 20.02.2020
2402 Clouds 7 1016 56 10000 6 230 13:18 20.02.2020
2403 Clouds 6 1016 60 10000 5 220 12:42 20.02.2020
2404 Clouds 6 1016 60 10000 5 220 12:21 20.02.2020
2405 Clouds 6 1016 60 10000 5 220 11:57 20.02.2020
2406 Clouds 6 1016 60 10000 6 230 11:39 20.02.2020
2407 Clouds 6 1016 60 10000 6 230 11:39 20.02.2020
2408 Clouds 6 1016 60 10000 6 230 11:20 20.02.2020
2409 Clouds 6 1016 90 10000 7 240 10:55 20.02.2020
2410 Clouds 6 1016 90 10000 5 230 10:36 20.02.2020
2411 Clouds 6 1016 90 10000 5 230 10:18 20.02.2020
2412 Clouds 4 1016 90 10000 5 230 09:38 20.02.2020
2413 Clouds 4 1016 90 10000 5 230 09:19 20.02.2020
2414 Clouds 3 1015 90 10000 4 230 08:41 20.02.2020
2415 Clouds 3 1015 89 10000 4 240 08:23 20.02.2020
2416 Clouds 2 1014 89 10000 4 220 07:47 20.02.2020
2417 Clouds 2 1014 89 10000 4 220 07:27 20.02.2020
2418 Clouds 2 1014 89 10000 4 220 06:57 20.02.2020
2419 Clouds 2 1014 89 10000 4 220 06:38 20.02.2020
2420 Clouds 2 1013 89 10000 4 240 05:47 20.02.2020
2421 Clouds 2 1013 91 10000 4 240 05:24 20.02.2020
2422 Clouds 2 1013 91 10000 4 220 04:48 20.02.2020
2423 Clouds 2 1013 91 10000 4 230 03:46 20.02.2020
2424 Clouds 3 1012 91 10000 5 230 02:46 20.02.2020
2425 Clouds 2 1012 88 10000 5 230 01:25 20.02.2020
2426 Clouds 3 1012 86 10000 5 240 00:45 20.02.2020
2427 Clouds 3 1012 86 10000 5 240 00:24 20.02.2020
2428 Clouds 2 1012 86 10000 5 250 23:46 19.02.2020
2429 Clouds 2 1011 92 10000 4 250 23:18 19.02.2020
2430 Clouds 3 1011 92 10000 6 250 22:42 19.02.2020
2431 Clouds 2 1011 92 10000 6 250 22:23 19.02.2020
2432 Clouds 3 1011 92 10000 5 250 21:58 19.02.2020
2433 Clouds 2 1010 92 10000 6 250 21:40 19.02.2020
2434 Clouds 2 1010 92 10000 6 250 21:19 19.02.2020
2435 Clouds 3 1010 92 10000 6 250 20:57 19.02.2020
2436 Clouds 3 1010 92 10000 6 240 20:38 19.02.2020
2437 Clouds 3 1010 92 10000 6 240 20:19 19.02.2020
2438 Clouds 2 1010 92 10000 6 240 19:57 19.02.2020
2439 Clouds 3 1009 92 10000 6 240 19:37 19.02.2020
2440 Clouds 3 1009 92 10000 6 240 19:19 19.02.2020
2441 Clouds 2 1009 92 10000 7 250 18:57 19.02.2020
2442 Clouds 3 1009 92 10000 7 250 18:39 19.02.2020
2443 Clouds 3 1009 92 10000 7 250 18:21 19.02.2020
2444 Clouds 3 1009 74 10000 6 230 17:44 19.02.2020
2445 Clouds 3 1009 74 10000 6 230 17:20 19.02.2020
2446 Clouds 3 1008 90 10000 6 240 16:59 19.02.2020
2447 Clouds 3 1008 90 10000 4 240 16:41 19.02.2020
2448 Clouds 3 1008 90 10000 4 240 16:18 19.02.2020
2449 Clouds 4 1008 69 10000 7 250 15:43 19.02.2020
2450 Clouds 4 1008 69 10000 7 250 15:25 19.02.2020
2451 Clouds 4 1008 64 10000 7 250 14:58 19.02.2020
2452 Clouds 4 1007 64 10000 5 240 14:40 19.02.2020
2453 Clouds 5 1007 60 10000 7 250 14:21 19.02.2020
2454 Clouds 4 1007 64 10000 9 250 13:42 19.02.2020
2455 Clouds 4 1007 64 10000 9 250 13:22 19.02.2020
2456 Clouds 4 1007 64 10000 7 250 12:55 19.02.2020
2457 Clouds 4 1007 69 10000 7 240 12:37 19.02.2020
2458 Clouds 4 1007 75 10000 7 250 12:18 19.02.2020
2459 Clouds 4 1007 75 10000 7 240 11:39 19.02.2020
2460 Clouds 3 1007 94 10000 7 240 11:20 19.02.2020
2461 Clouds 4 1007 80 10000 8 250 10:58 19.02.2020
2462 Clouds 3 1007 86 10000 8 250 10:38 19.02.2020
2463 Clouds 3 1007 93 10000 7 250 10:20 19.02.2020
2464 Clouds 3 1007 93 10000 7 250 09:59 19.02.2020
2465 Clouds 3 1007 93 10000 7 250 09:38 19.02.2020
2466 Clouds 3 1007 93 10000 7 250 09:19 19.02.2020
2467 Rain 3 1007 93 10000 7 240 08:47 19.02.2020
2468 Rain 3 1007 93 10000 6 230 08:24 19.02.2020
2469 Rain 3 1006 93 9000 6 240 07:47 19.02.2020
2470 Rain 3 1006 93 9000 6 240 07:29 19.02.2020
2471 Rain 3 1006 86 9000 7 250 06:57 19.02.2020
2472 Rain 3 1006 93 10000 6 230 06:34 19.02.2020
2473 Rain 3 1006 93 10000 4 220 04:59 19.02.2020
2474 Clouds 3 1006 93 10000 5 220 03:50 19.02.2020
2475 Clouds 3 1006 93 10000 4 230 02:35 19.02.2020
2476 Clouds 3 1006 93 10000 5 230 01:33 19.02.2020
2477 Clouds 3 1006 100 10000 5 220 01:00 19.02.2020
2478 Clouds 3 1006 93 10000 5 230 00:36 19.02.2020
2479 Clouds 3 1006 93 10000 5 230 23:59 18.02.2020
2480 Clouds 3 1006 93 10000 5 240 23:39 18.02.2020
2481 Clouds 3 1006 93 10000 5 240 23:19 18.02.2020
2482 Clouds 3 1006 93 10000 5 240 23:19 18.02.2020
2483 Clouds 3 1006 93 10000 5 240 23:19 18.02.2020
2484 Clouds 3 1006 93 10000 5 240 23:19 18.02.2020
2485 Clouds 3 1007 93 10000 6 240 22:55 18.02.2020
2486 Clouds 3 1007 93 10000 6 230 22:36 18.02.2020
2487 Clouds 3 1007 93 10000 6 230 22:18 18.02.2020
2488 Clouds 4 1007 86 10000 6 220 21:38 18.02.2020
2489 Clouds 4 1007 86 10000 6 220 21:38 18.02.2020
2490 Clouds 4 1007 86 10000 6 220 21:38 18.02.2020
2491 Clouds 4 1007 86 10000 6 220 21:38 18.02.2020
2492 Clouds 4 1007 86 10000 5 220 21:20 18.02.2020
2493 Clouds 4 1007 86 10000 5 220 21:00 18.02.2020
2494 Clouds 4 1007 86 10000 5 220 20:59 18.02.2020
2495 Clouds 4 1007 86 10000 5 230 20:40 18.02.2020
2496 Clouds 4 1007 86 10000 5 230 20:22 18.02.2020
2497 Clouds 4 1007 86 10000 5 220 19:58 18.02.2020
2498 Clouds 4 1007 86 10000 5 220 19:40 18.02.2020
2499 Clouds 4 1007 86 10000 5 220 19:19 18.02.2020
2500 Clouds 4 1007 86 10000 6 220 18:42 18.02.2020
2501 Clouds 4 1007 86 10000 6 220 18:21 18.02.2020
2502 Clouds 4 1006 86 10000 6 210 17:58 18.02.2020
2503 Clouds 4 1006 86 10000 5 220 17:40 18.02.2020
2504 Clouds 4 1006 86 10000 5 220 17:40 18.02.2020
2505 Clouds 4 1006 86 10000 5 220 17:19 18.02.2020
2506 Clouds 5 1006 80 10000 4 220 16:40 18.02.2020
2507 Clouds 5 1006 80 10000 4 220 16:21 18.02.2020
2508 Clouds 5 1006 80 10000 6 210 15:55 18.02.2020
2509 Clouds 5 1007 80 10000 6 220 15:36 18.02.2020
2510 Clouds 5 1007 80 10000 6 220 15:18 18.02.2020
2511 Clouds 5 1007 75 10000 6 220 14:55 18.02.2020
2512 Clouds 5 1007 75 10000 6 230 14:36 18.02.2020
2513 Clouds 6 1007 75 10000 6 220 14:18 18.02.2020
2514 Clouds 6 1008 75 10000 6 220 13:41 18.02.2020
2515 Clouds 6 1008 75 10000 6 220 13:21 18.02.2020
2516 Clouds 6 1008 75 10000 5 220 12:49 18.02.2020
2517 Clouds 6 1008 75 10000 6 220 12:30 18.02.2020
2518 Clouds 6 1008 75 10000 6 220 11:59 18.02.2020
2519 Clouds 5 1009 80 10000 7 220 11:41 18.02.2020
2520 Clouds 5 1009 80 10000 7 220 11:22 18.02.2020
2521 Clouds 5 1009 80 10000 6 220 10:45 18.02.2020
2522 Clouds 5 1009 80 10000 6 220 10:24 18.02.2020
2523 Clouds 5 1009 80 10000 6 220 10:24 18.02.2020
2524 Clouds 5 1009 80 10000 7 220 09:58 18.02.2020
2525 Clouds 5 1009 80 10000 7 220 09:58 18.02.2020
2526 Clouds 5 1009 80 10000 6 220 09:39 18.02.2020
2527 Clouds 5 1009 80 10000 6 220 09:20 18.02.2020
2528 Clouds 4 1009 80 10000 6 220 08:59 18.02.2020
2529 Clouds 4 1009 80 10000 7 220 08:40 18.02.2020
2530 Clouds 4 1009 80 10000 7 220 08:20 18.02.2020
2531 Clouds 4 1009 80 10000 6 220 07:55 18.02.2020
2532 Clouds 4 1009 90 10000 7 220 07:29 18.02.2020
2533 Clouds 3 1009 90 10000 6 220 06:55 18.02.2020
2534 Clouds 4 1009 90 10000 6 220 06:32 18.02.2020
2535 Clouds 4 1009 90 10000 6 230 05:56 18.02.2020
2536 Clouds 4 1009 90 10000 6 230 05:23 18.02.2020
2537 Clouds 5 1009 87 10000 7 240 03:58 18.02.2020
2538 Clouds 4 1009 87 10000 6 230 02:58 18.02.2020
2539 Clouds 4 1008 91 10000 6 230 01:58 18.02.2020
2540 Clouds 4 1009 90 10000 6 220 00:46 18.02.2020
2541 Clouds 4 1009 90 10000 8 230 00:20 18.02.2020
2542 Clouds 4 1009 90 10000 8 240 23:44 17.02.2020
2543 Clouds 4 1009 90 10000 8 240 23:25 17.02.2020
2544 Clouds 4 1009 90 10000 7 230 22:59 17.02.2020
2545 Clouds 4 1009 90 10000 7 230 22:41 17.02.2020
2546 Clouds 4 1009 90 10000 7 230 22:20 17.02.2020
2547 Clouds 4 1008 90 10000 7 230 21:55 17.02.2020
2548 Clouds 4 1008 90 10000 7 230 21:37 17.02.2020
2549 Clouds 4 1008 90 10000 7 230 21:18 17.02.2020
2550 Clouds 4 1008 90 10000 8 240 20:40 17.02.2020
2551 Clouds 4 1008 88 10000 8 240 20:21 17.02.2020
2552 Clouds 5 1007 88 10000 7 230 19:57 17.02.2020
2553 Clouds 5 1008 88 10000 8 230 19:38 17.02.2020
2554 Clouds 5 1008 88 10000 8 230 19:19 17.02.2020
2555 Clouds 5 1007 65 10000 9 240 18:37 17.02.2020
2556 Clouds 5 1007 65 10000 9 240 18:19 17.02.2020
2557 Clouds 5 1007 65 10000 9 240 18:19 17.02.2020
2558 Clouds 5 1006 65 10000 8 230 17:57 17.02.2020
2559 Clouds 5 1006 65 10000 8 230 17:37 17.02.2020
2560 Clouds 5 1006 65 10000 8 230 17:18 17.02.2020
2561 Clouds 5 1006 65 10000 8 230 17:18 17.02.2020
2562 Rain 5 1006 65 10000 8 220 16:54 17.02.2020
2563 Clouds 5 1006 85 10000 7 220 16:36 17.02.2020
2564 Clouds 5 1006 85 10000 7 220 16:18 17.02.2020
2565 Rain 5 1006 65 10000 7 230 15:42 17.02.2020
2566 Rain 5 1006 65 10000 7 230 15:23 17.02.2020
2567 Clouds 5 1006 65 10000 8 220 14:46 17.02.2020
2568 Clouds 5 1006 65 10000 8 220 14:46 17.02.2020
2569 Clouds 5 1006 65 10000 8 220 14:28 17.02.2020
2570 Clouds 5 1005 65 10000 8 220 13:59 17.02.2020
2571 Clouds 5 1005 65 10000 9 230 13:40 17.02.2020
2572 Clouds 5 1005 65 10000 9 230 13:40 17.02.2020
2573 Clouds 5 1005 65 10000 10 220 13:20 17.02.2020
2574 Clouds 5 1005 65 10000 10 220 12:56 17.02.2020
2575 Clouds 5 1005 65 10000 8 220 12:37 17.02.2020
2576 Clouds 5 1006 65 10000 10 230 12:19 17.02.2020
2577 Clouds 5 1006 65 10000 9 220 11:43 17.02.2020
2578 Clouds 5 1006 65 10000 9 220 11:25 17.02.2020
2579 Clouds 4 1006 69 10000 9 220 10:56 17.02.2020
2580 Clouds 4 1006 69 10000 9 220 10:38 17.02.2020
2581 Clouds 4 1006 69 10000 8 210 10:19 17.02.2020
2582 Clouds 4 1006 69 10000 8 210 09:56 17.02.2020
2583 Clouds 4 1006 88 10000 7 210 09:37 17.02.2020
2584 Clouds 4 1006 88 10000 7 210 09:18 17.02.2020
2585 Clouds 3 1006 88 10000 6 210 08:41 17.02.2020
2586 Clouds 3 1007 88 10000 8 210 08:23 17.02.2020
2587 Rain 3 1007 87 10000 8 210 07:57 17.02.2020
2588 Rain 3 1007 87 10000 8 210 07:27 17.02.2020
2589 Rain 3 1008 87 9000 7 200 06:57 17.02.2020
2590 Rain 3 1008 74 10000 8 210 06:39 17.02.2020
2591 Rain 3 1009 80 10000 7 210 06:19 17.02.2020
2592 Clouds 3 1009 80 10000 7 210 05:39 17.02.2020
2593 Clouds 3 1011 80 10000 8 210 04:23 17.02.2020
2594 Clouds 2 1012 74 10000 7 210 02:44 17.02.2020
2595 Clouds 2 1013 74 10000 6 210 00:59 17.02.2020
2596 Clouds 2 1014 74 10000 6 210 00:37 17.02.2020
2597 Clouds 2 1014 74 10000 6 210 00:18 17.02.2020
2598 Clouds 2 1015 74 10000 7 210 23:41 16.02.2020
2599 Clouds 2 1015 74 10000 7 210 23:22 16.02.2020
2600 Clouds 2 1015 74 10000 7 210 22:55 16.02.2020
2601 Clouds 2 1016 80 10000 7 210 22:37 16.02.2020
2602 Clouds 2 1016 80 10000 7 210 22:18 16.02.2020
2603 Clouds 2 1017 74 10000 7 210 21:43 16.02.2020
2604 Clouds 2 1017 74 10000 7 210 21:24 16.02.2020
2605 Clouds 2 1017 80 10000 6 210 20:59 16.02.2020
2606 Clouds 1 1018 80 10000 7 210 20:40 16.02.2020
2607 Clouds 1 1018 80 10000 7 210 20:22 16.02.2020
2608 Clouds 2 1018 80 10000 7 220 19:59 16.02.2020
2609 Clouds 1 1018 80 10000 7 210 19:40 16.02.2020
2610 Clouds 1 1018 80 10000 7 210 19:19 16.02.2020
2611 Clouds 1 1018 80 10000 7 200 18:59 16.02.2020
2612 Clouds 1 1018 80 10000 6 200 18:41 16.02.2020
2613 Clouds 1 1018 80 10000 6 200 18:23 16.02.2020
2614 Clouds 1 1018 80 10000 6 200 18:23 16.02.2020
2615 Clouds 1 1019 80 10000 7 190 17:45 16.02.2020
2616 Clouds 1 1019 80 10000 7 190 17:21 16.02.2020
2617 Clouds 1 1019 80 10000 6 200 16:57 16.02.2020
2618 Clouds 1 1021 80 10000 6 210 16:39 16.02.2020
2619 Clouds 1 1021 80 10000 6 210 16:39 16.02.2020
2620 Clouds 1 1021 80 10000 6 210 16:21 16.02.2020
2621 Clouds 1 1021 80 10000 7 210 15:57 16.02.2020
2622 Clouds 1 1021 80 10000 7 210 15:38 16.02.2020
2623 Clouds 1 1021 80 10000 6 210 15:18 16.02.2020
2624 Clouds 1 1022 80 10000 6 210 14:40 16.02.2020
2625 Clouds 1 1022 80 10000 6 210 14:22 16.02.2020
2626 Clouds 1 1022 74 10000 6 200 13:48 16.02.2020
2627 Clouds 1 1022 74 10000 8 220 13:25 16.02.2020
2628 Clouds 0 1022 74 10000 7 220 12:56 16.02.2020
2629 Clouds 0 1022 74 10000 7 210 12:38 16.02.2020
2630 Clouds 0 1022 74 10000 7 210 12:19 16.02.2020
2631 Clouds 0 1022 74 10000 8 210 11:39 16.02.2020
2632 Clouds -1 1025 94 10000 5 180 11:19 16.02.2020
2633 Clouds -1 1023 94 10000 6 210 10:57 16.02.2020
2634 Clouds -1 1023 94 10000 8 210 10:39 16.02.2020
2635 Clouds -1 1023 94 10000 8 210 10:21 16.02.2020
2636 Clouds -1 1023 94 10000 7 210 09:57 16.02.2020
2637 Clouds -1 1023 94 10000 6 200 09:37 16.02.2020
2638 Clouds -1 1023 94 10000 6 200 09:19 16.02.2020
2639 Clouds -1 1024 94 10000 6 200 08:47 16.02.2020
2640 Clouds -1 1024 94 10000 5 210 08:22 16.02.2020
2641 Clouds -1 1024 94 10000 5 210 07:56 16.02.2020
2642 Clouds -1 1024 94 10000 5 200 07:38 16.02.2020
2643 Clouds -2 1024 80 10000 4 200 06:36 16.02.2020
2644 Clouds -2 1024 94 10000 5 200 05:37 16.02.2020
2645 Clouds -2 1025 80 10000 5 210 04:30 16.02.2020
2646 Clouds -2 1026 74 10000 5 200 02:37 16.02.2020
2647 Clouds -3 1026 74 10000 6 210 01:57 16.02.2020
2648 Clouds -3 1025 80 10000 5 210 01:37 16.02.2020
2649 Clouds -2 1025 80 10000 5 210 01:19 16.02.2020
2650 Clouds -3 1026 74 10000 4 210 00:41 16.02.2020
2651 Clouds -3 1026 74 10000 4 210 00:21 16.02.2020
2652 Clouds -3 1026 93 10000 5 190 23:42 15.02.2020
2653 Clouds -3 1026 94 10000 5 190 23:24 15.02.2020
2654 Clouds -3 1026 63 10000 5 210 22:57 15.02.2020
2655 Clouds -3 1026 63 10000 3 210 22:39 15.02.2020
2656 Clouds -3 1026 63 10000 3 210 22:19 15.02.2020
2657 Clouds -3 1026 58 10000 4 210 21:43 15.02.2020
2658 Clouds -3 1026 63 10000 4 210 21:24 15.02.2020
2659 Clouds -3 1026 63 10000 3 210 20:56 15.02.2020
2660 Clouds -3 1026 63 10000 3 210 20:37 15.02.2020
2661 Clouds -3 1026 63 10000 3 210 20:19 15.02.2020
2662 Clouds -2 1026 94 10000 3 200 19:41 15.02.2020
2663 Clouds -2 1026 94 10000 3 200 19:22 15.02.2020
2664 Clouds -2 1027 94 10000 4 220 18:41 15.02.2020
2665 Clouds -2 1027 94 10000 4 220 18:21 15.02.2020
2666 Clouds -1 1026 94 10000 3 220 17:57 15.02.2020
2667 Clouds 0 1026 55 10000 3 200 17:37 15.02.2020
2668 Clouds 0 1026 55 10000 3 200 17:19 15.02.2020
2669 Clouds 1 1026 55 10000 3 190 16:41 15.02.2020
2670 Clouds 1 1026 55 10000 3 190 16:23 15.02.2020
2671 Clouds 2 1026 55 10000 4 210 15:56 15.02.2020
2672 Clouds 2 1026 59 10000 4 210 15:38 15.02.2020
2673 Clouds 2 1026 59 10000 4 210 15:20 15.02.2020
2674 Clouds 2 1026 59 10000 4 210 14:43 15.02.2020
2675 Clouds 2 1026 69 10000 4 240 14:18 15.02.2020
2676 Clouds 2 1025 74 10000 3 250 13:43 15.02.2020
2677 Clouds 2 1025 74 10000 3 250 13:25 15.02.2020
2678 Clouds 2 1025 80 10000 3 250 12:59 15.02.2020
2679 Clouds 2 1025 80 10000 4 260 12:40 15.02.2020
2680 Clouds 2 1025 80 10000 4 260 12:22 15.02.2020
2681 Clouds 1 1025 74 10000 4 240 11:47 15.02.2020
2682 Clouds 1 1025 74 10000 4 240 11:47 15.02.2020
2683 Clouds 1 1025 86 10000 2 210 11:27 15.02.2020
2684 Clouds 1 1025 92 10000 2 220 10:51 15.02.2020
2685 Clear 1 1025 92 10000 2 250 10:30 15.02.2020
2686 Clouds 0 1025 92 9000 2 270 09:58 15.02.2020
2687 Clouds 1 1024 92 8000 2 250 09:39 15.02.2020
2688 -273 0 0 0 0 0 09:21 15.02.2020
2689 Fog -1 1024 92 6000 3 260 08:43 15.02.2020
2690 Fog -1 1024 92 6000 3 260 08:25 15.02.2020
2691 Fog -2 1024 100 5000 2 250 07:51 15.02.2020
2692 Clouds -2 1024 100 8000 2 260 07:31 15.02.2020
2693 Clouds -2 1023 100 10000 2 260 06:54 15.02.2020
2694 Clouds -2 1023 100 10000 1.79 299 06:36 15.02.2020
2695 Clouds -3 1023 92 9000 3 260 05:41 15.02.2020
2696 Clouds -3 1023 92 9000 3 250 04:46 15.02.2020
2697 Clouds -1 1022 100 10000 2 290 03:43 15.02.2020
2698 Fog -2 1021 100 9000 5 300 02:51 15.02.2020
2699 Fog -1 1021 100 9000 5 300 02:23 15.02.2020
2700 Fog -2 1021 92 3300 2 270 01:40 15.02.2020
2701 Clouds 0 1020 100 10000 1 300 00:42 15.02.2020
2702 Clouds 0 1020 100 10000 1 300 00:21 15.02.2020
2703 Clouds -1 1020 92 10000 4 260 23:42 14.02.2020
2704 Clouds -1 1020 92 10000 4 260 23:20 14.02.2020
2705 Clouds -1 1019 92 10000 4 250 22:44 14.02.2020
2706 Clouds -1 1019 92 10000 4 250 22:24 14.02.2020
2707 Clouds -1 1019 92 10000 4 260 21:54 14.02.2020
2708 Clouds -1 1019 92 10000 4 240 21:36 14.02.2020
2709 Clouds -1 1019 92 10000 4 240 21:18 14.02.2020
2710 Clouds -1 1018 86 7000 4 240 20:42 14.02.2020
2711 Clouds 0 1018 86 10000 5 250 20:19 14.02.2020
2712 Clouds 0 1018 86 10000 5 250 19:56 14.02.2020
2713 Clouds -1 1018 86 10000 4 220 19:38 14.02.2020
2714 Clouds 0 1018 86 10000 4 220 19:18 14.02.2020
2715 Clouds 0 1018 94 10000 5 240 18:55 14.02.2020
2716 Clouds 0 1018 86 10000 5 250 18:37 14.02.2020
2717 Clouds 0 1018 86 10000 5 250 18:18 14.02.2020
2718 Clouds 1 1017 94 10000 5 250 17:41 14.02.2020
2719 Clouds 1 1017 90 10000 4 260 17:19 14.02.2020
2720 Clouds 1 1017 90 10000 4 260 16:57 14.02.2020
2721 Clouds 1 1017 80 10000 5 250 16:39 14.02.2020
2722 Clouds 1 1017 80 10000 5 250 16:20 14.02.2020
2723 Clouds 1 1016 80 10000 5 240 15:55 14.02.2020
2724 Clouds 2 1016 80 10000 6 250 15:37 14.02.2020
2725 Clouds 2 1016 80 10000 6 250 15:19 14.02.2020
2726 Clouds 2 1015 80 10000 6 260 14:55 14.02.2020
2727 Clouds 2 1015 74 10000 6 250 14:37 14.02.2020
2728 Clouds 2 1015 74 10000 6 250 14:18 14.02.2020
2729 Clouds 2 1015 74 10000 6 250 13:39 14.02.2020
2730 Clouds 2 1015 74 10000 6 250 13:20 14.02.2020
2731 Clouds 2 1015 74 10000 6 250 13:20 14.02.2020
2732 Clouds 2 1015 80 10000 6 240 12:57 14.02.2020
2733 Snow 2 1014 86 10000 5 270 12:39 14.02.2020
2734 Snow 2 1014 86 10000 5 270 12:20 14.02.2020
2735 Snow 2 1014 86 10000 5 270 12:20 14.02.2020
2736 Snow 2 1014 86 10000 5 270 11:58 14.02.2020
2737 Clouds 2 1014 86 10000 4 240 11:40 14.02.2020
2738 Clouds 2 1014 86 10000 4 240 11:20 14.02.2020
2739 Rain 2 1013 98 9000 5 270 10:44 14.02.2020
2740 Rain 1 1013 98 10000 5 260 10:25 14.02.2020
2741 Rain 1 1013 98 9000 5 250 09:57 14.02.2020
2742 Rain 1 1013 98 9000 5 250 09:57 14.02.2020
2743 Rain 1 1013 98 8000 5 240 09:38 14.02.2020
2744 Rain 1 1013 98 8000 5 240 09:19 14.02.2020
2745 Rain 0 1013 98 6000 4 230 08:40 14.02.2020
2746 Snow 0 1013 94 6000 4 230 08:22 14.02.2020
2747 Snow 0 1012 94 5000 4 220 07:51 14.02.2020
2748 Mist 0 1012 94 4100 4 220 07:33 14.02.2020
2749 Mist -1 1012 94 3600 3 200 06:56 14.02.2020
2750 Mist -1 1011 94 3300 2 180 06:23 14.02.2020
2751 Mist -1 1011 94 3300 3 220 05:44 14.02.2020
2752 Snow -1 1011 92 3900 2 180 04:28 14.02.2020
2753 Snow -2 1010 92 3700 2 170 03:28 14.02.2020
2754 Snow -2 1010 92 4700 2 130 02:29 14.02.2020
2755 Snow -2 1010 92 5000 2 210 01:25 14.02.2020
2756 Snow -2 1009 86 7000 2 180 00:42 14.02.2020
2757 Snow -2 1009 86 7000 2 180 00:21 14.02.2020
2758 Snow -2 1009 86 6000 2 160 23:43 13.02.2020
2759 Snow -2 1009 86 6000 2 160 23:21 13.02.2020
2760 Snow -2 1009 86 8000 2 170 22:44 13.02.2020
2761 Snow -2 1008 86 9000 2 170 22:20 13.02.2020
2762 Snow -2 1008 86 9000 2 170 22:20 13.02.2020
2763 Clouds -2 1008 86 9000 3 170 21:59 13.02.2020
2764 Snow -2 1008 86 9000 2 190 21:40 13.02.2020
2765 Snow -2 1008 86 9000 2 190 21:22 13.02.2020
2766 Snow -2 1008 86 9000 2 190 20:57 13.02.2020
2767 Clouds -2 1008 80 10000 2 200 20:39 13.02.2020
2768 Clouds -2 1008 80 10000 2 200 20:21 13.02.2020
2769 Clouds -2 1008 86 10000 3 180 19:56 13.02.2020
2770 Clouds -2 1008 80 10000 3 200 19:36 13.02.2020
2771 Clouds -2 1008 80 10000 3 200 19:36 13.02.2020
2772 Clouds -2 1008 80 9000 3 170 19:18 13.02.2020
2773 Clouds -2 1007 86 10000 3 190 18:43 13.02.2020
2774 Clouds -2 1007 86 10000 3 190 18:24 13.02.2020
2775 Clouds -2 1007 86 10000 3 190 17:59 13.02.2020
2776 Snow -2 1007 86 9000 2 170 17:40 13.02.2020
2777 Snow -2 1007 86 9000 2 170 17:20 13.02.2020
2778 Snow -2 1007 86 9000 2 170 16:58 13.02.2020
2779 Snow -2 1007 86 9000 2 170 16:38 13.02.2020
2780 Snow -2 1007 86 9000 2 170 16:19 13.02.2020
2781 Snow -2 1006 86 9000 3 190 15:56 13.02.2020
2782 Snow -2 1006 80 7000 3 190 15:37 13.02.2020
2783 Snow -2 1006 80 8000 3 190 15:19 13.02.2020
2784 Snow -2 1006 80 8000 3 190 14:56 13.02.2020
2785 Snow -2 1006 80 10000 3 180 14:38 13.02.2020
2786 Snow -2 1006 80 9000 2 190 14:20 13.02.2020
2787 Snow -2 1005 80 10000 3 170 13:44 13.02.2020
2788 Snow -2 1005 80 10000 3 170 13:18 13.02.2020
2789 Snow -2 1005 80 10000 3 170 13:18 13.02.2020
2790 Snow -2 1005 80 10000 3 170 13:18 13.02.2020
2791 Snow -2 1005 80 10000 3 190 12:56 13.02.2020
2792 Snow -2 1005 80 10000 3 200 12:37 13.02.2020
2793 Snow -2 1005 80 10000 3 200 12:19 13.02.2020
2794 Snow -2 1005 80 9000 3 140 11:43 13.02.2020
2795 Snow -2 1005 80 9000 3 140 11:20 13.02.2020
2796 Clouds -2 1005 80 9000 3 160 10:48 13.02.2020
2797 Clouds -3 1004 86 9000 3 170 10:28 13.02.2020
2798 Clouds -3 1004 79 9000 3 170 09:55 13.02.2020
2799 Clouds -3 1004 79 10000 3 160 09:37 13.02.2020
2800 Clouds -3 1004 79 10000 3 160 09:18 13.02.2020
2801 Clouds -4 1004 79 10000 3 180 08:41 13.02.2020
2802 Clouds -4 1004 79 10000 3 180 08:19 13.02.2020
2803 Clouds -4 1004 79 10000 3 200 07:40 13.02.2020
2804 -273 0 0 0 0 0 07:22 13.02.2020
2805 Clouds -4 1003 86 10000 2 170 06:49 13.02.2020
2806 Clouds -4 1003 86 10000 2 170 06:31 13.02.2020
2807 Clouds -3 1003 86 10000 3 170 05:38 13.02.2020
2808 Clouds -3 1003 86 10000 3 160 04:39 13.02.2020
2809 Clouds -3 1002 86 10000 3 180 04:18 13.02.2020
2810 Clouds -3 1002 86 10000 3 170 03:29 13.02.2020
2811 Clouds -3 1002 86 10000 4 160 02:55 13.02.2020
2812 Clouds -3 1002 86 10000 4 150 02:20 13.02.2020
2813 Clouds -3 1002 86 10000 4 150 02:20 13.02.2020
2814 Clouds -3 1002 92 9000 4 150 01:40 13.02.2020
2815 Clouds -3 1002 92 9000 4 150 01:40 13.02.2020
2816 Clouds -3 1002 92 9000 4 150 01:40 13.02.2020
2817 Clouds -3 1002 92 10000 3 150 00:45 13.02.2020
2818 Clouds -3 1002 92 9000 3 160 00:26 13.02.2020
2819 Clouds -3 1002 86 10000 4 160 23:42 12.02.2020
2820 Clouds -3 1002 86 10000 4 160 23:23 12.02.2020
2821 Clouds -3 1002 86 10000 4 160 23:23 12.02.2020
2822 Clouds -3 1001 86 10000 4 160 22:57 12.02.2020
2823 Clouds -3 1001 86 10000 4 150 22:39 12.02.2020
2824 Clouds -3 1001 86 10000 4 150 22:21 12.02.2020
2825 Snow -3 1001 92 9000 5 150 21:55 12.02.2020
2826 Snow -3 1001 92 9000 4 180 21:37 12.02.2020
2827 Snow -3 1001 92 9000 5 170 21:18 12.02.2020
2828 Snow -2 1001 86 9000 5 170 20:43 12.02.2020
2829 Clouds -3 1000 86 10000 4 170 20:25 12.02.2020
2830 Clouds -2 1000 86 10000 4 170 19:57 12.02.2020
2831 Snow -2 1000 92 5000 4 160 19:39 12.02.2020
2832 Snow -2 1000 92 5000 4 160 19:21 12.02.2020
2833 Snow -2 1000 92 4200 4 150 18:50 12.02.2020
2834 Snow -2 1000 92 5000 5 130 18:20 12.02.2020
2835 Snow -2 1000 92 3900 5 150 17:59 12.02.2020
2836 Snow -2 1000 92 1200 3 170 17:40 12.02.2020
2837 Snow -1 1000 92 1200 3 170 17:19 12.02.2020
2838 Snow -1 999 92 5000 3 150 16:57 12.02.2020
2839 Snow -1 999 100 2800 3 160 16:36 12.02.2020
2840 Snow -1 999 100 2800 3 160 16:18 12.02.2020
2841 Snow -1 999 95 1800 4 160 15:38 12.02.2020
2842 Snow -1 998 96 3500 4 160 15:19 12.02.2020
2843 Snow 0 998 96 2600 6 150 14:43 12.02.2020
2844 Snow 0 998 96 2600 6 150 14:43 12.02.2020
2845 Snow 0 998 94 2600 6 150 14:21 12.02.2020
2846 Snow 0 998 94 3900 5 160 13:59 12.02.2020
2847 Snow 0 997 94 5000 6 150 13:40 12.02.2020
2848 Snow 0 997 94 6000 7 150 13:22 12.02.2020
2849 Snow 0 997 94 6000 7 150 12:58 12.02.2020
2850 Snow 0 997 94 6000 6 140 12:39 12.02.2020
2851 Snow 0 997 94 6000 6 140 12:19 12.02.2020
2852 Snow 0 997 86 8000 6 160 11:59 12.02.2020
2853 Snow 0 997 86 6000 7 160 11:41 12.02.2020
2854 Snow 0 997 86 6000 7 160 11:21 12.02.2020
2855 Snow 0 997 86 5000 6 160 10:58 12.02.2020
2856 Snow 0 997 86 5000 6 160 10:58 12.02.2020
2857 Snow 1 997 86 10000 7 150 10:40 12.02.2020
2858 Snow 1 997 86 10000 7 150 10:20 12.02.2020
2859 Snow 1 997 86 10000 6 160 09:56 12.02.2020
2860 Snow 1 997 80 10000 5 160 09:38 12.02.2020
2861 Snow 1 997 80 10000 5 160 09:19 12.02.2020
2862 Rain 1 997 93 10000 6 170 08:55 12.02.2020
2863 Rain 1 997 93 10000 6 170 08:36 12.02.2020
2864 Rain 1 997 96 10000 6 170 08:18 12.02.2020
2865 Snow 1 997 96 4500 5 170 07:42 12.02.2020
2866 Snow 1 997 96 4500 5 170 07:22 12.02.2020
2867 Snow 1 997 96 7000 5 170 06:52 12.02.2020
2868 Snow 1 996 96 6000 5 160 06:20 12.02.2020
2869 Clouds 1 996 96 10000 5 170 05:36 12.02.2020
2870 Clouds 1 996 95 10000 5 170 04:56 12.02.2020
2871 Clouds 1 996 95 10000 5 190 04:38 12.02.2020
2872 Rain 2 996 95 10000 4 180 03:31 12.02.2020
2873 Rain 1 996 95 10000 4 180 02:58 12.02.2020
2874 Rain 1 996 95 10000 4 200 02:28 12.02.2020
2875 Rain 1 995 96 10000 5 190 01:49 12.02.2020
2876 Rain 1 995 95 10000 5 200 00:45 12.02.2020
2877 Rain 1 995 95 10000 5 200 00:25 12.02.2020
2878 Clouds 2 995 95 10000 5 200 23:55 11.02.2020
2879 Clouds 2 995 95 10000 5 200 23:55 11.02.2020
2880 Clouds 1 995 95 9000 5 200 23:37 11.02.2020
2881 Rain 1 995 98 9000 5 200 23:18 11.02.2020
2882 Rain 1 994 98 9000 5 200 22:55 11.02.2020
2883 Rain 1 994 98 10000 5 210 22:36 11.02.2020
2884 Snow 1 994 98 10000 6 210 22:18 11.02.2020
2885 Rain 1 994 98 10000 6 210 21:55 11.02.2020
2886 Rain 2 993 98 10000 6 210 21:36 11.02.2020
2887 Rain 1 993 98 10000 6 210 21:18 11.02.2020
2888 Rain 1 993 98 10000 6 210 21:18 11.02.2020
2889 Rain 1 992 98 10000 7 220 20:39 11.02.2020
2890 Rain 1 992 98 10000 7 220 20:39 11.02.2020
2891 Rain 1 992 97 10000 7 220 20:20 11.02.2020
2892 Rain 1 992 97 10000 6 220 19:59 11.02.2020
2893 Rain 1 991 97 9000 5 210 19:41 11.02.2020
2894 Rain 2 991 97 9000 5 210 19:23 11.02.2020
2895 Rain 1 991 97 4100 6 200 18:55 11.02.2020
2896 Rain 1 991 97 9000 6 180 18:37 11.02.2020
2897 Rain 1 991 97 9000 6 180 18:19 11.02.2020
2898 Rain 1 990 97 4800 5 180 17:55 11.02.2020
2899 Rain 1 990 97 2100 5 180 17:36 11.02.2020
2900 Rain 1 990 98 2100 5 180 17:18 11.02.2020
2901 Rain 1 990 98 2000 5 170 16:55 11.02.2020
2902 Rain 1 990 98 1800 6 170 16:36 11.02.2020
2903 Rain 1 990 98 4700 5 170 16:18 11.02.2020
2904 Rain 0 990 98 4700 5 170 15:43 11.02.2020
2905 Rain 0 990 98 3100 5 160 15:23 11.02.2020
2906 Rain 0 990 98 1400 6 170 14:54 11.02.2020
2907 Rain 0 990 98 3100 5 170 14:36 11.02.2020
2908 Rain 0 990 97 3100 5 170 14:18 11.02.2020
2909 Snow 0 990 97 9000 5 180 13:41 11.02.2020
2910 Rain 0 990 97 10000 5 180 13:21 11.02.2020
2911 Rain 0 990 97 10000 5 180 12:58 11.02.2020
2912 Snow 0 990 97 9000 5 180 12:39 11.02.2020
2913 Clouds 0 990 97 10000 6 180 12:20 11.02.2020
2914 Snow 0 990 97 10000 5 180 11:41 11.02.2020
2915 Snow 0 990 95 10000 5 180 11:21 11.02.2020
2916 Snow 0 990 95 8000 6 180 10:58 11.02.2020
2917 Snow 0 990 92 4000 5 180 10:39 11.02.2020
2918 Snow 0 990 92 4000 5 180 10:20 11.02.2020
2919 Snow -1 990 92 2900 6 180 09:56 11.02.2020
2920 Snow -1 990 92 6000 6 180 09:38 11.02.2020
2921 Snow -1 990 92 6000 6 180 09:19 11.02.2020
2922 Snow -1 990 92 3200 6 180 08:46 11.02.2020
2923 Snow -1 990 92 3900 6 170 08:24 11.02.2020
2924 Snow -1 990 92 1800 6 170 07:48 11.02.2020
2925 Snow -1 990 92 1800 6 170 07:26 11.02.2020
2926 Snow -1 990 92 1300 5 180 06:44 11.02.2020
2927 Snow -1 990 92 1300 5 180 06:22 11.02.2020
2928 Snow -1 990 92 2500 6 170 05:58 11.02.2020
2929 Snow -1 990 92 2400 5 180 05:25 11.02.2020
2930 Snow -1 991 92 4700 6 180 04:42 11.02.2020
2931 Snow -1 991 86 2000 6 180 03:26 11.02.2020
2932 Snow -1 991 86 7000 7 190 02:33 11.02.2020
2933 Snow -1 991 86 4100 7 190 01:38 11.02.2020
2934 Snow -1 992 86 9000 9 190 00:43 11.02.2020
2935 Snow -1 992 86 9000 9 190 00:22 11.02.2020
2936 Snow -1 992 86 10000 7 190 23:39 10.02.2020
2937 Snow -2 992 86 10000 7 190 23:20 10.02.2020
2938 Snow -2 993 92 3300 7 180 22:42 10.02.2020
2939 Snow -2 993 92 3300 7 180 22:21 10.02.2020
2940 Snow -2 993 86 1700 8 190 21:57 10.02.2020
2941 Snow -1 993 74 2700 8 190 21:39 10.02.2020
2942 Snow -1 994 86 3600 7 190 21:21 10.02.2020
2943 Snow -1 994 86 3600 7 190 20:54 10.02.2020
2944 Snow -1 994 68 7000 9 200 20:36 10.02.2020
2945 Snow -1 994 68 7000 9 200 20:18 10.02.2020
2946 Clouds -1 994 63 10000 9 200 19:56 10.02.2020
2947 Clouds -1 995 63 10000 7 200 19:36 10.02.2020
2948 Clouds -1 995 63 10000 8 190 19:18 10.02.2020
2949 Clouds -1 995 63 10000 8 190 18:55 10.02.2020
2950 Clouds -1 995 88 10000 8 190 18:37 10.02.2020
2951 Clouds -1 995 88 10000 8 190 18:37 10.02.2020
2952 Clouds -1 995 88 10000 8 190 18:18 10.02.2020
2953 Clouds -1 996 88 10000 8 200 17:39 10.02.2020
2954 Clear -1 996 81 10000 8 200 17:21 10.02.2020
2955 Clear -1 996 81 10000 8 190 16:59 10.02.2020
2956 Clear 0 996 55 10000 10 180 16:40 10.02.2020
2957 Clear 0 996 55 10000 10 180 16:20 10.02.2020
2958 Clear 0 996 55 10000 8 180 15:59 10.02.2020
2959 Clear 0 996 55 10000 8 180 15:59 10.02.2020
2960 Clear 1 997 55 10000 8 180 15:40 10.02.2020
2961 Clear 1 997 55 10000 8 180 15:22 10.02.2020
2962 Clear 2 997 55 10000 8 180 14:58 10.02.2020
2963 Clear 2 997 55 10000 8 180 14:58 10.02.2020
2964 Clear 2 998 55 10000 8 180 14:39 10.02.2020
2965 Clouds 2 998 55 10000 8 180 14:19 10.02.2020
2966 Clouds 2 998 55 10000 8 180 13:44 10.02.2020
2967 Clear 2 999 55 10000 7 180 13:26 10.02.2020
2968 Clear 3 1000 55 10000 7 180 12:59 10.02.2020
2969 Clear 2 1000 55 10000 7 190 12:41 10.02.2020
2970 Clear 2 1000 55 10000 7 190 12:22 10.02.2020
2971 Clear 2 1001 55 10000 8 200 11:54 10.02.2020
2972 Clear 2 1001 55 10000 8 200 11:54 10.02.2020
2973 Clear 2 1002 59 10000 7 210 11:36 10.02.2020
2974 Clear 2 1002 59 10000 7 200 11:18 10.02.2020
2975 Clear 1 1003 64 10000 6 200 10:42 10.02.2020
2976 Clear 1 1003 64 10000 6 200 10:23 10.02.2020
2977 Clear 0 1004 84 10000 7 190 09:44 10.02.2020
2978 Clear 0 1004 84 10000 7 200 09:23 10.02.2020
2979 Clear -1 1005 68 10000 7 200 08:41 10.02.2020
2980 Clouds -1 1005 68 10000 7 200 08:22 10.02.2020
2981 Clouds -2 1005 74 10000 7 200 07:57 10.02.2020
2982 Clouds -2 1006 79 10000 7 200 07:35 10.02.2020
2983 Clouds -2 1007 79 10000 6 200 06:58 10.02.2020
2984 Clouds -2 1008 79 10000 5 210 05:41 10.02.2020
2985 Clouds -2 1009 86 10000 7 220 04:23 10.02.2020
2986 Clouds -2 1010 86 10000 7 220 03:28 10.02.2020
2987 Clouds -2 1010 86 10000 8 230 02:53 10.02.2020
2988 Clouds -2 1012 86 10000 6 220 01:36 10.02.2020
2989 Clouds -2 1012 86 10000 6 220 00:48 10.02.2020
2990 Clouds -2 1012 86 10000 6 220 00:28 10.02.2020
2991 Clouds -2 1013 86 10000 6 230 23:44 09.02.2020
2992 Clouds -1 1013 86 10000 6 230 23:26 09.02.2020
2993 Clouds -2 1013 86 10000 6 220 22:58 09.02.2020
2994 Clouds -1 1013 86 10000 7 230 22:38 09.02.2020
2995 Clouds -1 1013 86 10000 7 230 22:19 09.02.2020
2996 Clouds -1 1014 80 10000 8 230 21:41 09.02.2020
2997 Clouds -1 1014 80 10000 8 230 21:22 09.02.2020
2998 Clouds -1 1014 80 10000 8 230 21:22 09.02.2020
2999 Clouds -1 1014 80 10000 8 230 20:48 09.02.2020
3000 Clouds -1 1015 80 10000 9 240 20:23 09.02.2020
3001 Clouds -1 1015 80 10000 9 230 19:58 09.02.2020
3002 Clouds -2 1015 80 10000 8 240 19:39 09.02.2020
3003 Clouds -2 1015 80 10000 8 240 19:20 09.02.2020
3004 Clouds -1 1015 80 10000 8 230 18:54 09.02.2020
3005 Clouds -1 1016 80 10000 8 240 18:36 09.02.2020
3006 Clouds -1 1016 80 10000 7 240 18:18 09.02.2020
3007 Clouds -2 1016 80 10000 7 240 17:40 09.02.2020
3008 Clouds -1 1016 80 10000 7 240 17:22 09.02.2020
3009 Clouds -1 1016 80 10000 7 240 17:21 09.02.2020
3010 Clouds -2 1016 74 10000 7 240 16:44 09.02.2020
3011 Clouds -2 1016 74 10000 7 240 16:24 09.02.2020
3012 Clouds -1 1016 74 10000 7 230 15:59 09.02.2020
3013 Clouds -1 1016 74 10000 7 220 15:41 09.02.2020
3014 Clouds -1 1016 74 10000 7 220 15:22 09.02.2020
3015 Clouds -1 1016 74 10000 7 220 14:57 09.02.2020
3016 Clouds -1 1017 74 10000 8 230 14:39 09.02.2020
3017 Clouds -1 1017 74 10000 8 230 14:21 09.02.2020
3018 Clouds -2 1017 79 10000 7 230 13:44 09.02.2020
3019 Clouds -2 1017 79 10000 7 230 13:26 09.02.2020
3020 Clouds -2 1018 79 10000 7 230 12:57 09.02.2020
3021 Clouds -2 1018 79 10000 7 230 12:38 09.02.2020
3022 Clouds -2 1018 79 10000 7 230 12:19 09.02.2020
3023 Clouds -2 1018 79 10000 7 230 12:19 09.02.2020
3024 Clouds -3 1019 79 10000 7 220 11:41 09.02.2020
3025 Clouds -3 1019 79 10000 7 220 11:22 09.02.2020
3026 Clouds -3 1019 79 10000 6 220 10:59 09.02.2020
3027 Clouds -3 1020 79 10000 6 220 10:41 09.02.2020
3028 Clouds -3 1020 79 10000 6 220 10:22 09.02.2020
3029 Clouds -4 1020 79 10000 5 220 09:47 09.02.2020
3030 Clouds -4 1020 79 10000 5 220 09:28 09.02.2020
3031 Clouds -5 1020 79 10000 5 220 08:54 09.02.2020
3032 Clouds -5 1020 85 10000 5 230 08:36 09.02.2020
3033 Clouds -5 1020 85 10000 5 230 08:18 09.02.2020
3034 Clouds -5 1020 79 10000 6 230 07:44 09.02.2020
3035 Clouds -6 1020 79 10000 5 230 06:54 09.02.2020
3036 Clouds -5 1021 79 10000 5 240 06:36 09.02.2020
3037 Clouds -7 1021 79 10000 4 220 05:45 09.02.2020
3038 Clouds -7 1021 79 10000 4 220 05:20 09.02.2020
3039 Clouds -8 1021 79 10000 3 220 03:53 09.02.2020
3040 Snow -8 1021 79 10000 3 240 02:47 09.02.2020
3041 Snow -9 1021 78 10000 3 220 02:27 09.02.2020
3042 Snow -10 1021 78 10000 3 210 01:35 09.02.2020
3043 Snow -11 1022 78 10000 2 230 00:52 09.02.2020
3044 Clouds -11 1021 78 10000 2 240 00:28 09.02.2020
3045 Clouds -10 1021 78 10000 2 220 23:45 08.02.2020
3046 Clouds -11 1021 78 10000 2 220 23:23 08.02.2020
3047 Clouds -11 1021 78 10000 2 210 22:56 08.02.2020
3048 Clouds -11 1021 78 10000 2 230 22:38 08.02.2020
3049 Clouds -11 1021 78 10000 2 230 22:20 08.02.2020
3050 Clouds -11 1021 78 10000 2 260 21:44 08.02.2020
3051 Clouds -11 1021 78 10000 2 260 21:25 08.02.2020
3052 Clouds -11 1021 78 9000 2 260 20:58 08.02.2020
3053 Clouds -11 1021 78 10000 2 250 20:39 08.02.2020
3054 Clear -11 1021 78 10000 2 250 20:19 08.02.2020
3055 Clear -10 1021 72 10000 3 230 19:56 08.02.2020
3056 Clear -10 1021 72 10000 3 230 19:56 08.02.2020
3057 Clear -10 1021 72 10000 4 240 19:38 08.02.2020
3058 Clear -10 1021 78 10000 2 250 19:19 08.02.2020
3059 Clear -10 1021 78 10000 2 250 18:44 08.02.2020
3060 Clear -10 1021 72 10000 2 260 18:25 08.02.2020
3061 Clear -9 1021 72 10000 2 220 17:59 08.02.2020
3062 Clear -9 1021 72 9000 1 330 17:41 08.02.2020
3063 Clear -9 1021 72 9000 1 330 17:18 08.02.2020
3064 Clear -8 1020 78 10000 2 270 16:41 08.02.2020
3065 Clear -8 1020 78 10000 2 270 16:22 08.02.2020
3066 Clear -7 1020 72 10000 2 260 15:57 08.02.2020
3067 Clear -7 1020 67 10000 2 260 15:39 08.02.2020
3068 Clear -7 1020 67 10000 2 260 15:18 08.02.2020
3069 Clear -7 1020 67 10000 2 260 15:18 08.02.2020
3070 Clear -6 1020 62 10000 2 280 14:44 08.02.2020
3071 Clear -6 1020 62 10000 2 280 14:21 08.02.2020
3072 Clouds -6 1020 67 10000 2 290 13:57 08.02.2020
3073 Clouds -6 1020 67 10000 2 270 13:38 08.02.2020
3074 Clouds -6 1020 67 10000 2 270 13:38 08.02.2020
3075 Clouds -6 1020 67 10000 2 270 13:20 08.02.2020
3076 Clouds -6 1019 62 10000 2 220 12:40 08.02.2020
3077 Clouds -6 1019 62 10000 2 220 12:22 08.02.2020
3078 Clouds -7 1020 67 10000 1 0 11:56 08.02.2020
3079 Clear -8 1020 67 10000 1 0 11:38 08.02.2020
3080 Clear -8 1020 67 10000 1 0 11:19 08.02.2020
3081 Clear -10 1020 78 10000 1 0 10:42 08.02.2020
3082 Clear -10 1020 78 10000 1 0 10:22 08.02.2020
3083 -273 0 0 0 0 0 09:51 08.02.2020
3084 Clouds -11 1019 78 10000 2 210 09:28 08.02.2020
3085 Clouds -12 1019 84 10000 3 250 08:55 08.02.2020
3086 Clouds -13 1019 84 10000 3 250 08:37 08.02.2020
3087 Clouds -13 1019 84 10000 3 250 08:19 08.02.2020
3088 Clouds -14 1019 84 10000 3 250 07:45 08.02.2020
3089 Clouds -14 1019 84 10000 3 250 07:20 08.02.2020
3090 Clear -14 1018 84 10000 1 280 06:29 08.02.2020
3091 Clear -15 1018 84 10000 2 300 05:48 08.02.2020
3092 Clouds -15 1018 84 10000 3 300 05:30 08.02.2020
3093 Clouds -15 1018 84 10000 3 300 05:30 08.02.2020
3094 Clouds -14 1018 92 10000 2 280 04:49 08.02.2020
3095 Clear -14 1017 84 10000 2 290 03:52 08.02.2020
3096 Clear -13 1017 84 10000 2 310 02:52 08.02.2020
3097 Clouds -12 1017 84 10000 4 320 01:55 08.02.2020
3098 Clouds -12 1017 84 10000 5 330 01:26 08.02.2020
3099 Clouds -12 1017 78 10000 5 340 00:43 08.02.2020
3100 Clouds -11 1017 78 10000 5 340 00:22 08.02.2020
3101 Clouds -11 1017 78 10000 5 340 23:55 07.02.2020
3102 Clouds -11 1016 78 10000 5 340 23:37 07.02.2020
3103 Clouds -11 1016 78 10000 5 340 23:18 07.02.2020
3104 Clouds -11 1016 85 10000 6 350 22:39 07.02.2020
3105 Clouds -10 1016 78 10000 5 340 22:19 07.02.2020
3106 Clouds -10 1016 78 10000 5 340 21:43 07.02.2020
3107 Clouds -10 1016 78 10000 5 340 21:22 07.02.2020
3108 Clouds -10 1016 78 10000 6 340 20:58 07.02.2020
3109 Clouds -10 1016 78 10000 6 340 20:38 07.02.2020
3110 Clouds -10 1016 78 10000 6 340 20:18 07.02.2020
3111 Clouds -9 1015 72 10000 6 340 19:42 07.02.2020
3112 Clouds -9 1015 72 10000 6 340 19:22 07.02.2020
3113 Clouds -9 1015 72 10000 6 340 18:58 07.02.2020
3114 Clouds -9 1014 72 10000 5 340 18:40 07.02.2020
3115 Clouds -9 1014 72 10000 5 340 18:21 07.02.2020
3116 Clouds -8 1014 66 10000 6 350 17:43 07.02.2020
3117 Snow -8 1014 66 10000 6 350 17:22 07.02.2020
3118 Snow -8 1013 66 10000 5 350 16:57 07.02.2020
3119 Snow -8 1013 72 10000 6 350 16:39 07.02.2020
3120 Snow -8 1013 72 10000 6 350 16:20 07.02.2020
3121 Snow -8 1012 85 6000 6 350 15:49 07.02.2020
3122 Snow -8 1012 85 6000 6 350 15:27 07.02.2020
3123 Snow -9 1011 85 8000 6 350 14:54 07.02.2020
3124 Snow -8 1011 85 6000 7 340 14:36 07.02.2020
3125 Snow -9 1010 85 8000 7 360 14:18 07.02.2020
3126 Snow -9 1010 85 2200 6 350 13:40 07.02.2020
3127 Snow -9 1009 85 4000 5 360 13:22 07.02.2020
3128 Snow -9 1009 85 4000 5 360 12:58 07.02.2020
3129 Snow -9 1009 85 2100 6 330 12:40 07.02.2020
3130 Snow -9 1009 85 2100 6 330 12:21 07.02.2020
3131 Snow -9 1007 66 8000 7 350 11:42 07.02.2020
3132 Snow -9 1007 85 1800 6 330 11:22 07.02.2020
3133 Snow -9 1007 85 1800 6 330 10:57 07.02.2020
3134 Snow -9 1007 85 1700 5 340 10:38 07.02.2020
3135 Snow -9 1007 85 1700 5 340 10:19 07.02.2020
3136 Snow -9 1006 85 4900 7 330 09:41 07.02.2020
3137 Snow -9 1006 85 4900 7 330 09:22 07.02.2020
3138 Snow -9 1005 85 3700 5 330 08:45 07.02.2020
3139 Snow -9 1005 85 4600 6 320 08:21 07.02.2020
3140 Snow -9 1005 85 4600 6 320 08:21 07.02.2020
3141 Snow -9 1004 85 3600 6 320 07:53 07.02.2020
3142 Snow -9 1004 85 3600 6 320 07:32 07.02.2020
3143 Snow -9 1003 72 9000 5 340 06:59 07.02.2020
3144 Clouds -9 1003 72 10000 7 330 06:39 07.02.2020
3145 Clouds -9 1003 72 10000 7 330 06:19 07.02.2020
3146 Clouds -9 1002 72 10000 7 320 05:37 07.02.2020
3147 Snow -9 1002 85 10000 3 320 03:43 07.02.2020
3148 Clouds -9 1001 85 9000 4 270 01:57 07.02.2020
3149 Clouds -9 1001 78 10000 4 270 00:59 07.02.2020
3150 Clouds -9 1001 78 10000 5 290 00:28 07.02.2020
3151 Clouds -8 1001 78 10000 5 300 23:39 06.02.2020
3152 Clouds -8 1001 78 10000 5 300 23:39 06.02.2020
3153 Clouds -8 1001 78 10000 5 300 23:19 06.02.2020
3154 Clouds -8 1001 78 10000 5 300 22:48 06.02.2020
3155 Clouds -8 1001 78 10000 6 300 22:27 06.02.2020
3156 Clouds -8 1001 72 10000 7 300 21:59 06.02.2020
3157 Clouds -7 1001 72 10000 6 310 21:37 06.02.2020
3158 Clouds -7 1000 72 10000 5 310 21:18 06.02.2020
3159 Clouds -7 1000 72 10000 5 310 20:55 06.02.2020
3160 Clouds -7 1000 72 10000 5 310 20:55 06.02.2020
3161 Clouds -7 1000 67 10000 5 310 20:36 06.02.2020
3162 Clouds -6 1000 67 10000 6 320 20:18 06.02.2020
3163 Clouds -6 1000 67 10000 6 320 19:57 06.02.2020
3164 Snow -6 1000 67 10000 7 320 19:37 06.02.2020
3165 Snow -6 1000 67 10000 7 320 19:19 06.02.2020
3166 Snow -6 999 92 900 6 310 18:43 06.02.2020
3167 Snow -6 999 92 900 6 310 18:25 06.02.2020
3168 Snow -5 999 79 2100 6 300 17:59 06.02.2020
3169 Clouds -4 999 73 10000 6 310 17:41 06.02.2020
3170 Clouds -4 998 73 10000 7 300 17:20 06.02.2020
3171 Clouds -3 997 68 3000 10 330 16:43 06.02.2020
3172 Clouds -3 997 68 3000 10 330 16:25 06.02.2020
3173 Snow -3 997 79 10000 7 310 15:54 06.02.2020
3174 Snow -2 996 79 10000 7 320 15:36 06.02.2020
3175 Snow -2 996 79 10000 7 320 15:18 06.02.2020
3176 Snow -2 995 92 1300 6 330 14:42 06.02.2020
3177 Snow -2 995 92 1300 6 330 14:24 06.02.2020
3178 Snow -2 995 92 4000 6 280 13:45 06.02.2020
3179 Snow -3 994 92 7000 6 260 13:26 06.02.2020
3180 Snow -3 994 100 10000 6 260 12:45 06.02.2020
3181 Snow -3 994 92 3100 7 250 12:20 06.02.2020
3182 Snow -3 994 92 1700 6 240 11:59 06.02.2020
3183 Snow -3 994 92 1100 7 240 11:41 06.02.2020
3184 Snow -3 994 92 1100 7 240 11:22 06.02.2020
3185 Snow -4 994 92 1600 8 240 10:59 06.02.2020
3186 Snow -4 995 92 2400 7 230 10:41 06.02.2020
3187 Snow -4 995 92 2400 7 230 10:21 06.02.2020
3188 Snow -4 995 92 1700 7 230 09:59 06.02.2020
3189 Snow -4 995 92 1400 7 230 09:40 06.02.2020
3190 Snow -4 995 92 1400 7 230 09:20 06.02.2020
3191 Snow -4 996 85 3000 7 220 08:45 06.02.2020
3192 Snow -4 996 85 3000 7 220 08:45 06.02.2020
3193 Snow -4 996 85 3000 7 220 08:24 06.02.2020
3194 Snow -4 996 92 1400 8 230 07:56 06.02.2020
3195 Snow -4 997 92 2100 8 220 07:32 06.02.2020
3196 Snow -4 998 79 5000 8 220 06:53 06.02.2020
3197 Clouds -5 998 79 10000 8 220 06:19 06.02.2020
3198 Snow -6 1000 85 1900 8 210 05:40 06.02.2020
3199 Clouds -8 1003 73 10000 5 220 04:18 06.02.2020
3200 Clouds -8 1004 73 10000 5 210 03:18 06.02.2020
3201 Clouds -9 1007 72 10000 4 240 01:57 06.02.2020
3202 Clear -9 1007 72 10000 6 240 01:24 06.02.2020
3203 Clear -9 1008 72 10000 5 230 00:41 06.02.2020
3204 Clear -9 1008 72 10000 5 230 00:19 06.02.2020
3205 Clear -9 1009 66 10000 4 230 23:42 05.02.2020
3206 Clear -9 1009 66 10000 4 230 23:23 05.02.2020
3207 Clear -9 1009 72 10000 4 230 22:54 05.02.2020
3208 Clear -9 1010 72 10000 4 250 22:36 05.02.2020
3209 Clear -8 1010 67 10000 5 230 22:18 05.02.2020
3210 Clear -8 1010 72 10000 4 240 21:40 05.02.2020
3211 Clear -8 1010 72 10000 4 240 21:22 05.02.2020
3212 Clear -8 1010 66 10000 5 250 20:55 05.02.2020
3213 Clear -7 1010 66 10000 5 250 20:36 05.02.2020
3214 Clear -7 1010 66 10000 5 250 20:18 05.02.2020
3215 Clear -7 1010 67 10000 3 280 19:55 05.02.2020
3216 Clear -7 1010 67 10000 3 280 19:36 05.02.2020
3217 Clear -7 1010 67 10000 3 280 19:18 05.02.2020
3218 Clear -6 1010 62 10000 5 280 18:43 05.02.2020
3219 Clear -6 1009 62 10000 4 280 18:20 05.02.2020
3220 Clear -6 1009 62 10000 4 280 17:58 05.02.2020
3221 Clear -6 1009 62 10000 4 280 17:37 05.02.2020
3222 Clouds -5 1009 62 10000 4 290 17:18 05.02.2020
3223 Clouds -5 1009 57 10000 5 290 16:43 05.02.2020
3224 Clouds -5 1009 57 10000 5 290 16:25 05.02.2020
3225 Clouds -5 1009 62 10000 5 290 15:58 05.02.2020
3226 Clouds -4 1008 58 10000 5 290 15:38 05.02.2020
3227 Clouds -4 1008 58 10000 5 290 15:18 05.02.2020
3228 Clouds -4 1008 58 10000 6 300 14:43 05.02.2020
3229 Clouds -4 1008 62 10000 6 300 14:24 05.02.2020
3230 Clouds -3 1007 62 10000 6 310 13:58 05.02.2020
3231 Clouds -4 1007 62 9000 7 300 13:38 05.02.2020
3232 Clouds -4 1007 62 9000 7 300 13:19 05.02.2020
3233 Clouds -4 1007 62 10000 7 310 12:43 05.02.2020
3234 Clouds -3 1007 62 10000 7 310 12:23 05.02.2020
3235 Clouds -4 1007 73 10000 7 300 11:55 05.02.2020
3236 Snow -4 1006 73 9000 7 290 11:36 05.02.2020
3237 Snow -4 1006 73 9000 7 290 11:18 05.02.2020
3238 Snow -4 1005 79 7000 7 290 10:42 05.02.2020
3239 Snow -4 1005 79 7000 7 290 10:24 05.02.2020
3240 Snow -4 1004 79 9000 6 300 09:45 05.02.2020
3241 Snow -4 1004 73 10000 9 310 09:23 05.02.2020
3242 Snow -4 1004 79 5000 6 300 08:59 05.02.2020
3243 Snow -5 1003 85 4100 5 300 08:41 05.02.2020
3244 Snow -5 1003 85 4100 5 300 08:22 05.02.2020
3245 Snow -4 1003 79 7000 5 310 07:48 05.02.2020
3246 Clouds -5 1002 79 10000 6 310 07:29 05.02.2020
3247 Snow -5 1001 85 10000 6 300 06:46 05.02.2020
3248 Snow -5 1000 79 10000 6 300 06:23 05.02.2020
3249 Snow -5 1000 79 10000 6 300 05:51 05.02.2020
3250 Snow -4 1000 79 9000 5 310 05:18 05.02.2020
3251 Snow -5 999 92 4400 5 300 04:45 05.02.2020
3252 Snow -5 999 92 3100 5 290 03:48 05.02.2020
3253 Snow -4 998 100 2500 6 290 02:25 05.02.2020
3254 Snow -4 997 92 2100 6 280 01:37 05.02.2020
3255 Snow -4 996 92 3400 7 280 00:42 05.02.2020
3256 Snow -4 996 92 3600 5 290 23:57 04.02.2020
3257 Snow -4 995 92 3300 5 290 23:37 04.02.2020
3258 Snow -4 995 92 3300 5 290 23:18 04.02.2020
3259 Snow -4 994 85 5000 7 280 22:42 04.02.2020
3260 Snow -3 994 85 5000 7 280 22:22 04.02.2020
3261 Clouds -3 994 79 10000 7 280 21:59 04.02.2020
3262 Clouds -3 994 79 10000 7 280 21:59 04.02.2020
3263 Snow -3 994 73 10000 8 290 21:41 04.02.2020
3264 Snow -3 994 73 10000 8 290 21:19 04.02.2020
3265 Snow -3 993 79 9000 7 290 20:59 04.02.2020
3266 Snow -3 993 79 9000 7 290 20:38 04.02.2020
3267 Snow -3 992 79 6000 6 280 20:20 04.02.2020
3268 Snow -3 993 79 9000 7 290 20:20 04.02.2020
3269 Snow -3 993 79 9000 7 290 20:20 04.02.2020
3270 Snow -3 993 79 9000 7 290 20:20 04.02.2020
3271 Snow -3 992 79 6000 6 280 19:57 04.02.2020
3272 Clouds -3 992 79 10000 5 280 19:39 04.02.2020
3273 Clouds -3 992 86 10000 7 280 19:21 04.02.2020
3274 Snow -3 992 92 7000 4 280 18:55 04.02.2020
3275 Snow -3 992 92 7000 4 280 18:36 04.02.2020
3276 Snow -3 992 92 7000 4 280 18:18 04.02.2020
3277 Snow -3 992 100 7000 5 270 17:42 04.02.2020
3278 Snow -3 992 100 7000 5 270 17:20 04.02.2020
3279 Snow -3 991 92 4900 7 300 16:55 04.02.2020
3280 Snow -2 991 92 700 5 300 16:36 04.02.2020
3281 Snow -2 991 92 700 5 300 16:18 04.02.2020
3282 Snow -2 991 74 9000 8 270 15:55 04.02.2020
3283 Snow -2 990 79 7000 8 280 15:37 04.02.2020
3284 Snow -2 990 79 7000 8 280 15:18 04.02.2020
3285 Snow -2 989 68 10000 8 270 14:41 04.02.2020
3286 Snow -2 989 68 10000 8 270 14:21 04.02.2020
3287 Snow -2 989 74 7000 9 270 13:57 04.02.2020
3288 Snow -2 989 68 9000 9 260 13:39 04.02.2020
3289 Snow -1 989 68 10000 10 270 13:19 04.02.2020
3290 Snow -1 989 74 10000 8 270 12:43 04.02.2020
3291 Snow -1 989 68 10000 10 270 12:43 04.02.2020
3292 Snow -1 989 74 10000 8 270 12:25 04.02.2020
3293 Snow -1 988 74 9000 10 260 11:58 04.02.2020
3294 Snow -1 988 68 10000 9 270 11:39 04.02.2020
3295 Snow -1 988 68 10000 9 270 11:20 04.02.2020
3296 Snow -1 988 68 10000 10 250 10:50 04.02.2020
3297 Snow -1 988 68 10000 10 250 10:30 04.02.2020
3298 Snow -1 988 63 10000 8 250 09:58 04.02.2020
3299 Snow -1 987 63 10000 9 260 09:40 04.02.2020
3300 Snow -1 987 63 10000 9 260 09:21 04.02.2020
3301 Snow -1 987 63 10000 8 270 08:50 04.02.2020
3302 Snow -1 987 68 10000 9 260 08:28 04.02.2020
3303 Snow -1 987 68 10000 9 260 07:57 04.02.2020
3304 Snow -1 987 74 10000 9 260 07:37 04.02.2020
3305 Snow -1 987 74 10000 9 260 07:19 04.02.2020
3306 Clouds -2 986 79 10000 7 250 06:42 04.02.2020
3307 Snow -1 986 86 8000 7 270 05:37 04.02.2020
3308 Snow -1 987 86 9000 7 260 04:55 04.02.2020
3309 Snow -1 987 80 10000 7 260 03:49 04.02.2020
3310 Snow -1 987 80 10000 7 260 03:31 04.02.2020
3311 Snow -1 987 80 10000 7 260 02:51 04.02.2020
3312 Snow -1 987 80 10000 7 260 02:28 04.02.2020
3313 Snow -1 987 74 10000 7 260 01:50 04.02.2020
3314 Snow -1 987 74 10000 7 260 01:32 04.02.2020
3315 Clouds -1 987 74 10000 5 260 00:27 04.02.2020
3316 Clouds -1 987 74 10000 6 270 23:57 03.02.2020
3317 Clouds -1 987 74 10000 6 270 23:57 03.02.2020
3318 Snow -1 987 80 10000 5 280 23:38 03.02.2020
3319 Snow 0 987 86 10000 5 290 23:19 03.02.2020
3320 Snow 0 987 92 10000 7 300 22:39 03.02.2020
3321 Snow 0 987 92 10000 7 300 22:20 03.02.2020
3322 Clouds 0 986 91 10000 7 300 21:43 03.02.2020
3323 Clouds 0 986 91 10000 7 300 21:43 03.02.2020
3324 Clouds 0 986 91 10000 7 300 21:20 03.02.2020
3325 Clouds 0 986 91 10000 5 300 20:59 03.02.2020
3326 Clouds 1 985 91 10000 6 310 20:40 03.02.2020
3327 Clouds 1 985 86 10000 6 310 20:19 03.02.2020
3328 Snow 1 985 86 7000 7 290 19:56 03.02.2020
3329 Clouds 1 984 86 10000 6 290 19:38 03.02.2020
3330 Clouds 1 984 86 10000 6 290 19:19 03.02.2020
3331 Clouds 1 984 86 10000 6 270 18:43 03.02.2020
3332 Clouds 1 984 86 10000 6 270 18:24 03.02.2020
3333 Clouds 1 984 86 10000 5 270 17:59 03.02.2020
3334 Clouds 1 984 86 10000 5 270 17:59 03.02.2020
3335 Clouds 1 984 86 10000 6 270 17:39 03.02.2020
3336 Clouds 1 984 92 10000 6 270 17:20 03.02.2020
3337 Clouds 1 984 92 10000 6 270 17:20 03.02.2020
3338 Clouds 1 984 92 10000 6 270 16:58 03.02.2020
3339 Snow 1 984 92 10000 6 280 16:38 03.02.2020
3340 Snow 1 984 92 10000 6 280 16:20 03.02.2020
3341 Snow 1 983 92 10000 7 250 15:54 03.02.2020
3342 Snow 1 983 92 7000 6 250 15:36 03.02.2020
3343 Clouds 1 983 92 10000 5 260 15:18 03.02.2020
3344 Clouds 1 983 92 10000 6 270 14:41 03.02.2020
3345 Clouds 1 983 88 10000 6 270 14:22 03.02.2020
3346 Clouds 1 983 88 10000 6 270 13:55 03.02.2020
3347 Snow 1 984 100 10000 6 270 13:37 03.02.2020
3348 Clouds 1 983 89 10000 6 270 13:19 03.02.2020
3349 Snow 1 982 89 5000 5 270 12:41 03.02.2020
3350 Snow 1 982 89 5000 5 270 12:23 03.02.2020
3351 Snow 1 982 89 9000 6 280 11:59 03.02.2020
3352 Snow 1 982 89 10000 5 270 11:38 03.02.2020
3353 Snow 1 982 96 6000 6 290 11:19 03.02.2020
3354 Snow 1 982 96 6000 6 290 10:54 03.02.2020
3355 Snow 1 982 96 6000 6 290 10:54 03.02.2020
3356 Snow 1 982 96 1900 7 280 10:36 03.02.2020
3357 Snow 2 981 96 2400 5 270 10:18 03.02.2020
3358 Snow 2 981 96 2800 6 260 09:38 03.02.2020
3359 Snow 2 981 96 2800 6 260 09:19 03.02.2020
3360 Snow 2 981 93 10000 6 250 08:41 03.02.2020
3361 Snow 2 981 93 10000 6 250 08:22 03.02.2020
3362 Rain 2 981 93 10000 6 230 07:43 03.02.2020
3363 Rain 2 981 93 10000 6 230 07:23 03.02.2020
3364 Snow 2 981 93 10000 6 230 06:57 03.02.2020
3365 Clouds 2 981 93 10000 7 230 06:31 03.02.2020
3366 Clouds 2 981 93 10000 7 240 05:55 03.02.2020
3367 Clouds 2 981 93 10000 7 240 05:33 03.02.2020
3368 Clouds 2 981 93 10000 6 230 04:45 03.02.2020
3369 Clouds 3 982 100 10000 6 220 02:48 03.02.2020
3370 Clouds 3 982 100 10000 6 220 02:48 03.02.2020
3371 Clouds 3 982 100 10000 6 220 02:28 03.02.2020
3372 Clouds 3 983 93 10000 6 230 00:50 03.02.2020
3373 Clouds 3 983 93 10000 6 230 00:28 03.02.2020
3374 Clouds 3 983 100 10000 5 230 23:56 02.02.2020
3375 Clouds 3 983 100 10000 6 230 23:36 02.02.2020
3376 Clouds 3 984 100 10000 6 240 23:18 02.02.2020
3377 Clouds 3 984 93 10000 6 250 22:40 02.02.2020
3378 Clouds 3 984 93 10000 6 250 22:22 02.02.2020
3379 Clouds 3 984 93 10000 8 250 21:58 02.02.2020
3380 Clouds 3 984 93 10000 7 250 21:39 02.02.2020
3381 Clouds 3 984 93 10000 7 250 21:20 02.02.2020
3382 Drizzle 3 984 93 9000 7 260 20:57 02.02.2020
3383 Rain 3 983 93 10000 7 240 20:39 02.02.2020
3384 Snow 2 983 100 10000 6 240 20:20 02.02.2020
3385 Snow 2 983 100 10000 6 240 19:58 02.02.2020
3386 Snow 2 983 100 9000 6 240 19:39 02.02.2020
3387 Snow 2 983 100 9000 7 240 19:21 02.02.2020
3388 Snow 2 983 100 9000 7 240 18:56 02.02.2020
3389 Snow 2 983 100 4400 5 220 18:37 02.02.2020
3390 Snow 2 983 100 4400 5 220 18:19 02.02.2020
3391 Snow 1 984 98 3000 4 220 17:57 02.02.2020
3392 Snow 1 984 98 1900 4 200 17:37 02.02.2020
3393 Snow 1 984 98 2500 3 180 17:18 02.02.2020
3394 Snow 1 984 98 2500 3 180 16:57 02.02.2020
3395 Snow 1 985 98 2100 3 170 16:38 02.02.2020
3396 Snow 1 985 98 2100 3 170 16:18 02.02.2020
3397 Snow 1 985 98 1900 3 150 15:57 02.02.2020
3398 Snow 1 986 98 1700 3 150 15:37 02.02.2020
3399 Snow 1 986 98 1700 3 150 15:19 02.02.2020
3400 Snow 1 986 98 2100 3 160 14:44 02.02.2020
3401 Snow 1 987 99 3900 3 160 14:19 02.02.2020
3402 Clouds 1 988 99 8000 3 160 13:59 02.02.2020
3403 Rain 1 989 100 8000 4 160 13:41 02.02.2020
3404 Rain 1 988 93 9000 4 160 13:21 02.02.2020
3405 Rain 1 989 100 9000 4 160 12:57 02.02.2020
3406 Rain 1 990 100 9000 5 170 12:39 02.02.2020
3407 Rain 1 990 100 9000 5 170 12:21 02.02.2020
3408 Drizzle 1 991 100 9000 5 170 11:43 02.02.2020
3409 Drizzle 1 992 100 6000 5 170 11:20 02.02.2020
3410 Drizzle 1 992 100 6000 5 170 10:58 02.02.2020
3411 Drizzle 1 992 100 6000 5 170 10:58 02.02.2020
3412 Snow 1 992 100 4600 4 180 10:40 02.02.2020
3413 Snow 1 992 100 4600 4 180 10:22 02.02.2020
3414 Clouds 1 993 98 10000 5 180 09:59 02.02.2020
3415 Drizzle 1 993 97 8000 5 180 09:40 02.02.2020
3416 Drizzle 1 993 97 8000 5 180 09:21 02.02.2020
3417 Clouds 1 993 98 6000 5 180 09:21 02.02.2020
3418 Rain 1 993 98 6000 5 180 08:49 02.02.2020
3419 Rain 1 994 97 9000 6 180 08:30 02.02.2020
3420 Mist 1 994 97 5000 6 190 07:49 02.02.2020
3421 Snow 1 995 97 5000 5 190 07:31 02.02.2020
3422 Snow 0 995 97 5000 5 180 06:57 02.02.2020
3423 Snow 0 995 97 3900 5 170 06:38 02.02.2020
3424 Snow 0 995 97 3900 5 170 06:18 02.02.2020
3425 Snow 0 997 97 4900 5 170 05:20 02.02.2020
3426 Snow -1 997 97 9000 4 170 04:21 02.02.2020
3427 Snow -1 998 92 9000 5 160 03:24 02.02.2020
3428 Snow -2 999 92 6000 4 170 02:22 02.02.2020
3429 Snow -2 999 92 6000 4 170 01:50 02.02.2020
3430 Clouds -2 1000 86 7000 5 160 00:56 02.02.2020
3431 Clouds -3 1000 86 8000 4 160 00:37 02.02.2020
3432 Clouds -3 1000 86 8000 4 160 00:18 02.02.2020
3433 Clouds -3 1001 92 10000 4 160 23:41 01.02.2020
3434 Clouds -3 1002 86 10000 4 170 23:21 01.02.2020
3435 Clouds -3 1002 86 10000 6 180 22:44 01.02.2020
3436 Clouds -3 1002 86 10000 6 180 22:19 01.02.2020
3437 Mist -3 1003 100 3000 2 140 21:42 01.02.2020
3438 Mist -3 1003 100 3000 2 140 21:19 01.02.2020
3439 Mist -4 1003 100 1900 3 180 20:56 01.02.2020
3440 Mist -4 1003 100 1600 4 220 20:38 01.02.2020
3441 Mist -4 1003 100 1600 4 220 20:19 01.02.2020
3442 Clouds -3 1003 86 10000 3 200 19:56 01.02.2020
3443 Clouds -3 1003 86 10000 4 180 19:37 01.02.2020
3444 Clouds -3 1003 86 10000 4 180 19:18 01.02.2020
3445 Clouds -3 1003 92 10000 3 180 18:55 01.02.2020
3446 Clouds -2 1003 92 10000 3 190 18:37 01.02.2020
3447 Clouds -2 1003 96 9000 4 180 18:19 01.02.2020
3448 Clouds -2 1003 96 9000 4 180 17:55 01.02.2020
3449 Clouds -2 1003 96 10000 4 210 17:37 01.02.2020
3450 Clouds -2 1003 97 10000 4 210 17:18 01.02.2020
3451 Clouds -2 1003 97 10000 4 240 16:41 01.02.2020
3452 Clouds -2 1003 97 10000 4 240 16:21 01.02.2020
3453 Clouds -1 1003 86 7000 3 220 15:47 01.02.2020
3454 Clouds -1 1003 97 8000 2 200 15:29 01.02.2020
3455 Clouds -1 1003 97 9000 2 210 15:00 01.02.2020
3456 Clouds -1 1003 86 9000 3 240 14:40 01.02.2020
3457 Clouds -1 1003 86 9000 3 240 14:20 01.02.2020
3458 Clouds 0 1003 95 9000 2 270 13:45 01.02.2020
3459 Clouds 0 1003 95 9000 2 270 13:24 01.02.2020
3460 Clouds 0 1003 94 9000 2 270 13:24 01.02.2020
3461 Clouds 0 1003 94 7000 2 170 12:56 01.02.2020
3462 Snow -1 1003 94 6000 2 210 12:38 01.02.2020
3463 Snow -1 1003 94 6000 2 210 12:20 01.02.2020
3464 Mist -1 1003 94 7000 2 260 11:39 01.02.2020
3465 Mist -1 1003 92 6000 2 190 11:20 01.02.2020
3466 Mist -1 1003 92 6000 2 190 10:58 01.02.2020
3467 Mist -1 1003 100 5000 2 170 10:39 01.02.2020
3468 Mist -1 1003 100 5000 3 240 10:21 01.02.2020
3469 Mist -1 1003 100 5000 3 240 09:58 01.02.2020
3470 Mist -1 1003 100 6000 2 180 09:39 01.02.2020
3471 Mist -1 1003 100 6000 2 180 09:20 01.02.2020
3472 Mist -1 1003 100 2700 3 200 08:48 01.02.2020
3473 Clouds -1 1003 100 7000 3 200 07:51 01.02.2020
3474 Clouds -1 1003 100 7000 3 200 07:28 01.02.2020
3475 Mist -1 1003 95 6000 3 220 06:58 01.02.2020
3476 Mist -1 1002 100 5000 3 220 06:38 01.02.2020
3477 Snow -1 1002 95 4200 3 220 05:52 01.02.2020
3478 Snow -1 1002 95 4200 3 220 05:52 01.02.2020
3479 Snow -1 1002 100 5000 2 200 04:21 01.02.2020
3480 Snow 0 1002 97 3400 2 200 03:23 01.02.2020
3481 Snow -1 1002 100 4100 2 170 02:48 01.02.2020
3482 Snow -1 1002 100 4100 2 170 02:30 01.02.2020
3483 Snow -1 1002 100 5000 2 190 01:55 01.02.2020
3484 Snow -1 1002 92 4400 2 200 01:37 01.02.2020
3485 Snow -1 1002 92 7000 2 210 00:38 01.02.2020
3486 Snow -1 1001 92 6000 2 210 00:19 01.02.2020
3487 Snow -1 1001 92 5000 2 220 23:38 31.01.2020
3488 Snow -1 1001 92 5000 2 190 23:18 31.01.2020
3489 Snow -1 1001 92 5000 2 190 22:54 31.01.2020
3490 Snow -1 1001 92 5000 2 220 22:36 31.01.2020
3491 Snow -1 1001 92 5000 2 220 22:18 31.01.2020
3492 Snow -1 1001 92 6000 3 210 21:39 31.01.2020
3493 Snow -1 1001 92 7000 3 220 21:20 31.01.2020
3494 Snow -1 1001 92 7000 3 220 20:57 31.01.2020
3495 Snow -1 1001 92 9000 3 250 20:39 31.01.2020
3496 Snow -1 1001 92 7000 3 250 20:20 31.01.2020
3497 Snow -1 1001 92 7000 3 250 19:56 31.01.2020
3498 Snow -1 1001 92 7000 4 260 19:38 31.01.2020
3499 Snow -1 1001 92 7000 4 260 19:19 31.01.2020
3500 Snow -1 1001 92 6000 4 260 18:46 31.01.2020
3501 Snow -1 1000 92 7000 4 260 18:27 31.01.2020
3502 Snow -1 1000 92 10000 5 250 17:59 31.01.2020
3503 Snow -1 1000 97 9000 4 230 17:40 31.01.2020
3504 Snow -1 1000 96 9000 4 230 17:21 31.01.2020
3505 Snow -1 1000 96 9000 4 250 16:56 31.01.2020
3506 Snow -1 1000 96 8000 4 220 16:37 31.01.2020
3507 Snow -1 1000 96 8000 4 220 16:18 31.01.2020
3508 Snow 0 999 96 7000 3 200 15:56 31.01.2020
3509 Snow 0 999 96 7000 3 200 15:56 31.01.2020
3510 Snow 0 999 96 6000 3 210 15:37 31.01.2020
3511 Snow 0 999 86 9000 3 210 15:19 31.01.2020
3512 Snow 0 999 96 9000 3 220 14:42 31.01.2020
3513 Snow 0 999 94 9000 3 220 14:20 31.01.2020
3514 Snow 1 999 86 9000 4 240 13:50 31.01.2020
3515 Snow 1 998 86 10000 3 240 13:32 31.01.2020
3516 Snow 1 998 86 10000 2 220 12:56 31.01.2020
3517 Snow 1 998 86 10000 2 220 12:56 31.01.2020
3518 Snow 1 998 86 10000 2 220 12:38 31.01.2020
3519 Snow 1 998 86 10000 2 220 12:38 31.01.2020
3520 Snow 1 998 86 10000 2 220 12:20 31.01.2020
3521 Snow 1 998 92 10000 2 250 11:41 31.01.2020
3522 Snow 1 998 88 10000 2 250 11:23 31.01.2020
3523 Clouds 1 998 88 10000 2 270 10:58 31.01.2020
3524 Clouds 0 998 88 10000 2 250 10:38 31.01.2020
3525 Snow 0 998 88 10000 1 0 10:20 31.01.2020
3526 Snow 0 998 88 10000 1 0 09:55 31.01.2020
3527 Snow 0 998 88 10000 1 0 09:37 31.01.2020
3528 Snow 0 998 88 10000 1 0 09:18 31.01.2020
3529 Snow 0 997 89 10000 1 20 08:49 31.01.2020
3530 Snow 0 997 89 10000 1 20 08:24 31.01.2020
3531 Snow 0 997 97 10000 1 0 07:52 31.01.2020
3532 Snow 0 997 97 10000 2 70 07:24 31.01.2020
3533 Snow 0 997 97 10000 2 70 07:24 31.01.2020
3534 Snow 0 997 97 9000 1 350 06:42 31.01.2020
3535 Snow 0 997 97 9000 2 70 05:58 31.01.2020
3536 Snow 0 997 97 10000 2 70 05:40 31.01.2020
3537 Snow 0 997 97 10000 2 50 04:47 31.01.2020
3538 Snow 0 997 97 9000 4 80 02:58 31.01.2020
3539 Snow 0 997 97 9000 3 70 01:33 31.01.2020
3540 Clouds 0 997 97 7000 3 60 00:44 31.01.2020
3541 Clouds 0 997 97 7000 3 60 00:25 31.01.2020
3542 Clouds 0 997 97 6000 3 60 23:53 30.01.2020
3543 Clouds 0 997 97 7000 3 70 23:24 30.01.2020
3544 Snow 0 997 96 7000 4 70 22:56 30.01.2020
3545 Snow 0 997 96 7000 5 80 22:36 30.01.2020
3546 Snow 0 997 100 7000 5 80 22:18 30.01.2020
3547 Snow 0 997 100 6000 5 80 21:43 30.01.2020
3548 Snow 0 997 100 6000 5 80 21:20 30.01.2020
3549 Snow 0 997 100 6000 5 80 20:59 30.01.2020
3550 Clouds 0 997 100 6000 5 70 20:40 30.01.2020
3551 Clouds 0 997 100 6000 5 70 20:21 30.01.2020
3552 Clouds 0 997 100 7000 4 80 20:21 30.01.2020
3553 Clouds 0 997 100 7000 4 80 19:56 30.01.2020
3554 Clouds 0 997 100 9000 5 80 19:38 30.01.2020
3555 Clouds 0 997 100 9000 5 80 19:18 30.01.2020
3556 Clouds 0 997 92 9000 5 80 18:41 30.01.2020
3557 Clouds 0 997 92 9000 5 80 18:21 30.01.2020
3558 Clouds 0 997 92 9000 5 80 18:21 30.01.2020
3559 Snow -1 997 100 4000 4 80 17:56 30.01.2020
3560 Snow -1 997 100 2200 5 70 17:37 30.01.2020
3561 Snow -1 997 100 2200 5 70 17:18 30.01.2020
3562 Snow -1 997 100 1700 5 70 16:56 30.01.2020
3563 Snow -1 997 92 1200 4 70 16:37 30.01.2020
3564 Snow -1 997 92 1200 4 70 16:19 30.01.2020
3565 Snow -1 997 92 2200 5 70 15:43 30.01.2020
3566 Snow -1 997 92 2200 5 70 15:19 30.01.2020
3567 Snow -1 997 92 2100 6 70 14:50 30.01.2020
3568 Snow -1 997 92 2100 6 70 14:50 30.01.2020
3569 Snow -1 998 92 4600 7 70 14:27 30.01.2020
3570 Snow -1 998 92 4600 7 70 14:27 30.01.2020
3571 Snow -1 997 92 10000 6 60 13:56 30.01.2020
3572 Snow -1 998 92 10000 6 60 13:36 30.01.2020
3573 Snow -1 998 92 10000 6 60 13:18 30.01.2020
3574 Snow -1 998 100 10000 6 80 12:42 30.01.2020
3575 Snow 0 998 100 10000 6 80 12:24 30.01.2020
3576 Snow 0 999 100 10000 6 70 11:57 30.01.2020
3577 Snow 0 999 100 7000 6 70 11:39 30.01.2020
3578 Snow 0 999 100 7000 6 70 11:21 30.01.2020
3579 Snow 0 1000 100 6000 7 80 10:42 30.01.2020
3580 Snow 0 1000 100 6000 7 80 10:24 30.01.2020
3581 Snow 0 1000 100 3800 6 80 09:49 30.01.2020
3582 Snow 0 1001 100 3400 6 80 09:30 30.01.2020
3583 Snow 0 1001 100 5000 6 80 08:59 30.01.2020
3584 Snow 0 1001 100 5000 7 80 08:41 30.01.2020
3585 Snow 0 1001 100 5000 7 80 08:20 30.01.2020
3586 Snow 0 1001 100 4200 6 80 07:49 30.01.2020
3587 Snow 0 1002 100 5000 6 80 07:29 30.01.2020
3588 Snow 0 1002 100 3300 7 80 06:47 30.01.2020
3589 Snow 0 1002 100 3300 7 80 06:29 30.01.2020
3590 Snow 0 1002 100 4200 6 80 05:47 30.01.2020
3591 Snow 0 1002 100 4700 6 80 05:24 30.01.2020
3592 Snow 0 1003 96 4500 6 90 03:55 30.01.2020
3593 Snow 0 1003 96 4600 6 90 03:37 30.01.2020
3594 Snow 0 1003 96 3200 5 90 02:47 30.01.2020
3595 Rain 0 1004 96 3100 6 80 00:53 30.01.2020
3596 Snow 0 1005 96 3200 6 80 00:21 30.01.2020
3597 Rain 0 1005 96 2600 5 90 23:47 29.01.2020
3598 Mist 0 1005 97 2600 5 90 23:22 29.01.2020
3599 Mist 0 1005 97 2800 6 100 22:58 29.01.2020
3600 Mist 0 1005 97 2900 6 90 22:39 29.01.2020
3601 Mist 0 1005 97 2700 5 100 22:19 29.01.2020
3602 Mist 0 1005 97 2700 5 100 21:58 29.01.2020
3603 Mist 0 1006 97 2600 6 100 21:39 29.01.2020
3604 Mist 0 1006 97 2600 6 100 21:39 29.01.2020
3605 Mist 0 1006 97 2600 6 100 21:39 29.01.2020
3606 Mist 0 1006 97 2600 6 100 21:19 29.01.2020
3607 Rain 0 1006 97 2600 5 100 20:58 29.01.2020
3608 Mist 0 1006 97 2500 6 90 20:39 29.01.2020
3609 Mist 0 1006 96 2500 6 90 20:21 29.01.2020
3610 Mist 0 1006 96 2600 5 90 19:56 29.01.2020
3611 Mist 0 1006 96 4000 4 110 19:37 29.01.2020
3612 Mist 0 1006 96 4000 4 110 19:19 29.01.2020
3613 Mist 0 1006 96 3000 4 120 18:54 29.01.2020
3614 Mist 0 1006 96 4100 3 120 18:36 29.01.2020
3615 Mist 0 1006 96 4100 3 120 18:18 29.01.2020
3616 Mist 0 1007 96 3700 4 140 17:39 29.01.2020
3617 Mist 0 1007 96 3700 4 140 17:39 29.01.2020
3618 Mist 0 1007 97 3700 4 140 17:21 29.01.2020
3619 Rain 1 1006 97 4800 5 140 16:42 29.01.2020
3620 Rain 1 1006 97 4800 5 140 16:23 29.01.2020
3621 Rain 1 1007 97 4000 4 130 15:56 29.01.2020
3622 Rain 1 1007 97 4000 4 130 15:56 29.01.2020
3623 Rain 1 1007 97 3900 4 140 15:37 29.01.2020
3624 Mist 1 1007 97 3400 3 170 15:19 29.01.2020
3625 Rain 1 1007 97 3400 3 170 14:44 29.01.2020
3626 Rain 1 1007 96 3300 3 150 14:21 29.01.2020
3627 Rain 1 1007 96 3000 4 130 13:56 29.01.2020
3628 Rain 1 1007 96 2700 4 120 13:38 29.01.2020
3629 Rain 1 1007 96 2700 4 120 13:19 29.01.2020
3630 Mist 1 1007 100 2600 4 140 12:56 29.01.2020
3631 Mist 1 1007 100 2600 4 170 12:37 29.01.2020
3632 Mist 1 1007 100 2600 4 170 12:18 29.01.2020
3633 Mist 1 1007 100 3300 3 160 11:45 29.01.2020
3634 Rain 1 1007 100 3300 3 160 11:21 29.01.2020
3635 Rain 1 993 82 0 0.45 0 10:47 29.01.2020
3636 Rain 1 1007 100 4200 3 150 10:26 29.01.2020
3637 Rain 1 1007 100 4200 3 150 09:58 29.01.2020
3638 Rain 1 1007 100 4200 3 150 09:40 29.01.2020
3639 Rain 1 1007 100 4200 3 150 09:20 29.01.2020
3640 Rain 1 1007 100 4200 3 150 09:20 29.01.2020
3641 Rain 0 1007 100 4100 3 140 08:56 29.01.2020
3642 Mist 0 1007 95 4200 3 130 08:38 29.01.2020
3643 Mist 0 1007 95 4200 3 130 08:38 29.01.2020
3644 Mist 0 1007 97 4200 3 150 08:18 29.01.2020
3645 Mist 0 1007 97 4300 2 170 07:43 29.01.2020
3646 Mist 0 1007 97 4300 2 170 07:23 29.01.2020
3647 Snow 0 1007 100 2200 2 160 06:38 29.01.2020
3648 Snow 0 1007 100 2200 2 160 06:20 29.01.2020
3649 Snow 0 1007 100 2100 3 130 05:54 29.01.2020
3650 Snow 0 1007 100 1700 2 140 05:35 29.01.2020
3651 Snow 0 1007 100 2100 2 140 04:39 29.01.2020
3652 Snow 0 1007 100 2300 2 130 04:18 29.01.2020
3653 Snow -1 1008 100 1100 2 110 02:40 29.01.2020
3654 Snow -1 1008 100 800 3 100 01:44 29.01.2020
3655 Drizzle -1 1008 100 1200 2 140 00:41 29.01.2020
3656 Drizzle -1 1008 100 1200 2 140 00:23 29.01.2020
3657 Snow -2 1008 100 2500 3 90 23:41 28.01.2020
3658 Snow -2 1008 100 2500 3 90 23:21 28.01.2020
3659 Snow -2 1008 100 2700 3 90 22:57 28.01.2020
3660 Snow -2 1008 100 2700 3 80 22:39 28.01.2020
3661 Snow -2 1008 100 2700 3 80 22:20 28.01.2020
3662 Snow -2 1009 92 3000 3 90 21:42 28.01.2020
3663 Snow -2 1009 92 3000 3 90 21:20 28.01.2020
3664 Snow -3 1009 92 2900 4 90 20:57 28.01.2020
3665 Snow -3 1009 92 3400 4 80 20:39 28.01.2020
3666 Snow -3 1009 92 3400 4 80 20:21 28.01.2020
3667 Snow -3 1009 100 7000 2 130 19:39 28.01.2020
3668 Snow -3 1009 100 7000 2 130 19:20 28.01.2020
3669 Snow -3 1009 86 8000 3 130 18:58 28.01.2020
3670 Snow -3 1009 100 10000 2 130 18:39 28.01.2020
3671 Snow -3 1009 100 10000 2 130 18:21 28.01.2020
3672 Snow -3 1009 100 10000 2 130 17:57 28.01.2020
3673 Snow -3 1009 92 4900 3 130 17:37 28.01.2020
3674 Snow -3 1009 92 4900 3 130 17:19 28.01.2020
3675 Snow -3 1009 92 4900 3 130 17:19 28.01.2020
3676 Snow -3 1009 92 4100 4 110 16:46 28.01.2020
3677 Snow -3 1009 92 4100 4 110 16:27 28.01.2020
3678 Snow -3 1009 92 4100 4 110 16:27 28.01.2020
3679 Snow -3 1010 92 4800 4 120 15:59 28.01.2020
3680 Snow -4 1010 92 3800 4 120 15:41 28.01.2020
3681 Snow -4 1010 92 2600 4 120 15:18 28.01.2020
3682 Snow -4 1010 92 2600 4 120 14:45 28.01.2020
3683 Snow -4 1010 92 3400 4 120 14:20 28.01.2020
3684 Snow -4 1010 85 4200 4 120 13:57 28.01.2020
3685 Snow -4 1010 85 4700 4 120 13:38 28.01.2020
3686 Snow -4 1010 85 4700 4 120 13:19 28.01.2020
3687 Snow -4 1010 92 3800 5 130 12:41 28.01.2020
3688 Snow -4 1010 92 3800 5 130 12:22 28.01.2020
3689 Snow -4 1011 92 4000 5 120 11:48 28.01.2020
3690 Snow -4 1011 92 4800 5 120 11:23 28.01.2020
3691 Snow -5 1011 92 10000 6 130 10:58 28.01.2020
3692 Snow -5 1011 85 7000 5 120 10:39 28.01.2020
3693 Snow -5 1011 85 7000 5 120 10:20 28.01.2020
3694 Snow -5 1012 92 3000 4 130 09:43 28.01.2020
3695 Snow -5 1012 92 3800 5 120 09:21 28.01.2020
3696 Snow -6 1012 92 4400 5 130 08:57 28.01.2020
3697 Snow -6 1012 92 3400 6 120 08:39 28.01.2020
3698 Snow -6 1012 92 3400 6 120 08:18 28.01.2020
3699 Snow -6 1012 85 4000 5 120 07:37 28.01.2020
3700 Snow -6 1012 85 4000 5 120 07:37 28.01.2020
3701 Snow -6 1012 92 4100 6 120 06:50 28.01.2020
3702 Snow -6 1012 92 4100 6 120 06:26 28.01.2020
3703 Snow -6 1012 85 5000 5 120 05:54 28.01.2020
3704 Snow -6 1012 92 3000 4 130 05:26 28.01.2020
3705 Snow -6 1013 92 4300 5 110 04:28 28.01.2020
3706 Snow -6 1013 92 2100 6 120 02:58 28.01.2020
3707 Snow -6 1013 85 2200 6 120 02:25 28.01.2020
3708 Snow -6 1014 92 2000 5 120 01:57 28.01.2020
3709 Snow -6 1014 92 2000 5 120 01:57 28.01.2020
3710 Snow -6 1014 92 3000 5 120 01:26 28.01.2020
3711 Snow -5 1014 85 2200 5 120 00:51 28.01.2020
3712 Snow -5 1015 85 2200 5 120 00:29 28.01.2020
3713 Snow -5 1015 67 4500 5 130 23:51 27.01.2020
3714 Snow -5 1015 67 10000 5 110 23:30 27.01.2020
3715 Clouds -5 1015 62 10000 5 100 22:56 27.01.2020
3716 Snow -4 1015 68 6000 5 120 22:38 27.01.2020
3717 Snow -4 1015 68 6000 5 120 22:18 27.01.2020
3718 Snow -4 1015 67 10000 5 110 21:54 27.01.2020
3719 Clouds -4 1015 62 10000 6 100 21:36 27.01.2020
3720 Clouds -3 1015 62 10000 6 100 21:18 27.01.2020
3721 Clouds -3 1015 62 10000 5 100 20:43 27.01.2020
3722 Clouds -3 1015 62 10000 5 100 20:22 27.01.2020
3723 Clouds -3 1015 62 10000 5 100 19:59 27.01.2020
3724 Clouds -3 1015 62 10000 7 90 19:41 27.01.2020
3725 Clouds -3 1015 62 10000 7 90 19:22 27.01.2020
3726 Clouds -3 1015 62 10000 6 90 18:56 27.01.2020
3727 Clouds -3 1015 62 10000 6 80 18:38 27.01.2020
3728 Clouds -3 1015 68 10000 5 80 18:19 27.01.2020
3729 Clouds -2 1015 63 10000 4 80 17:39 27.01.2020
3730 Clouds -2 1015 63 10000 4 80 17:21 27.01.2020
3731 Clouds -2 1015 63 10000 4 80 16:59 27.01.2020
3732 Clouds -2 1014 63 10000 5 70 16:41 27.01.2020
3733 Clouds -2 1014 63 10000 5 70 16:23 27.01.2020
3734 Clouds -2 1014 68 10000 3 60 15:55 27.01.2020
3735 Clouds -2 1014 68 10000 3 60 15:37 27.01.2020
3736 Clouds -2 1014 68 10000 3 50 15:18 27.01.2020
3737 Clouds -1 1014 68 10000 4 30 14:42 27.01.2020
3738 Clouds -1 1014 74 10000 3 80 14:22 27.01.2020
3739 Clouds -1 1014 68 10000 3 40 13:58 27.01.2020
3740 Clouds -1 1013 63 10000 3 20 13:39 27.01.2020
3741 Clouds -1 1013 63 10000 3 20 13:19 27.01.2020
3742 Clouds -1 1013 63 10000 3 10 12:54 27.01.2020
3743 Clouds 0 1013 58 10000 3 10 12:36 27.01.2020
3744 Clouds 0 1013 58 10000 3 10 12:18 27.01.2020
3745 Clouds 0 1013 63 10000 4 10 11:41 27.01.2020
3746 Clouds 0 1013 63 10000 4 10 11:20 27.01.2020
3747 Clouds 0 1012 68 10000 5 350 10:43 27.01.2020
3748 Clouds 0 1012 68 10000 5 350 10:24 27.01.2020
3749 Clouds 0 1012 68 10000 4 330 09:56 27.01.2020
3750 Clouds 0 1011 80 10000 4 30 09:38 27.01.2020
3751 Clouds 0 1012 74 10000 5 330 09:18 27.01.2020
3752 Clouds 0 1011 80 10000 5 350 08:42 27.01.2020
3753 Clouds 0 1011 80 10000 5 350 08:20 27.01.2020
3754 Clouds 0 1011 80 10000 5 10 07:54 27.01.2020
3755 Clouds 0 1011 80 10000 5 10 07:54 27.01.2020
3756 Clouds 0 1010 86 10000 6 360 07:33 27.01.2020
3757 Clouds 0 1009 92 10000 5 360 06:52 27.01.2020
3758 Snow 1 1009 89 5000 4 330 06:24 27.01.2020
3759 Clouds 2 1008 87 10000 5 340 05:22 27.01.2020
3760 Clouds 2 1006 93 10000 5 300 03:47 27.01.2020
3761 Rain 3 1005 93 9000 4 300 02:36 27.01.2020
3762 Rain 2 1004 93 10000 7 280 01:29 27.01.2020
3763 Rain 2 1004 93 10000 8 280 00:44 27.01.2020
3764 Clouds 2 1004 93 10000 8 280 00:26 27.01.2020
3765 Clouds 2 1004 93 10000 8 280 00:00 27.01.2020
3766 Clouds 2 1004 93 10000 8 280 23:59 26.01.2020
3767 Clouds 2 1003 93 10000 8 280 23:41 26.01.2020
3768 Clouds 2 1003 93 10000 8 280 23:41 26.01.2020
3769 Clouds 2 1003 93 10000 8 280 23:41 26.01.2020
3770 Clouds 2 1003 93 10000 8 270 23:19 26.01.2020
3771 Clouds 2 1003 93 10000 8 270 22:54 26.01.2020
3772 Clouds 1 1003 100 9000 8 270 22:36 26.01.2020
3773 Clouds 1 1003 100 9000 8 270 22:18 26.01.2020
3774 Snow 1 1003 100 7000 8 270 21:55 26.01.2020
3775 Snow 1 1003 94 2900 8 260 21:37 26.01.2020
3776 Snow 1 1003 94 2900 8 260 21:18 26.01.2020
3777 Snow 1 1003 94 6000 9 260 20:55 26.01.2020
3778 Snow 1 1003 94 2600 9 260 20:36 26.01.2020
3779 Snow 0 1003 92 2200 9 250 20:18 26.01.2020
3780 Snow 0 1003 92 2200 9 250 19:56 26.01.2020
3781 Snow 0 1004 92 2900 9 240 19:36 26.01.2020
3782 Snow 0 1004 92 2900 9 240 19:18 26.01.2020
3783 Snow -1 1004 92 7000 9 240 18:41 26.01.2020
3784 Snow -1 1004 92 7000 9 240 18:22 26.01.2020
3785 Snow -1 1005 92 8000 8 230 17:58 26.01.2020
3786 Snow -1 1005 92 3900 7 220 17:39 26.01.2020
3787 Snow -1 1005 92 3900 7 220 17:19 26.01.2020
3788 Snow -1 1006 92 2100 7 230 16:58 26.01.2020
3789 Snow -1 1007 86 4200 7 230 16:39 26.01.2020
3790 Snow -1 1007 86 4200 7 230 16:39 26.01.2020
3791 Snow 0 1007 86 4200 7 230 16:20 26.01.2020
3792 Snow -1 988 72 0 1.79 157 15:57 26.01.2020
3793 Snow 0 988 71 0 1.34 157 15:39 26.01.2020
3794 Snow 0 987 37 0 6.49 241 15:18 26.01.2020
3795 Snow 0 989 72 0 0.45 157 14:40 26.01.2020
3796 Clouds 0 988 37 0 5.13 251 14:20 26.01.2020
3797 Clouds 0 988 35 0 5.13 251 13:55 26.01.2020
3798 Clouds -1 990 70 0 0.89 157 13:37 26.01.2020
3799 Clouds 0 990 69 0 5.15 248 13:18 26.01.2020
3800 Clouds -1 990 69 0 0.89 157 12:41 26.01.2020
3801 Clouds -1 990 69 0 5.15 248 12:23 26.01.2020
3802 Clouds -1 991 68 0 2.24 157 11:57 26.01.2020
3803 Clouds 0 989 27 0 5.15 248 11:39 26.01.2020
3804 Clouds -1 1010 74 10000 6 290 11:19 26.01.2020
3805 Clouds -1 1010 74 10000 6 290 10:58 26.01.2020
3806 Clouds -1 1010 74 10000 6 290 10:38 26.01.2020
3807 Clouds -1 1010 74 10000 6 290 10:20 26.01.2020
3808 Clouds -1 1010 74 10000 7 290 09:58 26.01.2020
3809 Clouds -1 1009 74 10000 6 290 09:39 26.01.2020
3810 Clouds -1 1009 74 10000 6 290 09:39 26.01.2020
3811 Clouds -1 1009 74 10000 6 290 09:21 26.01.2020
3812 Clouds -1 1009 74 10000 5 290 08:43 26.01.2020
3813 Clouds -1 1009 74 10000 5 290 08:23 26.01.2020
3814 Clouds -1 1008 74 10000 7 300 07:58 26.01.2020
3815 Clouds -1 1008 79 10000 6 300 07:39 26.01.2020
3816 Clouds -1 1008 79 10000 6 300 07:21 26.01.2020
3817 Clouds -1 1007 79 10000 5 300 06:31 26.01.2020
3818 Clouds -1 1006 74 10000 7 310 05:32 26.01.2020
3819 Clouds -1 1006 74 10000 6 290 04:45 26.01.2020
3820 Clouds -1 1004 86 10000 6 290 02:58 26.01.2020
3821 Clouds -1 1003 86 10000 6 300 01:57 26.01.2020
3822 Clouds -1 1003 86 10000 6 300 01:37 26.01.2020
3823 Snow -1 1003 86 10000 6 300 01:18 26.01.2020
3824 Clouds -1 1002 80 10000 6 310 00:38 26.01.2020
3825 Clouds -1 1002 80 10000 6 310 00:20 26.01.2020
3826 Snow 0 987 62 0 0.89 180 23:37 25.01.2020
3827 Snow 0 987 63 0 1.79 308 23:18 25.01.2020
3828 Snow 0 986 63 0 3.13 182 23:18 25.01.2020
3829 Snow 0 986 64 0 1.79 237 22:41 25.01.2020
3830 Snow 0 980 36 0 7.23 307 22:20 25.01.2020
3831 Snow 0 985 58 0 1.79 194 21:57 25.01.2020
3832 Snow 0 985 58 0 2.24 183 21:39 25.01.2020
3833 Snow 0 984 58 0 2.68 187 21:21 25.01.2020
3834 Snow 0 984 59 0 3.13 188 20:45 25.01.2020
3835 Snow -2 1001 87 0 7.41 308 20:26 25.01.2020
3836 Clouds -2 998 79 0 6.8 301 19:57 25.01.2020
3837 Clouds 0 983 57 0 3.58 164 19:38 25.01.2020
3838 Clouds 0 983 57 0 2.68 195 19:19 25.01.2020
3839 Clouds 0 983 57 0 3.58 164 18:56 25.01.2020
3840 Clouds 0 983 57 0 2.68 171 18:37 25.01.2020
3841 Clouds 0 983 57 0 3.58 164 18:19 25.01.2020
3842 Clouds 0 982 58 0 4.02 177 17:39 25.01.2020
3843 Snow 1 982 58 0 3.58 180 17:19 25.01.2020
3844 Snow 0 981 59 0 1.79 181 16:56 25.01.2020
3845 Snow 0 981 61 0 2.68 211 16:38 25.01.2020
3846 Snow 0 981 62 0 2.68 180 16:19 25.01.2020
3847 Snow 1 980 63 0 2.24 179 15:46 25.01.2020
3848 Snow 1 980 63 0 3.58 180 15:25 25.01.2020
3849 Snow 1 980 64 0 1.79 180 14:57 25.01.2020
3850 Rain 1 980 66 0 1.79 349 14:39 25.01.2020
3851 Rain 3 979 73 0 6.26 180 14:18 25.01.2020
3852 Snow 3 979 72 0 4.02 180 13:41 25.01.2020
3853 Snow 3 979 72 0 4.92 183 13:22 25.01.2020
3854 Clouds 2 994 100 9000 7 250 12:43 25.01.2020
3855 Clouds 2 994 100 9000 7 250 12:23 25.01.2020
3856 Clouds 2 994 85 10000 6 250 11:45 25.01.2020
3857 Clouds 2 994 86 10000 6 250 11:22 25.01.2020
3858 Snow 2 995 86 10000 6 250 10:58 25.01.2020
3859 Snow 2 995 86 9000 6 250 10:40 25.01.2020
3860 Snow 2 995 86 9000 6 250 10:20 25.01.2020
3861 Clouds 2 996 86 10000 6 250 09:41 25.01.2020
3862 Clouds 2 996 86 10000 6 250 09:22 25.01.2020
3863 Clouds 2 996 86 10000 7 260 08:44 25.01.2020
3864 Clouds 2 996 86 10000 7 260 08:22 25.01.2020
3865 Clouds 2 996 85 10000 6 270 07:49 25.01.2020
3866 Clouds 1 996 85 9000 5 270 06:51 25.01.2020
3867 Snow 1 996 85 6000 5 290 06:28 25.01.2020
3868 Snow 2 996 85 9000 6 290 05:47 25.01.2020
3869 Rain 2 996 93 8000 7 280 04:50 25.01.2020
3870 Rain 3 995 93 10000 6 290 03:51 25.01.2020
3871 Rain 3 996 93 9000 6 290 03:19 25.01.2020
3872 Rain 3 995 100 10000 6 280 02:20 25.01.2020
3873 Rain 3 995 93 10000 6 250 01:48 25.01.2020
3874 Snow 2 996 97 5000 4 250 00:44 25.01.2020
3875 Snow 2 996 97 5000 4 250 00:26 25.01.2020
3876 Rain 2 996 100 10000 4 250 23:58 24.01.2020
3877 Rain 2 996 100 8000 5 260 23:40 24.01.2020
3878 Rain 2 996 100 8000 5 260 23:22 24.01.2020
3879 Rain 2 997 100 9000 5 250 22:44 24.01.2020
3880 Rain 2 997 100 9000 5 250 22:25 24.01.2020
3881 Rain 2 997 100 9000 4 250 21:56 24.01.2020
3882 Rain 2 997 100 4900 5 260 21:37 24.01.2020
3883 Rain 2 997 96 6000 4 260 21:18 24.01.2020
3884 Rain 1 997 97 3900 5 250 20:42 24.01.2020
3885 Rain 1 997 97 3900 5 250 20:21 24.01.2020
3886 Snow 1 997 97 5000 5 260 19:57 24.01.2020
3887 Clouds 1 997 100 4000 5 260 19:39 24.01.2020
3888 Clouds 1 997 100 4000 5 260 19:21 24.01.2020
3889 Snow 1 998 97 3900 7 250 18:43 24.01.2020
3890 Snow 1 998 97 3900 7 250 18:43 24.01.2020
3891 Snow 1 998 97 3900 7 250 18:24 24.01.2020
3892 Snow 1 998 97 5000 5 250 17:56 24.01.2020
3893 Clouds 1 998 97 4900 6 260 17:38 24.01.2020
3894 Clouds 1 998 97 3600 6 250 17:18 24.01.2020
3895 Snow 1 998 97 7000 6 250 16:39 24.01.2020
3896 Snow 1 998 97 7000 6 250 16:39 24.01.2020
3897 Snow 1 998 97 7000 6 250 16:21 24.01.2020
3898 Snow 1 998 97 7000 6 250 16:21 24.01.2020
3899 Snow 1 998 97 3300 6 250 15:55 24.01.2020
3900 Snow 1 999 97 5000 7 250 15:37 24.01.2020
3901 Snow 0 999 97 3700 7 250 15:18 24.01.2020
3902 Clouds 0 999 97 9000 7 250 14:41 24.01.2020
3903 Clouds 0 999 96 9000 7 250 14:22 24.01.2020
3904 Clouds 0 999 96 10000 8 250 13:44 24.01.2020
3905 Clouds 0 999 96 10000 8 250 13:24 24.01.2020
3906 Clouds 0 1000 96 10000 9 250 12:45 24.01.2020
3907 Clouds -1 1000 96 10000 8 240 12:23 24.01.2020
3908 Snow -1 1000 92 9000 7 240 11:59 24.01.2020
3909 Snow -1 1001 92 10000 7 250 11:40 24.01.2020
3910 Snow -1 1001 92 10000 7 250 11:18 24.01.2020
3911 Snow -3 1001 100 4600 6 220 10:43 24.01.2020
3912 Snow -3 1001 100 4600 6 220 10:21 24.01.2020
3913 Snow -3 1002 100 1600 6 220 09:56 24.01.2020
3914 Snow -3 1003 92 2300 6 220 09:37 24.01.2020
3915 Snow -3 1003 92 2300 6 220 09:18 24.01.2020
3916 Snow -3 1004 86 7000 7 230 08:40 24.01.2020
3917 Snow -3 1004 86 7000 7 230 08:19 24.01.2020
3918 Clouds -4 1004 85 10000 6 230 07:49 24.01.2020
3919 Snow -4 1004 85 9000 6 230 07:28 24.01.2020
3920 Snow -5 1005 85 3700 5 220 06:46 24.01.2020
3921 Snow -5 1005 85 3700 5 220 06:28 24.01.2020
3922 Snow -5 1006 85 10000 4 220 05:57 24.01.2020
3923 Clouds -5 1007 85 10000 4 220 04:52 24.01.2020
3924 Clouds -5 1009 85 10000 4 240 02:53 24.01.2020
3925 Clouds -5 1009 85 10000 5 240 02:23 24.01.2020
3926 Clouds -5 1009 85 10000 3 220 01:42 24.01.2020
3927 Clouds -5 1010 85 10000 4 240 01:24 24.01.2020
3928 Clouds -5 1010 79 10000 3 270 00:20 24.01.2020
3929 Clouds -5 1010 79 10000 5 270 23:48 23.01.2020
3930 Clouds -5 1010 73 10000 5 280 23:30 23.01.2020
3931 Clouds -6 1010 73 10000 3 270 22:59 23.01.2020
3932 Clouds -5 1010 73 10000 4 280 22:37 23.01.2020
3933 Clouds -5 1010 73 10000 4 280 22:19 23.01.2020
3934 Clouds -6 1010 73 10000 4 270 21:57 23.01.2020
3935 Clouds -6 1010 73 10000 3 280 21:38 23.01.2020
3936 Clouds -6 1010 73 10000 3 280 21:20 23.01.2020
3937 Clouds -6 1010 73 10000 4 280 20:58 23.01.2020
3938 Clouds -6 1010 79 10000 5 280 20:38 23.01.2020
3939 Clouds -6 1010 79 10000 5 280 20:19 23.01.2020
3940 Clouds -6 1010 73 10000 4 280 19:54 23.01.2020
3941 Clouds -6 1010 73 10000 4 290 19:36 23.01.2020
3942 Clouds -6 1010 73 10000 5 300 19:18 23.01.2020
3943 Clouds -6 1010 67 10000 5 300 18:42 23.01.2020
3944 Clouds -6 1010 67 10000 5 300 18:20 23.01.2020
3945 Clouds -6 1010 62 10000 6 300 17:58 23.01.2020
3946 Clouds -6 1009 57 10000 7 310 17:40 23.01.2020
3947 Clouds -6 1009 57 10000 7 310 17:20 23.01.2020
3948 Clouds -5 1009 62 10000 6 310 16:56 23.01.2020
3949 Clouds -5 1009 62 10000 6 310 16:36 23.01.2020
3950 Clouds -5 1009 62 10000 6 310 16:18 23.01.2020
3951 Clouds -5 1008 62 10000 7 310 15:54 23.01.2020
3952 Snow -5 1008 67 10000 6 310 15:36 23.01.2020
3953 Snow -5 1008 67 10000 6 310 15:18 23.01.2020
3954 Clouds -5 1007 67 10000 6 310 15:18 23.01.2020
3955 Clouds -5 1007 67 10000 6 310 14:54 23.01.2020
3956 Snow -5 1007 62 10000 7 320 14:36 23.01.2020
3957 Snow -4 1007 57 10000 7 320 14:18 23.01.2020
3958 Snow -4 1006 53 10000 7 320 13:39 23.01.2020
3959 Snow -4 1006 53 10000 7 320 13:20 23.01.2020
3960 Clouds -4 1006 57 10000 6 310 12:47 23.01.2020
3961 Snow -4 1006 53 10000 7 340 12:25 23.01.2020
3962 Clouds -4 1005 53 10000 6 310 11:59 23.01.2020
3963 Clouds -4 1005 62 10000 6 310 11:39 23.01.2020
3964 Snow -4 1005 73 9000 8 310 11:19 23.01.2020
3965 Snow -4 1005 73 9000 8 310 10:45 23.01.2020
3966 Snow -4 1005 73 10000 8 300 10:23 23.01.2020
3967 Snow -4 1005 73 8000 4 300 09:59 23.01.2020
3968 Snow -4 1005 73 10000 6 340 09:38 23.01.2020
3969 Snow -4 1005 73 10000 6 340 09:20 23.01.2020
3970 Snow -4 1004 67 10000 6 320 08:42 23.01.2020
3971 Snow -4 1004 62 10000 6 320 08:24 23.01.2020
3972 Snow -4 1004 62 10000 6 320 08:24 23.01.2020
3973 Snow -4 1003 62 10000 6 320 07:48 23.01.2020
3974 Snow -4 1003 62 10000 6 320 07:27 23.01.2020
3975 Snow -4 1002 79 8000 6 330 06:54 23.01.2020
3976 Snow -4 1002 79 7000 8 320 06:23 23.01.2020
3977 Snow -3 1001 79 10000 6 320 05:58 23.01.2020
3978 Snow -3 1001 79 10000 6 320 05:58 23.01.2020
3979 Snow -3 1000 92 10000 7 320 04:24 23.01.2020
3980 Snow -2 998 100 1600 5 320 02:35 23.01.2020
3981 Snow -2 998 100 8000 4 300 01:44 23.01.2020
3982 Clouds -2 998 79 10000 5 300 00:28 23.01.2020
3983 Clouds -1 997 86 10000 5 300 23:54 22.01.2020
3984 Clouds -1 997 86 10000 5 300 23:36 22.01.2020
3985 Clouds -1 997 86 10000 5 300 23:18 22.01.2020
3986 Snow -1 997 86 10000 6 300 22:41 22.01.2020
3987 Snow -1 997 86 10000 6 300 22:23 22.01.2020
3988 Snow -1 997 74 10000 8 310 21:42 22.01.2020
3989 Clouds -1 996 86 10000 6 300 21:22 22.01.2020
3990 Clouds -1 996 80 10000 6 300 20:59 22.01.2020
3991 Clouds -1 996 86 10000 6 300 20:41 22.01.2020
3992 Clouds -1 996 86 10000 6 300 20:23 22.01.2020
3993 Snow -1 996 92 10000 5 310 19:57 22.01.2020
3994 Clouds -1 995 92 10000 5 310 19:39 22.01.2020
3995 Clouds -1 995 92 10000 6 310 19:19 22.01.2020
3996 Clouds -1 995 92 10000 6 310 18:57 22.01.2020
3997 Snow -1 995 100 10000 6 320 18:38 22.01.2020
3998 Snow -1 995 100 10000 6 320 18:20 22.01.2020
3999 Snow 0 994 86 10000 6 320 17:55 22.01.2020
4000 Snow 0 994 86 10000 6 320 17:55 22.01.2020
4001 Clouds 0 994 86 10000 6 310 17:37 22.01.2020
4002 Clouds 0 994 86 10000 6 310 17:19 22.01.2020
4003 Snow -1 993 100 5000 5 290 16:43 22.01.2020
4004 Snow 0 993 100 5000 5 290 16:23 22.01.2020
4005 Clouds 0 993 82 10000 4 280 15:59 22.01.2020
4006 Clouds 1 993 82 10000 5 290 15:41 22.01.2020
4007 Clouds 1 993 82 10000 5 290 15:22 22.01.2020
4008 Clouds 1 993 82 10000 5 280 14:58 22.01.2020
4009 Clouds 1 993 82 10000 5 290 14:37 22.01.2020
4010 Snow 1 994 86 10000 5 280 14:19 22.01.2020
4011 Snow 1 993 79 5000 6 280 13:55 22.01.2020
4012 Snow 1 993 79 7000 6 280 13:36 22.01.2020
4013 Snow 1 993 81 9000 6 280 13:18 22.01.2020
4014 Snow 1 993 81 9000 6 280 12:56 22.01.2020
4015 Snow 1 994 81 9000 7 270 12:37 22.01.2020
4016 Snow 1 994 81 9000 7 270 12:18 22.01.2020
4017 Snow 1 994 81 9000 5 260 11:56 22.01.2020
4018 Snow 1 994 81 2700 6 270 11:37 22.01.2020
4019 Snow 1 994 80 10000 7 270 11:18 22.01.2020
4020 Clouds 1 995 80 10000 8 260 10:44 22.01.2020
4021 Clouds 1 995 80 10000 8 260 10:21 22.01.2020
4022 Clouds 1 995 74 10000 7 270 09:45 22.01.2020
4023 Clouds 1 995 74 10000 8 270 09:26 22.01.2020
4024 Clouds 1 995 79 10000 8 260 08:59 22.01.2020
4025 Clouds 1 996 79 10000 7 260 08:40 22.01.2020
4026 Clouds 0 996 79 10000 7 270 08:21 22.01.2020
4027 Clouds 1 996 79 10000 7 270 07:58 22.01.2020
4028 Clouds 1 996 79 10000 6 270 07:40 22.01.2020
4029 Clouds 0 996 79 10000 6 270 07:21 22.01.2020
4030 Clouds 1 997 74 10000 7 280 06:31 22.01.2020
4031 Clouds 1 998 74 10000 5 270 05:42 22.01.2020
4032 Clouds 1 998 78 10000 6 270 04:24 22.01.2020
4033 Clouds 1 999 80 10000 6 270 03:26 22.01.2020
4034 Clouds 1 999 74 10000 7 290 02:38 22.01.2020
4035 Clouds 2 999 80 10000 8 300 00:46 22.01.2020
4036 Clouds 2 1000 80 10000 7 290 00:27 22.01.2020
4037 Clouds 3 1000 80 10000 7 300 23:55 21.01.2020
4038 Clouds 3 999 80 10000 7 290 23:36 21.01.2020
4039 Clouds 3 999 80 10000 7 290 23:18 21.01.2020
4040 Clouds 3 999 80 10000 7 290 23:18 21.01.2020
4041 Clouds 3 999 86 10000 9 290 23:18 21.01.2020
4042 Clouds 3 999 86 10000 6 290 22:40 21.01.2020
4043 Clouds 3 999 86 10000 6 290 22:20 21.01.2020
4044 Clouds 4 999 93 10000 6 290 21:57 21.01.2020
4045 Rain 4 999 86 10000 8 290 21:38 21.01.2020
4046 Rain 4 999 86 10000 8 290 21:20 21.01.2020
4047 Rain 4 998 93 10000 8 290 20:56 21.01.2020
4048 Rain 4 998 93 9000 8 290 20:37 21.01.2020
4049 Rain 4 998 93 9000 8 290 20:19 21.01.2020
4050 Rain 4 998 93 10000 8 280 19:57 21.01.2020
4051 Rain 3 998 93 10000 8 280 19:38 21.01.2020
4052 Rain 3 999 100 10000 7 280 19:20 21.01.2020
4053 Rain 3 998 100 10000 6 270 18:55 21.01.2020
4054 Rain 3 999 100 10000 8 270 18:37 21.01.2020
4055 Rain 3 999 100 10000 7 270 18:18 21.01.2020
4056 Rain 3 999 100 10000 7 270 17:45 21.01.2020
4057 Rain 3 999 100 10000 7 270 17:20 21.01.2020
4058 Rain 3 1000 100 8000 8 260 16:59 21.01.2020
4059 Drizzle 3 1000 100 8000 7 260 16:37 21.01.2020
4060 Drizzle 3 1000 100 8000 7 260 16:19 21.01.2020
4061 Drizzle 3 1001 100 4500 7 260 15:56 21.01.2020
4062 Drizzle 3 1001 100 4500 8 260 15:36 21.01.2020
4063 Drizzle 3 1001 100 4500 8 260 15:18 21.01.2020
4064 Drizzle 3 1002 100 4300 8 260 14:38 21.01.2020
4065 Drizzle 3 1002 100 9000 8 260 14:20 21.01.2020
4066 Clouds 3 1003 100 10000 8 260 13:40 21.01.2020
4067 Clouds 3 1004 100 9000 8 260 13:19 21.01.2020
4068 Clouds 3 1004 100 9000 8 260 12:56 21.01.2020
4069 Clouds 3 1004 93 10000 8 270 12:37 21.01.2020
4070 Clouds 3 1005 93 10000 7 270 12:19 21.01.2020
4071 Clouds 3 1005 93 10000 7 260 11:40 21.01.2020
4072 Clouds 3 1005 93 10000 7 260 11:21 21.01.2020
4073 Clouds 3 1005 93 10000 8 260 10:59 21.01.2020
4074 Clouds 2 1005 100 10000 9 260 10:40 21.01.2020
4075 Clouds 2 1005 100 10000 9 260 10:21 21.01.2020
4076 Drizzle 2 1006 93 10000 9 260 09:42 21.01.2020
4077 Drizzle 2 1006 93 10000 9 260 09:23 21.01.2020
4078 Drizzle 2 1007 93 10000 9 260 08:55 21.01.2020
4079 Snow 1 1007 100 10000 9 260 08:36 21.01.2020
4080 Snow 1 1007 100 10000 9 260 08:18 21.01.2020
4081 Snow 1 1008 100 10000 9 250 07:41 21.01.2020
4082 Snow 1 1008 100 10000 9 250 07:22 21.01.2020
4083 Snow 1 1008 97 5000 9 250 06:49 21.01.2020
4084 Snow 1 1009 97 4700 8 250 06:30 21.01.2020
4085 Snow 1 1009 100 5000 8 240 05:44 21.01.2020
4086 Snow 1 1012 94 9000 8 250 04:41 21.01.2020
4087 Clouds 1 1014 86 10000 8 250 02:58 21.01.2020
4088 Snow 1 1016 86 10000 7 260 02:19 21.01.2020
4089 Snow 1 1016 86 10000 7 260 01:28 21.01.2020
4090 Snow 1 1017 86 10000 7 260 00:40 21.01.2020
4091 Clouds 1 1018 86 10000 8 270 23:59 20.01.2020
4092 Clouds 1 1018 86 10000 7 270 23:41 20.01.2020
4093 Clouds 2 1018 80 10000 7 270 23:19 20.01.2020
4094 Clouds 2 1018 80 10000 7 270 22:58 20.01.2020
4095 Clouds 2 1019 82 10000 6 270 22:38 20.01.2020
4096 Clouds 2 1019 82 10000 7 260 22:20 20.01.2020
4097 Clouds 2 1019 82 10000 7 260 22:20 20.01.2020
4098 Clouds 2 1019 82 10000 7 260 21:58 20.01.2020
4099 Clouds 2 1019 82 10000 7 270 21:37 20.01.2020
4100 Snow 2 1019 93 10000 7 270 21:19 20.01.2020
4101 Snow 2 1019 93 10000 7 270 20:57 20.01.2020
4102 Snow 2 1020 93 10000 7 260 20:38 20.01.2020
4103 Snow 2 1020 93 10000 7 260 20:19 20.01.2020
4104 Snow 2 1020 90 10000 7 260 19:56 20.01.2020
4105 Snow 2 1020 90 10000 7 260 19:56 20.01.2020
4106 Clouds 2 1020 93 10000 6 270 19:38 20.01.2020
4107 Clouds 2 1020 93 10000 6 270 19:18 20.01.2020
4108 Snow 2 1021 93 10000 6 270 18:45 20.01.2020
4109 Snow 2 1021 93 10000 6 270 18:23 20.01.2020
4110 Snow 2 1022 93 10000 6 270 17:59 20.01.2020
4111 Snow 2 1022 93 10000 6 270 17:36 20.01.2020
4112 Snow 2 1022 93 10000 6 270 17:18 20.01.2020
4113 Rain 2 1022 93 10000 5 270 16:44 20.01.2020
4114 Clouds 2 1022 93 10000 5 270 16:25 20.01.2020
4115 Clouds 2 1022 93 10000 5 270 15:58 20.01.2020
4116 Clouds 2 1022 93 10000 5 270 15:40 20.01.2020
4117 Clouds 2 1022 93 10000 5 270 15:21 20.01.2020
4118 Clouds 2 1023 93 10000 7 270 14:55 20.01.2020
4119 Clouds 2 1023 93 10000 6 270 14:36 20.01.2020
4120 Clouds 2 1023 96 10000 6 270 14:18 20.01.2020
4121 Clouds 2 1023 93 10000 6 270 13:41 20.01.2020
4122 Clouds 2 1023 93 10000 6 270 13:23 20.01.2020
4123 Clouds 2 1023 86 10000 6 270 12:56 20.01.2020
4124 Clouds 3 1023 86 10000 7 270 12:38 20.01.2020
4125 Clouds 3 1023 86 10000 6 270 12:19 20.01.2020
4126 Clouds 3 1023 86 10000 6 270 11:43 20.01.2020
4127 Clouds 3 1023 86 10000 6 270 11:43 20.01.2020
4128 Clouds 3 1023 86 10000 6 270 11:24 20.01.2020
4129 Clouds 3 1024 86 10000 6 270 10:57 20.01.2020
4130 Clouds 2 1024 93 10000 5 270 10:39 20.01.2020
4131 Clouds 2 1024 93 10000 5 270 10:19 20.01.2020
4132 Clouds 2 1024 93 10000 5 270 09:41 20.01.2020
4133 Clouds 2 1024 93 10000 5 270 09:22 20.01.2020
4134 Clouds 2 1024 93 10000 6 270 08:51 20.01.2020
4135 Snow 2 1024 100 10000 6 270 08:31 20.01.2020
4136 Clouds 2 1024 100 10000 6 260 07:55 20.01.2020
4137 Snow 2 1024 92 10000 6 260 07:31 20.01.2020
4138 Snow 1 1024 92 10000 6 260 06:59 20.01.2020
4139 Snow 1 1024 92 10000 6 260 06:35 20.01.2020
4140 Snow 1 1024 92 10000 6 260 05:56 20.01.2020
4141 Snow 1 1024 92 10000 6 260 05:37 20.01.2020
4142 Snow 1 1024 86 10000 6 260 05:18 20.01.2020
4143 Snow 1 1025 86 9000 6 260 03:46 20.01.2020
4144 Snow 1 1025 91 7000 6 260 01:58 20.01.2020
4145 Snow 1 1025 86 10000 6 260 01:38 20.01.2020
4146 Clouds 1 1025 86 10000 6 250 00:46 20.01.2020
4147 Clouds 1 1025 86 10000 6 250 00:27 20.01.2020
4148 Clouds 1 1025 86 10000 6 250 23:55 19.01.2020
4149 Clouds 1 1025 86 10000 6 250 23:36 19.01.2020
4150 Clouds 1 1025 86 10000 6 250 23:18 19.01.2020
4151 Clouds 1 1025 86 10000 6 250 22:54 19.01.2020
4152 Clouds 1 1025 86 10000 6 250 22:36 19.01.2020
4153 Clouds 1 1025 86 10000 7 250 22:18 19.01.2020
4154 Clouds 1 1025 86 10000 7 250 21:55 19.01.2020
4155 Clouds 1 1025 86 10000 7 250 21:55 19.01.2020
4156 Clouds 1 1025 86 10000 6 250 21:36 19.01.2020
4157 Clouds 1 1025 86 10000 6 250 21:36 19.01.2020
4158 Clouds 0 1026 86 10000 5 260 21:18 19.01.2020
4159 Clouds 0 1026 86 10000 5 260 20:55 19.01.2020
4160 Clouds 0 1026 86 10000 6 270 20:37 19.01.2020
4161 Clouds 0 1026 86 10000 5 260 20:18 19.01.2020
4162 Clouds 0 1026 86 10000 5 260 19:54 19.01.2020
4163 Snow 0 1026 89 10000 4 250 19:36 19.01.2020
4164 Snow 0 1026 89 10000 5 260 19:18 19.01.2020
4165 -273 0 0 0 0 0 18:55 19.01.2020
4166 Snow 0 1026 89 10000 6 250 18:36 19.01.2020
4167 Snow 0 1026 89 10000 6 250 18:18 19.01.2020
4168 Clouds 0 1026 89 10000 6 240 17:57 19.01.2020
4169 Clouds 0 1026 89 10000 5 230 17:38 19.01.2020
4170 Clouds 0 1026 92 10000 5 230 17:19 19.01.2020
4171 Clouds 0 1026 92 10000 5 240 16:57 19.01.2020
4172 Clouds 0 1026 92 10000 5 240 16:37 19.01.2020
4173 Clouds -1 1026 92 10000 5 240 16:19 19.01.2020
4174 Snow 0 1026 92 10000 6 240 15:55 19.01.2020
4175 Snow 0 1026 92 10000 4 230 15:36 19.01.2020
4176 Snow 0 1026 92 10000 4 230 15:18 19.01.2020
4177 Clouds 0 1025 92 10000 5 240 14:41 19.01.2020
4178 Clouds 0 1025 92 10000 5 240 14:41 19.01.2020
4179 Clouds 0 1025 88 10000 5 240 14:21 19.01.2020
4180 Clouds 0 1025 88 10000 6 240 13:59 19.01.2020
4181 Clouds 0 1025 88 10000 5 240 13:40 19.01.2020
4182 Clouds 0 1025 89 10000 5 240 13:22 19.01.2020
4183 Clouds 0 1025 89 10000 5 240 12:59 19.01.2020
4184 Clouds 0 1025 89 10000 5 230 12:41 19.01.2020
4185 Clouds 0 1025 89 10000 5 230 12:23 19.01.2020
4186 Clouds 0 1025 89 10000 6 250 11:57 19.01.2020
4187 Clouds 0 1025 89 10000 7 250 11:39 19.01.2020
4188 Clouds 0 1025 89 10000 7 250 11:18 19.01.2020
4189 Clouds 0 1025 89 10000 7 250 10:54 19.01.2020
4190 Clouds 0 1025 89 10000 7 260 10:36 19.01.2020
4191 Clouds 0 1025 89 10000 7 260 10:18 19.01.2020
4192 Clouds 0 1025 89 10000 5 250 09:41 19.01.2020
4193 Clouds -1 1025 89 10000 5 250 09:23 19.01.2020
4194 Clouds 0 1024 89 10000 6 250 08:57 19.01.2020
4195 Clouds -1 1024 89 10000 5 250 08:38 19.01.2020
4196 Clouds -1 1024 92 10000 5 250 08:20 19.01.2020
4197 Clouds -1 1024 92 10000 5 250 07:40 19.01.2020
4198 Clouds -1 1024 92 10000 5 250 07:21 19.01.2020
4199 Clouds -1 1023 100 10000 6 250 06:44 19.01.2020
4200 Clouds -1 1023 92 10000 5 250 04:41 19.01.2020
4201 Clouds -1 1022 92 10000 6 250 02:37 19.01.2020
4202 Clouds -1 1022 92 10000 5 250 02:19 19.01.2020
4203 Clouds -2 1022 92 10000 5 250 01:24 19.01.2020
4204 Clouds -2 1022 92 10000 5 250 01:24 19.01.2020
4205 Clouds -2 1022 92 10000 6 270 00:45 19.01.2020
4206 Clouds -2 1021 92 10000 7 260 00:27 19.01.2020
4207 Clouds -2 1021 92 10000 7 260 23:55 18.01.2020
4208 Clouds -2 1021 92 10000 6 240 23:37 18.01.2020
4209 Clouds -2 1021 92 10000 6 240 23:18 18.01.2020
4210 Clouds -3 1021 92 10000 6 240 22:55 18.01.2020
4211 Clouds -3 1021 92 10000 6 240 22:36 18.01.2020
4212 Clouds -2 1021 92 10000 5 230 22:18 18.01.2020
4213 Clouds -2 1021 92 10000 5 230 21:56 18.01.2020
4214 Clouds -2 1021 92 10000 5 230 21:36 18.01.2020
4215 Clouds -2 1021 92 10000 5 230 21:18 18.01.2020
4216 Clouds -2 1021 92 10000 4 220 20:42 18.01.2020
4217 Clouds -2 1021 92 10000 4 220 20:20 18.01.2020
4218 Clouds -2 1021 92 10000 5 230 19:55 18.01.2020
4219 Clouds -2 1021 92 10000 5 210 19:36 18.01.2020
4220 Clouds -2 1021 92 10000 5 210 19:36 18.01.2020
4221 Clouds -2 1021 92 10000 5 210 19:18 18.01.2020
4222 Clouds -1 1022 92 10000 4 210 18:41 18.01.2020
4223 Clouds -1 1022 92 10000 4 210 18:21 18.01.2020
4224 Clouds -1 1022 100 10000 5 210 17:41 18.01.2020
4225 Clouds -1 1022 92 10000 4 220 17:21 18.01.2020
4226 Clouds -1 1022 100 10000 5 210 17:21 18.01.2020
4227 Clouds -1 1022 92 10000 4 220 16:59 18.01.2020
4228 Clouds 0 1023 94 10000 4 230 16:41 18.01.2020
4229 Clouds 0 1023 94 10000 4 230 16:22 18.01.2020
4230 Clouds 0 1023 94 10000 4 220 15:58 18.01.2020
4231 Clouds 0 1023 86 10000 4 220 15:40 18.01.2020
4232 Clouds 0 1023 86 10000 4 220 15:22 18.01.2020
4233 Clouds 1 1023 86 10000 4 230 14:44 18.01.2020
4234 Clouds 1 1024 86 10000 3 220 14:24 18.01.2020
4235 Clouds 2 1024 80 10000 4 230 13:59 18.01.2020
4236 Clouds 2 1024 80 10000 4 220 13:41 18.01.2020
4237 Clouds 2 1024 80 10000 4 220 13:21 18.01.2020
4238 Clouds 2 1024 89 10000 5 230 12:55 18.01.2020
4239 Clouds 2 1024 89 10000 5 230 12:55 18.01.2020
4240 Clouds 2 1024 89 10000 4 230 12:37 18.01.2020
4241 Clouds 2 1024 89 10000 4 230 12:19 18.01.2020
4242 Clouds 2 1024 80 10000 5 240 11:44 18.01.2020
4243 Clouds 2 1024 80 10000 5 240 11:21 18.01.2020
4244 Clouds 2 1024 86 10000 4 230 10:56 18.01.2020
4245 Clouds 1 1025 86 10000 5 240 10:38 18.01.2020
4246 Clouds 1 1025 86 10000 6 240 10:18 18.01.2020
4247 Clouds 1 1025 86 10000 6 240 09:42 18.01.2020
4248 Clouds 1 1025 86 10000 6 240 09:20 18.01.2020
4249 Clouds 1 1025 86 10000 7 240 08:55 18.01.2020
4250 Clouds 1 1025 89 10000 5 230 08:36 18.01.2020
4251 Clouds 1 1025 91 10000 5 230 08:18 18.01.2020
4252 Clouds 1 1025 91 10000 6 250 07:40 18.01.2020
4253 Clouds 1 1025 91 10000 6 250 07:21 18.01.2020
4254 Clouds 1 1025 91 10000 6 250 06:45 18.01.2020
4255 Clouds 1 1025 91 10000 6 260 05:55 18.01.2020
4256 Clouds 2 1025 95 10000 6 240 04:29 18.01.2020
4257 Clouds 2 1024 95 10000 4 250 02:50 18.01.2020
4258 Clouds 2 1025 94 10000 5 250 01:51 18.01.2020
4259 Clouds 2 1025 94 10000 4 240 01:20 18.01.2020
4260 Clouds 2 1025 94 10000 5 250 00:36 18.01.2020
4261 Clouds 2 1025 94 10000 5 250 00:18 18.01.2020
4262 Clouds 2 1025 93 10000 5 250 23:40 17.01.2020
4263 Clouds 2 1025 93 10000 5 250 23:19 17.01.2020
4264 Clouds 3 1025 93 10000 4 250 22:44 17.01.2020
4265 Clouds 2 1025 93 10000 4 250 22:21 17.01.2020
4266 Clouds 2 1025 93 10000 5 260 21:58 17.01.2020
4267 Clouds 2 1025 93 10000 5 260 21:40 17.01.2020
4268 Clouds 2 1025 93 10000 5 260 21:22 17.01.2020
4269 Clouds 2 1025 93 10000 5 260 20:57 17.01.2020
4270 Clouds 2 1025 93 10000 5 260 20:37 17.01.2020
4271 Clouds 2 1025 93 10000 5 260 20:19 17.01.2020
4272 Clouds 2 1025 93 10000 5 260 19:55 17.01.2020
4273 Clouds 2 1025 93 10000 6 260 19:37 17.01.2020
4274 Clouds 3 1025 93 10000 6 260 19:18 17.01.2020
4275 Clouds 3 1025 93 10000 5 260 18:45 17.01.2020
4276 Clouds 3 1025 93 10000 5 260 18:27 17.01.2020
4277 Clouds 3 1025 93 10000 6 260 17:56 17.01.2020
4278 Clouds 3 1025 93 10000 6 250 17:38 17.01.2020
4279 Clouds 3 1025 93 10000 5 250 17:20 17.01.2020
4280 Clouds 3 1025 93 10000 6 250 16:43 17.01.2020
4281 Clouds 3 1025 93 10000 6 250 16:20 17.01.2020
4282 Clouds 3 1024 93 10000 5 250 15:49 17.01.2020
4283 Clouds 3 1024 93 10000 5 250 15:28 17.01.2020
4284 Clouds 4 1024 86 10000 5 250 14:59 17.01.2020
4285 Clouds 4 1024 86 10000 5 260 14:40 17.01.2020
4286 Clouds 4 1024 86 10000 5 260 14:22 17.01.2020
4287 Clouds 4 1024 86 10000 4 270 13:42 17.01.2020
4288 Clouds 4 1024 86 10000 4 270 13:22 17.01.2020
4289 Rain 4 1024 93 10000 5 260 12:46 17.01.2020
4290 Rain 4 1024 93 10000 5 260 12:23 17.01.2020
4291 Clouds 4 1024 86 10000 5 260 11:41 17.01.2020
4292 Clouds 4 1024 86 10000 5 260 11:20 17.01.2020
4293 Clouds 4 1023 93 10000 5 270 10:56 17.01.2020
4294 Clouds 4 1023 93 10000 5 270 10:38 17.01.2020
4295 Clouds 4 1023 93 10000 5 270 10:20 17.01.2020
4296 Clouds 3 1023 93 10000 4 260 09:44 17.01.2020
4297 Clouds 3 1023 93 10000 4 260 09:21 17.01.2020
4298 Clouds 3 1023 93 10000 4 260 08:58 17.01.2020
4299 Clouds 3 1023 93 10000 4 260 08:40 17.01.2020
4300 Clouds 3 1023 93 10000 5 260 08:21 17.01.2020
4301 Clouds 3 1023 93 10000 5 260 07:48 17.01.2020
4302 Clouds 3 1022 93 10000 5 270 07:29 17.01.2020
4303 Clouds 3 1022 93 10000 5 270 06:56 17.01.2020
4304 Clouds 3 1022 93 10000 5 260 06:36 17.01.2020
4305 Clouds 3 1000 35 0 4.34 283 05:19 17.01.2020
4306 Clouds 3 999 35 0 4.34 283 03:38 17.01.2020
4307 Clouds 3 999 36 0 4.34 283 02:42 17.01.2020
4308 Clouds 3 999 36 0 4.04 275 01:45 17.01.2020
4309 Clouds 3 1000 84 0 3.74 271 01:27 17.01.2020
4310 Clouds 2 1019 93 10000 6 250 00:43 17.01.2020
4311 Clouds 2 1019 93 10000 6 250 00:20 17.01.2020
4312 Clouds 3 1019 93 10000 6 250 23:42 16.01.2020
4313 Clouds 2 1019 93 10000 6 250 23:24 16.01.2020
4314 Rain 2 1018 93 10000 5 260 22:43 16.01.2020
4315 Clouds 3 1018 86 10000 6 260 22:22 16.01.2020
4316 Clouds 2 1018 86 10000 5 260 21:57 16.01.2020
4317 Clouds 2 1018 93 10000 5 260 21:39 16.01.2020
4318 Clouds 2 1018 93 10000 5 260 21:19 16.01.2020
4319 Clouds 2 1017 93 10000 6 250 20:59 16.01.2020
4320 Clouds 2 1017 93 9000 6 250 20:40 16.01.2020
4321 Clouds 2 1017 93 9000 6 250 20:20 16.01.2020
4322 Rain 2 1017 86 9000 7 260 19:57 16.01.2020
4323 Rain 2 1017 86 10000 7 260 19:39 16.01.2020
4324 Drizzle 2 1017 86 10000 6 260 19:20 16.01.2020
4325 Drizzle 2 1017 86 10000 6 260 18:56 16.01.2020
4326 Clouds 2 1016 86 10000 7 260 18:37 16.01.2020
4327 Clouds 2 1016 86 10000 7 260 18:18 16.01.2020
4328 Clouds 2 1016 86 10000 7 250 17:58 16.01.2020
4329 Clouds 2 1016 86 10000 8 250 17:39 16.01.2020
4330 Clouds 2 1016 86 10000 7 250 17:20 16.01.2020
4331 Clouds 2 1016 86 10000 8 250 16:41 16.01.2020
4332 Clouds 2 1016 86 10000 8 250 16:23 16.01.2020
4333 Clouds 2 1015 86 10000 8 240 15:58 16.01.2020
4334 Clouds 2 1015 86 10000 8 240 15:39 16.01.2020
4335 Clouds 2 1015 86 10000 8 240 15:39 16.01.2020
4336 Clouds 2 1015 86 10000 8 240 15:20 16.01.2020
4337 Clouds 2 1015 86 10000 8 230 14:44 16.01.2020
4338 Clouds 2 1015 93 10000 8 240 14:24 16.01.2020
4339 Clouds 2 1015 93 10000 9 230 13:56 16.01.2020
4340 Clouds 2 1014 93 10000 8 230 13:37 16.01.2020
4341 Clouds 2 1014 93 10000 8 230 13:19 16.01.2020
4342 Clouds 2 1014 93 10000 9 230 12:42 16.01.2020
4343 Clouds 2 1015 93 10000 9 240 12:22 16.01.2020
4344 Clouds 2 1015 93 10000 9 240 11:43 16.01.2020
4345 Clouds 2 1015 93 10000 9 240 11:24 16.01.2020
4346 Clouds 2 1015 93 10000 8 230 10:59 16.01.2020
4347 Clouds 2 1015 93 10000 7 220 10:38 16.01.2020
4348 Clouds 2 1015 93 10000 7 220 10:20 16.01.2020
4349 Rain 2 1015 93 8000 7 220 09:56 16.01.2020
4350 Clouds 3 1015 86 10000 7 220 09:37 16.01.2020
4351 Clouds 3 1015 86 10000 7 220 09:37 16.01.2020
4352 Clouds 3 1015 86 10000 7 220 09:18 16.01.2020
4353 Clouds 2 1016 86 10000 6 220 08:44 16.01.2020
4354 Clouds 2 1016 86 10000 6 220 08:23 16.01.2020
4355 Clouds 2 1016 86 10000 7 230 07:44 16.01.2020
4356 Clouds 2 1016 86 10000 7 230 07:25 16.01.2020
4357 Clouds 3 1016 86 10000 7 230 06:59 16.01.2020
4358 Clouds 3 1016 86 10000 7 230 06:37 16.01.2020
4359 Clouds 3 1016 86 10000 8 230 05:58 16.01.2020
4360 Clouds 3 1016 86 10000 8 240 05:39 16.01.2020
4361 Clouds 3 1016 93 10000 9 230 04:37 16.01.2020
4362 Clouds 3 1016 93 10000 9 230 04:37 16.01.2020
4363 Clouds 3 1016 93 10000 9 230 04:37 16.01.2020
4364 Drizzle 2 1016 93 7000 8 230 03:28 16.01.2020
4365 Clouds 2 1016 93 9000 9 230 02:42 16.01.2020
4366 Clouds 2 1016 86 10000 8 230 00:53 16.01.2020
4367 Clouds 2 1016 86 10000 8 230 00:24 16.01.2020
4368 Clouds 2 1016 93 10000 9 240 23:48 15.01.2020
4369 Clouds 2 1016 93 10000 9 240 23:23 15.01.2020
4370 Clouds 2 1016 93 10000 8 230 22:57 15.01.2020
4371 Rain 2 1016 93 9000 8 230 22:39 15.01.2020
4372 Rain 2 1016 93 9000 8 230 22:19 15.01.2020
4373 Rain 2 1015 91 10000 8 230 21:57 15.01.2020
4374 Rain 2 1015 91 10000 8 230 21:57 15.01.2020
4375 Clouds 2 1015 91 10000 8 230 21:38 15.01.2020
4376 Clouds 3 1015 91 10000 8 230 21:20 15.01.2020
4377 Clouds 3 1015 91 10000 8 230 20:58 15.01.2020
4378 Clouds 2 1016 91 10000 8 230 20:40 15.01.2020
4379 Rain 3 1016 81 9000 9 230 20:20 15.01.2020
4380 Rain 3 1016 81 9000 9 230 19:55 15.01.2020
4381 Clouds 3 1015 81 10000 9 230 19:37 15.01.2020
4382 Clouds 3 1016 81 10000 9 220 19:19 15.01.2020
4383 Clouds 3 1016 81 10000 9 220 18:57 15.01.2020
4384 Clouds 3 1016 81 10000 9 220 18:57 15.01.2020
4385 Clouds 3 1016 81 10000 9 220 18:38 15.01.2020
4386 Clouds 3 1016 81 10000 9 230 18:20 15.01.2020
4387 Clouds 3 1016 81 10000 9 230 18:20 15.01.2020
4388 Clouds 3 1016 81 10000 9 230 17:58 15.01.2020
4389 Clouds 3 1016 81 10000 8 220 17:39 15.01.2020
4390 Clouds 2 1016 84 10000 8 220 17:20 15.01.2020
4391 Clouds 2 1017 84 10000 8 220 16:42 15.01.2020
4392 Clouds 2 1017 84 10000 8 220 16:24 15.01.2020
4393 Clouds 2 1017 80 10000 9 220 15:59 15.01.2020
4394 Rain 2 1017 80 10000 8 220 15:41 15.01.2020
4395 Rain 2 1017 80 10000 8 220 15:20 15.01.2020
4396 Rain 2 1017 80 10000 8 220 14:45 15.01.2020
4397 Clouds 2 1017 74 10000 8 220 14:21 15.01.2020
4398 Clouds 2 1017 80 10000 8 220 13:58 15.01.2020
4399 Clouds 2 1018 74 10000 8 220 13:40 15.01.2020
4400 Clouds 2 1018 74 10000 7 220 13:22 15.01.2020
4401 Clouds 2 1018 74 10000 7 220 12:55 15.01.2020
4402 Clouds 2 1018 74 10000 8 220 12:36 15.01.2020
4403 Clouds 2 1018 74 10000 7 220 12:18 15.01.2020
4404 Clouds 2 1018 80 10000 7 210 11:38 15.01.2020
4405 Clouds 2 1018 80 10000 7 210 11:20 15.01.2020
4406 Clouds 2 1019 80 10000 8 210 10:48 15.01.2020
4407 Clouds 2 1019 80 10000 7 210 10:28 15.01.2020
4408 Clouds 1 1019 86 10000 8 220 09:59 15.01.2020
4409 Clouds 1 1020 86 10000 7 220 09:41 15.01.2020
4410 Clouds 1 1020 86 10000 7 220 09:21 15.01.2020
4411 Clouds 1 1020 86 10000 7 220 08:44 15.01.2020
4412 Clouds 1 1020 86 10000 7 220 08:44 15.01.2020
4413 Clouds 0 1020 86 10000 7 220 08:26 15.01.2020
4414 Clouds 0 1020 86 10000 7 210 07:54 15.01.2020
4415 Clouds 0 1020 86 10000 7 220 07:33 15.01.2020
4416 Clouds 0 1020 80 10000 7 220 06:54 15.01.2020
4417 Clouds 0 1022 87 10000 3 210 06:28 15.01.2020
4418 Clouds 0 1021 87 10000 5 200 05:32 15.01.2020
4419 Clouds 0 1023 92 10000 4 200 03:20 15.01.2020
4420 Clouds 0 1022 94 10000 4 230 01:48 15.01.2020
4421 Clouds 0 1022 95 10000 4 230 01:22 15.01.2020
4422 Clouds -1 1022 95 10000 3 220 00:37 15.01.2020
4423 Clouds -1 1022 95 10000 3 220 00:19 15.01.2020
4424 Clouds -1 1022 95 10000 4 250 23:47 14.01.2020
4425 Clouds -1 1022 95 10000 4 250 23:28 14.01.2020
4426 Clouds -1 1022 87 10000 4 240 22:58 14.01.2020
4427 Clouds -1 1022 87 10000 5 240 22:40 14.01.2020
4428 Clouds -1 1022 87 10000 5 240 22:19 14.01.2020
4429 Clouds -1 1022 87 10000 5 240 21:57 14.01.2020
4430 Clouds -1 1022 87 10000 5 250 21:39 14.01.2020
4431 Clouds -1 1021 92 10000 5 240 21:19 14.01.2020
4432 Clouds -1 1021 92 10000 5 240 20:54 14.01.2020
4433 Clouds -1 1021 92 10000 5 240 20:54 14.01.2020
4434 Clouds -1 1021 95 10000 5 230 20:36 14.01.2020
4435 Clouds -1 1021 95 10000 5 230 20:18 14.01.2020
4436 Clouds -1 1021 95 10000 5 230 19:55 14.01.2020
4437 Clouds -1 1021 86 10000 4 220 19:37 14.01.2020
4438 Clouds -1 1021 86 10000 4 220 19:18 14.01.2020
4439 Clouds 0 1021 95 10000 5 230 19:18 14.01.2020
4440 Clouds 0 1020 86 10000 5 270 18:41 14.01.2020
4441 Clouds 0 1020 86 10000 5 270 18:20 14.01.2020
4442 Clouds 0 1020 86 10000 5 270 17:58 14.01.2020
4443 Clouds 1 1019 95 10000 4 220 17:37 14.01.2020
4444 Clouds 1 1019 95 10000 4 210 17:18 14.01.2020
4445 Clouds 1 1019 95 10000 4 210 16:43 14.01.2020
4446 Clouds 1 1019 80 10000 4 220 16:23 14.01.2020
4447 Clouds 1 1020 95 10000 4 270 15:58 14.01.2020
4448 Snow 1 1019 80 10000 5 270 15:40 14.01.2020
4449 Clouds 1 1019 74 10000 5 280 15:19 14.01.2020
4450 Clouds 1 1019 74 10000 5 280 14:45 14.01.2020
4451 Clouds 1 1019 74 10000 6 280 14:21 14.01.2020
4452 Clouds 1 1019 74 10000 6 290 13:57 14.01.2020
4453 Clouds 1 1018 74 10000 6 270 13:39 14.01.2020
4454 Clouds 1 1017 74 10000 6 280 13:19 14.01.2020
4455 Clouds 1 1017 80 10000 5 260 12:42 14.01.2020
4456 Clouds 1 1017 80 10000 5 260 12:22 14.01.2020
4457 Clouds 1 1017 80 10000 6 260 11:56 14.01.2020
4458 Clouds 2 1017 80 10000 5 250 11:37 14.01.2020
4459 Clouds 1 1017 80 10000 6 250 11:19 14.01.2020
4460 Clouds 1 1017 80 10000 5 250 10:41 14.01.2020
4461 Clouds 1 1017 80 10000 5 250 10:20 14.01.2020
4462 Clouds 1 1017 80 10000 6 250 09:59 14.01.2020
4463 Clouds 1 1017 80 10000 5 250 09:40 14.01.2020
4464 Clouds 1 1017 80 10000 5 250 09:21 14.01.2020
4465 Clouds 1 1016 89 10000 4 240 08:56 14.01.2020
4466 Clouds 0 1016 89 10000 4 230 08:38 14.01.2020
4467 Clouds 0 1016 90 10000 4 230 08:19 14.01.2020
4468 Clouds 0 1016 91 10000 4 250 07:38 14.01.2020
4469 Clouds 0 1015 91 10000 6 240 06:59 14.01.2020
4470 Clouds 0 1015 91 10000 6 250 06:40 14.01.2020
4471 Clouds 0 1015 91 10000 5 240 05:35 14.01.2020
4472 Clouds 0 1015 91 10000 4 230 04:23 14.01.2020
4473 Clouds 0 1015 91 10000 4 250 03:43 14.01.2020
4474 Clouds 0 1015 91 10000 5 270 02:30 14.01.2020
4475 Clouds -1 1015 92 10000 6 280 01:18 14.01.2020
4476 Clouds 0 1014 92 10000 8 270 00:42 14.01.2020
4477 Clouds 0 1014 93 10000 7 270 00:21 14.01.2020
4478 Clouds 0 1013 93 10000 6 240 23:42 13.01.2020
4479 Clouds 0 1013 92 10000 5 240 23:18 13.01.2020
4480 Clouds 0 1013 92 10000 5 240 22:56 13.01.2020
4481 Clear 0 1012 92 10000 6 250 22:37 13.01.2020
4482 Clear 0 1012 92 10000 6 250 22:19 13.01.2020
4483 Clouds 0 1012 92 10000 5 270 21:54 13.01.2020
4484 Clouds 1 1012 92 10000 5 260 21:36 13.01.2020
4485 Clouds 1 1012 92 10000 5 260 21:18 13.01.2020
4486 Clouds 1 1011 86 10000 6 270 20:42 13.01.2020
4487 Clouds 2 1011 86 10000 6 270 20:23 13.01.2020
4488 Clouds 2 1011 86 10000 5 280 20:23 13.01.2020
4489 Clouds 1 1011 86 10000 5 280 20:00 13.01.2020
4490 Clouds 2 1011 86 10000 5 290 19:41 13.01.2020
4491 Clouds 2 1011 86 10000 4 270 19:20 13.01.2020
4492 Clouds 1 1011 86 10000 4 270 18:58 13.01.2020
4493 Clouds 2 1011 92 10000 4 280 18:38 13.01.2020
4494 Clouds 2 1011 92 10000 4 280 18:38 13.01.2020
4495 Clouds 2 1010 86 10000 5 290 18:19 13.01.2020
4496 Clouds 2 1010 86 10000 5 290 17:58 13.01.2020
4497 Clouds 2 1010 92 10000 5 300 17:39 13.01.2020
4498 Clouds 2 1009 88 10000 5 290 17:20 13.01.2020
4499 Clouds 2 995 73 0 2.24 190 16:43 13.01.2020
4500 Clouds 2 995 73 0 0.45 180 16:24 13.01.2020
4501 Clouds 2 995 74 0 1.79 184 15:59 13.01.2020
4502 Clouds 2 994 74 0 2.68 173 15:41 13.01.2020
4503 Clouds 2 994 74 0 2.68 177 15:21 13.01.2020
4504 Clouds 2 994 74 0 1.79 180 14:54 13.01.2020
4505 Clouds 2 993 74 0 3.13 180 14:36 13.01.2020
4506 Snow 2 993 74 0 1.79 189 14:18 13.01.2020
4507 Snow 3 992 74 0 2.68 147 13:40 13.01.2020
4508 Rain 2 992 74 0 1.79 180 13:22 13.01.2020
4509 Rain 2 1005 93 10000 6 270 12:58 13.01.2020
4510 Rain 2 1005 93 10000 6 270 12:40 13.01.2020
4511 Snow 2 1005 93 10000 6 270 12:21 13.01.2020
4512 Snow 2 1005 93 10000 6 270 11:54 13.01.2020
4513 Clouds 2 1005 93 10000 6 270 11:36 13.01.2020
4514 Clouds 2 1005 93 10000 6 270 11:18 13.01.2020
4515 Clouds 2 1005 93 10000 6 270 11:18 13.01.2020
4516 Clouds 2 1005 93 10000 6 270 10:55 13.01.2020
4517 Rain 2 1005 93 10000 6 270 10:36 13.01.2020
4518 Rain 2 1005 93 10000 6 270 10:18 13.01.2020
4519 Clouds 2 1005 93 10000 6 270 09:40 13.01.2020
4520 Rain 2 1005 93 10000 6 270 09:40 13.01.2020
4521 Rain 2 1005 93 10000 6 270 09:22 13.01.2020
4522 Rain 1 1004 93 10000 6 280 08:42 13.01.2020
4523 Clouds 1 1004 100 10000 6 270 08:21 13.01.2020
4524 Clouds 1 1004 100 10000 6 270 07:54 13.01.2020
4525 Drizzle 1 1004 100 10000 6 250 07:35 13.01.2020
4526 Drizzle 1 1004 100 9000 6 260 06:44 13.01.2020
4527 Drizzle 1 1004 100 9000 6 260 06:22 13.01.2020
4528 Snow 1 1004 100 5000 7 260 05:36 13.01.2020
4529 Snow 1 1003 96 10000 6 250 04:25 13.01.2020
4530 Snow 1 1004 96 5000 7 250 03:31 13.01.2020
4531 Clouds 1 1004 96 9000 7 250 02:47 13.01.2020
4532 Clouds 1 1004 96 9000 7 250 02:29 13.01.2020
4533 Snow 1 1004 97 9000 7 250 01:23 13.01.2020
4534 Snow 0 1004 97 7000 7 240 00:42 13.01.2020
4535 Snow 0 1004 97 7000 7 240 00:24 13.01.2020
4536 Snow 0 1004 97 5000 7 250 23:56 12.01.2020
4537 Snow 0 1004 97 5000 7 250 23:37 12.01.2020
4538 Snow 0 1004 95 5000 7 250 23:19 12.01.2020
4539 Snow 0 1005 95 2200 7 240 22:42 12.01.2020
4540 Snow 0 1005 95 2200 7 240 22:24 12.01.2020
4541 Snow 0 1005 95 2100 6 240 21:57 12.01.2020
4542 Snow 0 1005 95 3500 8 240 21:39 12.01.2020
4543 Snow 0 1005 95 8000 9 240 21:20 12.01.2020
4544 Snow 0 1005 95 8000 9 240 20:57 12.01.2020
4545 Snow -1 1005 95 10000 8 240 20:39 12.01.2020
4546 Snow -1 1006 89 10000 8 240 20:20 12.01.2020
4547 Snow -1 1006 89 10000 8 240 19:56 12.01.2020
4548 Snow -1 1006 100 4300 8 240 19:38 12.01.2020
4549 Snow -1 1006 100 4300 8 240 19:38 12.01.2020
4550 Snow -1 1006 100 4300 8 240 19:19 12.01.2020
4551 Snow -1 1006 89 9000 8 240 18:57 12.01.2020
4552 Clouds -1 1007 92 10000 9 240 18:39 12.01.2020
4553 Clouds -1 1007 92 10000 9 240 18:21 12.01.2020
4554 Clouds -1 1007 86 10000 9 240 17:57 12.01.2020
4555 Clouds -1 1007 86 10000 9 240 17:38 12.01.2020
4556 Clouds -1 1008 86 10000 9 240 17:19 12.01.2020
4557 Clouds -1 1008 86 10000 9 240 16:55 12.01.2020
4558 Clouds -1 1008 86 10000 9 250 16:37 12.01.2020
4559 Clouds -1 1008 86 10000 9 250 16:18 12.01.2020
4560 Clouds -1 1009 80 10000 8 240 15:42 12.01.2020
4561 Clouds -1 1009 80 10000 8 240 15:24 12.01.2020
4562 Clouds -1 1009 86 10000 8 240 14:57 12.01.2020
4563 Clouds -1 1009 74 10000 8 240 14:38 12.01.2020
4564 Clouds -1 1009 74 10000 8 240 14:19 12.01.2020
4565 Clouds -1 1009 74 10000 8 230 13:43 12.01.2020
4566 Clouds -1 1009 74 10000 8 230 13:24 12.01.2020
4567 Clouds -2 1009 74 10000 7 210 12:58 12.01.2020
4568 Clouds -2 1010 74 10000 6 220 12:39 12.01.2020
4569 Clouds -2 1011 74 10000 6 230 12:20 12.01.2020
4570 Clouds -2 1011 74 10000 6 230 11:58 12.01.2020
4571 Clouds -2 1011 74 10000 6 210 11:39 12.01.2020
4572 Clouds -2 1011 74 10000 6 210 11:20 12.01.2020
4573 Clouds -3 1013 74 10000 6 230 10:41 12.01.2020
4574 Clouds -3 1013 74 10000 6 230 10:22 12.01.2020
4575 Clouds -4 1014 79 10000 5 230 09:57 12.01.2020
4576 Clouds -4 1014 79 10000 5 240 09:39 12.01.2020
4577 Clouds -4 1014 79 10000 5 240 09:20 12.01.2020
4578 Clouds -5 1016 85 10000 5 230 08:45 12.01.2020
4579 Clouds -5 1016 85 10000 5 230 08:21 12.01.2020
4580 Clouds -6 1016 92 10000 5 230 07:42 12.01.2020
4581 Clouds -6 1016 92 10000 5 230 07:24 12.01.2020
4582 Clouds -5 1017 92 10000 4 220 06:48 12.01.2020
4583 Clouds -5 1017 92 10000 4 220 06:30 12.01.2020
4584 Clouds -6 1018 92 10000 4 210 05:37 12.01.2020
4585 Clouds -6 1018 92 10000 3 210 04:51 12.01.2020
4586 Clouds -6 1018 100 10000 3 200 03:27 12.01.2020
4587 Clouds -6 1018 92 10000 2 260 02:34 12.01.2020
4588 Clear -5 1018 92 10000 3 270 01:55 12.01.2020
4589 Clear -6 1018 92 9000 3 250 01:29 12.01.2020
4590 Clouds -5 1018 100 10000 3 310 00:44 12.01.2020
4591 Clouds -5 1018 92 9000 3 300 00:21 12.01.2020
4592 Clouds -5 1018 92 9000 3 300 23:55 11.01.2020
4593 Clouds -5 1018 92 10000 1 310 23:37 11.01.2020
4594 Clouds -5 1018 92 10000 1 310 23:18 11.01.2020
4595 Fog -4 1018 92 9000 2 300 22:55 11.01.2020
4596 Clouds -5 1017 100 10000 1 310 22:37 11.01.2020
4597 Clouds -5 1017 100 10000 1 310 22:18 11.01.2020
4598 Clear -4 1017 92 10000 2 330 21:42 11.01.2020
4599 Clear -4 1017 92 10000 2 340 21:18 11.01.2020
4600 Clear -4 1017 92 10000 2 340 20:55 11.01.2020
4601 Clear -4 1017 92 10000 3 330 20:37 11.01.2020
4602 Clouds -4 1017 92 10000 3 330 20:18 11.01.2020
4603 Clouds -3 1016 92 10000 3 320 19:55 11.01.2020
4604 Clouds -3 1016 92 10000 3 320 19:36 11.01.2020
4605 Clouds -3 1016 92 10000 3 320 19:18 11.01.2020
4606 Clouds -4 1016 92 10000 4 330 18:55 11.01.2020
4607 Clouds -3 1016 92 10000 3 310 18:36 11.01.2020
4608 Clouds -3 1016 92 10000 3 310 18:18 11.01.2020
4609 Clouds -3 1016 92 10000 3 310 17:55 11.01.2020
4610 Clouds -3 1015 92 10000 3 310 17:36 11.01.2020
4611 Mist -2 1015 92 9000 3 320 17:18 11.01.2020
4612 Clouds -3 1015 92 10000 3 310 17:18 11.01.2020
4613 Mist -2 1015 92 7000 3 310 16:43 11.01.2020
4614 Mist -2 1015 92 7000 3 310 16:23 11.01.2020
4615 Clouds -1 1014 100 10000 2 310 15:43 11.01.2020
4616 Clouds -1 1014 100 10000 2 310 15:24 11.01.2020
4617 Clouds 0 1015 92 10000 3 320 14:59 11.01.2020
4618 Clouds 0 1014 100 10000 3 350 14:41 11.01.2020
4619 Clouds 0 1014 100 10000 3 350 14:22 11.01.2020
4620 Clouds 0 1014 90 10000 3 350 13:55 11.01.2020
4621 Clouds 0 1014 90 10000 2 360 13:37 11.01.2020
4622 Clouds 0 1014 90 10000 2 360 13:19 11.01.2020
4623 Snow 0 1013 90 5000 2 350 12:44 11.01.2020
4624 Snow 0 1013 90 5000 2 350 12:26 11.01.2020
4625 Snow 0 1013 90 6000 3 360 11:56 11.01.2020
4626 Snow 0 1013 90 6000 3 10 11:37 11.01.2020
4627 Snow 0 1013 93 8000 3 40 11:18 11.01.2020
4628 Snow 0 1013 93 6000 3 10 11:18 11.01.2020
4629 Snow 0 1013 93 6000 2 60 10:44 11.01.2020
4630 Snow 0 1013 93 6000 2 60 10:24 11.01.2020
4631 Snow 0 1013 93 2600 3 70 09:42 11.01.2020
4632 Snow 0 1013 93 1700 3 50 09:21 11.01.2020
4633 Snow 0 1012 93 2100 3 50 08:43 11.01.2020
4634 Snow 0 1012 95 2100 3 50 08:23 11.01.2020
4635 Snow 0 1012 95 2000 3 70 07:45 11.01.2020
4636 Snow 0 1012 95 2000 3 70 07:26 11.01.2020
4637 Snow 0 1012 95 6000 3 60 06:56 11.01.2020
4638 Snow 0 1012 95 2700 2 60 06:37 11.01.2020
4639 Clouds -1 1012 95 10000 2 70 05:18 11.01.2020
4640 Clouds 0 1012 95 9000 2 70 04:37 11.01.2020
4641 Clouds 0 1012 95 10000 2 100 04:19 11.01.2020
4642 Clouds 0 1013 92 10000 1 140 02:45 11.01.2020
4643 Clouds 0 1013 94 10000 2 170 01:45 11.01.2020
4644 Clouds 0 1013 92 10000 2 170 01:22 11.01.2020
4645 Clouds 0 1014 92 10000 2 200 00:51 11.01.2020
4646 Clouds 0 1014 92 10000 2 190 00:21 11.01.2020
4647 Clouds 1 1014 92 10000 1 0 23:56 10.01.2020
4648 Clouds 0 1014 92 10000 1 0 23:38 10.01.2020
4649 Clouds 0 1014 94 10000 1 0 23:20 10.01.2020
4650 Clouds 0 1014 94 10000 2 250 22:41 10.01.2020
4651 Clouds 0 1014 94 10000 2 250 22:22 10.01.2020
4652 Clouds 0 1014 94 10000 3 240 21:58 10.01.2020
4653 Clouds 0 1014 94 10000 4 250 21:40 10.01.2020
4654 Clouds 0 1014 94 10000 4 250 21:20 10.01.2020
4655 Clouds 0 1014 94 10000 3 260 20:56 10.01.2020
4656 Clouds 0 1014 94 10000 3 260 20:38 10.01.2020
4657 Clouds 1 1014 90 10000 3 260 20:19 10.01.2020
4658 Clouds 1 1013 90 10000 2 240 19:40 10.01.2020
4659 Clouds 1 1013 90 10000 2 240 19:40 10.01.2020
4660 Clouds 0 1013 90 10000 2 240 19:20 10.01.2020
4661 Clouds 0 1014 90 10000 4 260 18:55 10.01.2020
4662 Clouds 0 1014 90 10000 4 260 18:36 10.01.2020
4663 Clouds 0 1014 90 10000 4 260 18:18 10.01.2020
4664 Clouds 0 1014 90 10000 4 260 17:56 10.01.2020
4665 Clouds 1 1014 86 10000 5 250 17:37 10.01.2020
4666 Clouds 1 1014 86 10000 4 230 17:19 10.01.2020
4667 Clouds 1 1014 86 10000 4 230 17:19 10.01.2020
4668 Clouds 1 1014 86 10000 4 230 16:42 10.01.2020
4669 Clouds 1 1014 86 10000 4 230 16:21 10.01.2020
4670 Clouds 1 1014 80 10000 4 220 15:57 10.01.2020
4671 Clouds 1 1014 80 10000 3 220 15:38 10.01.2020
4672 Clouds 1 1014 80 10000 3 220 15:19 10.01.2020
4673 Clouds 1 1014 80 10000 4 260 14:58 10.01.2020
4674 Clouds 1 1014 80 10000 4 250 14:40 10.01.2020
4675 Clouds 1 1013 86 10000 5 250 14:19 10.01.2020
4676 Clouds 1 1013 86 10000 5 250 13:57 10.01.2020
4677 Clouds 1 1013 86 10000 4 250 13:37 10.01.2020
4678 Clouds 1 1013 86 10000 4 250 13:19 10.01.2020
4679 Clouds 1 1013 80 10000 5 260 12:56 10.01.2020
4680 Clouds 1 1013 86 10000 6 250 12:38 10.01.2020
4681 Clouds 1 1013 86 10000 5 250 12:18 10.01.2020
4682 Clouds 1 1013 86 10000 5 250 11:42 10.01.2020
4683 Clouds 1 1013 86 10000 5 250 11:22 10.01.2020
4684 Clouds 1 1013 86 10000 5 250 11:22 10.01.2020
4685 Clouds 2 1013 80 10000 6 250 10:59 10.01.2020
4686 Clouds 1 1013 80 10000 6 240 10:39 10.01.2020
4687 Clouds 1 1013 80 10000 6 240 10:21 10.01.2020
4688 Clouds 1 1014 86 10000 5 240 09:56 10.01.2020
4689 Clouds 1 1014 86 10000 6 250 09:37 10.01.2020
4690 Clouds 1 1014 86 10000 6 250 09:19 10.01.2020
4691 Clouds 1 1014 86 10000 6 250 09:19 10.01.2020
4692 Clouds 1 1014 86 10000 5 240 08:40 10.01.2020
4693 Clouds 1 1013 86 10000 5 250 08:22 10.01.2020
4694 Clouds 1 1013 86 10000 5 250 07:44 10.01.2020
4695 Clouds 1 1013 86 10000 5 250 07:24 10.01.2020
4696 Clouds 1 1013 86 10000 4 230 06:45 10.01.2020
4697 Clouds 1 1013 86 10000 4 230 06:25 10.01.2020
4698 Clouds 1 1013 86 10000 4 230 05:46 10.01.2020
4699 Clouds 1 1013 86 10000 5 240 03:37 10.01.2020
4700 Clouds 1 1013 86 10000 5 250 03:18 10.01.2020
4701 Clouds 1 1013 86 10000 5 250 02:47 10.01.2020
4702 Clouds 1 1013 86 10000 5 250 01:44 10.01.2020
4703 Clouds 1 1013 86 10000 5 240 01:26 10.01.2020
4704 Clouds 2 1013 86 10000 6 260 00:40 10.01.2020
4705 Clouds 2 1013 86 10000 5 250 23:58 09.01.2020
4706 Clouds 2 1013 86 10000 5 260 23:39 09.01.2020
4707 Clouds 2 1013 86 10000 5 260 23:20 09.01.2020
4708 Clouds 2 1013 86 10000 5 250 22:57 09.01.2020
4709 Clouds 2 1012 86 10000 5 250 22:39 09.01.2020
4710 Clouds 1 1012 86 10000 5 250 22:19 09.01.2020
4711 Clouds 1 1012 86 10000 5 250 21:57 09.01.2020
4712 Clouds 1 1012 86 10000 5 250 21:38 09.01.2020
4713 Clouds 1 1012 86 10000 5 250 21:19 09.01.2020
4714 Clouds 2 1012 86 10000 5 260 20:57 09.01.2020
4715 Clouds 2 1013 80 10000 4 270 20:39 09.01.2020
4716 Clouds 2 1013 80 10000 4 270 20:20 09.01.2020
4717 Clouds 2 1013 86 10000 4 270 19:57 09.01.2020
4718 Clouds 2 1012 90 10000 5 270 19:38 09.01.2020
4719 Clouds 2 1012 90 10000 5 270 19:19 09.01.2020
4720 Clouds 2 1012 80 10000 6 290 18:55 09.01.2020
4721 Clouds 2 1012 80 10000 7 280 18:36 09.01.2020
4722 Clouds 2 1012 80 10000 7 280 18:18 09.01.2020
4723 Clouds 2 1011 90 10000 6 250 17:41 09.01.2020
4724 Clouds 2 1011 91 10000 6 250 17:18 09.01.2020
4725 Clouds 2 1011 91 10000 5 260 16:55 09.01.2020
4726 Clouds 2 1011 91 10000 5 250 16:36 09.01.2020
4727 Clouds 2 1011 91 10000 5 250 16:18 09.01.2020
4728 Clouds 1 1010 91 10000 5 260 15:41 09.01.2020
4729 Clouds 2 1010 91 10000 5 260 15:19 09.01.2020
4730 Rain 2 1010 100 10000 5 250 14:55 09.01.2020
4731 Rain 2 1010 100 10000 5 260 14:36 09.01.2020
4732 Rain 2 1010 100 10000 5 260 14:18 09.01.2020
4733 Clouds 2 1010 100 10000 6 260 13:54 09.01.2020
4734 Clouds 2 1009 93 10000 5 260 13:36 09.01.2020
4735 Clouds 2 1009 93 10000 5 270 13:18 09.01.2020
4736 Clouds 1 1009 100 10000 6 260 12:41 09.01.2020
4737 Clouds 1 1009 100 10000 6 260 12:22 09.01.2020
4738 Rain 1 1009 88 10000 5 260 11:58 09.01.2020
4739 Rain 1 1009 88 10000 5 250 11:40 09.01.2020
4740 Rain 1 1009 97 10000 5 250 11:22 09.01.2020
4741 Snow 0 1009 97 9000 6 250 10:44 09.01.2020
4742 Clouds 0 1009 97 10000 6 260 10:23 09.01.2020
4743 Mist 0 1009 97 10000 7 250 09:59 09.01.2020
4744 Mist 0 1008 97 10000 6 250 09:40 09.01.2020
4745 Mist 0 1008 97 10000 6 250 09:21 09.01.2020
4746 Snow 0 1008 97 9000 6 250 08:55 09.01.2020
4747 Snow 0 1008 92 3500 6 240 08:37 09.01.2020
4748 Snow 0 1008 92 3500 6 240 08:19 09.01.2020
4749 Snow 0 1008 92 6000 6 230 07:42 09.01.2020
4750 Snow -1 1008 92 6000 6 230 07:24 09.01.2020
4751 Snow -1 1008 92 2300 6 220 06:39 09.01.2020
4752 Snow -1 1008 92 2300 6 220 06:20 09.01.2020
4753 Snow -1 1008 92 1300 5 220 05:50 09.01.2020
4754 Snow -1 1008 92 1300 5 220 05:50 09.01.2020
4755 Snow -1 1009 92 1600 6 210 04:45 09.01.2020
4756 Snow 0 1010 92 900 6 220 03:54 09.01.2020
4757 Snow 0 1010 92 2500 7 220 03:26 09.01.2020
4758 Snow 0 1010 85 10000 7 220 02:31 09.01.2020
4759 Snow 0 1011 85 10000 7 220 01:40 09.01.2020
4760 Clouds 0 1011 87 10000 7 220 00:44 09.01.2020
4761 Clouds 0 1011 87 10000 7 210 00:23 09.01.2020
4762 Clouds 1 1012 87 10000 7 220 23:58 08.01.2020
4763 Clouds 1 1012 87 10000 7 220 23:38 08.01.2020
4764 Clouds 1 1012 86 10000 7 220 23:19 08.01.2020
4765 Clouds 1 1013 74 10000 7 220 22:40 08.01.2020
4766 Clouds 1 1013 74 10000 7 220 22:40 08.01.2020
4767 Clouds 1 1013 74 10000 7 220 22:21 08.01.2020
4768 Clouds 1 1013 74 10000 7 220 21:58 08.01.2020
4769 Clouds 1 1013 74 10000 7 210 21:40 08.01.2020
4770 Clouds 1 1013 74 10000 7 210 21:20 08.01.2020
4771 Clouds 1 1014 86 10000 6 210 20:59 08.01.2020
4772 Clouds 1 1014 86 10000 6 210 20:40 08.01.2020
4773 Clouds 1 1014 85 10000 6 210 20:20 08.01.2020
4774 Clouds 1 1014 85 10000 6 210 20:20 08.01.2020
4775 Clouds 1 1015 85 10000 7 210 19:58 08.01.2020
4776 Clouds 1 1015 69 10000 6 210 19:38 08.01.2020
4777 Clouds 1 1015 69 10000 6 210 19:19 08.01.2020
4778 Clouds 1 1016 74 10000 5 200 18:57 08.01.2020
4779 Clouds 1 1016 74 10000 5 210 18:38 08.01.2020
4780 Clouds 1 1016 74 10000 5 210 18:18 08.01.2020
4781 Clouds 1 1017 74 10000 7 230 17:56 08.01.2020
4782 Clouds 1 1017 74 10000 7 230 17:37 08.01.2020
4783 Clouds 1 1017 74 10000 7 230 17:18 08.01.2020
4784 Clouds 1 1018 91 10000 6 230 17:18 08.01.2020
4785 Clouds 1 1018 91 10000 6 230 16:55 08.01.2020
4786 Snow 1 1018 91 10000 8 230 16:37 08.01.2020
4787 Snow 1 1018 91 10000 8 230 16:18 08.01.2020
4788 Snow 1 1018 91 10000 7 230 15:44 08.01.2020
4789 Snow 1 1018 91 10000 8 230 15:21 08.01.2020
4790 Snow 1 1018 91 10000 7 230 14:58 08.01.2020
4791 Snow 1 1018 91 10000 7 230 14:39 08.01.2020
4792 Snow 1 1018 90 10000 7 230 14:20 08.01.2020
4793 Snow 1 1019 90 8000 6 240 14:20 08.01.2020
4794 Snow 1 1019 90 8000 6 240 13:41 08.01.2020
4795 Snow 1 1019 90 4000 5 220 13:20 08.01.2020
4796 Snow 1 1019 90 6000 5 230 12:43 08.01.2020
4797 Clouds 1 1019 80 10000 6 240 12:20 08.01.2020
4798 Clouds 1 1019 80 10000 6 240 11:59 08.01.2020
4799 Clouds 1 1019 80 10000 6 240 11:41 08.01.2020
4800 Clouds 1 1019 80 10000 5 230 11:19 08.01.2020
4801 Clouds 1 1020 86 10000 6 240 10:57 08.01.2020
4802 Clouds 1 1020 92 10000 6 240 10:39 08.01.2020
4803 Clouds 1 1021 86 10000 4 240 10:19 08.01.2020
4804 Mist 0 1021 92 5000 5 230 09:42 08.01.2020
4805 Mist 0 1021 92 5000 5 230 09:20 08.01.2020
4806 Clouds 0 1021 92 10000 6 240 08:58 08.01.2020
4807 Clouds 0 1021 92 10000 6 240 08:39 08.01.2020
4808 Clouds 0 1021 95 10000 6 240 08:20 08.01.2020
4809 Clouds 0 1021 95 10000 5 230 07:51 08.01.2020
4810 Mist 0 1021 95 5000 5 240 07:33 08.01.2020
4811 Mist 0 1021 95 5000 6 240 06:58 08.01.2020
4812 Clouds 0 1021 95 9000 6 240 06:40 08.01.2020
4813 Drizzle 0 1021 95 4100 6 250 05:54 08.01.2020
4814 Drizzle 0 1021 94 4700 5 240 05:25 08.01.2020
4815 Mist 0 1021 94 4700 5 240 04:36 08.01.2020
4816 Mist 0 1022 94 4700 4 230 02:46 08.01.2020
4817 Clouds 0 1022 94 5000 5 230 02:28 08.01.2020
4818 Clouds 0 1022 95 10000 5 240 01:55 08.01.2020
4819 Clouds 0 1022 95 10000 5 240 01:29 08.01.2020
4820 Clouds 0 1022 95 10000 6 240 00:51 08.01.2020
4821 Clouds 0 1023 95 10000 5 230 00:22 08.01.2020
4822 Snow 0 1023 95 10000 4 230 23:46 07.01.2020
4823 Snow 0 1023 96 10000 4 230 23:20 07.01.2020
4824 Clouds 0 1023 92 10000 5 220 22:41 07.01.2020
4825 Clouds 0 1023 92 10000 5 220 22:21 07.01.2020
4826 Clouds 0 1023 92 10000 5 230 21:59 07.01.2020
4827 Clouds 0 1023 92 10000 5 230 21:59 07.01.2020
4828 Clouds -1 1023 92 10000 6 240 21:41 07.01.2020
4829 Clouds -1 1023 92 10000 6 240 21:21 07.01.2020
4830 Clouds -1 1024 92 10000 4 230 20:57 07.01.2020
4831 Clouds -1 1024 92 10000 4 250 20:39 07.01.2020
4832 Clouds -1 1024 92 10000 4 250 20:21 07.01.2020
4833 Clouds -1 1023 86 10000 5 250 19:56 07.01.2020
4834 Clouds -1 1023 92 10000 6 250 19:37 07.01.2020
4835 Clouds -1 1023 92 10000 6 250 19:18 07.01.2020
4836 Clouds -1 1023 92 10000 6 250 19:18 07.01.2020
4837 Clouds -1 1023 92 10000 6 250 19:18 07.01.2020
4838 Clouds -1 1023 86 10000 5 250 18:55 07.01.2020
4839 Snow 0 1023 86 10000 5 250 18:37 07.01.2020
4840 Snow 0 1023 86 10000 5 250 18:18 07.01.2020
4841 Snow -1 1023 86 10000 5 240 17:42 07.01.2020
4842 Snow -1 1023 86 10000 5 240 17:23 07.01.2020
4843 Snow -1 1023 86 10000 4 240 16:58 07.01.2020
4844 Clouds -1 1023 86 10000 5 240 16:39 07.01.2020
4845 Clouds -1 1023 86 10000 5 240 16:20 07.01.2020
4846 Clouds -1 1023 86 10000 5 230 15:59 07.01.2020
4847 Snow -1 1023 86 10000 4 240 15:41 07.01.2020
4848 Snow -1 1023 86 10000 4 240 15:23 07.01.2020
4849 Snow -1 1023 86 10000 5 230 14:57 07.01.2020
4850 Snow -1 1023 86 8000 5 240 14:37 07.01.2020
4851 Snow -1 1023 86 8000 5 240 14:19 07.01.2020
4852 Clouds -1 1023 80 10000 5 240 13:44 07.01.2020
4853 Clouds -1 1023 80 10000 5 240 13:20 07.01.2020
4854 Clouds -1 1022 80 10000 5 240 12:55 07.01.2020
4855 Clouds -1 1022 80 10000 5 240 12:36 07.01.2020
4856 Clouds -1 1022 80 10000 5 240 12:18 07.01.2020
4857 Clouds -2 1022 86 10000 5 240 11:41 07.01.2020
4858 Clouds -2 1022 86 10000 5 240 11:22 07.01.2020
4859 Clouds -2 1023 86 10000 5 250 10:55 07.01.2020
4860 Clouds -2 1022 79 10000 5 230 10:37 07.01.2020
4861 Clouds -2 1022 79 10000 5 230 10:19 07.01.2020
4862 Clouds -2 1022 79 10000 5 230 09:38 07.01.2020
4863 Clouds -1 1022 79 10000 5 230 09:20 07.01.2020
4864 Clouds -2 1022 79 10000 5 220 08:47 07.01.2020
4865 Clouds -2 1022 79 10000 5 220 08:28 07.01.2020
4866 Clouds -2 1022 79 10000 5 230 07:55 07.01.2020
4867 Clouds -2 1022 79 10000 4 230 07:35 07.01.2020
4868 Clouds -2 1022 79 10000 5 220 06:54 07.01.2020
4869 Clouds -2 1022 86 10000 5 220 06:35 07.01.2020
4870 Clouds -2 1022 79 10000 4 210 05:58 07.01.2020
4871 Clouds -2 1022 74 10000 4 220 05:39 07.01.2020
4872 Snow -2 1022 79 9000 5 220 03:44 07.01.2020
4873 Snow -2 1022 68 10000 5 220 02:47 07.01.2020
4874 Clouds -2 1022 68 10000 4 210 01:59 07.01.2020
4875 Clouds -2 1022 68 10000 4 220 01:35 07.01.2020
4876 Snow -2 1022 68 10000 4 220 00:55 07.01.2020
4877 Clouds -2 1022 68 10000 4 220 00:20 07.01.2020
4878 Clouds -2 1022 68 10000 4 220 23:56 06.01.2020
4879 Clouds -2 1022 68 10000 4 210 23:37 06.01.2020
4880 Clouds -2 1022 68 10000 4 210 23:19 06.01.2020
4881 Clouds -2 1022 68 10000 4 210 22:43 06.01.2020
4882 Clouds -2 1023 68 10000 4 210 22:24 06.01.2020
4883 Clouds -2 1023 68 10000 4 210 22:24 06.01.2020
4884 Clouds -2 1023 68 10000 5 210 21:58 06.01.2020
4885 Clouds -2 1023 68 10000 5 210 21:58 06.01.2020
4886 Clouds -2 1023 68 10000 4 210 21:39 06.01.2020
4887 Clouds -2 1023 68 10000 4 210 21:20 06.01.2020
4888 Clouds -2 1023 68 10000 4 210 21:20 06.01.2020
4889 Clouds -2 1023 68 10000 4 210 21:20 06.01.2020
4890 Clouds -2 1023 68 10000 4 200 20:57 06.01.2020
4891 Clouds -2 1023 68 10000 4 200 20:39 06.01.2020
4892 Clouds -2 1023 68 10000 4 200 20:20 06.01.2020
4893 Clouds -2 1023 74 10000 4 200 19:57 06.01.2020
4894 Clouds -2 1023 68 10000 4 210 19:38 06.01.2020
4895 Clouds -2 1023 68 10000 4 210 19:20 06.01.2020
4896 Clouds -1 1023 63 10000 4 210 18:48 06.01.2020
4897 Clouds -2 1024 68 10000 4 210 18:48 06.01.2020
4898 Clouds -2 1024 68 10000 4 210 18:23 06.01.2020
4899 Clouds -2 1024 68 10000 4 220 17:59 06.01.2020
4900 Clouds -1 1024 68 10000 4 210 17:39 06.01.2020
4901 Snow -1 1024 68 10000 4 230 17:19 06.01.2020
4902 Clouds -1 1024 63 10000 5 230 16:47 06.01.2020
4903 Clouds -1 1024 63 10000 5 230 16:27 06.01.2020
4904 Clouds -1 1024 63 10000 5 240 15:59 06.01.2020
4905 Clouds -1 1024 74 10000 4 260 15:41 06.01.2020
4906 Clouds -1 1024 74 10000 4 260 15:20 06.01.2020
4907 Clouds -1 1024 68 10000 5 260 14:59 06.01.2020
4908 Clouds -1 1023 68 10000 4 240 14:40 06.01.2020
4909 Clouds -1 1023 68 10000 4 240 14:20 06.01.2020
4910 Clouds 0 1024 68 10000 4 230 13:57 06.01.2020
4911 Clouds 0 1024 68 10000 4 230 13:57 06.01.2020
4912 Clouds 0 1024 74 10000 4 240 13:37 06.01.2020
4913 Clouds 0 1024 74 10000 4 240 13:19 06.01.2020
4914 Clouds -1 1024 80 10000 4 250 12:43 06.01.2020
4915 Clouds 0 1024 80 10000 4 250 12:21 06.01.2020
4916 Clouds 0 1024 80 10000 4 250 11:58 06.01.2020
4917 Clouds 0 1024 86 10000 4 240 11:39 06.01.2020
4918 Clouds 0 1024 86 10000 4 240 11:21 06.01.2020
4919 Clouds 0 1024 86 10000 4 210 10:57 06.01.2020
4920 Clouds -1 1024 86 10000 3 210 10:39 06.01.2020
4921 Clouds 0 1024 86 10000 3 210 10:20 06.01.2020
4922 Clouds -1 1024 86 10000 2 260 09:38 06.01.2020
4923 Clouds 0 1024 86 10000 2 260 09:19 06.01.2020
4924 Snow 0 1024 86 10000 2 260 08:46 06.01.2020
4925 Clouds 0 1024 86 10000 2 270 08:26 06.01.2020
4926 Clouds -1 1024 86 10000 2 310 07:53 06.01.2020
4927 Clouds -1 1024 92 10000 2 280 07:32 06.01.2020
4928 Snow -1 1023 86 10000 3 320 06:46 06.01.2020
4929 Snow -1 1023 86 10000 3 320 06:23 06.01.2020
4930 Snow 0 1022 86 10000 2 330 05:45 06.01.2020
4931 Snow 0 1022 86 10000 3 290 04:52 06.01.2020
4932 Snow -1 1022 86 10000 3 300 04:19 06.01.2020
4933 Snow -1 1021 92 10000 4 300 02:56 06.01.2020
4934 Clouds -1 1021 92 10000 4 300 02:24 06.01.2020
4935 Clouds -1 1021 92 10000 3 290 01:45 06.01.2020
4936 Snow -1 1021 92 10000 3 300 01:26 06.01.2020
4937 Clouds 0 1020 86 10000 4 290 00:42 06.01.2020
4938 Clouds 0 1020 86 10000 4 290 00:23 06.01.2020
4939 Snow 0 1019 86 10000 4 290 23:43 05.01.2020
4940 Snow 0 1019 86 10000 4 290 23:23 05.01.2020
4941 Snow 0 1019 80 10000 4 290 22:57 05.01.2020
4942 Snow 0 1019 80 9000 4 290 22:38 05.01.2020
4943 Snow 0 1019 80 9000 4 290 22:20 05.01.2020
4944 Clouds 0 1018 91 10000 5 280 21:55 05.01.2020
4945 Clouds 0 1018 91 10000 4 280 21:37 05.01.2020
4946 Clouds 0 1018 91 10000 4 280 21:19 05.01.2020
4947 Clouds 0 1018 91 10000 4 280 21:19 05.01.2020
4948 Clouds 0 1018 74 10000 4 270 20:55 05.01.2020
4949 Clouds 0 1017 74 10000 4 270 20:37 05.01.2020
4950 Clouds 0 1017 74 10000 4 270 20:19 05.01.2020
4951 Clouds 0 1017 80 10000 4 270 19:56 05.01.2020
4952 Clouds 0 1017 74 10000 4 260 19:37 05.01.2020
4953 Clouds 0 1017 74 10000 4 260 19:19 05.01.2020
4954 Clouds 0 1016 74 10000 4 260 18:54 05.01.2020
4955 Clouds 0 1016 74 10000 4 260 18:36 05.01.2020
4956 Clouds 0 1016 74 10000 4 260 18:36 05.01.2020
4957 Clouds 0 1016 74 10000 4 260 18:18 05.01.2020
4958 Clouds 0 1015 74 10000 4 270 17:55 05.01.2020
4959 Clouds 0 1015 74 10000 4 270 17:55 05.01.2020
4960 Clouds 0 1015 68 10000 4 280 17:37 05.01.2020
4961 Clouds 0 1015 68 10000 4 280 17:18 05.01.2020
4962 Clouds 0 1014 90 10000 4 290 16:55 05.01.2020
4963 Clouds 0 1014 90 10000 6 280 16:36 05.01.2020
4964 Clouds 0 1014 90 10000 5 290 16:18 05.01.2020
4965 Clouds 0 1013 90 10000 4 300 15:36 05.01.2020
4966 Clouds 0 1013 90 10000 4 300 15:36 05.01.2020
4967 Clouds 0 1013 90 10000 4 300 15:18 05.01.2020
4968 Clouds 0 1013 90 10000 5 300 14:54 05.01.2020
4969 Clouds 1 1012 90 10000 4 280 14:36 05.01.2020
4970 Clouds 1 1012 84 10000 4 280 14:18 05.01.2020
4971 Clouds 1 1011 74 10000 6 290 13:40 05.01.2020
4972 Clouds 1 1011 74 10000 6 290 13:40 05.01.2020
4973 Clouds 1 1011 74 10000 6 290 13:21 05.01.2020
4974 Clouds 1 1010 80 10000 5 270 12:58 05.01.2020
4975 Clouds 1 1009 80 10000 5 270 12:39 05.01.2020
4976 Clouds 1 1009 80 10000 5 270 12:21 05.01.2020
4977 Clouds 1 1009 80 10000 6 280 11:58 05.01.2020
4978 Clouds 1 1009 80 10000 6 280 11:39 05.01.2020
4979 Clouds 1 1009 80 10000 6 280 11:39 05.01.2020
4980 Clouds 2 1009 80 10000 6 260 11:19 05.01.2020
4981 Clouds 2 1009 80 10000 6 260 11:19 05.01.2020
4982 Clouds 1 1009 80 10000 5 250 10:56 05.01.2020
4983 Clouds 1 1008 81 10000 6 250 10:36 05.01.2020
4984 Clouds 1 1008 81 10000 6 250 10:36 05.01.2020
4985 Clouds 1 1008 81 10000 6 250 10:36 05.01.2020
4986 Clouds 1 1008 81 10000 6 250 10:18 05.01.2020
4987 Clouds 1 1008 81 10000 6 250 09:41 05.01.2020
4988 Clouds 1 1008 81 10000 6 250 09:21 05.01.2020
4989 Clouds 0 1007 81 10000 6 240 08:48 05.01.2020
4990 Clouds 1 1006 81 10000 5 250 08:29 05.01.2020
4991 Clouds 0 1006 78 10000 6 250 07:55 05.01.2020
4992 Clouds 0 1005 78 10000 5 240 07:36 05.01.2020
4993 Clouds 0 1005 78 10000 6 240 06:59 05.01.2020
4994 Clouds 0 1004 78 10000 5 240 05:58 05.01.2020
4995 Clouds 0 1003 78 10000 6 240 05:30 05.01.2020
4996 Clouds 0 1002 90 10000 6 240 04:43 05.01.2020
4997 Clouds 0 1002 90 10000 6 240 03:52 05.01.2020
4998 Clouds 1 1001 90 10000 5 250 02:46 05.01.2020
4999 Clouds 1 1001 90 10000 5 250 02:46 05.01.2020
5000 Clouds 1 1001 92 10000 6 260 02:23 05.01.2020
5001 Snow 1 1000 92 10000 5 250 01:48 05.01.2020
5002 Snow 0 1000 89 10000 7 240 01:18 05.01.2020
5003 Snow 0 999 89 10000 6 230 00:41 05.01.2020
5004 Clouds 0 999 89 10000 5 220 00:23 05.01.2020
5005 Clouds 1 999 89 10000 5 220 23:59 04.01.2020
5006 Clouds 1 999 89 10000 5 220 23:59 04.01.2020
5007 Clouds 1 998 89 10000 5 210 23:39 04.01.2020
5008 Clouds 1 998 79 10000 5 210 23:19 04.01.2020
5009 Clouds 0 998 79 10000 5 220 22:40 04.01.2020
5010 Clouds 0 998 79 10000 5 220 22:22 04.01.2020
5011 Clouds 0 998 92 10000 4 220 21:57 04.01.2020
5012 Clouds 0 998 92 10000 5 210 21:39 04.01.2020
5013 Clouds 0 998 92 10000 5 210 21:20 04.01.2020
5014 Clouds 0 998 92 10000 4 200 20:59 04.01.2020
5015 Clouds 0 998 79 10000 6 230 20:40 04.01.2020
5016 Clouds 0 998 90 10000 6 230 20:21 04.01.2020
5017 Snow 0 998 92 10000 6 220 19:56 04.01.2020
5018 Clouds 0 997 92 9000 6 230 19:38 04.01.2020
5019 Clouds 0 997 92 10000 6 230 19:19 04.01.2020
5020 Clouds 0 997 92 10000 6 230 18:54 04.01.2020
5021 Clouds -1 997 92 10000 6 230 18:36 04.01.2020
5022 Clouds -1 997 86 10000 5 220 18:18 04.01.2020
5023 Clouds 0 997 86 10000 6 220 17:41 04.01.2020
5024 Clouds -1 997 86 10000 6 220 17:23 04.01.2020
5025 Clouds -1 997 86 10000 7 230 16:58 04.01.2020
5026 Snow -1 997 86 9000 5 230 16:39 04.01.2020
5027 Snow 0 997 86 9000 5 230 16:21 04.01.2020
5028 Snow 0 997 86 8000 6 220 15:54 04.01.2020
5029 Snow 0 997 86 9000 6 220 15:36 04.01.2020
5030 Snow 0 997 86 9000 6 220 15:18 04.01.2020
5031 Snow 0 997 86 3700 4 210 14:42 04.01.2020
5032 Snow 0 997 92 1300 4 210 14:20 04.01.2020
5033 Snow 0 997 92 2100 3 200 13:59 04.01.2020
5034 Snow 0 997 92 900 4 220 13:38 04.01.2020
5035 Snow 0 997 92 900 4 220 13:19 04.01.2020
5036 Snow 0 998 92 1600 5 220 12:57 04.01.2020
5037 Snow 0 997 92 2400 4 210 12:39 04.01.2020
5038 Snow 0 997 92 2400 4 210 12:39 04.01.2020
5039 Snow 0 997 92 2400 4 210 12:18 04.01.2020
5040 Snow -1 998 86 9000 5 210 11:57 04.01.2020
5041 Clouds -1 999 86 10000 6 220 11:37 04.01.2020
5042 Clouds 0 999 86 10000 6 220 11:18 04.01.2020
5043 Clouds -1 999 86 10000 6 220 10:41 04.01.2020
5044 Clouds -1 999 86 10000 6 220 10:22 04.01.2020
5045 Clouds -1 1000 86 10000 5 210 09:48 04.01.2020
5046 Clouds -1 1000 86 10000 6 210 09:26 04.01.2020
5047 Clouds -1 1000 86 10000 5 210 08:49 04.01.2020
5048 Clouds -1 1001 86 10000 5 210 08:29 04.01.2020
5049 Clouds -1 1001 86 10000 6 230 07:59 04.01.2020
5050 Clouds -1 1001 86 10000 6 220 07:40 04.01.2020
5051 Clouds -1 1001 86 10000 5 230 06:46 04.01.2020
5052 Clouds -1 1002 86 10000 7 240 05:59 04.01.2020
5053 Clouds -1 1002 86 10000 7 230 05:18 04.01.2020
5054 Clouds -1 1002 86 10000 8 230 04:32 04.01.2020
5055 Clouds -1 1002 80 10000 7 220 03:39 04.01.2020
5056 Clouds -1 1002 80 10000 7 220 03:18 04.01.2020
5057 Clouds -1 1003 86 10000 7 240 02:20 04.01.2020
5058 Clouds -2 1002 92 10000 5 210 01:53 04.01.2020
5059 Clouds -1 1004 86 10000 7 230 01:30 04.01.2020
5060 Clouds -1 1004 86 10000 7 230 00:30 04.01.2020
5061 Clouds -1 1005 86 10000 7 230 23:59 03.01.2020
5062 Clouds -1 1005 86 10000 6 220 23:38 03.01.2020
5063 Clouds -1 1005 86 10000 6 220 23:20 03.01.2020
5064 Clouds -1 1005 86 10000 7 220 22:41 03.01.2020
5065 Clouds -1 1005 86 10000 7 220 22:20 03.01.2020
5066 Clouds -1 1006 86 10000 7 230 21:58 03.01.2020
5067 Clouds 0 1006 92 10000 7 230 21:38 03.01.2020
5068 Clouds 0 1006 92 10000 7 230 21:19 03.01.2020
5069 Clouds 0 1006 92 10000 7 220 20:58 03.01.2020
5070 Clouds 0 1006 92 10000 7 220 20:40 03.01.2020
5071 Clouds 0 1006 91 10000 7 230 20:18 03.01.2020
5072 Clouds 0 1007 91 10000 6 230 19:55 03.01.2020
5073 Clouds 0 1007 91 10000 6 230 19:55 03.01.2020
5074 Clouds 0 1007 91 10000 7 230 19:37 03.01.2020
5075 Clouds 0 1007 91 10000 7 230 19:18 03.01.2020
5076 Clouds 0 1007 91 10000 6 230 18:43 03.01.2020
5077 Clouds 0 1007 91 10000 7 230 18:24 03.01.2020
5078 Clouds 0 1007 91 10000 6 220 17:55 03.01.2020
5079 Clouds 0 1007 91 10000 6 220 17:37 03.01.2020
5080 Clouds 0 1007 91 10000 6 220 17:37 03.01.2020
5081 Clouds 1 1007 92 10000 6 220 17:18 03.01.2020
5082 Clouds 0 1007 92 10000 6 220 17:18 03.01.2020
5083 Clouds 1 1007 86 10000 6 220 16:42 03.01.2020
5084 Clouds 1 1007 86 10000 6 220 16:22 03.01.2020
5085 Clouds 1 1008 86 10000 7 230 15:44 03.01.2020
5086 Clouds 1 1008 86 10000 7 230 15:19 03.01.2020
5087 Clouds 1 1008 86 10000 6 220 14:59 03.01.2020
5088 Clouds 2 1008 86 10000 7 230 14:38 03.01.2020
5089 Clouds 2 1008 86 10000 7 230 14:19 03.01.2020
5090 Clouds 2 1008 90 10000 8 230 13:44 03.01.2020
5091 Clouds 2 1008 90 10000 8 230 13:44 03.01.2020
5092 Clouds 2 1008 90 10000 8 230 13:44 03.01.2020
5093 Clouds 2 1008 91 10000 8 230 13:24 03.01.2020
5094 Clouds 2 1008 91 10000 8 240 12:59 03.01.2020
5095 Clouds 2 1008 91 10000 8 240 12:39 03.01.2020
5096 Clouds 2 1008 91 10000 8 240 12:21 03.01.2020
5097 Clouds 2 1008 91 10000 8 240 11:45 03.01.2020
5098 Clouds 2 1009 94 10000 8 240 11:23 03.01.2020
5099 Clouds 2 1009 94 10000 8 230 10:46 03.01.2020
5100 Clouds 2 1009 94 10000 7 230 10:27 03.01.2020
5101 Clouds 2 1009 94 10000 8 240 09:58 03.01.2020
5102 Clouds 2 1010 94 10000 8 230 09:40 03.01.2020
5103 Clouds 1 1010 94 10000 8 230 09:22 03.01.2020
5104 Drizzle 2 1010 94 10000 7 230 08:57 03.01.2020
5105 Drizzle 1 1010 94 10000 7 230 08:38 03.01.2020
5106 Drizzle 2 1010 94 10000 7 230 08:19 03.01.2020
5107 Drizzle 2 1010 94 10000 8 240 07:40 03.01.2020
5108 Drizzle 1 1010 94 10000 8 240 07:19 03.01.2020
5109 Clouds 2 1010 94 10000 7 240 06:51 03.01.2020
5110 Clouds 1 1010 94 9000 7 240 06:33 03.01.2020
5111 Clouds 1 1009 100 9000 7 240 05:47 03.01.2020
5112 Clouds 1 1010 100 10000 7 250 04:27 03.01.2020
5113 Clouds 2 1010 100 10000 6 260 02:59 03.01.2020
5114 Clouds 2 1010 93 10000 6 250 02:41 03.01.2020
5115 Clouds 2 1010 93 10000 5 240 01:45 03.01.2020
5116 Clouds 2 1011 100 10000 5 240 00:53 03.01.2020
5117 Clouds 2 1011 93 10000 5 250 00:31 03.01.2020
5118 Clouds 2 1011 95 10000 5 260 23:58 02.01.2020
5119 Clouds 2 1010 93 10000 5 260 23:39 02.01.2020
5120 Clouds 2 1010 93 10000 5 260 23:19 02.01.2020
5121 Clouds 2 1010 96 10000 5 270 22:57 02.01.2020
5122 Clouds 2 1010 96 10000 5 280 22:39 02.01.2020
5123 Clouds 2 1010 96 10000 5 280 22:18 02.01.2020
5124 Drizzle 2 1010 93 10000 6 290 21:54 02.01.2020
5125 Drizzle 2 1009 96 10000 5 270 21:36 02.01.2020
5126 Drizzle 2 1009 96 10000 5 270 21:18 02.01.2020
5127 Drizzle 2 1010 96 10000 5 280 20:40 02.01.2020
5128 Drizzle 2 1010 92 10000 5 280 20:21 02.01.2020
5129 Drizzle 2 1009 92 9000 5 270 19:56 02.01.2020
5130 Drizzle 2 1009 92 9000 5 270 19:56 02.01.2020
5131 Drizzle 2 1009 92 9000 5 260 19:38 02.01.2020
5132 Drizzle 2 1009 92 9000 5 260 19:19 02.01.2020
5133 Drizzle 2 1009 92 9000 5 260 18:59 02.01.2020
5134 Drizzle 2 1009 92 9000 5 260 18:40 02.01.2020
5135 Drizzle 2 1009 92 9000 4 250 18:22 02.01.2020
5136 Drizzle 2 1009 92 9000 4 250 18:22 02.01.2020
5137 Drizzle 2 1009 92 9000 4 250 18:22 02.01.2020
5138 Drizzle 2 1009 92 9000 5 260 17:57 02.01.2020
5139 Drizzle 2 1008 92 9000 6 270 17:38 02.01.2020
5140 Drizzle 2 1008 92 9000 6 270 17:19 02.01.2020
5141 Drizzle 2 1008 92 9000 5 270 16:57 02.01.2020
5142 Clouds 2 1008 92 10000 6 280 16:38 02.01.2020
5143 Clouds 2 1008 92 10000 6 280 16:20 02.01.2020
5144 Clouds 2 1008 92 10000 6 280 15:56 02.01.2020
5145 Clouds 1 1007 92 10000 5 280 15:37 02.01.2020
5146 Clouds 1 1007 92 10000 6 280 15:19 02.01.2020
5147 Clouds 1 1007 92 10000 6 280 14:55 02.01.2020
5148 Clouds 1 1007 92 10000 6 260 14:36 02.01.2020
5149 Clouds 1 1006 89 10000 8 260 14:18 02.01.2020
5150 Clouds 1 1006 89 10000 8 260 13:47 02.01.2020
5151 Rain 1 1006 89 10000 7 260 13:29 02.01.2020
5152 Snow 1 1006 89 6000 7 260 12:45 02.01.2020
5153 Rain 1 1006 89 3800 7 260 12:25 02.01.2020
5154 Rain 1 1006 89 3800 7 260 12:25 02.01.2020
5155 Rain 1 1006 89 2800 6 260 11:44 02.01.2020
5156 Rain 1 1006 89 2800 6 260 11:26 02.01.2020
5157 Rain 1 1006 97 7000 7 260 10:58 02.01.2020
5158 Snow 0 1006 97 5000 7 250 10:39 02.01.2020
5159 Snow 0 1006 97 5000 7 250 10:19 02.01.2020
5160 Snow 0 1007 97 2300 7 250 09:42 02.01.2020
5161 Snow 0 1007 97 2300 7 250 09:24 02.01.2020
5162 Snow 0 1006 97 2200 7 240 08:45 02.01.2020
5163 Snow 0 1006 97 2200 7 240 08:45 02.01.2020
5164 Snow 0 1007 97 2200 7 250 08:27 02.01.2020
5165 Snow 0 1007 95 3700 8 240 07:50 02.01.2020
5166 Snow 0 1006 95 8000 7 240 07:30 02.01.2020
5167 Snow 0 1006 95 6000 7 240 06:45 02.01.2020
5168 Snow 0 1007 95 3600 7 240 06:26 02.01.2020
5169 Snow -1 1007 95 10000 7 240 05:21 02.01.2020
5170 Snow -1 1008 92 5000 6 240 04:31 02.01.2020
5171 Snow -1 1009 92 3300 5 230 02:37 02.01.2020
5172 Snow -1 1010 92 9000 6 240 01:58 02.01.2020
5173 Snow -1 1010 92 7000 5 220 01:33 02.01.2020
5174 Snow -1 1010 92 7000 5 220 01:33 02.01.2020
5175 Snow -2 1010 92 9000 5 220 00:57 02.01.2020
5176 Snow -2 1011 92 7000 6 240 00:33 02.01.2020
5177 Clouds -2 1011 92 7000 6 240 23:49 01.01.2020
5178 Clouds -2 1011 100 8000 6 240 23:27 01.01.2020
5179 Clouds -2 1011 92 7000 5 240 22:56 01.01.2020
5180 Clouds -2 1011 92 10000 6 240 22:38 01.01.2020
5181 Clouds -2 1011 92 10000 6 240 22:19 01.01.2020
5182 Clouds -2 1011 92 8000 6 250 21:56 01.01.2020
5183 Clouds -2 1012 92 9000 5 260 21:37 01.01.2020
5184 Clouds -2 1012 92 9000 5 260 21:18 01.01.2020
5185 Clouds -2 1012 92 9000 5 250 20:54 01.01.2020
5186 Clouds -2 1012 86 10000 5 260 20:36 01.01.2020
5187 Clouds -2 1012 86 10000 5 260 20:18 01.01.2020
5188 Clouds -2 1012 86 10000 5 260 19:54 01.01.2020
5189 Clouds -2 1012 86 10000 5 260 19:36 01.01.2020
5190 Clouds -2 1012 86 10000 5 260 19:18 01.01.2020
5191 Clouds -2 1011 79 10000 4 280 18:54 01.01.2020
5192 Clouds -2 1011 79 10000 5 270 18:36 01.01.2020
5193 Clouds -2 1011 79 10000 5 270 18:18 01.01.2020
5194 Clouds -2 1011 79 10000 5 280 17:55 01.01.2020
5195 Clouds -3 1011 79 10000 6 290 17:36 01.01.2020
5196 Clouds -3 1011 79 10000 6 290 17:18 01.01.2020
5197 Clouds -3 1011 79 10000 5 270 16:39 01.01.2020
5198 Clouds -3 1011 79 10000 5 270 16:20 01.01.2020
5199 Clouds -4 1011 79 10000 5 260 15:57 01.01.2020
5200 Clouds -4 1011 79 10000 5 260 15:39 01.01.2020
5201 Clouds -4 1011 79 10000 5 260 15:20 01.01.2020
5202 Clouds -3 1011 79 10000 5 280 14:56 01.01.2020
5203 Clear -3 1010 73 10000 5 280 14:38 01.01.2020
5204 Clouds -3 1010 73 10000 5 280 14:20 01.01.2020
5205 Clouds -3 1010 68 10000 5 300 13:55 01.01.2020
5206 Clouds -2 1009 68 10000 6 310 13:37 01.01.2020
5207 Clouds -2 1009 68 10000 6 310 13:37 01.01.2020
5208 Clouds -2 1009 68 10000 6 310 13:18 01.01.2020
5209 Clouds -2 1009 73 10000 6 320 12:55 01.01.2020
5210 Clouds -2 1009 68 10000 7 310 12:37 01.01.2020
5211 Clouds -2 1009 68 10000 7 310 12:18 01.01.2020
5212 Clouds -2 1009 63 10000 6 310 11:43 01.01.2020
5213 Snow -2 1008 74 10000 6 320 11:21 01.01.2020
5214 Snow -2 1008 79 9000 5 330 10:58 01.01.2020
5215 Snow -2 1008 74 10000 5 340 10:39 01.01.2020
5216 Snow -2 1008 74 10000 5 340 10:20 01.01.2020
5217 Snow -2 1007 68 10000 5 340 09:55 01.01.2020
5218 Clouds -1 1007 68 10000 5 340 09:36 01.01.2020
5219 Clouds -1 1007 68 10000 5 340 09:18 01.01.2020
5220 Clouds -1 1006 74 10000 5 340 08:54 01.01.2020
5221 Clouds -1 1005 74 10000 8 340 08:36 01.01.2020
5222 Clouds -1 1005 74 10000 8 340 08:18 01.01.2020
5223 Clouds 0 1004 90 10000 6 350 07:45 01.01.2020
5224 Snow 0 1004 80 10000 7 340 07:26 01.01.2020
5225 Snow 1 1003 90 7000 5 360 06:44 01.01.2020
5226 Snow 1 1002 90 9000 7 350 06:19 01.01.2020
5227 Snow 1 1000 86 4000 7 350 04:44 01.01.2020
5228 Rain 1 997 90 9000 4 330 03:43 01.01.2020
5229 Rain 1 997 90 9000 4 330 03:22 01.01.2020
5230 Rain 1 997 90 8000 5 320 02:55 01.01.2020
5231 Rain 1 996 90 10000 5 310 02:32 01.01.2020
5232 Rain 1 995 97 10000 5 310 01:45 01.01.2020
5233 Drizzle 1 995 97 10000 4 300 01:25 01.01.2020
5234 Drizzle 2 995 97 8000 5 300 00:57 01.01.2020
5235 Snow 2 995 100 7000 4 290 00:38 01.01.2020
5236 Snow 2 995 100 7000 4 290 00:20 01.01.2020
5237 Drizzle 2 994 97 10000 5 280 23:40 31.12.2019
5238 Drizzle 2 994 97 10000 5 280 23:21 31.12.2019
5239 Drizzle 2 994 97 9000 5 280 22:57 31.12.2019
5240 Clouds 2 993 97 9000 5 280 22:38 31.12.2019
5241 Rain 2 993 97 9000 5 280 22:18 31.12.2019
5242 Rain 2 993 97 10000 5 280 21:56 31.12.2019
5243 Rain 2 993 97 10000 5 270 21:37 31.12.2019
5244 Rain 2 993 97 10000 5 270 21:19 31.12.2019
5245 Rain 2 993 97 10000 5 270 21:19 31.12.2019
5246 Rain 2 993 93 10000 5 280 20:54 31.12.2019
5247 -273 0 0 0 0 0 20:36 31.12.2019
5248 Clouds 2 992 93 9000 5 270 20:18 31.12.2019
5249 Rain 2 992 93 9000 6 260 19:41 31.12.2019
5250 Rain 2 992 93 9000 6 260 19:22 31.12.2019
5251 Clouds 2 992 93 10000 6 260 18:59 31.12.2019
5252 Clouds 2 992 100 10000 6 260 18:40 31.12.2019
5253 Clouds 2 992 100 10000 6 260 18:20 31.12.2019
5254 Rain 2 992 100 10000 6 260 17:56 31.12.2019
5255 Snow 1 992 97 10000 6 250 17:38 31.12.2019
5256 Snow 1 992 97 10000 6 250 17:19 31.12.2019
5257 Snow 2 992 93 9000 7 250 16:57 31.12.2019
5258 Snow 2 992 93 10000 6 250 16:38 31.12.2019
5259 Snow 2 992 93 10000 6 250 16:19 31.12.2019
5260 Clouds 2 992 100 9000 6 260 15:57 31.12.2019
5261 Clouds 1 991 97 10000 6 260 15:39 31.12.2019
5262 Clouds 1 991 97 10000 6 260 15:21 31.12.2019
5263 Snow 1 991 97 10000 6 250 14:58 31.12.2019
5264 Snow 1 991 97 10000 6 260 14:39 31.12.2019
5265 Snow 1 991 98 10000 6 260 14:19 31.12.2019
5266 Snow 1 992 98 10000 5 250 13:58 31.12.2019
5267 Snow 1 991 98 8000 5 240 13:40 31.12.2019
5268 Snow 1 991 98 8000 5 240 13:21 31.12.2019
5269 Snow 1 991 100 10000 6 250 12:58 31.12.2019
5270 Clouds 1 991 98 10000 5 250 12:40 31.12.2019
5271 Clouds 1 991 98 10000 5 250 12:20 31.12.2019
5272 Clouds 1 992 98 10000 5 240 11:56 31.12.2019
5273 Clouds 1 992 98 10000 5 250 11:38 31.12.2019
5274 Clouds 1 992 97 10000 5 250 11:20 31.12.2019
5275 Clouds 1 992 97 10000 5 240 10:58 31.12.2019
5276 Clouds 1 992 97 10000 5 250 10:38 31.12.2019
5277 Clouds 1 992 97 10000 5 250 10:20 31.12.2019
5278 Clouds 1 992 97 10000 6 240 09:59 31.12.2019
5279 Clouds 1 993 97 10000 7 250 09:39 31.12.2019
5280 Clouds 1 993 97 10000 7 250 09:20 31.12.2019
5281 Clouds 1 992 97 10000 9 250 08:57 31.12.2019
5282 Clouds 1 992 97 10000 8 250 08:39 31.12.2019
5283 Clouds 1 992 97 10000 8 250 08:19 31.12.2019
5284 Drizzle 1 993 97 10000 7 250 07:43 31.12.2019
5285 Drizzle 1 993 97 10000 7 250 07:20 31.12.2019
5286 Drizzle 1 993 97 9000 8 250 06:50 31.12.2019
5287 Rain 1 994 97 10000 6 260 05:57 31.12.2019
5288 Clouds 0 994 93 10000 8 250 04:29 31.12.2019
5289 Drizzle 0 994 93 10000 8 250 03:28 31.12.2019
5290 Drizzle 0 994 93 6000 8 250 02:54 31.12.2019
5291 Drizzle 0 994 93 6000 8 250 02:54 31.12.2019
5292 Mist 0 994 85 4300 7 250 02:18 31.12.2019
5293 Mist 0 995 85 4500 8 250 01:42 31.12.2019
5294 Snow 0 995 91 9000 8 250 01:23 31.12.2019
5295 Snow -1 995 91 2400 9 250 00:46 31.12.2019
5296 Snow -1 995 91 2400 9 250 00:22 31.12.2019
5297 Snow 0 996 91 5000 10 250 23:56 30.12.2019
5298 Snow -1 996 92 2100 9 250 23:38 30.12.2019
5299 Snow -1 996 92 2100 9 250 23:20 30.12.2019
5300 Snow -1 997 94 10000 11 250 22:58 30.12.2019
5301 Clouds 0 997 94 7000 10 250 22:39 30.12.2019
5302 Clouds -1 997 94 7000 10 250 22:20 30.12.2019
5303 Clouds -1 997 94 9000 10 240 21:57 30.12.2019
5304 Clouds -1 998 94 6000 10 250 21:38 30.12.2019
5305 Clouds -1 998 94 6000 10 250 21:38 30.12.2019
5306 Clouds -1 998 94 6000 10 250 21:19 30.12.2019
5307 Mist -1 998 94 4800 10 250 20:56 30.12.2019
5308 Mist -1 999 94 3500 10 250 20:38 30.12.2019
5309 Mist -1 999 92 3500 10 250 20:20 30.12.2019
5310 Mist -1 999 92 5000 10 240 19:57 30.12.2019
5311 Clouds -1 1000 92 5000 9 240 19:38 30.12.2019
5312 Clouds -1 1000 92 5000 9 240 19:19 30.12.2019
5313 Clouds -1 1000 92 6000 9 240 18:57 30.12.2019
5314 Snow -1 1001 86 6000 9 230 18:38 30.12.2019
5315 Snow -1 1001 86 6000 9 230 18:20 30.12.2019
5316 Snow -1 1002 86 3000 9 230 17:55 30.12.2019
5317 Snow -1 1003 92 4300 10 230 17:37 30.12.2019
5318 Snow -2 1003 92 4300 10 230 17:18 30.12.2019
5319 Snow -2 1003 92 4400 9 230 16:57 30.12.2019
5320 Snow -2 1004 86 8000 10 230 16:37 30.12.2019
5321 Snow -2 1004 86 8000 10 230 16:37 30.12.2019
5322 Snow -2 1004 86 8000 10 230 16:18 30.12.2019
5323 Snow -2 1005 86 4500 7 220 15:55 30.12.2019
5324 Snow -3 1006 92 1200 7 220 15:37 30.12.2019
5325 Snow -3 1007 86 2600 7 220 15:18 30.12.2019
5326 Snow -3 1008 86 2300 7 220 14:43 30.12.2019
5327 Snow -3 1007 86 2600 7 220 14:43 30.12.2019
5328 Snow -3 1008 86 2300 7 220 14:20 30.12.2019
5329 Snow -3 1009 86 2400 8 220 13:58 30.12.2019
5330 Clouds -3 1009 86 5000 8 220 13:40 30.12.2019
5331 Clouds -3 1009 86 5000 8 220 13:21 30.12.2019
5332 Clouds -3 1010 85 7000 8 220 12:56 30.12.2019
5333 Snow -3 1011 85 6000 8 220 12:37 30.12.2019
5334 Snow -3 1011 85 6000 8 220 12:18 30.12.2019
5335 Clouds -4 1013 85 10000 7 220 11:42 30.12.2019
5336 Clouds -4 1013 85 10000 7 220 11:20 30.12.2019
5337 Snow -4 1014 85 7000 9 220 10:58 30.12.2019
5338 Snow -4 1015 85 4200 7 210 10:40 30.12.2019
5339 Snow -4 1015 85 4200 7 210 10:19 30.12.2019
5340 Snow -4 1017 79 10000 9 210 09:42 30.12.2019
5341 Snow -4 1017 79 10000 9 210 09:20 30.12.2019
5342 Clouds -4 1017 85 10000 7 210 08:56 30.12.2019
5343 Clouds -4 1018 85 10000 8 220 08:38 30.12.2019
5344 Clouds -4 1018 85 10000 8 220 08:18 30.12.2019
5345 Snow -4 1020 85 10000 8 220 07:42 30.12.2019
5346 Snow -4 1020 85 10000 9 230 06:59 30.12.2019
5347 Snow -4 1021 85 10000 8 230 06:29 30.12.2019
5348 Clouds -4 1023 85 10000 8 230 04:23 30.12.2019
5349 Clouds -4 1023 85 10000 6 230 03:42 30.12.2019
5350 Clouds -4 1025 92 10000 7 240 02:41 30.12.2019
5351 Clouds -4 1025 92 10000 7 240 02:21 30.12.2019
5352 Clouds -3 1027 86 10000 5 270 01:27 30.12.2019
5353 Clouds -4 1026 85 10000 6 230 00:51 30.12.2019
5354 Clouds -4 1026 85 10000 6 240 00:28 30.12.2019
5355 Clouds -4 1027 85 10000 7 240 23:40 29.12.2019
5356 Clouds -3 1027 85 10000 7 240 23:22 29.12.2019
5357 Clouds -3 1027 92 10000 5 240 22:57 29.12.2019
5358 Snow -3 1027 85 10000 5 240 22:38 29.12.2019
5359 Snow -3 1027 85 10000 5 240 22:20 29.12.2019
5360 Snow -3 1028 85 10000 6 250 21:55 29.12.2019
5361 Snow -3 1028 85 10000 6 240 21:37 29.12.2019
5362 Snow -3 1028 85 10000 6 240 21:18 29.12.2019
5363 Snow -3 1029 92 10000 5 240 20:55 29.12.2019
5364 Snow -3 1028 85 10000 5 240 20:37 29.12.2019
5365 Snow -3 1028 85 10000 5 240 20:18 29.12.2019
5366 Snow -3 1029 85 8000 5 230 19:55 29.12.2019
5367 Snow -4 1029 92 10000 4 240 19:37 29.12.2019
5368 Snow -4 1029 92 10000 4 240 19:18 29.12.2019
5369 Snow -4 1029 92 10000 4 250 18:54 29.12.2019
5370 Clouds -4 1029 85 10000 3 250 18:36 29.12.2019
5371 Clouds -4 1029 85 10000 3 250 18:18 29.12.2019
5372 Clouds -4 1030 85 10000 4 260 17:55 29.12.2019
5373 Clouds -4 1030 85 10000 2 290 17:36 29.12.2019
5374 Clouds -4 1030 85 10000 2 290 17:18 29.12.2019
5375 Snow -4 1030 85 10000 2 290 16:54 29.12.2019
5376 Snow -4 1030 85 10000 2 290 16:36 29.12.2019
5377 Snow -4 1030 85 10000 2 290 16:18 29.12.2019
5378 Snow -4 1030 85 10000 3 300 15:55 29.12.2019
5379 Clouds -3 1030 85 10000 2 360 15:37 29.12.2019
5380 Clouds -3 1030 86 10000 2 320 15:18 29.12.2019
5381 Clouds -3 1030 86 10000 2 320 14:55 29.12.2019
5382 Clouds -3 1030 92 10000 3 20 14:37 29.12.2019
5383 Clouds -3 1030 92 10000 3 20 14:18 29.12.2019
5384 Clouds -3 1030 92 10000 4 310 13:40 29.12.2019
5385 Clouds -3 1030 92 10000 4 310 13:40 29.12.2019
5386 Clouds -3 1030 92 10000 4 310 13:22 29.12.2019
5387 Clouds -3 1030 86 10000 2 350 12:59 29.12.2019
5388 Clouds -3 1030 85 10000 2 310 12:41 29.12.2019
5389 Clouds -3 1030 85 10000 2 310 12:22 29.12.2019
5390 Snow -3 1030 85 10000 2 340 11:54 29.12.2019
5391 Snow -3 1030 85 10000 2 310 11:36 29.12.2019
5392 Snow -3 1030 85 10000 2 310 11:18 29.12.2019
5393 Snow -3 1030 85 10000 3 350 10:41 29.12.2019
5394 Snow -3 1030 85 10000 3 350 10:21 29.12.2019
5395 Snow -3 1031 85 10000 3 350 09:54 29.12.2019
5396 Snow -3 1030 85 10000 3 20 09:36 29.12.2019
5397 Snow -3 1030 85 10000 3 20 09:18 29.12.2019
5398 Snow -3 1030 85 10000 4 20 08:46 29.12.2019
5399 Snow -3 1030 85 10000 3 360 08:24 29.12.2019
5400 Snow -3 1030 85 10000 4 20 07:54 29.12.2019
5401 Snow -3 1030 85 10000 4 10 07:28 29.12.2019
5402 Snow -3 1030 85 10000 4 10 06:53 29.12.2019
5403 Snow -3 1030 85 10000 4 10 06:23 29.12.2019
5404 Snow -3 1030 85 10000 4 10 05:50 29.12.2019
5405 Clouds -3 1028 86 10000 4 30 04:35 29.12.2019
5406 Clouds -3 1028 86 10000 3 40 03:43 29.12.2019
5407 Clouds -3 1028 86 10000 3 40 03:19 29.12.2019
5408 Snow -3 1028 85 10000 5 360 02:20 29.12.2019
5409 Snow -3 1028 85 10000 5 360 02:20 29.12.2019
5410 Snow -3 1028 92 10000 4 10 01:31 29.12.2019
5411 Snow -3 1028 86 10000 4 20 00:57 29.12.2019
5412 Snow -3 1028 86 10000 4 10 00:39 29.12.2019
5413 Snow -3 1028 86 10000 4 10 00:21 29.12.2019
5414 Snow -2 1028 86 10000 4 20 23:42 28.12.2019
5415 Snow -2 1028 86 10000 4 20 23:42 28.12.2019
5416 Clouds -2 1027 79 10000 6 40 23:18 28.12.2019
5417 Clouds -2 1026 86 10000 4 50 22:39 28.12.2019
5418 Clouds -2 1026 86 10000 4 50 22:39 28.12.2019
5419 Clouds -2 1027 86 10000 5 10 22:20 28.12.2019
5420 Clouds -2 1027 86 10000 6 20 21:58 28.12.2019
5421 Clouds -2 1027 86 10000 6 20 21:58 28.12.2019
5422 Snow -2 1027 86 10000 7 10 21:39 28.12.2019
5423 Snow -2 1027 86 10000 7 10 21:21 28.12.2019
5424 Snow -2 1027 86 10000 7 10 21:21 28.12.2019
5425 Clouds -2 1026 74 10000 5 30 20:57 28.12.2019
5426 Snow -1 1026 86 10000 5 20 20:37 28.12.2019
5427 Snow -1 1026 86 10000 5 20 20:19 28.12.2019
5428 Snow -2 1026 86 10000 5 10 19:56 28.12.2019
5429 Snow -1 1026 86 10000 5 10 19:38 28.12.2019
5430 Snow -1 1026 86 10000 5 10 19:19 28.12.2019
5431 Snow -1 1025 92 10000 4 10 18:56 28.12.2019
5432 Snow -1 1025 92 10000 4 10 18:56 28.12.2019
5433 Snow -1 1025 92 9000 5 20 18:38 28.12.2019
5434 Snow -1 1024 92 10000 5 10 18:18 28.12.2019
5435 Snow -1 1024 92 10000 5 10 17:54 28.12.2019
5436 Snow -1 1024 92 10000 5 10 17:36 28.12.2019
5437 Snow -1 1024 92 10000 5 10 17:18 28.12.2019
5438 Snow -1 1024 92 9000 5 10 16:45 28.12.2019
5439 Snow -1 1024 92 7000 5 20 16:24 28.12.2019
5440 Snow -1 1023 92 8000 6 10 15:44 28.12.2019
5441 Snow -1 1023 92 8000 6 10 15:24 28.12.2019
5442 Snow -1 1023 92 7000 6 10 14:58 28.12.2019
5443 Clouds 0 1022 86 10000 5 10 14:38 28.12.2019
5444 Clouds 0 1022 86 10000 5 10 14:20 28.12.2019
5445 Clouds -1 1022 86 10000 5 10 13:43 28.12.2019
5446 Snow 0 1022 86 7000 5 20 13:23 28.12.2019
5447 Snow 0 1021 86 10000 5 20 12:59 28.12.2019
5448 Snow -1 1021 86 9000 6 20 12:41 28.12.2019
5449 Snow -1 1021 86 9000 6 20 12:23 28.12.2019
5450 Snow -1 1021 92 3700 4 360 11:56 28.12.2019
5451 Snow -1 1020 92 5000 5 10 11:37 28.12.2019
5452 Snow -1 1020 87 9000 5 30 11:18 28.12.2019
5453 Snow -1 1020 87 9000 5 30 10:43 28.12.2019
5454 Clouds -1 1020 87 10000 6 30 10:21 28.12.2019
5455 Snow -1 1020 87 10000 5 40 09:57 28.12.2019
5456 Snow -1 1020 87 9000 4 30 09:39 28.12.2019
5457 Snow -1 1020 87 9000 4 30 09:19 28.12.2019
5458 Snow -2 1019 87 10000 4 40 08:44 28.12.2019
5459 Snow -2 1019 92 10000 4 30 08:26 28.12.2019
5460 Snow -2 1019 92 9000 3 30 07:49 28.12.2019
5461 Clouds -2 1018 92 9000 4 30 07:27 28.12.2019
5462 Snow -2 1018 92 10000 4 50 06:27 28.12.2019
5463 Clouds -3 1016 92 10000 5 40 04:36 28.12.2019
5464 Clouds -3 1016 92 10000 5 30 03:39 28.12.2019
5465 Clouds -3 1016 92 10000 4 40 02:48 28.12.2019
5466 Clouds -3 1015 92 10000 5 50 01:59 28.12.2019
5467 Clouds -3 1015 92 10000 5 40 01:30 28.12.2019
5468 Clouds -2 1015 86 9000 6 30 00:58 28.12.2019
5469 Clouds -3 1014 86 7000 4 30 00:38 28.12.2019
5470 Clouds -3 1014 86 7000 4 30 00:19 28.12.2019
5471 Clouds -2 1014 92 7000 5 40 23:43 27.12.2019
5472 Snow -2 1014 92 8000 4 30 23:20 27.12.2019
5473 Snow -2 1014 92 8000 4 30 22:58 27.12.2019
5474 Snow -2 1014 92 8000 5 30 22:39 27.12.2019
5475 Snow -2 1014 92 8000 5 30 22:20 27.12.2019
5476 Clouds -2 1013 92 8000 4 30 21:56 27.12.2019
5477 Clouds -2 1013 92 9000 5 50 21:37 27.12.2019
5478 Clouds -2 1013 92 9000 4 30 21:19 27.12.2019
5479 Clouds -1 1013 92 9000 4 30 20:42 27.12.2019
5480 Clouds -1 1012 92 9000 4 40 20:23 27.12.2019
5481 Clouds -1 1012 92 9000 3 40 19:43 27.12.2019
5482 Clouds -1 1012 92 10000 3 40 19:21 27.12.2019
5483 Clouds -1 1012 86 10000 4 40 18:59 27.12.2019
5484 Clouds -1 1012 86 10000 4 40 18:40 27.12.2019
5485 Clouds -1 1012 92 9000 4 40 18:21 27.12.2019
5486 Clouds -1 1011 92 9000 3 20 17:58 27.12.2019
5487 Clouds -1 1011 92 6000 3 30 17:40 27.12.2019
5488 Clouds -1 1011 92 6000 3 30 17:19 27.12.2019
5489 Clouds -1 1011 92 6000 3 50 16:59 27.12.2019
5490 Clouds -1 1011 92 8000 4 40 16:39 27.12.2019
5491 Clouds -1 1011 92 8000 4 40 16:20 27.12.2019
5492 Clouds -1 1011 92 8000 3 50 15:45 27.12.2019
5493 Clouds -1 1010 92 6000 3 20 15:23 27.12.2019
5494 Clouds -1 1010 92 6000 4 30 14:58 27.12.2019
5495 Clouds -1 1010 81 9000 3 60 14:40 27.12.2019
5496 Clouds -1 1010 85 9000 3 60 14:21 27.12.2019
5497 Clouds -1 1010 85 9000 3 70 13:57 27.12.2019
5498 Clouds -1 1010 92 9000 3 80 13:39 27.12.2019
5499 Clouds -1 1010 92 9000 3 80 13:39 27.12.2019
5500 Clouds -1 1010 92 9000 3 80 13:39 27.12.2019
5501 Clouds -1 1010 92 9000 3 80 13:21 27.12.2019
5502 Clouds -1 1009 95 10000 3 80 12:44 27.12.2019
5503 Clouds -1 1009 95 10000 3 80 12:25 27.12.2019
5504 Clouds -1 1009 100 8000 2 100 11:55 27.12.2019
5505 Clouds -1 1009 95 10000 3 70 11:37 27.12.2019
5506 Clouds -1 1009 91 10000 3 70 11:18 27.12.2019
5507 Clouds -1 1009 91 10000 3 80 10:41 27.12.2019
5508 Clouds -1 1009 91 10000 3 80 10:23 27.12.2019
5509 Mist -1 1009 100 5000 2 90 09:49 27.12.2019
5510 Clouds -1 1009 100 4600 2 90 09:22 27.12.2019
5511 Clouds -1 1009 91 8000 3 70 08:59 27.12.2019
5512 Clouds -1 1009 91 9000 3 70 08:41 27.12.2019
5513 Clouds -1 1009 70 9000 3 70 08:22 27.12.2019
5514 Clouds -1 1009 92 10000 3 70 07:38 27.12.2019
5515 Clouds -1 1009 92 10000 3 70 06:59 27.12.2019
5516 Clouds -1 1009 100 10000 3 80 06:23 27.12.2019
5517 Clouds -1 1008 92 7000 3 70 04:39 27.12.2019
5518 Mist -1 1009 100 5000 3 90 02:28 27.12.2019
5519 Mist -1 1009 100 4900 3 100 01:45 27.12.2019
5520 Mist -1 1009 100 3200 3 80 01:23 27.12.2019
5521 Mist -1 1009 100 2000 3 90 00:47 27.12.2019
5522 Fog -1 1009 100 1000 3 90 00:27 27.12.2019
5523 Fog -1 1009 100 1200 3 80 23:56 26.12.2019
5524 Mist -1 1009 100 1100 3 80 23:37 26.12.2019
5525 Mist -1 1009 100 1100 3 80 23:19 26.12.2019
5526 Fog -1 1009 100 650 3 100 22:40 26.12.2019
5527 Fog -1 1009 100 650 3 100 22:19 26.12.2019
5528 Fog -1 1009 100 800 3 90 21:40 26.12.2019
5529 Fog -1 1009 100 550 3 90 21:21 26.12.2019
5530 Fog -1 1009 100 400 3 80 20:59 26.12.2019
5531 Fog -1 1009 100 500 3 90 20:40 26.12.2019
5532 Fog -1 1009 100 500 3 90 20:22 26.12.2019
5533 Fog -1 1009 100 1100 3 90 19:56 26.12.2019
5534 Mist -1 1009 100 2100 2 110 19:38 26.12.2019
5535 Mist -1 1009 100 2100 2 110 19:20 26.12.2019
5536 Mist -1 1009 100 2900 3 110 18:57 26.12.2019
5537 Snow -1 1009 100 3200 3 90 18:37 26.12.2019
5538 Snow -1 1009 100 3200 3 90 18:18 26.12.2019
5539 Snow -1 1009 100 3700 3 80 17:42 26.12.2019
5540 Snow -1 1009 100 2800 3 90 17:22 26.12.2019
5541 Snow -1 1010 100 1200 3 90 16:51 26.12.2019
5542 Snow -1 1010 100 650 3 90 16:29 26.12.2019
5543 Snow -1 1010 100 1000 3 90 15:59 26.12.2019
5544 Snow -1 1010 100 1200 3 80 15:40 26.12.2019
5545 Snow -1 1010 100 1200 3 80 15:19 26.12.2019
5546 Fog -1 1010 77 1200 3 100 14:43 26.12.2019
5547 Fog -1 1010 77 1200 3 100 14:24 26.12.2019
5548 Fog -1 1010 74 1200 3 100 14:24 26.12.2019
5549 Fog -1 1010 74 1200 3 100 14:24 26.12.2019
5550 Fog -1 1010 74 1200 3 100 14:24 26.12.2019
5551 Fog -1 1010 74 1900 3 80 13:58 26.12.2019
5552 Snow -1 1010 74 1900 3 70 13:40 26.12.2019
5553 Mist -1 1010 76 1300 3 70 13:19 26.12.2019
5554 Mist -1 1010 76 1300 3 70 12:56 26.12.2019
5555 Mist -1 1010 76 1800 3 80 12:37 26.12.2019
5556 Mist -1 1010 76 1800 3 80 12:18 26.12.2019
5557 Mist -1 1009 76 1900 3 90 11:42 26.12.2019
5558 Mist -1 1010 77 2100 3 80 11:23 26.12.2019
5559 Mist -1 1010 77 1900 3 90 10:57 26.12.2019
5560 Mist -1 1010 77 1900 3 90 10:57 26.12.2019
5561 Mist -1 1010 77 2100 4 80 10:39 26.12.2019
5562 Mist -1 1010 77 2100 4 80 10:18 26.12.2019
5563 Mist -1 1010 77 1900 3 80 09:42 26.12.2019
5564 Mist -1 1010 77 1600 3 90 09:24 26.12.2019
5565 Mist -1 1010 77 1600 3 110 08:42 26.12.2019
5566 Mist -1 1010 83 1500 3 100 08:23 26.12.2019
5567 Fog -1 1010 85 1000 4 80 07:52 26.12.2019
5568 Fog -1 1010 85 1200 4 100 07:26 26.12.2019
5569 Fog -1 1010 85 700 3 100 06:52 26.12.2019
5570 Fog -1 1010 85 400 3 100 06:31 26.12.2019
5571 Fog -1 1010 85 800 4 90 05:45 26.12.2019
5572 Fog 0 1010 84 1100 3 100 04:48 26.12.2019
5573 Fog 0 1010 84 700 3 100 04:29 26.12.2019
5574 Fog 0 1010 84 1100 3 90 02:54 26.12.2019
5575 Fog 0 1010 84 1000 3 80 02:34 26.12.2019
5576 Fog 0 1010 82 2200 2 120 01:46 26.12.2019
5577 Mist 0 1010 84 2300 3 120 01:27 26.12.2019
5578 Mist 0 1010 84 2200 2 110 00:48 26.12.2019
5579 Mist 0 1010 84 2200 3 120 00:25 26.12.2019
5580 Mist 0 1010 84 2300 3 120 23:58 25.12.2019
5581 Mist 0 1010 84 2500 2 140 23:39 25.12.2019
5582 Mist 0 1010 84 2500 2 140 23:21 25.12.2019
5583 Mist 0 1010 84 2700 2 140 22:58 25.12.2019
5584 Mist 0 1010 84 3000 2 130 22:38 25.12.2019
5585 Mist 0 1010 84 3000 2 130 22:20 25.12.2019
5586 Mist 0 1010 84 2800 2 160 21:58 25.12.2019
5587 Mist 0 1010 84 2800 2 160 21:39 25.12.2019
5588 Mist 0 1010 84 3100 2 170 21:20 25.12.2019
5589 Mist 0 1010 84 2900 2 150 20:54 25.12.2019
5590 Mist 0 1010 84 3300 2 150 20:36 25.12.2019
5591 Mist 0 1010 91 3300 2 150 20:18 25.12.2019
5592 Mist 0 1010 91 3300 3 160 19:43 25.12.2019
5593 Mist 0 1010 91 3100 3 150 19:23 25.12.2019
5594 Mist 0 1010 91 3200 3 140 18:58 25.12.2019
5595 Mist 0 1010 91 2800 3 160 18:37 25.12.2019
5596 -273 0 0 0 0 0 18:18 25.12.2019
5597 Mist 0 1010 91 3200 3 110 17:41 25.12.2019
5598 Mist 0 1010 89 3200 3 110 17:19 25.12.2019
5599 Mist 0 1010 89 2900 3 130 16:58 25.12.2019
5600 Mist 0 1010 89 3000 3 150 16:37 25.12.2019
5601 Mist 0 1010 89 3000 3 150 16:18 25.12.2019
5602 Mist 0 1010 89 3700 3 130 15:57 25.12.2019
5603 Mist 0 1010 89 3700 3 160 15:38 25.12.2019
5604 Mist 0 1010 89 3700 3 160 15:20 25.12.2019
5605 Mist 0 1010 89 3600 2 160 14:57 25.12.2019
5606 Clouds 0 1011 89 8000 2 130 14:39 25.12.2019
5607 Clouds 0 1011 89 8000 2 130 14:39 25.12.2019
5608 Mist 0 1010 88 4000 3 130 14:20 25.12.2019
5609 Mist 0 1010 88 4000 3 130 13:44 25.12.2019
5610 Mist 0 1010 89 4000 3 150 13:21 25.12.2019
5611 Mist 0 1010 89 4300 3 140 12:57 25.12.2019
5612 Mist 0 1010 89 4500 4 130 12:38 25.12.2019
5613 Mist 0 1010 89 4500 4 130 12:38 25.12.2019
5614 Mist 0 1010 89 4500 4 130 12:19 25.12.2019
5615 Mist 1 1010 89 4700 3 170 11:43 25.12.2019
5616 Mist 1 1010 88 4800 3 150 11:22 25.12.2019
5617 Mist 1 1010 88 4700 3 150 10:59 25.12.2019
5618 Mist 0 1010 88 4600 3 160 10:37 25.12.2019
5619 Mist 0 1010 88 4600 3 160 10:19 25.12.2019
5620 Mist 1 1010 88 4300 3 140 09:44 25.12.2019
5621 Mist 1 1010 88 4300 3 140 09:26 25.12.2019
5622 Mist 1 1010 88 4600 3 160 08:46 25.12.2019
5623 Mist 1 1010 100 5000 3 160 08:26 25.12.2019
5624 Mist 1 1010 100 4100 3 160 07:48 25.12.2019
5625 Mist 1 1010 100 4600 3 170 07:29 25.12.2019
5626 Mist 1 1010 100 5000 3 150 06:49 25.12.2019
5627 Mist 1 1010 100 3000 3 170 06:22 25.12.2019
5628 Mist 1 1010 92 1700 3 150 04:50 25.12.2019
5629 Mist 0 1010 92 1200 3 160 04:26 25.12.2019
5630 Mist 0 1009 92 1300 3 160 03:58 25.12.2019
5631 Mist 0 1009 92 2100 5 140 03:40 25.12.2019
5632 Fog 0 1010 92 1400 4 150 02:39 25.12.2019
5633 Fog 0 1010 90 2000 4 150 01:59 25.12.2019
5634 Fog 0 1010 88 2100 4 150 01:25 25.12.2019
5635 Fog 0 1010 88 1000 4 140 00:50 25.12.2019
5636 Mist 0 1010 88 1600 5 130 00:29 25.12.2019
5637 Fog 0 1010 88 1100 5 130 23:56 24.12.2019
5638 Fog 0 1010 88 900 5 130 23:37 24.12.2019
5639 Fog 0 1010 95 900 5 130 23:19 24.12.2019
5640 Fog 0 1010 95 1100 5 130 22:40 24.12.2019
5641 Fog 0 1010 95 1100 5 130 22:21 24.12.2019
5642 Fog 0 1010 95 1300 5 130 21:43 24.12.2019
5643 Mist 0 1010 100 1400 5 150 21:23 24.12.2019
5644 Mist 0 1010 100 1800 5 130 20:55 24.12.2019
5645 Mist 0 1010 100 1900 5 130 20:36 24.12.2019
5646 Mist 0 1010 100 1900 5 130 20:18 24.12.2019
5647 Mist 1 1010 100 1500 4 140 19:43 24.12.2019
5648 Mist 1 1010 100 1500 4 140 19:20 24.12.2019
5649 Mist 1 1010 100 3500 4 150 18:44 24.12.2019
5650 Mist 1 1010 100 3600 4 160 18:24 24.12.2019
5651 Mist 1 1010 100 4200 4 180 17:59 24.12.2019
5652 Clouds 1 1010 100 6000 4 150 17:38 24.12.2019
5653 Mist 2 1010 93 5000 5 160 17:20 24.12.2019
5654 Mist 2 1010 93 5000 5 160 16:55 24.12.2019
5655 Mist 2 1010 100 5000 4 150 16:37 24.12.2019
5656 Mist 2 1010 100 5000 4 150 16:19 24.12.2019
5657 Clouds 2 1010 100 6000 4 140 15:55 24.12.2019
5658 Clouds 3 1010 93 6000 3 150 15:36 24.12.2019
5659 Clouds 3 1010 93 6000 3 150 15:18 24.12.2019
5660 Mist 3 1010 93 5000 4 140 14:56 24.12.2019
5661 Clouds 3 1009 93 6000 4 140 14:38 24.12.2019
5662 Clouds 3 1009 93 6000 4 140 14:20 24.12.2019
5663 Clouds 3 1009 86 6000 4 160 13:55 24.12.2019
5664 Clouds 3 1009 86 6000 3 170 13:37 24.12.2019
5665 Clouds 3 1009 86 6000 3 170 13:19 24.12.2019
5666 Mist 4 1009 93 5000 3 170 12:55 24.12.2019
5667 Mist 4 1009 93 5000 3 170 12:36 24.12.2019
5668 Mist 4 1009 93 5000 4 160 12:18 24.12.2019
5669 Mist 4 1009 93 5000 4 160 11:55 24.12.2019
5670 Mist 4 1009 93 4900 3 190 11:36 24.12.2019
5671 Mist 4 1009 93 4900 3 190 11:18 24.12.2019
5672 Mist 5 1009 93 4400 4 190 10:55 24.12.2019
5673 Mist 5 1009 93 4400 4 190 10:55 24.12.2019
5674 Mist 5 1009 100 3200 4 160 10:37 24.12.2019
5675 Mist 5 1009 100 3200 4 160 10:19 24.12.2019
5676 Mist 5 1009 93 3800 3 150 09:55 24.12.2019
5677 Mist 5 1009 93 4000 4 150 09:36 24.12.2019
5678 Mist 5 1009 93 4300 4 150 09:18 24.12.2019
5679 Mist 5 1009 93 4300 4 150 08:44 24.12.2019
5680 Mist 6 1009 100 4000 3 150 08:20 24.12.2019
5681 Mist 6 1008 100 3300 3 150 07:46 24.12.2019
5682 Mist 6 1008 100 3000 3 150 07:25 24.12.2019
5683 Mist 6 1008 100 3000 3 150 07:25 24.12.2019
5684 Mist 6 1008 100 3300 3 170 06:58 24.12.2019
5685 Rain 7 1008 100 3300 3 170 06:38 24.12.2019
5686 Rain 7 1008 100 3300 3 170 06:19 24.12.2019
5687 Rain 7 1008 100 2100 3 130 05:21 24.12.2019
5688 Rain 7 1007 100 1600 3 110 04:59 24.12.2019
5689 Rain 7 1007 100 350 3 100 03:50 24.12.2019
5690 Rain 7 1007 100 650 2 110 03:22 24.12.2019
5691 Rain 7 1007 100 1300 2 160 02:23 24.12.2019
5692 Rain 7 1007 100 1700 3 140 01:50 24.12.2019
5693 Rain 7 1007 100 2500 2 120 01:22 24.12.2019
5694 Rain 6 1007 100 3200 2 150 00:45 24.12.2019
5695 Rain 6 1007 100 3200 2 160 00:24 24.12.2019
5696 Rain 6 1007 100 3600 2 160 23:59 23.12.2019
5697 Rain 6 1006 100 3600 3 150 23:40 23.12.2019
5698 Mist 6 1006 100 3500 2 150 23:22 23.12.2019
5699 Mist 6 1006 100 3500 2 150 22:56 23.12.2019
5700 Mist 6 1006 100 3000 2 140 22:37 23.12.2019
5701 Mist 6 1006 100 3000 2 140 22:19 23.12.2019
5702 Mist 6 1006 100 2700 2 170 21:55 23.12.2019
5703 Mist 6 1006 100 3000 3 170 21:36 23.12.2019
5704 Mist 6 1006 100 3000 3 170 21:36 23.12.2019
5705 Mist 6 1006 100 3200 3 170 21:18 23.12.2019
5706 Mist 6 1006 100 3200 3 170 20:57 23.12.2019
5707 Mist 6 1006 100 3600 4 180 20:39 23.12.2019
5708 Mist 6 1006 100 3600 4 180 20:18 23.12.2019
5709 Mist 6 1005 100 3500 4 190 19:56 23.12.2019
5710 Mist 6 1005 100 5000 4 190 19:38 23.12.2019
5711 Mist 6 1005 100 5000 4 190 19:19 23.12.2019
5712 Clouds 6 1005 100 6000 4 190 18:57 23.12.2019
5713 Mist 6 1005 100 5000 4 180 18:38 23.12.2019
5714 Mist 6 1005 100 5000 4 160 18:20 23.12.2019
5715 Mist 6 1005 100 5000 4 160 17:56 23.12.2019
5716 Mist 6 1005 100 4400 4 160 17:37 23.12.2019
5717 Mist 6 1004 100 3800 4 170 17:19 23.12.2019
5718 Mist 6 1004 100 3800 4 170 16:54 23.12.2019
5719 Mist 6 1004 100 3700 4 160 16:36 23.12.2019
5720 Mist 6 1004 100 3700 4 160 16:18 23.12.2019
5721 Mist 6 1004 100 3600 4 160 15:55 23.12.2019
5722 Mist 6 1004 100 4400 4 160 15:36 23.12.2019
5723 Mist 5 1004 100 4600 3 160 15:18 23.12.2019
5724 Rain 6 1005 93 5000 2 130 14:42 23.12.2019
5725 Rain 6 1004 93 4400 4 160 14:24 23.12.2019
5726 Rain 6 1003 93 5000 4 170 13:59 23.12.2019
5727 Clouds 6 1003 93 6000 4 160 13:41 23.12.2019
5728 Clouds 6 1003 93 6000 4 160 13:22 23.12.2019
5729 Clouds 5 1003 100 6000 4 160 12:58 23.12.2019
5730 Clouds 5 1003 100 6000 4 160 12:58 23.12.2019
5731 Clouds 5 1003 100 6000 3 170 12:39 23.12.2019
5732 Clouds 5 1003 100 6000 3 170 12:20 23.12.2019
5733 Clouds 5 1003 100 8000 4 160 11:55 23.12.2019
5734 Clouds 5 1003 100 9000 4 160 11:37 23.12.2019
5735 Rain 5 1003 100 9000 4 160 11:18 23.12.2019
5736 Rain 5 1003 100 9000 4 160 10:54 23.12.2019
5737 Rain 5 1003 100 5000 6 130 10:36 23.12.2019
5738 Rain 5 1003 100 5000 6 130 10:18 23.12.2019
5739 Rain 5 1003 100 5000 6 130 10:18 23.12.2019
5740 Rain 5 1003 100 3800 4 140 09:40 23.12.2019
5741 Rain 5 1003 100 2600 3 140 09:22 23.12.2019
5742 Rain 5 1003 100 3300 4 150 08:58 23.12.2019
5743 Rain 5 1002 100 2800 4 150 08:40 23.12.2019
5744 Mist 5 1002 100 2800 4 150 08:22 23.12.2019
5745 Mist 5 1003 93 4200 4 150 07:48 23.12.2019
5746 Mist 4 1002 93 5000 4 150 07:21 23.12.2019
5747 Clouds 4 1002 93 9000 4 150 06:57 23.12.2019
5748 Rain 4 1002 100 4500 4 140 06:30 23.12.2019
5749 Rain 4 1002 100 5000 4 150 05:56 23.12.2019
5750 Rain 4 1002 100 4400 4 140 05:30 23.12.2019
5751 Rain 4 1002 100 5000 5 140 04:39 23.12.2019
5752 Rain 4 1002 100 4100 6 130 03:36 23.12.2019
5753 Rain 4 1002 100 5000 6 140 02:43 23.12.2019
5754 Drizzle 4 1002 100 2700 4 130 02:19 23.12.2019
5755 Drizzle 4 1003 100 3300 5 140 01:45 23.12.2019
5756 Drizzle 4 1003 100 3300 5 140 01:27 23.12.2019
5757 Drizzle 4 1003 100 3400 5 140 00:45 23.12.2019
5758 Drizzle 3 1003 100 3100 5 140 00:24 23.12.2019
5759 Drizzle 3 1003 100 1400 5 140 23:56 22.12.2019
5760 Rain 3 1003 100 1300 5 130 23:37 22.12.2019
5761 Mist 3 1003 100 1300 5 130 23:18 22.12.2019
5762 Mist 3 1003 100 3000 5 140 22:41 22.12.2019
5763 Mist 3 1003 100 3000 5 140 22:22 22.12.2019
5764 Mist 3 1004 100 3300 5 140 21:59 22.12.2019
5765 Drizzle 3 1004 100 4600 5 140 21:40 22.12.2019
5766 Drizzle 3 1004 100 4600 5 140 21:21 22.12.2019
5767 Drizzle 3 1004 100 4600 5 140 21:21 22.12.2019
5768 Drizzle 3 1004 100 2700 4 130 20:59 22.12.2019
5769 Drizzle 2 1004 100 3300 6 130 20:39 22.12.2019
5770 Drizzle 2 1004 100 3300 6 130 20:19 22.12.2019
5771 Drizzle 2 1004 100 3900 5 140 19:57 22.12.2019
5772 Drizzle 2 1004 93 3900 5 130 19:39 22.12.2019
5773 Drizzle 2 1004 93 3900 5 130 19:20 22.12.2019
5774 Mist 2 1004 93 3500 4 140 18:43 22.12.2019
5775 Mist 2 1004 93 3500 4 140 18:25 22.12.2019
5776 Mist 2 1004 93 3900 5 140 17:57 22.12.2019
5777 Mist 2 1004 93 3900 5 140 17:57 22.12.2019
5778 Mist 2 1004 100 3600 5 130 17:39 22.12.2019
5779 Mist 2 1004 100 3600 5 130 17:19 22.12.2019
5780 Mist 2 1004 100 3600 5 130 17:19 22.12.2019
5781 Mist 2 1004 100 3600 4 130 16:59 22.12.2019
5782 Drizzle 2 1004 100 2500 4 140 16:41 22.12.2019
5783 Drizzle 2 1004 100 2500 4 140 16:22 22.12.2019
5784 Mist 2 1004 100 2700 4 140 15:57 22.12.2019
5785 Mist 2 1004 100 2700 4 140 15:39 22.12.2019
5786 Rain 2 1004 100 2700 4 140 15:21 22.12.2019
5787 Mist 2 1004 100 3300 4 140 14:56 22.12.2019
5788 Drizzle 2 1004 100 2600 4 130 14:38 22.12.2019
5789 Drizzle 2 1004 100 2600 4 130 14:19 22.12.2019
5790 Mist 2 1004 100 2800 3 140 13:56 22.12.2019
5791 Mist 2 1004 93 4900 4 140 13:38 22.12.2019
5792 Mist 3 1004 93 4900 4 140 13:19 22.12.2019
5793 Drizzle 3 1005 93 3600 4 140 12:57 22.12.2019
5794 Clouds 3 1005 93 6000 3 140 12:38 22.12.2019
5795 Clouds 3 1005 93 7000 3 170 12:19 22.12.2019
5796 Clouds 3 1005 93 7000 3 170 11:56 22.12.2019
5797 Clouds 2 1004 93 7000 4 160 11:38 22.12.2019
5798 Clouds 3 1005 93 7000 4 170 11:19 22.12.2019
5799 Clouds 2 1005 93 7000 4 170 10:56 22.12.2019
5800 Clouds 3 1005 93 8000 4 160 10:38 22.12.2019
5801 Clouds 3 1005 93 8000 4 160 10:19 22.12.2019
5802 Clouds 2 1005 93 8000 4 160 09:57 22.12.2019
5803 Clouds 2 1005 93 8000 4 160 09:39 22.12.2019
5804 Clouds 2 1005 93 8000 4 160 09:20 22.12.2019
5805 Clouds 2 1005 93 8000 4 160 09:20 22.12.2019
5806 Clouds 2 1005 93 7000 4 160 08:45 22.12.2019
5807 Clouds 2 1005 93 7000 4 160 08:22 22.12.2019
5808 Clouds 2 1005 93 7000 4 160 07:44 22.12.2019
5809 Clouds 2 1005 93 7000 4 160 07:21 22.12.2019
5810 Clouds 2 1005 93 7000 4 160 07:21 22.12.2019
5811 Clouds 2 1005 93 7000 4 160 07:21 22.12.2019
5812 Snow 2 1005 93 7000 4 160 06:55 22.12.2019
5813 Drizzle 2 1005 93 7000 4 160 06:27 22.12.2019
5814 Drizzle 2 1005 93 6000 4 160 05:41 22.12.2019
5815 Drizzle 2 1005 93 6000 4 160 05:20 22.12.2019
5816 Clouds 2 1005 93 7000 5 170 04:26 22.12.2019
5817 Clouds 2 1005 87 8000 4 160 02:56 22.12.2019
5818 Clouds 2 1005 87 8000 4 140 02:34 22.12.2019
5819 Clouds 2 1006 88 8000 5 150 01:32 22.12.2019
5820 Clouds 2 1006 88 8000 4 150 00:58 22.12.2019
5821 Clouds 2 1006 88 8000 4 160 00:39 22.12.2019
5822 Clouds 2 1006 88 8000 4 160 00:20 22.12.2019
5823 Clouds 2 1006 88 8000 4 160 23:42 21.12.2019
5824 Clouds 2 1006 90 8000 4 160 23:24 21.12.2019
5825 Clouds 2 1006 90 8000 5 160 22:58 21.12.2019
5826 Clouds 2 1006 90 8000 4 170 22:39 21.12.2019
5827 Clouds 2 1006 90 8000 4 170 22:19 21.12.2019
5828 Clouds 2 1006 90 8000 4 170 21:56 21.12.2019
5829 Clouds 2 1006 90 9000 4 170 21:37 21.12.2019
5830 Clouds 2 1006 90 9000 4 170 21:19 21.12.2019
5831 Clouds 2 1006 90 10000 4 160 20:57 21.12.2019
5832 Clouds 2 1006 80 10000 4 170 20:38 21.12.2019
5833 Clouds 2 1006 80 10000 4 170 20:20 21.12.2019
5834 Clouds 2 1006 69 10000 4 170 19:57 21.12.2019
5835 Clouds 2 1007 64 10000 4 160 19:39 21.12.2019
5836 Clouds 2 1007 64 10000 4 160 19:19 21.12.2019
5837 Clouds 2 1007 59 10000 5 160 18:42 21.12.2019
5838 Clouds 2 1007 59 10000 5 160 18:23 21.12.2019
5839 Clouds 2 1007 55 10000 4 160 17:57 21.12.2019
5840 Clouds 2 1007 51 10000 4 160 17:39 21.12.2019
5841 Clouds 2 1007 51 10000 4 160 17:21 21.12.2019
5842 Clouds 2 1007 47 10000 5 150 16:58 21.12.2019
5843 Clouds 2 1007 47 10000 5 150 16:39 21.12.2019
5844 Clouds 2 1007 47 10000 5 150 16:18 21.12.2019
5845 Clouds 2 1007 47 10000 5 150 15:56 21.12.2019
5846 Clouds 2 1008 47 10000 4 150 15:38 21.12.2019
5847 Clouds 2 1008 47 10000 4 150 15:19 21.12.2019
5848 Clouds 2 1008 47 10000 4 130 14:55 21.12.2019
5849 Clouds 2 1008 51 10000 5 130 14:37 21.12.2019
5850 Clouds 2 1008 51 10000 5 130 14:18 21.12.2019
5851 Clouds 2 1008 51 10000 4 140 13:54 21.12.2019
5852 Clouds 3 1009 51 10000 5 150 13:36 21.12.2019
5853 Clouds 3 1009 51 10000 5 150 13:18 21.12.2019
5854 Clouds 3 1009 51 10000 4 150 12:54 21.12.2019
5855 Clouds 3 1009 51 10000 4 140 12:36 21.12.2019
5856 Clouds 3 1009 51 10000 4 140 12:18 21.12.2019
5857 Clouds 2 1010 55 10000 3 160 11:41 21.12.2019
5858 -273 0 0 0 0 0 11:23 21.12.2019
5859 Clouds 2 1011 64 10000 4 140 10:42 21.12.2019
5860 Clouds 2 1011 64 10000 4 140 10:23 21.12.2019
5861 Clouds 2 1011 64 10000 4 140 09:59 21.12.2019
5862 Clouds 1 1011 69 10000 3 160 09:41 21.12.2019
5863 Clouds 1 1011 69 10000 3 160 09:20 21.12.2019
5864 Clouds 1 1011 69 10000 3 170 08:56 21.12.2019
5865 Clouds 1 1012 74 10000 3 160 08:37 21.12.2019
5866 Clouds 1 1012 74 10000 3 160 08:18 21.12.2019
5867 Clouds 1 1012 74 10000 3 140 07:41 21.12.2019
5868 Clouds 1 1012 74 10000 3 140 07:21 21.12.2019
5869 Clouds 0 1012 74 10000 2 160 06:43 21.12.2019
5870 Clouds 0 1012 74 10000 3 150 06:25 21.12.2019
5871 Clouds 1 1013 74 10000 2 160 05:47 21.12.2019
5872 Clouds 1 1013 74 10000 2 160 04:58 21.12.2019
5873 Clouds 0 1014 67 10000 3 180 03:57 21.12.2019
5874 Clouds -1 1014 67 10000 3 160 02:51 21.12.2019
5875 Clouds -1 1015 86 10000 3 200 01:57 21.12.2019
5876 Clouds -1 1015 86 10000 2 190 01:27 21.12.2019
5877 Clouds -1 1015 86 10000 3 190 00:52 21.12.2019
5878 Clouds -1 1015 71 10000 3 190 00:32 21.12.2019
5879 Clouds -1 1016 86 10000 3 150 23:57 20.12.2019
5880 Clouds -1 1016 71 10000 2 180 23:37 20.12.2019
5881 Clouds -1 1016 73 10000 2 180 23:18 20.12.2019
5882 Clouds -1 1016 80 10000 2 190 22:40 20.12.2019
5883 Clouds -1 1016 80 10000 2 190 22:21 20.12.2019
5884 Clouds -1 1017 73 10000 3 200 21:58 20.12.2019
5885 Clouds 0 1017 73 10000 3 210 21:39 20.12.2019
5886 Clouds 0 1017 73 10000 3 210 21:20 20.12.2019
5887 Clouds 0 1017 73 10000 3 210 20:41 20.12.2019
5888 Clouds 0 1017 79 10000 3 210 20:21 20.12.2019
5889 Clouds -1 1017 79 10000 4 220 19:59 20.12.2019
5890 Clouds -1 1017 79 10000 3 210 19:40 20.12.2019
5891 Clouds -1 1017 79 10000 3 210 19:20 20.12.2019
5892 Clouds -1 1018 79 10000 3 220 18:56 20.12.2019
5893 Clouds 0 1018 74 10000 3 220 18:38 20.12.2019
5894 Clouds 0 1018 74 10000 3 220 18:20 20.12.2019
5895 Clouds 0 1018 74 10000 3 230 17:42 20.12.2019
5896 Clouds 0 1018 74 10000 3 230 17:22 20.12.2019
5897 Clouds 0 1018 74 10000 4 220 16:59 20.12.2019
5898 Clouds 0 1018 74 10000 2 230 16:40 20.12.2019
5899 Clouds 0 1018 74 10000 2 230 16:20 20.12.2019
5900 Clouds 0 1018 74 10000 4 230 15:57 20.12.2019
5901 Clouds 0 1019 74 10000 4 240 15:39 20.12.2019
5902 Clouds 0 1019 74 10000 4 240 15:19 20.12.2019
5903 Clouds 0 1019 74 10000 4 240 14:58 20.12.2019
5904 Clouds 0 1019 74 10000 4 240 14:39 20.12.2019
5905 Clouds 1 1019 74 10000 4 240 14:21 20.12.2019
5906 Clouds 2 1019 69 10000 4 250 13:42 20.12.2019
5907 Clouds 2 1019 69 10000 4 250 13:21 20.12.2019
5908 Clouds 2 1019 64 10000 4 270 12:59 20.12.2019
5909 Clouds 2 1019 69 10000 4 270 12:41 20.12.2019
5910 Clouds 2 1019 69 10000 4 270 12:19 20.12.2019
5911 Clouds 2 1019 74 10000 4 280 11:59 20.12.2019
5912 Clouds 1 1019 74 10000 4 280 11:40 20.12.2019
5913 Clouds 1 1019 74 10000 4 280 11:21 20.12.2019
5914 Clouds 1 1019 75 10000 4 300 10:59 20.12.2019
5915 Clouds 1 1019 75 10000 6 290 10:41 20.12.2019
5916 Clouds 1 1019 75 10000 6 290 10:20 20.12.2019
5917 Clouds 0 1019 74 10000 5 280 09:56 20.12.2019
5918 Clouds 0 1019 75 10000 4 280 09:38 20.12.2019
5919 Clouds 0 1019 75 10000 6 290 09:19 20.12.2019
5920 Clouds 0 1019 75 10000 5 280 08:43 20.12.2019
5921 Clouds 0 1019 84 10000 5 280 08:25 20.12.2019
5922 Clouds -1 1019 86 10000 6 280 07:59 20.12.2019
5923 Clouds -1 1018 84 10000 6 280 07:41 20.12.2019
5924 Clouds -1 1018 84 10000 6 280 07:20 20.12.2019
5925 Clouds -1 1018 84 10000 6 290 06:52 20.12.2019
5926 Clouds -1 1018 84 10000 6 290 06:33 20.12.2019
5927 Clouds -1 1018 84 10000 6 280 05:56 20.12.2019
5928 Clouds -1 1018 84 10000 7 280 05:37 20.12.2019
5929 Clouds -1 1018 84 10000 7 280 05:37 20.12.2019
5930 Clouds 0 1018 80 10000 6 280 04:33 20.12.2019
5931 Clouds 0 1018 80 10000 7 290 03:30 20.12.2019
5932 Clouds 1 1017 80 10000 9 290 02:44 20.12.2019
5933 Clouds 1 1017 74 10000 9 290 01:54 20.12.2019
5934 Clouds 1 1017 74 10000 9 290 01:33 20.12.2019
5935 Clouds 1 1017 69 10000 8 290 00:49 20.12.2019
5936 Clouds 1 1016 69 10000 8 290 00:30 20.12.2019
5937 Clouds 1 1016 74 10000 7 290 23:56 19.12.2019
5938 Clouds 1 1016 69 10000 7 300 23:38 19.12.2019
5939 Clouds 2 1016 69 10000 7 300 23:18 19.12.2019
5940 Clouds 2 1015 69 10000 8 300 22:38 19.12.2019
5941 Clouds 2 1015 69 10000 8 300 22:20 19.12.2019
5942 Clouds 2 1015 64 10000 6 290 21:56 19.12.2019
5943 Clouds 2 1015 69 10000 8 300 21:38 19.12.2019
5944 Clouds 2 1015 69 10000 8 300 21:19 19.12.2019
5945 Clouds 2 1014 69 10000 9 300 20:56 19.12.2019
5946 Clouds 2 1013 64 10000 9 300 20:37 19.12.2019
5947 Clouds 2 1013 64 10000 9 300 20:37 19.12.2019
5948 Clouds 2 1013 59 10000 7 300 20:18 19.12.2019
5949 Clouds 2 1013 59 10000 7 300 19:57 19.12.2019
5950 Clouds 2 1013 59 10000 7 300 19:57 19.12.2019
5951 Clouds 3 1013 59 10000 9 300 19:39 19.12.2019
5952 Clouds 3 1013 59 10000 9 300 19:19 19.12.2019
5953 Clouds 3 1012 59 10000 7 300 18:55 19.12.2019
5954 Clouds 3 1012 59 10000 7 300 18:37 19.12.2019
5955 Clouds 3 1011 59 10000 11 300 18:18 19.12.2019
5956 Clouds 3 1011 59 10000 11 300 17:54 19.12.2019
5957 Clouds 3 1011 59 10000 11 300 17:36 19.12.2019
5958 Clouds 3 1010 59 10000 8 300 17:18 19.12.2019
5959 Clouds 3 1010 59 10000 8 300 16:55 19.12.2019
5960 Clouds 3 1010 59 10000 11 290 16:36 19.12.2019
5961 Clouds 3 1010 59 10000 11 290 16:18 19.12.2019
5962 Clouds 3 1009 59 10000 11 290 15:55 19.12.2019
5963 Clouds 3 1009 59 10000 12 290 15:36 19.12.2019
5964 Clouds 3 1009 59 10000 12 290 15:18 19.12.2019
5965 Clouds 4 1008 60 10000 11 290 14:42 19.12.2019
5966 Clouds 4 1008 60 10000 11 290 14:20 19.12.2019
5967 Clouds 4 1007 55 10000 11 290 13:58 19.12.2019
5968 Clouds 4 1007 60 10000 10 290 13:38 19.12.2019
5969 Clouds 4 1007 60 10000 10 290 13:19 19.12.2019
5970 Clouds 4 1006 60 10000 8 280 12:57 19.12.2019
5971 Clouds 4 1005 60 10000 12 290 12:39 19.12.2019
5972 Clouds 4 1005 60 10000 12 290 12:39 19.12.2019
5973 Clouds 4 1005 60 10000 12 280 12:19 19.12.2019
5974 Clouds 4 1005 60 10000 12 280 11:58 19.12.2019
5975 Clouds 4 1004 64 10000 12 280 11:40 19.12.2019
5976 Clouds 4 1004 64 10000 12 280 11:18 19.12.2019
5977 Clouds 4 1004 64 10000 12 280 10:57 19.12.2019
5978 Clouds 4 1003 64 10000 11 280 10:38 19.12.2019
5979 Clouds 4 1003 64 10000 11 280 10:19 19.12.2019
5980 Clouds 4 1003 64 10000 11 280 09:54 19.12.2019
5981 Rain 4 1003 69 10000 12 270 09:36 19.12.2019
5982 Clouds 4 1002 64 10000 13 270 09:18 19.12.2019
5983 Clouds 4 1002 64 10000 12 270 08:41 19.12.2019
5984 Clouds 4 1001 64 10000 12 260 08:20 19.12.2019
5985 Clouds 4 1001 64 10000 12 260 07:59 19.12.2019
5986 Clouds 4 1001 69 10000 10 270 07:38 19.12.2019
5987 Clouds 4 1001 69 10000 10 270 07:38 19.12.2019
5988 Clouds 4 1001 69 10000 10 270 07:20 19.12.2019
5989 Clouds 4 1001 64 10000 12 260 06:52 19.12.2019
5990 Rain 4 1001 69 10000 7 270 06:52 19.12.2019
5991 Clouds 4 1001 64 10000 12 260 06:32 19.12.2019
5992 Clouds 4 1001 64 10000 12 260 05:57 19.12.2019
5993 Clouds 4 1001 64 10000 10 250 05:39 19.12.2019
5994 Clouds 4 1001 64 10000 10 250 05:18 19.12.2019
5995 Clouds 5 1001 67 10000 11 260 03:46 19.12.2019
5996 Clouds 6 1001 80 10000 10 270 02:25 19.12.2019
5997 Clouds 6 1000 86 10000 10 250 01:24 19.12.2019
5998 Clouds 6 1000 81 10000 10 240 00:55 19.12.2019
5999 Clouds 6 1000 87 10000 10 240 00:36 19.12.2019
6000 Clouds 6 1000 87 10000 10 240 00:18 19.12.2019
6001 Clouds 6 1001 87 10000 10 250 23:43 18.12.2019
6002 Clouds 6 1001 93 10000 11 250 23:19 18.12.2019
6003 Clouds 6 1001 93 10000 11 250 22:56 18.12.2019
6004 Clouds 6 1001 93 10000 10 230 22:38 18.12.2019
6005 Clouds 6 1001 93 10000 10 230 22:20 18.12.2019
6006 Clouds 5 1001 93 9000 9 230 21:58 18.12.2019
6007 Clouds 5 1001 93 9000 9 230 21:58 18.12.2019
6008 Clouds 5 1001 93 8000 8 220 21:39 18.12.2019
6009 Clouds 5 1001 93 8000 8 220 21:20 18.12.2019
6010 Clouds 5 1001 93 7000 7 220 20:56 18.12.2019
6011 Clouds 5 1001 93 6000 6 220 20:38 18.12.2019
6012 Clouds 5 1001 93 6000 6 220 20:19 18.12.2019
6013 Drizzle 5 1001 93 6000 6 200 19:56 18.12.2019
6014 Drizzle 5 1002 100 5000 6 210 19:37 18.12.2019
6015 Clouds 5 1003 100 6000 6 220 19:18 18.12.2019
6016 Clouds 5 1003 100 6000 7 220 18:45 18.12.2019
6017 Clouds 5 1003 100 6000 7 220 18:25 18.12.2019
6018 Mist 5 1004 100 5000 5 220 17:58 18.12.2019
6019 Mist 5 1005 100 4800 6 220 17:40 18.12.2019
6020 Mist 5 1005 100 4800 6 220 17:20 18.12.2019
6021 Mist 5 1005 100 4100 5 200 16:58 18.12.2019
6022 Mist 5 1005 100 4100 5 200 16:40 18.12.2019
6023 Mist 5 1005 93 4200 5 210 16:22 18.12.2019
6024 Mist 4 1006 100 4800 6 210 15:57 18.12.2019
6025 Mist 4 1007 100 5000 5 200 15:38 18.12.2019
6026 Mist 4 1007 100 5000 5 200 15:20 18.12.2019
6027 Mist 4 1007 100 4400 6 180 14:56 18.12.2019
6028 Mist 4 1007 93 5000 6 180 14:36 18.12.2019
6029 Rain 4 1008 93 9000 6 180 14:18 18.12.2019
6030 Rain 4 1008 93 9000 6 180 13:54 18.12.2019
6031 Rain 3 1008 100 9000 5 170 13:36 18.12.2019
6032 Rain 3 1009 100 8000 4 190 13:18 18.12.2019
6033 Rain 3 1009 100 6000 4 170 12:40 18.12.2019
6034 Rain 3 1009 100 6000 4 170 12:40 18.12.2019
6035 Rain 3 1009 100 6000 4 170 12:21 18.12.2019
6036 Rain 3 1010 100 6000 4 170 11:57 18.12.2019
6037 Rain 3 1010 100 6000 4 170 11:39 18.12.2019
6038 Rain 3 1010 100 6000 4 170 11:20 18.12.2019
6039 Rain 3 1011 100 8000 4 170 10:58 18.12.2019
6040 Clouds 3 1011 100 7000 3 170 10:39 18.12.2019
6041 Clouds 3 1011 100 7000 3 170 10:20 18.12.2019
6042 Clouds 3 1012 100 7000 3 170 09:58 18.12.2019
6043 Clouds 2 1012 100 6000 3 160 09:20 18.12.2019
6044 Clouds 2 1012 100 6000 2 170 08:43 18.12.2019
6045 Fog 2 1012 100 2200 2 150 08:25 18.12.2019
6046 Fog 2 1013 100 350 1 0 07:57 18.12.2019
6047 Fog 2 1013 100 400 2 130 07:39 18.12.2019
6048 Fog 2 1013 100 400 2 130 07:20 18.12.2019
6049 Fog 1 1013 97 200 2 150 06:52 18.12.2019
6050 Fog 1 1013 97 250 2 220 06:25 18.12.2019
6051 Fog 1 1013 97 200 2 220 05:36 18.12.2019
6052 Fog 1 1013 100 200 2 200 04:33 18.12.2019
6053 Mist 2 1013 100 3400 3 240 02:48 18.12.2019
6054 Mist 2 1013 100 3800 3 270 02:29 18.12.2019
6055 Clouds 2 1013 100 8000 4 260 01:46 18.12.2019
6056 Clouds 2 1013 97 6000 3 270 01:27 18.12.2019
6057 Clouds 2 1012 100 9000 3 250 00:55 18.12.2019
6058 Clouds 2 1012 100 9000 4 250 00:37 18.12.2019
6059 Clouds 2 1012 100 9000 4 250 00:19 18.12.2019
6060 Clouds 2 1012 100 9000 5 260 23:43 17.12.2019
6061 Clouds 2 1012 100 9000 5 260 23:43 17.12.2019
6062 Clouds 2 1012 100 9000 5 260 23:24 17.12.2019
6063 Clouds 2 1012 100 9000 5 260 23:24 17.12.2019
6064 Clouds 2 1012 100 9000 4 260 22:57 17.12.2019
6065 Clouds 2 1012 100 9000 4 240 22:39 17.12.2019
6066 Clouds 2 1012 100 9000 4 240 22:20 17.12.2019
6067 Clouds 2 1012 100 10000 4 250 21:57 17.12.2019
6068 Clouds 2 1012 100 10000 4 260 21:39 17.12.2019
6069 Clouds 2 1012 100 10000 4 260 21:20 17.12.2019
6070 Clouds 2 1011 100 10000 4 260 20:59 17.12.2019
6071 Clouds 2 1011 100 8000 4 260 20:40 17.12.2019
6072 Clouds 2 1011 100 8000 4 260 20:19 17.12.2019
6073 Clouds 2 1011 100 9000 5 260 19:59 17.12.2019
6074 Clouds 2 1011 100 9000 4 260 19:41 17.12.2019
6075 Clouds 2 1011 100 9000 4 260 19:20 17.12.2019
6076 Clouds 2 1011 100 9000 5 250 18:58 17.12.2019
6077 Clouds 2 1011 100 6000 6 250 18:39 17.12.2019
6078 Clouds 2 1011 100 9000 5 250 18:21 17.12.2019
6079 Clouds 2 1011 100 9000 5 250 17:56 17.12.2019
6080 Clouds 2 1011 93 9000 5 250 17:38 17.12.2019
6081 Clouds 2 1011 93 9000 5 250 17:18 17.12.2019
6082 Clouds 2 1011 93 9000 5 240 16:55 17.12.2019
6083 Clouds 1 1011 100 10000 6 240 16:37 17.12.2019
6084 Clouds 2 1011 100 10000 6 240 16:18 17.12.2019
6085 Rain 2 1011 93 10000 5 230 15:54 17.12.2019
6086 Rain 1 1010 100 9000 5 220 15:36 17.12.2019
6087 Rain 2 1011 100 8000 5 220 15:18 17.12.2019
6088 Rain 2 1011 100 8000 5 220 14:54 17.12.2019
6089 Rain 1 1011 100 10000 4 220 14:36 17.12.2019
6090 Rain 1 1011 100 9000 5 220 14:18 17.12.2019
6091 Rain 1 1011 100 9000 5 220 13:41 17.12.2019
6092 Rain 1 1011 100 6000 5 220 13:20 17.12.2019
6093 Rain 1 1011 100 6000 5 220 12:59 17.12.2019
6094 Rain 1 1011 100 6000 5 220 12:59 17.12.2019
6095 Snow 2 1011 93 7000 5 220 12:39 17.12.2019
6096 Snow 2 1012 93 10000 6 220 12:19 17.12.2019
6097 Snow 2 1012 93 10000 6 220 11:59 17.12.2019
6098 Snow 2 1012 93 10000 5 210 11:37 17.12.2019
6099 Clouds 2 1012 93 10000 4 210 11:19 17.12.2019
6100 Clouds 2 1012 93 10000 4 210 10:59 17.12.2019
6101 Clouds 2 1013 90 10000 3 210 10:40 17.12.2019
6102 Clouds 2 1013 90 10000 3 210 10:21 17.12.2019
6103 Clouds 2 1013 90 10000 3 220 09:59 17.12.2019
6104 Clouds 2 1013 93 10000 5 230 09:40 17.12.2019
6105 Clouds 2 1013 93 10000 5 230 09:19 17.12.2019
6106 Clouds 2 1013 93 10000 6 230 08:56 17.12.2019
6107 Clouds 2 1013 93 10000 5 220 08:38 17.12.2019
6108 Clouds 2 1013 93 10000 5 230 08:19 17.12.2019
6109 Clouds 2 1013 93 10000 5 230 07:45 17.12.2019
6110 Clouds 2 1013 93 10000 5 240 07:26 17.12.2019
6111 Clouds 2 1013 93 10000 5 250 06:56 17.12.2019
6112 Clouds 2 1012 93 10000 4 260 06:34 17.12.2019
6113 Rain 2 1012 93 10000 5 260 05:53 17.12.2019
6114 Rain 2 1012 93 9000 5 270 05:34 17.12.2019
6115 Rain 2 1012 93 10000 5 260 04:30 17.12.2019
6116 Rain 3 1011 93 10000 5 280 02:34 17.12.2019
6117 Rain 3 1011 93 10000 5 280 02:34 17.12.2019
6118 Clouds 3 1010 86 10000 6 270 01:55 17.12.2019
6119 Drizzle 3 1009 93 10000 6 270 00:58 17.12.2019
6120 Drizzle 3 1008 93 10000 8 260 00:37 17.12.2019
6121 Drizzle 3 1008 93 10000 8 260 00:19 17.12.2019
6122 Drizzle 3 1007 93 10000 7 260 23:41 16.12.2019
6123 Drizzle 3 1007 93 10000 7 260 23:19 16.12.2019
6124 Drizzle 3 1007 93 10000 7 250 22:56 16.12.2019
6125 Clouds 3 1007 93 10000 7 250 22:37 16.12.2019
6126 Clouds 3 1007 93 10000 7 250 22:19 16.12.2019
6127 Rain 3 1006 93 10000 7 240 21:55 16.12.2019
6128 Drizzle 3 1006 93 10000 7 250 21:37 16.12.2019
6129 Drizzle 3 1006 93 10000 7 250 21:19 16.12.2019
6130 Drizzle 3 1006 93 10000 7 240 20:57 16.12.2019
6131 Clouds 3 1006 93 10000 7 240 20:37 16.12.2019
6132 Clouds 3 1006 93 10000 7 240 20:19 16.12.2019
6133 Drizzle 3 1006 93 10000 7 230 19:55 16.12.2019
6134 Drizzle 3 1005 93 10000 7 230 19:37 16.12.2019
6135 Drizzle 3 1005 93 10000 6 230 19:18 16.12.2019
6136 Drizzle 3 1005 93 10000 6 230 18:56 16.12.2019
6137 Clouds 2 1005 93 10000 6 230 18:37 16.12.2019
6138 Clouds 2 1005 93 10000 6 220 18:19 16.12.2019
6139 Clouds 2 1005 93 10000 6 220 18:19 16.12.2019
6140 Clouds 2 1005 93 10000 6 220 17:57 16.12.2019
6141 Rain 2 1005 93 10000 5 220 17:37 16.12.2019
6142 Rain 2 1005 93 10000 5 220 17:37 16.12.2019
6143 Rain 2 1006 93 10000 5 210 17:19 16.12.2019
6144 Rain 2 1006 93 10000 5 210 16:55 16.12.2019
6145 Rain 2 1006 93 10000 5 210 16:37 16.12.2019
6146 Rain 2 1006 93 10000 5 210 16:19 16.12.2019
6147 Clouds 2 1006 93 10000 4 210 15:57 16.12.2019
6148 Clouds 2 1006 93 10000 5 200 15:38 16.12.2019
6149 Clouds 2 1006 93 10000 5 200 15:20 16.12.2019
6150 Clouds 2 1006 93 10000 4 190 14:55 16.12.2019
6151 Clouds 2 1006 93 10000 4 200 14:36 16.12.2019
6152 Clouds 2 1006 93 10000 4 200 14:18 16.12.2019
6153 Clouds 2 1006 93 10000 4 220 13:56 16.12.2019
6154 Clouds 2 1006 93 10000 5 220 13:37 16.12.2019
6155 Clouds 2 1006 93 10000 5 220 13:19 16.12.2019
6156 Clouds 2 1006 93 10000 5 210 12:56 16.12.2019
6157 Clouds 2 1006 93 9000 5 210 12:38 16.12.2019
6158 Clouds 2 1006 93 10000 5 200 12:18 16.12.2019
6159 Clouds 2 1006 93 10000 5 200 11:57 16.12.2019
6160 Clouds 2 1006 93 9000 5 200 11:38 16.12.2019
6161 Clouds 2 1006 93 9000 5 200 11:19 16.12.2019
6162 Clouds 2 1006 93 7000 5 200 10:54 16.12.2019
6163 Drizzle 2 1007 95 9000 5 190 10:36 16.12.2019
6164 Clouds 2 1007 93 10000 5 200 10:18 16.12.2019
6165 Clouds 2 1007 95 10000 6 190 09:43 16.12.2019
6166 Clouds 2 1007 93 10000 6 190 09:24 16.12.2019
6167 Clouds 1 1007 93 10000 6 190 08:40 16.12.2019
6168 Clouds 1 1007 90 10000 5 180 08:20 16.12.2019
6169 Clouds 1 1007 90 10000 6 190 08:20 16.12.2019
6170 Clouds 1 1007 90 10000 5 180 07:53 16.12.2019
6171 Clouds 1 1007 90 10000 5 200 07:31 16.12.2019
6172 Clouds 2 1007 93 10000 5 200 06:58 16.12.2019
6173 Clouds 1 1007 100 10000 5 200 06:40 16.12.2019
6174 Clouds 2 1008 100 10000 5 200 06:20 16.12.2019
6175 Clouds 2 1008 93 10000 5 210 05:41 16.12.2019
6176 Clouds 2 1008 93 10000 5 210 05:22 16.12.2019
6177 Clouds 2 1007 93 10000 6 220 03:29 16.12.2019
6178 Clouds 1 1007 100 10000 4 210 01:51 16.12.2019
6179 Clouds 1 1007 100 10000 5 210 01:33 16.12.2019
6180 Clouds 1 1006 100 10000 5 220 00:39 16.12.2019
6181 Clouds 1 1006 100 9000 5 220 00:20 16.12.2019
6182 Rain 1 1006 100 9000 5 220 23:57 15.12.2019
6183 Rain 1 1006 100 10000 5 210 23:37 15.12.2019
6184 Rain 1 1006 100 10000 5 210 23:19 15.12.2019
6185 Rain 1 1006 100 6000 4 200 22:54 15.12.2019
6186 Rain 1 1005 100 6000 4 170 22:36 15.12.2019
6187 Rain 1 1005 100 6000 4 170 22:18 15.12.2019
6188 Rain 1 1005 100 6000 4 170 21:54 15.12.2019
6189 Rain 1 1005 100 7000 4 160 21:36 15.12.2019
6190 Rain 1 1005 100 7000 4 160 21:18 15.12.2019
6191 Rain 1 1005 100 6000 5 150 20:54 15.12.2019
6192 Rain 1 1005 100 8000 4 160 20:36 15.12.2019
6193 Rain 1 1005 100 8000 4 160 20:18 15.12.2019
6194 Rain 1 1005 93 5000 4 150 19:54 15.12.2019
6195 Rain 2 1005 93 4800 5 160 19:36 15.12.2019
6196 Drizzle 2 1006 100 5000 6 160 19:18 15.12.2019
6197 Drizzle 2 1006 100 5000 6 160 18:54 15.12.2019
6198 Drizzle 2 1006 100 3400 5 160 18:36 15.12.2019
6199 Rain 2 1006 100 3900 6 150 18:18 15.12.2019
6200 Clouds 2 1006 100 7000 5 140 17:54 15.12.2019
6201 Clouds 1 1006 100 7000 5 140 17:36 15.12.2019
6202 Clouds 2 1006 100 10000 5 130 17:18 15.12.2019
6203 Drizzle 1 1006 100 8000 6 130 16:42 15.12.2019
6204 Drizzle 1 1006 100 8000 6 130 16:22 15.12.2019
6205 Rain 1 1007 100 5000 6 120 15:57 15.12.2019
6206 Drizzle 1 1007 100 3000 6 130 15:38 15.12.2019
6207 Drizzle 1 1007 95 2300 6 120 15:19 15.12.2019
6208 Drizzle 1 1007 95 2300 6 120 15:19 15.12.2019
6209 Drizzle 1 1007 95 2300 6 120 14:56 15.12.2019
6210 Rain 1 1007 95 2700 6 130 14:37 15.12.2019
6211 Rain 1 1007 94 2700 6 130 14:18 15.12.2019
6212 Rain 1 1008 90 3700 7 130 13:58 15.12.2019
6213 Mist 1 1008 90 2800 6 130 13:38 15.12.2019
6214 Mist 1 1008 94 3700 6 130 13:19 15.12.2019
6215 Mist 1 1008 94 3700 6 130 12:57 15.12.2019
6216 Rain 0 1008 94 3400 6 140 12:39 15.12.2019
6217 Rain 0 1008 94 3400 6 140 12:39 15.12.2019
6218 Rain 0 1008 94 3400 6 140 12:20 15.12.2019
6219 Rain 0 1008 94 3400 6 140 12:20 15.12.2019
6220 Rain 0 1009 94 5000 5 130 11:56 15.12.2019
6221 Rain 0 1009 94 6000 6 140 11:37 15.12.2019
6222 Rain 0 1009 94 6000 5 130 11:18 15.12.2019
6223 Rain 0 1009 94 6000 5 130 10:55 15.12.2019
6224 Rain 0 1009 94 7000 5 130 10:37 15.12.2019
6225 Clouds 0 1009 94 7000 5 130 10:18 15.12.2019
6226 Snow 0 1010 94 7000 6 140 09:41 15.12.2019
6227 Snow 0 1010 94 7000 6 140 09:20 15.12.2019
6228 Snow 0 1010 94 6000 6 140 08:59 15.12.2019
6229 Snow 0 1010 94 9000 6 140 08:41 15.12.2019
6230 Snow 0 1010 94 9000 6 140 08:22 15.12.2019
6231 Snow -1 1010 96 9000 6 140 07:56 15.12.2019
6232 Snow -1 1010 100 9000 5 140 07:35 15.12.2019
6233 Snow -1 1011 100 9000 4 140 06:52 15.12.2019
6234 Snow -1 1011 100 9000 5 140 06:20 15.12.2019
6235 Clouds -1 1011 100 8000 5 130 05:28 15.12.2019
6236 Snow -1 1011 92 5000 4 140 04:47 15.12.2019
6237 Snow -1 1011 92 2900 5 140 03:54 15.12.2019
6238 Clouds -1 1012 92 9000 6 150 02:34 15.12.2019
6239 Clouds -1 1012 92 9000 5 150 01:50 15.12.2019
6240 Clouds -1 1012 92 7000 5 140 01:28 15.12.2019
6241 Clouds -1 1012 92 7000 4 150 00:59 15.12.2019
6242 Clouds -1 1013 92 8000 5 160 00:41 15.12.2019
6243 Clouds -1 1013 92 8000 5 160 00:23 15.12.2019
6244 Clouds -1 1013 92 7000 5 160 23:40 14.12.2019
6245 Clouds -1 1013 92 7000 5 160 23:40 14.12.2019
6246 Clouds -1 1013 92 7000 5 160 23:40 14.12.2019
6247 Clouds -1 1013 92 7000 5 160 23:21 14.12.2019
6248 Mist -1 1013 92 4700 4 160 22:58 14.12.2019
6249 Mist -1 1013 100 4700 5 150 22:40 14.12.2019
6250 Mist -1 1013 100 4700 5 150 22:21 14.12.2019
6251 Mist -1 1013 100 4000 6 150 21:56 14.12.2019
6252 Clouds -2 1013 92 10000 6 140 21:38 14.12.2019
6253 Clouds -2 1013 92 10000 6 140 21:19 14.12.2019
6254 Clouds -2 1013 92 10000 6 150 20:57 14.12.2019
6255 Clouds -2 1013 86 10000 6 140 20:38 14.12.2019
6256 Clouds -1 1013 86 10000 6 130 20:19 14.12.2019
6257 Clouds -1 1013 86 10000 6 130 19:56 14.12.2019
6258 Clouds -2 1014 86 10000 6 150 19:37 14.12.2019
6259 Clouds -2 1014 86 10000 6 150 19:18 14.12.2019
6260 Clouds -2 1013 86 10000 5 140 18:56 14.12.2019
6261 Clouds -1 1014 86 10000 6 140 18:36 14.12.2019
6262 Clouds -1 1014 86 10000 6 140 18:18 14.12.2019
6263 Clouds -1 1014 92 10000 6 150 17:43 14.12.2019
6264 -273 0 0 0 0 0 17:23 14.12.2019
6265 Snow -1 1014 79 10000 6 140 16:56 14.12.2019
6266 Snow -1 1014 79 10000 7 140 16:38 14.12.2019
6267 Snow -1 1014 79 10000 7 140 16:18 14.12.2019
6268 Snow -1 1014 79 10000 5 140 15:42 14.12.2019
6269 Snow -1 1014 79 10000 5 140 15:21 14.12.2019
6270 Snow -1 1014 79 10000 5 140 15:21 14.12.2019
6271 Clouds -1 1014 79 10000 5 140 14:58 14.12.2019
6272 Clouds -1 1014 79 10000 5 150 14:38 14.12.2019
6273 Clouds -1 1014 84 10000 5 150 14:19 14.12.2019
6274 Clouds -1 1014 84 10000 5 150 14:19 14.12.2019
6275 Clouds 0 1014 80 10000 5 150 13:45 14.12.2019
6276 Clouds 0 1014 80 10000 6 150 13:21 14.12.2019
6277 Clouds 0 1014 80 10000 6 150 13:21 14.12.2019
6278 Clouds 0 1014 80 10000 6 150 12:59 14.12.2019
6279 Clouds 0 1014 80 10000 7 150 12:41 14.12.2019
6280 Clouds 0 1014 80 10000 7 150 12:21 14.12.2019
6281 Clouds 0 1014 80 10000 7 150 12:21 14.12.2019
6282 Clouds 0 1014 80 10000 6 150 11:59 14.12.2019
6283 Clouds 0 1014 80 10000 7 160 11:40 14.12.2019
6284 Clouds 0 1014 80 10000 7 160 11:20 14.12.2019
6285 Clouds 0 1015 80 10000 5 150 10:59 14.12.2019
6286 Clouds 0 1015 80 10000 5 150 10:59 14.12.2019
6287 Clouds 0 1015 80 10000 6 140 10:40 14.12.2019
6288 Clouds 0 1015 80 10000 6 140 10:22 14.12.2019
6289 Clouds 0 1015 80 10000 7 140 09:59 14.12.2019
6290 Clouds 0 1015 80 10000 6 130 09:40 14.12.2019
6291 Clouds 0 1015 80 10000 6 130 09:20 14.12.2019
6292 Clouds 0 1015 80 10000 4 150 08:43 14.12.2019
6293 Clouds 0 1015 80 10000 4 150 08:20 14.12.2019
6294 Clouds 0 1015 82 10000 5 170 07:55 14.12.2019
6295 Clouds 0 1015 82 10000 6 170 07:36 14.12.2019
6296 Clouds 0 1015 82 10000 6 170 07:18 14.12.2019
6297 Clouds 0 1014 82 10000 6 170 06:39 14.12.2019
6298 Clouds 0 1014 82 10000 6 170 06:20 14.12.2019
6299 Clouds 0 1014 85 10000 6 160 05:22 14.12.2019
6300 Clouds 0 1014 85 10000 6 170 02:49 14.12.2019
6301 Clouds 0 1015 86 10000 6 170 02:22 14.12.2019
6302 Clouds 0 1015 86 10000 6 170 01:43 14.12.2019
6303 Snow 0 1015 86 10000 6 180 00:54 14.12.2019
6304 Snow 0 1014 86 10000 6 170 00:36 14.12.2019
6305 Snow 0 1014 86 10000 5 170 00:18 14.12.2019
6306 Snow 0 1015 89 10000 5 170 23:39 13.12.2019
6307 Snow 0 1015 90 10000 5 170 23:19 13.12.2019
6308 Snow 0 1015 86 10000 6 160 22:55 13.12.2019
6309 Snow 0 1015 86 10000 5 160 22:36 13.12.2019
6310 Snow 0 1015 86 10000 5 160 22:18 13.12.2019
6311 Snow 0 1015 86 10000 4 160 21:40 13.12.2019
6312 Snow 0 1015 86 10000 4 160 21:21 13.12.2019
6313 Snow 0 1015 86 10000 4 160 20:57 13.12.2019
6314 Snow 0 1015 90 9000 4 150 20:38 13.12.2019
6315 Snow 0 1015 87 9000 4 150 20:19 13.12.2019
6316 Snow 0 1015 87 9000 4 150 20:19 13.12.2019
6317 Snow 0 1015 87 9000 4 150 19:56 13.12.2019
6318 Snow 0 1015 87 9000 4 160 19:37 13.12.2019
6319 Snow 0 1015 87 9000 4 160 19:18 13.12.2019
6320 Clouds 0 1015 87 7000 4 150 18:42 13.12.2019
6321 Clouds 0 1015 87 8000 5 150 18:20 13.12.2019
6322 Clouds 0 1015 87 7000 4 150 18:20 13.12.2019
6323 Clouds 0 1015 87 8000 5 150 17:59 13.12.2019
6324 Snow 0 1015 87 10000 6 150 17:39 13.12.2019
6325 Snow 0 1016 82 10000 5 160 17:18 13.12.2019
6326 Snow 0 1016 82 10000 5 160 17:18 13.12.2019
6327 Snow 0 1016 82 10000 5 160 16:56 13.12.2019
6328 Snow 0 1016 82 10000 6 160 16:38 13.12.2019
6329 Snow 0 1016 82 10000 6 160 16:19 13.12.2019
6330 Snow 0 1015 82 9000 5 150 15:42 13.12.2019
6331 Snow 0 1015 82 9000 5 150 15:21 13.12.2019
6332 Snow 0 1016 82 9000 5 150 14:57 13.12.2019
6333 Clouds 0 1016 74 10000 5 150 14:37 13.12.2019
6334 Clouds 0 1016 74 10000 5 150 14:19 13.12.2019
6335 Clouds 0 1016 80 10000 4 160 13:43 13.12.2019
6336 Clouds 0 1016 81 10000 4 160 13:24 13.12.2019
6337 Clouds 0 1016 74 10000 5 160 12:58 13.12.2019
6338 Clouds 0 1016 80 10000 6 170 12:40 13.12.2019
6339 Clouds 0 1016 80 10000 5 150 12:18 13.12.2019
6340 Clouds 0 1016 80 10000 4 180 11:45 13.12.2019
6341 Clouds 0 1016 80 10000 4 180 11:26 13.12.2019
6342 Clouds 0 1017 80 10000 5 180 10:57 13.12.2019
6343 Clouds 0 1017 80 10000 4 180 10:39 13.12.2019
6344 Clouds 1 1017 80 10000 4 180 10:21 13.12.2019
6345 Clouds 1 1017 80 10000 4 170 09:42 13.12.2019
6346 Clouds 1 1017 80 10000 4 170 09:22 13.12.2019
6347 Clouds 1 1018 86 10000 5 170 08:55 13.12.2019
6348 Clouds 1 1017 86 10000 4 170 08:36 13.12.2019
6349 Clouds 1 1017 86 10000 5 170 08:18 13.12.2019
6350 Clouds 1 1017 86 10000 5 170 07:42 13.12.2019
6351 Clouds 1 1017 86 10000 5 170 07:19 13.12.2019
6352 Clouds 1 1017 86 10000 4 190 06:45 13.12.2019
6353 Clouds 1 1017 86 10000 4 190 06:25 13.12.2019
6354 Clouds 1 1017 74 10000 5 190 05:38 13.12.2019
6355 Clouds 1 1017 69 10000 4 190 05:20 13.12.2019
6356 Clouds 1 1017 69 10000 4 170 04:29 13.12.2019
6357 Clouds 2 1018 74 10000 4 180 02:57 13.12.2019
6358 Clouds 1 1018 74 10000 3 200 02:30 13.12.2019
6359 Clouds 2 1018 80 10000 4 180 01:38 13.12.2019
6360 Clouds 2 1019 80 10000 5 170 00:51 13.12.2019
6361 Clouds 2 1019 88 10000 4 180 00:28 13.12.2019
6362 Clouds 2 1019 88 10000 5 180 23:44 12.12.2019
6363 Clouds 2 1019 88 10000 5 180 23:26 12.12.2019
6364 Clouds 2 1019 88 10000 5 180 22:57 12.12.2019
6365 Clouds 2 1020 88 10000 5 180 22:39 12.12.2019
6366 Clouds 2 1020 88 10000 5 180 22:21 12.12.2019
6367 Clouds 2 1020 88 10000 5 190 21:56 12.12.2019
6368 Clouds 2 1020 88 10000 5 190 21:37 12.12.2019
6369 Clouds 2 1020 88 10000 5 190 21:19 12.12.2019
6370 Clouds 2 1020 88 10000 5 190 20:59 12.12.2019
6371 Clouds 2 1020 86 10000 4 190 20:40 12.12.2019
6372 Clouds 2 1020 86 10000 4 190 20:22 12.12.2019
6373 Clouds 2 1020 86 10000 5 200 19:56 12.12.2019
6374 Clouds 3 1020 86 10000 4 190 19:38 12.12.2019
6375 Clouds 3 1020 86 10000 4 190 19:20 12.12.2019
6376 Clouds 3 1020 86 10000 4 190 18:56 12.12.2019
6377 Clouds 3 1020 86 10000 4 190 18:56 12.12.2019
6378 Clouds 3 1020 86 10000 5 200 18:38 12.12.2019
6379 Clouds 3 1020 86 10000 5 200 18:19 12.12.2019
6380 Rain 3 1020 86 10000 4 190 17:57 12.12.2019
6381 Clouds 3 1021 86 9000 5 200 17:38 12.12.2019
6382 Clouds 3 1021 86 10000 5 190 17:19 12.12.2019
6383 Clouds 3 1021 86 10000 5 190 16:55 12.12.2019
6384 Clouds 3 1021 86 10000 5 190 16:37 12.12.2019
6385 Clouds 3 1021 86 10000 5 190 16:19 12.12.2019
6386 Clouds 3 1021 86 10000 5 190 15:54 12.12.2019
6387 Clouds 3 1021 86 10000 5 190 15:54 12.12.2019
6388 Drizzle 3 1021 86 10000 4 190 15:36 12.12.2019
6389 Clouds 3 1021 86 10000 5 190 15:18 12.12.2019
6390 Clouds 3 1021 86 10000 5 190 15:18 12.12.2019
6391 Clouds 3 1021 86 10000 4 180 14:38 12.12.2019
6392 Clouds 3 1021 86 10000 4 180 14:20 12.12.2019
6393 Clouds 3 1021 86 10000 4 180 13:57 12.12.2019
6394 Clouds 3 1021 86 10000 4 180 13:39 12.12.2019
6395 Clouds 3 1021 86 10000 4 180 13:21 12.12.2019
6396 Clouds 3 1022 86 10000 4 190 12:57 12.12.2019
6397 Clouds 3 1022 86 10000 4 180 12:38 12.12.2019
6398 Clouds 2 1022 93 10000 3 170 12:20 12.12.2019
6399 Clouds 2 1022 93 10000 3 170 11:55 12.12.2019
6400 Clouds 2 1022 93 9000 4 200 11:37 12.12.2019
6401 Drizzle 2 1022 93 8000 4 190 11:19 12.12.2019
6402 Clouds 2 1022 100 7000 4 190 10:55 12.12.2019
6403 Clouds 2 1022 100 7000 4 190 10:37 12.12.2019
6404 Clouds 2 1022 100 7000 4 190 10:18 12.12.2019
6405 Drizzle 2 1023 93 7000 3 190 10:18 12.12.2019
6406 Drizzle 2 1023 93 7000 4 170 09:42 12.12.2019
6407 Drizzle 1 1023 93 7000 4 170 09:23 12.12.2019
6408 Drizzle 1 1023 100 7000 3 170 08:56 12.12.2019
6409 Clouds 1 1023 97 8000 3 160 08:38 12.12.2019
6410 Clouds 1 1023 97 8000 3 160 08:20 12.12.2019
6411 Clouds 1 1023 97 8000 3 150 07:46 12.12.2019
6412 Clouds 1 1023 97 8000 3 150 07:25 12.12.2019
6413 Clouds 1 1023 97 9000 3 150 06:54 12.12.2019
6414 Clouds 1 1023 97 9000 3 150 06:33 12.12.2019
6415 Snow 0 1023 86 10000 3 130 05:39 12.12.2019
6416 Snow 0 1023 92 10000 3 130 04:52 12.12.2019
6417 Snow 0 1023 92 10000 3 130 04:52 12.12.2019
6418 Snow 0 1023 92 9000 4 140 03:31 12.12.2019
6419 Clouds 0 1023 86 10000 4 160 02:38 12.12.2019
6420 Clouds 0 1023 86 10000 4 160 02:20 12.12.2019
6421 Clouds 0 1023 84 10000 4 140 01:40 12.12.2019
6422 Clouds 0 1024 84 10000 2 110 01:22 12.12.2019
6423 Clouds 0 1024 84 10000 3 100 00:46 12.12.2019
6424 Clouds 0 1024 84 10000 3 100 00:20 12.12.2019
6425 Snow 0 1024 84 9000 2 100 23:44 11.12.2019
6426 Snow 0 1024 83 9000 2 100 23:21 11.12.2019
6427 Clouds 0 1024 83 10000 2 110 22:57 11.12.2019
6428 Clouds 0 1024 83 10000 3 100 22:39 11.12.2019
6429 Clouds 0 1024 83 10000 3 100 22:20 11.12.2019
6430 Clouds 0 1024 83 10000 3 90 21:57 11.12.2019
6431 Clouds 0 1024 83 10000 4 100 21:38 11.12.2019
6432 Snow 0 1024 83 10000 3 100 21:20 11.12.2019
6433 Snow 0 1024 83 10000 3 100 20:56 11.12.2019
6434 Snow 0 1024 92 10000 3 90 20:37 11.12.2019
6435 Snow 0 1024 92 10000 3 90 20:37 11.12.2019
6436 Snow 0 1024 92 10000 3 90 20:19 11.12.2019
6437 Clouds 1 1024 92 10000 2 60 19:58 11.12.2019
6438 Snow 1 1024 92 10000 2 50 19:39 11.12.2019
6439 Clouds 1 1023 92 10000 2 60 19:19 11.12.2019
6440 Clouds 0 1023 92 10000 2 30 18:42 11.12.2019
6441 Clouds 1 1023 85 10000 1 120 18:21 11.12.2019
6442 Clouds 1 1023 85 10000 1 120 17:57 11.12.2019
6443 Clouds 1 1023 85 10000 1 120 17:57 11.12.2019
6444 Clouds 1 1023 85 10000 3 70 17:39 11.12.2019
6445 Clouds 1 1023 87 10000 3 70 17:19 11.12.2019
6446 Clouds 1 1023 87 10000 3 70 16:57 11.12.2019
6447 Clouds 1 1023 87 10000 3 50 16:39 11.12.2019
6448 Clouds 1 1023 87 10000 3 50 16:21 11.12.2019
6449 Clouds 1 1023 87 10000 3 40 15:59 11.12.2019
6450 Clouds 1 1022 87 10000 3 40 15:40 11.12.2019
6451 Clouds 1 1022 87 10000 3 40 15:22 11.12.2019
6452 Clouds 1 1022 87 10000 3 40 14:56 11.12.2019
6453 Clouds 2 1022 87 10000 3 40 14:38 11.12.2019
6454 Clouds 2 1021 86 10000 3 20 14:20 11.12.2019
6455 Clouds 2 1021 86 10000 3 20 13:55 11.12.2019
6456 Snow 2 1021 86 8000 3 10 13:37 11.12.2019
6457 Snow 2 1021 86 8000 3 10 13:18 11.12.2019
6458 Clouds 3 1021 86 10000 3 340 12:56 11.12.2019
6459 Clouds 3 1021 86 10000 3 10 12:38 11.12.2019
6460 Clouds 3 1021 86 10000 3 10 12:19 11.12.2019
6461 Clouds 3 1020 83 10000 3 350 11:57 11.12.2019
6462 Clouds 3 1020 83 10000 4 340 11:38 11.12.2019
6463 Clouds 3 1020 87 10000 4 340 11:18 11.12.2019
6464 Mist 3 1019 100 2500 2 300 10:45 11.12.2019
6465 Clouds 4 1019 100 10000 4 360 10:27 11.12.2019
6466 Clouds 3 1019 93 10000 4 10 09:59 11.12.2019
6467 Clouds 3 1019 93 10000 4 330 09:39 11.12.2019
6468 Drizzle 3 1019 100 10000 4 350 09:20 11.12.2019
6469 Drizzle 3 1019 100 10000 4 350 08:57 11.12.2019
6470 Clouds 3 1018 100 10000 5 340 08:38 11.12.2019
6471 Drizzle 3 1017 100 5000 4 290 08:19 11.12.2019
6472 Drizzle 3 1017 100 5000 4 290 07:55 11.12.2019
6473 Drizzle 3 1017 100 3700 4 260 07:37 11.12.2019
6474 Mist 3 1017 100 5000 4 260 07:18 11.12.2019
6475 Mist 3 1017 100 5000 4 260 07:18 11.12.2019
6476 Mist 3 1016 100 5000 4 250 06:43 11.12.2019
6477 Mist 3 1016 100 5000 4 250 06:22 11.12.2019
6478 Mist 3 1016 100 5000 4 240 05:41 11.12.2019
6479 Mist 3 1016 100 5000 4 240 05:19 11.12.2019
6480 Mist 3 1015 100 5000 3 250 04:27 11.12.2019
6481 Drizzle 3 1014 100 1900 4 250 02:49 11.12.2019
6482 Fog 3 1014 100 800 5 230 01:25 11.12.2019
6483 Mist 3 1014 100 1400 6 240 00:47 11.12.2019
6484 Mist 3 1014 100 1400 6 240 00:21 11.12.2019
6485 Mist 3 1014 100 2700 6 240 23:49 10.12.2019
6486 Mist 3 1014 100 3300 5 230 23:30 10.12.2019
6487 Mist 3 1013 100 3700 5 220 22:59 10.12.2019
6488 Mist 3 1013 100 3700 5 220 22:59 10.12.2019
6489 Mist 3 1013 100 4200 4 230 22:40 10.12.2019
6490 Mist 3 1013 100 4200 4 230 22:40 10.12.2019
6491 Mist 3 1013 100 4200 4 230 22:22 10.12.2019
6492 Mist 3 1013 100 4000 5 220 21:57 10.12.2019
6493 Mist 3 1013 100 3600 4 220 21:39 10.12.2019
6494 Mist 3 1013 100 4300 4 220 21:21 10.12.2019
6495 Mist 3 1013 100 4300 4 220 20:57 10.12.2019
6496 Mist 3 1013 100 4300 4 230 20:37 10.12.2019
6497 Mist 3 1013 100 3300 5 230 20:19 10.12.2019
6498 Mist 3 1013 100 3300 5 230 19:55 10.12.2019
6499 Mist 3 1013 100 3100 5 230 19:37 10.12.2019
6500 Mist 3 1013 100 3100 5 230 19:18 10.12.2019
6501 Mist 3 1013 100 3100 5 220 18:40 10.12.2019
6502 Mist 3 1013 100 3100 5 220 18:21 10.12.2019
6503 Mist 3 1013 100 4400 4 210 17:58 10.12.2019
6504 Mist 3 1013 100 3900 4 210 17:40 10.12.2019
6505 Mist 3 1013 100 3900 4 210 17:40 10.12.2019
6506 Mist 3 1012 100 4600 4 200 17:20 10.12.2019
6507 Mist 3 1012 100 4600 4 200 16:54 10.12.2019
6508 Mist 3 1012 100 4800 5 210 16:36 10.12.2019
6509 Rain 3 1012 100 4800 5 210 16:18 10.12.2019
6510 Clouds 3 1012 100 6000 4 220 15:38 10.12.2019
6511 Clouds 3 1012 100 6000 4 220 15:18 10.12.2019
6512 Rain 3 1012 100 5000 5 210 14:56 10.12.2019
6513 Rain 3 1012 100 5000 5 200 14:37 10.12.2019
6514 Mist 3 1012 100 4600 4 190 14:19 10.12.2019
6515 Mist 3 1012 100 4600 4 190 13:57 10.12.2019
6516 Mist 3 1012 100 4500 4 200 13:39 10.12.2019
6517 Mist 3 1012 100 5000 5 210 13:20 10.12.2019
6518 Mist 3 1012 100 5000 5 210 12:47 10.12.2019
6519 Drizzle 3 1012 100 5000 4 200 12:27 10.12.2019
6520 Drizzle 3 1012 100 5000 4 210 11:55 10.12.2019
6521 Drizzle 3 1012 100 7000 4 190 11:37 10.12.2019
6522 Drizzle 3 1012 100 7000 4 190 11:18 10.12.2019
6523 Clouds 3 1012 100 9000 4 200 10:42 10.12.2019
6524 Clouds 3 1012 100 9000 4 200 10:24 10.12.2019
6525 Clouds 4 1012 93 10000 4 200 09:57 10.12.2019
6526 Clouds 3 1012 93 10000 4 200 09:39 10.12.2019
6527 Clouds 3 1012 93 10000 4 200 09:20 10.12.2019
6528 Clouds 3 1012 100 10000 3 190 08:58 10.12.2019
6529 Drizzle 3 1012 100 10000 4 210 08:39 10.12.2019
6530 Drizzle 3 1012 100 10000 4 210 08:20 10.12.2019
6531 Drizzle 3 1012 100 9000 4 210 07:45 10.12.2019
6532 Clouds 3 1011 100 9000 4 220 07:27 10.12.2019
6533 Drizzle 3 1011 93 9000 4 210 06:55 10.12.2019
6534 Drizzle 3 1011 100 9000 4 210 06:37 10.12.2019
6535 Drizzle 3 1011 100 9000 4 210 06:19 10.12.2019
6536 Clouds 3 1011 100 8000 4 220 05:47 10.12.2019
6537 Drizzle 3 1010 100 5000 4 240 04:23 10.12.2019
6538 Clouds 3 1009 100 7000 5 230 03:25 10.12.2019
6539 Clouds 3 1008 100 9000 5 230 01:57 10.12.2019
6540 Clouds 3 1008 93 10000 4 210 01:38 10.12.2019
6541 Clouds 3 1008 93 10000 4 210 01:18 10.12.2019
6542 Clouds 3 1007 93 8000 5 220 00:29 10.12.2019
6543 Clouds 3 1007 93 10000 5 220 23:58 09.12.2019
6544 Clouds 3 1007 93 10000 5 220 23:39 09.12.2019
6545 Clouds 3 1007 93 10000 5 220 23:39 09.12.2019
6546 Clouds 4 1007 93 9000 4 210 23:20 09.12.2019
6547 Clouds 4 1007 93 9000 4 210 23:20 09.12.2019
6548 Clouds 4 1007 93 9000 4 210 22:56 09.12.2019
6549 Rain 4 1006 93 6000 4 220 22:38 09.12.2019
6550 Rain 4 1006 93 6000 4 220 22:38 09.12.2019
6551 Clouds 4 1006 86 10000 5 220 22:18 09.12.2019
6552 Clouds 4 1006 86 10000 5 220 21:55 09.12.2019
6553 Clouds 4 1006 86 10000 6 220 21:37 09.12.2019
6554 Clouds 4 1006 86 10000 6 220 21:18 09.12.2019
6555 Clouds 4 1005 86 10000 6 220 20:55 09.12.2019
6556 Clouds 4 1005 86 10000 6 210 20:37 09.12.2019
6557 Clouds 4 1005 86 10000 6 220 20:18 09.12.2019
6558 Clouds 4 1005 86 10000 6 220 19:55 09.12.2019
6559 Clouds 4 1005 86 10000 6 220 19:55 09.12.2019
6560 Clouds 4 1004 86 10000 6 220 19:37 09.12.2019
6561 Clouds 4 1004 86 10000 6 220 19:37 09.12.2019
6562 Clouds 4 1004 86 10000 6 210 19:18 09.12.2019
6563 Clouds 4 1004 86 10000 6 210 18:54 09.12.2019
6564 Clouds 4 1004 86 10000 5 220 18:36 09.12.2019
6565 Clouds 4 1004 86 10000 5 220 18:18 09.12.2019
6566 Clouds 4 1004 86 10000 5 220 18:18 09.12.2019
6567 Clouds 4 1004 86 10000 5 220 18:18 09.12.2019
6568 Clouds 4 1004 86 10000 6 210 17:55 09.12.2019
6569 Clouds 4 1004 86 10000 5 220 17:37 09.12.2019
6570 Clouds 4 1004 86 10000 5 220 17:18 09.12.2019
6571 Clouds 4 1004 86 10000 5 220 17:18 09.12.2019
6572 Clouds 4 1004 86 10000 6 220 16:54 09.12.2019
6573 Clouds 4 1004 86 10000 6 220 16:54 09.12.2019
6574 Clouds 4 1003 93 10000 7 220 16:36 09.12.2019
6575 Clouds 4 1003 93 10000 7 220 16:18 09.12.2019
6576 Clouds 4 1003 93 10000 6 220 15:54 09.12.2019
6577 Clouds 4 1003 93 10000 7 220 15:36 09.12.2019
6578 Clouds 3 1003 93 10000 5 210 15:18 09.12.2019
6579 Drizzle 3 1003 93 5000 5 210 14:41 09.12.2019
6580 Drizzle 3 1003 93 5000 5 210 14:18 09.12.2019
6581 Drizzle 3 1003 93 5000 5 210 14:18 09.12.2019
6582 Rain 4 1002 93 10000 6 210 13:56 09.12.2019
6583 Rain 4 1002 80 10000 6 220 13:38 09.12.2019
6584 Rain 4 1002 80 10000 6 220 13:19 09.12.2019
6585 Clouds 4 1002 80 10000 6 220 12:56 09.12.2019
6586 Clouds 4 1002 80 10000 6 210 12:37 09.12.2019
6587 Clouds 4 1001 80 10000 7 210 12:19 09.12.2019
6588 Clouds 4 1001 80 10000 7 210 11:55 09.12.2019
6589 Clouds 4 1001 80 10000 7 210 11:37 09.12.2019
6590 Clouds 4 1001 80 10000 6 200 11:18 09.12.2019
6591 Clouds 4 1001 80 10000 6 200 11:18 09.12.2019
6592 Clouds 4 1002 80 10000 6 200 10:40 09.12.2019
6593 Clouds 4 1002 80 10000 6 200 10:20 09.12.2019
6594 Clouds 4 1001 80 10000 7 190 09:58 09.12.2019
6595 Clouds 4 1001 80 10000 7 190 09:40 09.12.2019
6596 Clouds 4 1001 80 10000 7 190 09:21 09.12.2019
6597 Rain 3 1001 80 10000 6 200 08:44 09.12.2019
6598 Rain 3 1001 80 10000 6 200 08:25 09.12.2019
6599 Clouds 3 1002 86 10000 8 190 07:56 09.12.2019
6600 Clouds 3 1001 86 10000 7 190 07:38 09.12.2019
6601 Clouds 3 1001 86 10000 7 190 07:20 09.12.2019
6602 Clouds 3 1001 86 10000 7 190 06:43 09.12.2019
6603 Clouds 3 1001 86 10000 7 190 06:24 09.12.2019
6604 Clouds 2 1002 86 10000 7 190 05:26 09.12.2019
6605 Clouds 2 1003 96 10000 7 190 04:33 09.12.2019
6606 Clouds 2 1003 80 10000 6 190 03:20 09.12.2019
6607 Clouds 2 1003 74 10000 7 190 02:24 09.12.2019
6608 Clouds 2 1004 74 10000 6 200 01:42 09.12.2019
6609 Clouds 2 1004 74 10000 6 200 01:42 09.12.2019
6610 Clouds 2 1004 74 10000 6 200 00:46 09.12.2019
6611 Clouds 2 1004 74 10000 6 190 00:27 09.12.2019
6612 Clouds 2 1004 74 10000 6 220 23:43 08.12.2019
6613 Clouds 2 1004 74 10000 6 220 23:24 08.12.2019
6614 Clouds 2 1004 80 10000 5 210 22:57 08.12.2019
6615 Clouds 2 1005 80 10000 5 200 22:39 08.12.2019
6616 Clouds 2 1005 80 10000 5 200 22:39 08.12.2019
6617 Clouds 2 1005 90 10000 5 210 22:19 08.12.2019
6618 Clouds 2 1005 90 10000 5 210 21:58 08.12.2019
6619 Clouds 2 1005 90 10000 5 210 21:40 08.12.2019
6620 Clouds 2 1005 90 10000 5 220 21:21 08.12.2019
6621 Clouds 2 1005 90 10000 5 220 20:57 08.12.2019
6622 Clouds 2 1005 90 10000 6 220 20:38 08.12.2019
6623 Clouds 2 1005 85 10000 6 220 20:20 08.12.2019
6624 Clouds 2 1005 86 10000 6 220 19:59 08.12.2019
6625 Clouds 2 1004 86 10000 7 230 19:41 08.12.2019
6626 Clouds 2 1004 86 10000 7 230 19:23 08.12.2019
6627 Clouds 2 1004 86 10000 7 230 19:23 08.12.2019
6628 Clouds 2 1004 86 10000 6 230 18:56 08.12.2019
6629 Clouds 2 1004 86 10000 7 230 18:37 08.12.2019
6630 Clouds 2 1004 86 10000 7 230 18:19 08.12.2019
6631 Clouds 2 1004 86 10000 6 230 17:57 08.12.2019
6632 Clouds 2 1003 86 10000 7 240 17:39 08.12.2019
6633 Rain 2 1003 93 10000 8 240 17:20 08.12.2019
6634 Rain 2 1003 93 10000 8 240 17:20 08.12.2019
6635 Clouds 2 1003 87 10000 7 240 17:20 08.12.2019
6636 Rain 2 1003 93 10000 8 240 16:57 08.12.2019
6637 Clouds 2 1003 93 10000 7 230 16:39 08.12.2019
6638 Clouds 2 1003 93 10000 7 230 16:21 08.12.2019
6639 Clouds 3 1002 93 10000 7 230 15:56 08.12.2019
6640 Clouds 2 1001 93 10000 6 220 15:37 08.12.2019
6641 Clouds 2 1001 93 10000 6 220 15:18 08.12.2019
6642 Rain 2 1001 93 9000 6 220 14:44 08.12.2019
6643 Rain 2 1001 93 9000 6 220 14:24 08.12.2019
6644 Rain 2 1000 93 10000 6 210 13:59 08.12.2019
6645 Clouds 2 1000 93 10000 7 220 13:40 08.12.2019
6646 Rain 2 1000 95 10000 7 220 13:22 08.12.2019
6647 Rain 2 1000 95 10000 7 220 12:58 08.12.2019
6648 Rain 2 1000 95 10000 7 220 12:58 08.12.2019
6649 Rain 2 1000 95 9000 7 220 12:38 08.12.2019
6650 Clouds 2 999 95 10000 7 220 12:19 08.12.2019
6651 Clouds 2 999 95 10000 7 220 11:57 08.12.2019
6652 Clouds 2 999 95 10000 7 210 11:37 08.12.2019
6653 Clouds 2 999 87 10000 7 210 11:19 08.12.2019
6654 Clouds 2 999 87 10000 7 210 10:55 08.12.2019
6655 Clouds 2 999 87 10000 7 210 10:36 08.12.2019
6656 Clouds 2 999 87 10000 7 210 10:18 08.12.2019
6657 Clouds 1 1000 80 10000 6 210 09:54 08.12.2019
6658 Clouds 1 1000 80 10000 7 220 09:36 08.12.2019
6659 Clouds 1 1000 80 10000 7 220 09:18 08.12.2019
6660 Clouds 1 999 86 10000 7 210 08:41 08.12.2019
6661 Clouds 1 999 86 10000 7 210 08:23 08.12.2019
6662 Clouds 1 999 86 10000 7 210 07:55 08.12.2019
6663 Clouds 1 999 86 10000 6 210 07:36 08.12.2019
6664 Clouds 1 999 86 10000 6 210 07:18 08.12.2019
6665 Clouds 0 998 83 10000 7 200 06:40 08.12.2019
6666 Clouds 0 998 83 10000 7 200 06:20 08.12.2019
6667 Clouds 0 998 83 9000 6 210 05:23 08.12.2019
6668 Clouds 0 998 81 10000 6 210 04:46 08.12.2019
6669 Clouds 0 998 81 10000 6 210 03:39 08.12.2019
6670 Clouds 0 998 81 10000 7 200 02:43 08.12.2019
6671 Clouds 0 998 74 10000 7 200 02:20 08.12.2019
6672 Clouds -1 999 80 10000 7 200 01:41 08.12.2019
6673 Clouds -1 999 80 10000 7 200 00:56 08.12.2019
6674 Clouds -1 999 80 10000 7 200 00:36 08.12.2019
6675 Clouds -1 999 80 10000 7 200 00:18 08.12.2019
6676 Clouds -1 999 75 10000 6 200 23:39 07.12.2019
6677 Clouds 0 999 72 10000 6 200 23:20 07.12.2019
6678 Clouds 0 1000 72 10000 7 200 22:56 07.12.2019
6679 Clouds 0 1000 72 10000 6 200 22:37 07.12.2019
6680 Clouds 0 1000 72 10000 6 200 22:19 07.12.2019
6681 Clouds 0 1000 72 10000 5 200 21:55 07.12.2019
6682 Clouds 0 1000 72 10000 5 200 21:37 07.12.2019
6683 Clouds 0 1000 72 10000 5 200 21:19 07.12.2019
6684 Clouds 0 1001 72 10000 6 200 20:38 07.12.2019
6685 Clouds 0 1001 72 10000 5 200 20:20 07.12.2019
6686 Clouds 0 1001 72 10000 5 200 19:58 07.12.2019
6687 Clouds 0 1001 72 10000 6 200 19:39 07.12.2019
6688 Clouds -1 1001 72 10000 6 200 19:21 07.12.2019
6689 Clouds -1 1002 72 10000 5 200 18:59 07.12.2019
6690 Clouds 0 1002 69 10000 5 200 18:40 07.12.2019
6691 Clouds 0 1002 69 10000 5 200 18:18 07.12.2019
6692 Clouds 0 1002 74 10000 6 200 17:56 07.12.2019
6693 Clouds 0 1002 74 10000 6 200 17:37 07.12.2019
6694 Clouds 1 1002 74 10000 6 200 17:19 07.12.2019
6695 Clouds 1 1003 80 10000 6 200 16:56 07.12.2019
6696 Clouds 1 1003 80 10000 6 200 16:36 07.12.2019
6697 Clouds 1 1003 80 10000 5 200 16:18 07.12.2019
6698 Clouds 1 1003 86 10000 4 200 15:41 07.12.2019
6699 Clouds 1 1003 86 10000 4 200 15:23 07.12.2019
6700 Clouds 2 1003 86 10000 4 200 14:57 07.12.2019
6701 Clouds 2 1003 78 10000 3 190 14:38 07.12.2019
6702 Clouds 2 1003 85 10000 3 190 14:18 07.12.2019
6703 Clouds 2 1003 85 6000 4 200 13:41 07.12.2019
6704 Clouds 2 1003 86 6000 4 200 13:21 07.12.2019
6705 Drizzle 2 1003 86 4500 5 190 12:56 07.12.2019
6706 Drizzle 2 1004 86 2800 4 200 12:38 07.12.2019
6707 Drizzle 2 1004 86 2800 4 200 12:20 07.12.2019
6708 Clouds 1 1004 86 9000 4 210 11:56 07.12.2019
6709 Clouds 1 1004 86 10000 4 220 11:37 07.12.2019
6710 Clouds 1 1004 87 10000 5 210 11:19 07.12.2019
6711 Clouds 1 1004 87 10000 5 210 10:37 07.12.2019
6712 Clouds 1 1004 87 10000 5 210 10:19 07.12.2019
6713 Clouds 1 1004 87 10000 5 210 10:19 07.12.2019
6714 Clouds 1 1005 86 9000 5 220 09:41 07.12.2019
6715 Clouds 1 1005 86 9000 5 220 09:22 07.12.2019
6716 Clouds 1 1005 86 9000 5 220 08:56 07.12.2019
6717 Rain 1 1005 86 9000 5 220 08:37 07.12.2019
6718 Rain 1 1005 90 8000 5 220 08:19 07.12.2019
6719 Rain 1 1004 90 7000 6 220 07:44 07.12.2019
6720 Rain 1 1004 90 7000 6 220 07:23 07.12.2019
6721 Rain 1 1004 86 5000 5 220 06:45 07.12.2019
6722 Rain 1 1004 90 6000 5 220 06:24 07.12.2019
6723 Rain 1 1004 86 8000 5 220 05:25 07.12.2019
6724 Clouds 1 1004 80 10000 5 220 03:55 07.12.2019
6725 Clouds 1 1004 80 10000 5 230 02:59 07.12.2019
6726 Clouds 1 1004 80 10000 6 230 02:21 07.12.2019
6727 Clouds 1 1004 80 10000 8 230 01:34 07.12.2019
6728 Clouds 1 1004 80 10000 7 240 00:52 07.12.2019
6729 Clouds 1 1004 80 10000 7 240 00:19 07.12.2019
6730 Clouds 1 1004 80 10000 7 240 00:19 07.12.2019
6731 Clouds 1 1004 74 10000 7 240 23:55 06.12.2019
6732 Clouds 1 1004 74 10000 7 250 23:36 06.12.2019
6733 Clouds 1 1004 74 10000 7 250 23:18 06.12.2019
6734 Clouds 1 1004 74 10000 7 250 22:37 06.12.2019
6735 Clouds 2 1003 74 10000 7 250 22:19 06.12.2019
6736 Clouds 2 1003 74 10000 7 250 21:57 06.12.2019
6737 Clouds 2 1003 74 10000 7 250 21:38 06.12.2019
6738 Clouds 1 1003 74 10000 7 240 21:19 06.12.2019
6739 Clouds 1 1002 69 10000 8 240 20:42 06.12.2019
6740 Clouds 1 1002 69 10000 8 240 20:42 06.12.2019
6741 Clouds 2 1002 69 10000 8 240 20:23 06.12.2019
6742 Clouds 1 1002 69 10000 8 240 19:59 06.12.2019
6743 Clouds 2 1002 64 10000 8 240 19:40 06.12.2019
6744 Clouds 2 1002 64 10000 8 240 19:22 06.12.2019
6745 Clouds 1 1001 69 10000 8 230 18:57 06.12.2019
6746 Rain 2 1001 64 10000 8 230 18:39 06.12.2019
6747 Rain 2 1001 64 10000 8 230 18:19 06.12.2019
6748 Clouds 1 1002 69 10000 8 230 17:56 06.12.2019
6749 Clouds 1 1002 74 10000 7 220 17:37 06.12.2019
6750 Clouds 1 1001 74 10000 8 220 17:19 06.12.2019
6751 Clouds 1 1002 74 10000 8 220 16:43 06.12.2019
6752 Clouds 1 1002 74 10000 8 220 16:25 06.12.2019
6753 Clouds 1 1002 80 10000 8 210 15:59 06.12.2019
6754 Clouds 2 1002 80 10000 6 220 15:40 06.12.2019
6755 Clouds 2 1002 80 10000 6 220 15:40 06.12.2019
6756 Clouds 2 1002 80 10000 6 220 15:19 06.12.2019
6757 Clouds 2 1002 80 10000 6 210 14:57 06.12.2019
6758 Clouds 2 1003 80 10000 5 220 14:38 06.12.2019
6759 Clouds 2 1003 80 10000 5 220 14:38 06.12.2019
6760 Clouds 1 1003 80 10000 5 220 14:19 06.12.2019
6761 Clouds 2 1003 86 10000 6 220 13:43 06.12.2019
6762 Clouds 2 1003 86 10000 6 220 13:25 06.12.2019
6763 Clouds 2 1004 86 10000 7 240 12:43 06.12.2019
6764 Clouds 2 1004 86 10000 7 230 12:23 06.12.2019
6765 Clouds 2 1006 80 10000 6 240 11:58 06.12.2019
6766 Clouds 2 1005 86 10000 8 240 11:39 06.12.2019
6767 Clouds 2 1005 86 10000 8 240 11:21 06.12.2019
6768 Clouds 2 1005 86 10000 9 250 10:44 06.12.2019
6769 Clouds 2 1005 81 10000 9 250 10:22 06.12.2019
6770 Clouds 2 1005 81 10000 9 250 09:58 06.12.2019
6771 Clouds 1 1005 81 10000 9 250 09:38 06.12.2019
6772 Clouds 1 1005 81 10000 9 250 09:20 06.12.2019
6773 Clouds 2 1005 81 9000 9 250 08:55 06.12.2019
6774 Clouds 2 1005 81 9000 9 240 08:36 06.12.2019
6775 Clouds 1 1005 85 9000 9 240 08:18 06.12.2019
6776 Drizzle 1 1005 85 9000 9 240 07:37 06.12.2019
6777 Drizzle 1 1005 100 9000 8 220 07:19 06.12.2019
6778 Drizzle 1 1005 100 4900 7 240 06:30 06.12.2019
6779 Drizzle 1 1006 100 4700 7 240 05:54 06.12.2019
6780 Drizzle 1 1006 100 4700 7 240 05:54 06.12.2019
6781 Drizzle 1 1006 100 5000 7 240 05:35 06.12.2019
6782 Clouds 2 1007 93 10000 7 260 02:19 06.12.2019
6783 Drizzle 2 1006 93 10000 9 260 01:34 06.12.2019
6784 Drizzle 2 1007 93 10000 9 260 00:48 06.12.2019
6785 Drizzle 2 1007 93 10000 9 260 00:22 06.12.2019
6786 Drizzle 2 1007 93 10000 7 260 23:50 05.12.2019
6787 Clouds 2 1007 93 10000 8 260 23:20 05.12.2019
6788 Clouds 2 1007 93 10000 9 250 22:58 05.12.2019
6789 Clouds 2 1007 93 10000 8 260 22:38 05.12.2019
6790 Clouds 3 1008 93 10000 6 270 22:18 05.12.2019
6791 Clouds 2 1007 93 10000 8 260 22:18 05.12.2019
6792 Clouds 3 1008 93 10000 6 270 21:55 05.12.2019
6793 Clouds 3 1007 93 10000 8 270 21:37 05.12.2019
6794 Clouds 3 1007 93 10000 9 260 21:18 05.12.2019
6795 Clouds 3 1007 93 10000 9 260 20:54 05.12.2019
6796 Drizzle 3 1007 93 10000 9 260 20:36 05.12.2019
6797 Drizzle 3 1007 93 10000 9 260 20:18 05.12.2019
6798 Drizzle 2 1007 93 10000 8 260 19:40 05.12.2019
6799 Drizzle 2 1007 93 10000 8 260 19:21 05.12.2019
6800 Drizzle 2 1007 93 10000 10 250 18:58 05.12.2019
6801 Drizzle 2 1007 93 9000 9<